<?xml version="1.0" encoding="UTF-8" standalone="no" ?>
<gpx xmlns="http://www.topografix.com/GPX/1/1" xmlns:xsi="http://www.w3.org/2001/XMLSchema-instance" xsi:schemaLocation="http://www.topografix.com/GPX/1/1 http://www.topografix.com/GPX/1/1/gpx.xsd" version="1.1" creator="VisuGPX - https://www.visugpx.com">
  <metadata>
    <name>En Calcat Cammazes Lampy Arfons</name>
    <desc><![CDATA[Très belle balade de 40 Km avec 1000 m de Dénivelé positif. Départ d'En Calcat puis les Cammazes le Lac du Lampy et Arfons remontée sur la cabane des Chasseurs puis descente vers En Calcat via la pleine de Saint Ferreol.]]></desc>
  </metadata>
  <trk>
    <name><![CDATA[2019-12-08-08-42-53 on AllTrails]]></name>
    <trkseg>
      <trkpt lat="43.49553" lon="2.15077">
        <ele>235</ele>
        <time>2019-12-08T08:42:53Z</time>
      </trkpt>
      <trkpt lat="43.49552" lon="2.1508">
        <ele>236</ele>
        <time>2019-12-08T08:42:55Z</time>
      </trkpt>
      <trkpt lat="43.49548" lon="2.15084">
        <ele>236</ele>
        <time>2019-12-08T08:42:58Z</time>
      </trkpt>
      <trkpt lat="43.49546" lon="2.15087">
        <ele>236</ele>
        <time>2019-12-08T08:43:00Z</time>
      </trkpt>
      <trkpt lat="43.49543" lon="2.15093">
        <ele>237</ele>
        <time>2019-12-08T08:43:03Z</time>
      </trkpt>
      <trkpt lat="43.4954" lon="2.15096">
        <ele>237</ele>
        <time>2019-12-08T08:43:05Z</time>
      </trkpt>
      <trkpt lat="43.49539" lon="2.15098">
        <ele>237</ele>
        <time>2019-12-08T08:43:06Z</time>
      </trkpt>
      <trkpt lat="43.49541" lon="2.15109">
        <ele>237</ele>
        <time>2019-12-08T08:43:10Z</time>
      </trkpt>
      <trkpt lat="43.49544" lon="2.15114">
        <ele>237</ele>
        <time>2019-12-08T08:43:12Z</time>
      </trkpt>
      <trkpt lat="43.49549" lon="2.15121">
        <ele>238</ele>
        <time>2019-12-08T08:43:15Z</time>
      </trkpt>
      <trkpt lat="43.49554" lon="2.15128">
        <ele>238</ele>
        <time>2019-12-08T08:43:18Z</time>
      </trkpt>
      <trkpt lat="43.49556" lon="2.15131">
        <ele>238</ele>
        <time>2019-12-08T08:43:19Z</time>
      </trkpt>
      <trkpt lat="43.49565" lon="2.15146">
        <ele>239</ele>
        <time>2019-12-08T08:43:25Z</time>
      </trkpt>
      <trkpt lat="43.49569" lon="2.15151">
        <ele>239</ele>
        <time>2019-12-08T08:43:27Z</time>
      </trkpt>
      <trkpt lat="43.49572" lon="2.15157">
        <ele>239</ele>
        <time>2019-12-08T08:43:29Z</time>
      </trkpt>
      <trkpt lat="43.49585" lon="2.15178">
        <ele>240</ele>
        <time>2019-12-08T08:43:37Z</time>
      </trkpt>
      <trkpt lat="43.49583" lon="2.15186">
        <ele>240</ele>
        <time>2019-12-08T08:43:40Z</time>
      </trkpt>
      <trkpt lat="43.49575" lon="2.15191">
        <ele>241</ele>
        <time>2019-12-08T08:43:44Z</time>
      </trkpt>
      <trkpt lat="43.49574" lon="2.15193">
        <ele>241</ele>
        <time>2019-12-08T08:43:45Z</time>
      </trkpt>
      <trkpt lat="43.49568" lon="2.15199">
        <ele>242</ele>
        <time>2019-12-08T08:43:48Z</time>
      </trkpt>
      <trkpt lat="43.49566" lon="2.15201">
        <ele>242</ele>
        <time>2019-12-08T08:43:49Z</time>
      </trkpt>
      <trkpt lat="43.49562" lon="2.15205">
        <ele>242</ele>
        <time>2019-12-08T08:43:51Z</time>
      </trkpt>
      <trkpt lat="43.49547" lon="2.15215">
        <ele>242</ele>
        <time>2019-12-08T08:43:57Z</time>
      </trkpt>
      <trkpt lat="43.49524" lon="2.15225">
        <ele>242</ele>
        <time>2019-12-08T08:44:05Z</time>
      </trkpt>
      <trkpt lat="43.49512" lon="2.15224">
        <ele>242</ele>
        <time>2019-12-08T08:44:09Z</time>
      </trkpt>
      <trkpt lat="43.49492" lon="2.15209">
        <ele>242</ele>
        <time>2019-12-08T08:44:15Z</time>
      </trkpt>
      <trkpt lat="43.49476" lon="2.15207">
        <ele>241</ele>
        <time>2019-12-08T08:44:20Z</time>
      </trkpt>
      <trkpt lat="43.49465" lon="2.15209">
        <ele>241</ele>
        <time>2019-12-08T08:44:23Z</time>
      </trkpt>
      <trkpt lat="43.49447" lon="2.15212">
        <ele>242</ele>
        <time>2019-12-08T08:44:28Z</time>
      </trkpt>
      <trkpt lat="43.49434" lon="2.15214">
        <ele>242</ele>
        <time>2019-12-08T08:44:32Z</time>
      </trkpt>
      <trkpt lat="43.49425" lon="2.15214">
        <ele>242</ele>
        <time>2019-12-08T08:44:35Z</time>
      </trkpt>
      <trkpt lat="43.49423" lon="2.15212">
        <ele>242</ele>
        <time>2019-12-08T08:44:36Z</time>
      </trkpt>
      <trkpt lat="43.49418" lon="2.15196">
        <ele>242</ele>
        <time>2019-12-08T08:44:40Z</time>
      </trkpt>
      <trkpt lat="43.49418" lon="2.1519">
        <ele>242</ele>
        <time>2019-12-08T08:44:41Z</time>
      </trkpt>
      <trkpt lat="43.49415" lon="2.15162">
        <ele>241</ele>
        <time>2019-12-08T08:44:45Z</time>
      </trkpt>
      <trkpt lat="43.49414" lon="2.15154">
        <ele>240</ele>
        <time>2019-12-08T08:44:46Z</time>
      </trkpt>
      <trkpt lat="43.49413" lon="2.15147">
        <ele>240</ele>
        <time>2019-12-08T08:44:47Z</time>
      </trkpt>
      <trkpt lat="43.49405" lon="2.15128">
        <ele>240</ele>
        <time>2019-12-08T08:44:50Z</time>
      </trkpt>
      <trkpt lat="43.49395" lon="2.15114">
        <ele>240</ele>
        <time>2019-12-08T08:44:53Z</time>
      </trkpt>
      <trkpt lat="43.49389" lon="2.15109">
        <ele>240</ele>
        <time>2019-12-08T08:44:55Z</time>
      </trkpt>
      <trkpt lat="43.49375" lon="2.15098">
        <ele>242</ele>
        <time>2019-12-08T08:45:00Z</time>
      </trkpt>
      <trkpt lat="43.49373" lon="2.15096">
        <ele>242</ele>
        <time>2019-12-08T08:45:01Z</time>
      </trkpt>
      <trkpt lat="43.49364" lon="2.15093">
        <ele>243</ele>
        <time>2019-12-08T08:45:04Z</time>
      </trkpt>
      <trkpt lat="43.49358" lon="2.15092">
        <ele>243</ele>
        <time>2019-12-08T08:45:06Z</time>
      </trkpt>
      <trkpt lat="43.49347" lon="2.15089">
        <ele>244</ele>
        <time>2019-12-08T08:45:10Z</time>
      </trkpt>
      <trkpt lat="43.49339" lon="2.15088">
        <ele>245</ele>
        <time>2019-12-08T08:45:13Z</time>
      </trkpt>
      <trkpt lat="43.49336" lon="2.15088">
        <ele>245</ele>
        <time>2019-12-08T08:45:14Z</time>
      </trkpt>
      <trkpt lat="43.49323" lon="2.15089">
        <ele>246</ele>
        <time>2019-12-08T08:45:19Z</time>
      </trkpt>
      <trkpt lat="43.4932" lon="2.15088">
        <ele>247</ele>
        <time>2019-12-08T08:45:20Z</time>
      </trkpt>
      <trkpt lat="43.49312" lon="2.15088">
        <ele>247</ele>
        <time>2019-12-08T08:45:23Z</time>
      </trkpt>
      <trkpt lat="43.493" lon="2.15088">
        <ele>248</ele>
        <time>2019-12-08T08:45:27Z</time>
      </trkpt>
      <trkpt lat="43.49298" lon="2.15088">
        <ele>248</ele>
        <time>2019-12-08T08:45:28Z</time>
      </trkpt>
      <trkpt lat="43.49287" lon="2.15088">
        <ele>249</ele>
        <time>2019-12-08T08:45:32Z</time>
      </trkpt>
      <trkpt lat="43.4928" lon="2.15088">
        <ele>249</ele>
        <time>2019-12-08T08:45:34Z</time>
      </trkpt>
      <trkpt lat="43.49257" lon="2.15089">
        <ele>249</ele>
        <time>2019-12-08T08:45:41Z</time>
      </trkpt>
      <trkpt lat="43.49232" lon="2.15091">
        <ele>249</ele>
        <time>2019-12-08T08:45:48Z</time>
      </trkpt>
      <trkpt lat="43.49208" lon="2.1509">
        <ele>249</ele>
        <time>2019-12-08T08:45:54Z</time>
      </trkpt>
      <trkpt lat="43.49204" lon="2.1509">
        <ele>249</ele>
        <time>2019-12-08T08:45:55Z</time>
      </trkpt>
      <trkpt lat="43.49179" lon="2.15093">
        <ele>249</ele>
        <time>2019-12-08T08:46:01Z</time>
      </trkpt>
      <trkpt lat="43.49149" lon="2.15101">
        <ele>250</ele>
        <time>2019-12-08T08:46:09Z</time>
      </trkpt>
      <trkpt lat="43.49146" lon="2.15102">
        <ele>250</ele>
        <time>2019-12-08T08:46:10Z</time>
      </trkpt>
      <trkpt lat="43.49134" lon="2.15106">
        <ele>250</ele>
        <time>2019-12-08T08:46:13Z</time>
      </trkpt>
      <trkpt lat="43.49123" lon="2.1511">
        <ele>250</ele>
        <time>2019-12-08T08:46:16Z</time>
      </trkpt>
      <trkpt lat="43.49115" lon="2.15112">
        <ele>250</ele>
        <time>2019-12-08T08:46:18Z</time>
      </trkpt>
      <trkpt lat="43.49103" lon="2.15116">
        <ele>250</ele>
        <time>2019-12-08T08:46:21Z</time>
      </trkpt>
      <trkpt lat="43.49091" lon="2.15119">
        <ele>250</ele>
        <time>2019-12-08T08:46:24Z</time>
      </trkpt>
      <trkpt lat="43.49058" lon="2.15129">
        <ele>250</ele>
        <time>2019-12-08T08:46:32Z</time>
      </trkpt>
      <trkpt lat="43.49039" lon="2.15122">
        <ele>250</ele>
        <time>2019-12-08T08:46:37Z</time>
      </trkpt>
      <trkpt lat="43.49032" lon="2.15112">
        <ele>251</ele>
        <time>2019-12-08T08:46:40Z</time>
      </trkpt>
      <trkpt lat="43.49027" lon="2.15104">
        <ele>251</ele>
        <time>2019-12-08T08:46:42Z</time>
      </trkpt>
      <trkpt lat="43.49008" lon="2.15067">
        <ele>252</ele>
        <time>2019-12-08T08:46:51Z</time>
      </trkpt>
      <trkpt lat="43.49001" lon="2.15053">
        <ele>252</ele>
        <time>2019-12-08T08:46:55Z</time>
      </trkpt>
      <trkpt lat="43.48999" lon="2.1505">
        <ele>252</ele>
        <time>2019-12-08T08:46:56Z</time>
      </trkpt>
      <trkpt lat="43.48989" lon="2.15028">
        <ele>253</ele>
        <time>2019-12-08T08:47:02Z</time>
      </trkpt>
      <trkpt lat="43.48984" lon="2.15017">
        <ele>253</ele>
        <time>2019-12-08T08:47:05Z</time>
      </trkpt>
      <trkpt lat="43.4898" lon="2.15009">
        <ele>253</ele>
        <time>2019-12-08T08:47:07Z</time>
      </trkpt>
      <trkpt lat="43.48973" lon="2.14991">
        <ele>254</ele>
        <time>2019-12-08T08:47:11Z</time>
      </trkpt>
      <trkpt lat="43.48969" lon="2.14982">
        <ele>254</ele>
        <time>2019-12-08T08:47:13Z</time>
      </trkpt>
      <trkpt lat="43.48954" lon="2.14946">
        <ele>255</ele>
        <time>2019-12-08T08:47:21Z</time>
      </trkpt>
      <trkpt lat="43.48944" lon="2.14923">
        <ele>255</ele>
        <time>2019-12-08T08:47:26Z</time>
      </trkpt>
      <trkpt lat="43.48942" lon="2.14919">
        <ele>255</ele>
        <time>2019-12-08T08:47:27Z</time>
      </trkpt>
      <trkpt lat="43.48931" lon="2.14894">
        <ele>256</ele>
        <time>2019-12-08T08:47:33Z</time>
      </trkpt>
      <trkpt lat="43.48926" lon="2.14882">
        <ele>256</ele>
        <time>2019-12-08T08:47:36Z</time>
      </trkpt>
      <trkpt lat="43.4892" lon="2.14866">
        <ele>256</ele>
        <time>2019-12-08T08:47:39Z</time>
      </trkpt>
      <trkpt lat="43.48906" lon="2.14827">
        <ele>255</ele>
        <time>2019-12-08T08:47:45Z</time>
      </trkpt>
      <trkpt lat="43.48896" lon="2.14799">
        <ele>254</ele>
        <time>2019-12-08T08:47:49Z</time>
      </trkpt>
      <trkpt lat="43.48884" lon="2.14774">
        <ele>254</ele>
        <time>2019-12-08T08:47:53Z</time>
      </trkpt>
      <trkpt lat="43.48866" lon="2.14749">
        <ele>253</ele>
        <time>2019-12-08T08:47:58Z</time>
      </trkpt>
      <trkpt lat="43.48861" lon="2.14746">
        <ele>253</ele>
        <time>2019-12-08T08:47:59Z</time>
      </trkpt>
      <trkpt lat="43.48834" lon="2.14728">
        <ele>255</ele>
        <time>2019-12-08T08:48:06Z</time>
      </trkpt>
      <trkpt lat="43.48831" lon="2.14725">
        <ele>255</ele>
        <time>2019-12-08T08:48:07Z</time>
      </trkpt>
      <trkpt lat="43.48814" lon="2.14703">
        <ele>255</ele>
        <time>2019-12-08T08:48:12Z</time>
      </trkpt>
      <trkpt lat="43.48796" lon="2.14683">
        <ele>254</ele>
        <time>2019-12-08T08:48:16Z</time>
      </trkpt>
      <trkpt lat="43.48786" lon="2.14674">
        <ele>253</ele>
        <time>2019-12-08T08:48:18Z</time>
      </trkpt>
      <trkpt lat="43.48758" lon="2.14646">
        <ele>253</ele>
        <time>2019-12-08T08:48:25Z</time>
      </trkpt>
      <trkpt lat="43.48737" lon="2.14623">
        <ele>254</ele>
        <time>2019-12-08T08:48:31Z</time>
      </trkpt>
      <trkpt lat="43.48709" lon="2.14594">
        <ele>255</ele>
        <time>2019-12-08T08:48:39Z</time>
      </trkpt>
      <trkpt lat="43.48672" lon="2.14562">
        <ele>255</ele>
        <time>2019-12-08T08:48:49Z</time>
      </trkpt>
      <trkpt lat="43.48668" lon="2.14558">
        <ele>255</ele>
        <time>2019-12-08T08:48:50Z</time>
      </trkpt>
      <trkpt lat="43.48654" lon="2.14546">
        <ele>256</ele>
        <time>2019-12-08T08:48:54Z</time>
      </trkpt>
      <trkpt lat="43.48646" lon="2.1454">
        <ele>256</ele>
        <time>2019-12-08T08:48:56Z</time>
      </trkpt>
      <trkpt lat="43.48643" lon="2.14537">
        <ele>256</ele>
        <time>2019-12-08T08:48:57Z</time>
      </trkpt>
      <trkpt lat="43.48625" lon="2.14521">
        <ele>256</ele>
        <time>2019-12-08T08:49:02Z</time>
      </trkpt>
      <trkpt lat="43.48619" lon="2.14515">
        <ele>256</ele>
        <time>2019-12-08T08:49:04Z</time>
      </trkpt>
      <trkpt lat="43.48609" lon="2.14507">
        <ele>256</ele>
        <time>2019-12-08T08:49:07Z</time>
      </trkpt>
      <trkpt lat="43.48601" lon="2.14503">
        <ele>256</ele>
        <time>2019-12-08T08:49:09Z</time>
      </trkpt>
      <trkpt lat="43.48597" lon="2.145">
        <ele>256</ele>
        <time>2019-12-08T08:49:10Z</time>
      </trkpt>
      <trkpt lat="43.48585" lon="2.14491">
        <ele>257</ele>
        <time>2019-12-08T08:49:13Z</time>
      </trkpt>
      <trkpt lat="43.48581" lon="2.14489">
        <ele>257</ele>
        <time>2019-12-08T08:49:14Z</time>
      </trkpt>
      <trkpt lat="43.4855" lon="2.14474">
        <ele>256</ele>
        <time>2019-12-08T08:49:21Z</time>
      </trkpt>
      <trkpt lat="43.48534" lon="2.14466">
        <ele>257</ele>
        <time>2019-12-08T08:49:25Z</time>
      </trkpt>
      <trkpt lat="43.48519" lon="2.14459">
        <ele>257</ele>
        <time>2019-12-08T08:49:29Z</time>
      </trkpt>
      <trkpt lat="43.48499" lon="2.14449">
        <ele>258</ele>
        <time>2019-12-08T08:49:35Z</time>
      </trkpt>
      <trkpt lat="43.48494" lon="2.14444">
        <ele>259</ele>
        <time>2019-12-08T08:49:37Z</time>
      </trkpt>
      <trkpt lat="43.4849" lon="2.14435">
        <ele>259</ele>
        <time>2019-12-08T08:49:39Z</time>
      </trkpt>
      <trkpt lat="43.48474" lon="2.14396">
        <ele>258</ele>
        <time>2019-12-08T08:49:46Z</time>
      </trkpt>
      <trkpt lat="43.48468" lon="2.14379">
        <ele>257</ele>
        <time>2019-12-08T08:49:49Z</time>
      </trkpt>
      <trkpt lat="43.48454" lon="2.14349">
        <ele>257</ele>
        <time>2019-12-08T08:49:55Z</time>
      </trkpt>
      <trkpt lat="43.48432" lon="2.14316">
        <ele>258</ele>
        <time>2019-12-08T08:50:03Z</time>
      </trkpt>
      <trkpt lat="43.48424" lon="2.14301">
        <ele>257</ele>
        <time>2019-12-08T08:50:06Z</time>
      </trkpt>
      <trkpt lat="43.4842" lon="2.14292">
        <ele>257</ele>
        <time>2019-12-08T08:50:08Z</time>
      </trkpt>
      <trkpt lat="43.48412" lon="2.14274">
        <ele>258</ele>
        <time>2019-12-08T08:50:12Z</time>
      </trkpt>
      <trkpt lat="43.48408" lon="2.14264">
        <ele>258</ele>
        <time>2019-12-08T08:50:14Z</time>
      </trkpt>
      <trkpt lat="43.48398" lon="2.14242">
        <ele>258</ele>
        <time>2019-12-08T08:50:19Z</time>
      </trkpt>
      <trkpt lat="43.48391" lon="2.14218">
        <ele>258</ele>
        <time>2019-12-08T08:50:24Z</time>
      </trkpt>
      <trkpt lat="43.48387" lon="2.14206">
        <ele>258</ele>
        <time>2019-12-08T08:50:27Z</time>
      </trkpt>
      <trkpt lat="43.48383" lon="2.14195">
        <ele>258</ele>
        <time>2019-12-08T08:50:30Z</time>
      </trkpt>
      <trkpt lat="43.48377" lon="2.14184">
        <ele>258</ele>
        <time>2019-12-08T08:50:33Z</time>
      </trkpt>
      <trkpt lat="43.48374" lon="2.14181">
        <ele>259</ele>
        <time>2019-12-08T08:50:34Z</time>
      </trkpt>
      <trkpt lat="43.4837" lon="2.14181">
        <ele>259</ele>
        <time>2019-12-08T08:50:35Z</time>
      </trkpt>
      <trkpt lat="43.48364" lon="2.14184">
        <ele>259</ele>
        <time>2019-12-08T08:50:37Z</time>
      </trkpt>
      <trkpt lat="43.48359" lon="2.1419">
        <ele>259</ele>
        <time>2019-12-08T08:50:39Z</time>
      </trkpt>
      <trkpt lat="43.48356" lon="2.14193">
        <ele>260</ele>
        <time>2019-12-08T08:50:40Z</time>
      </trkpt>
      <trkpt lat="43.48348" lon="2.14202">
        <ele>260</ele>
        <time>2019-12-08T08:50:43Z</time>
      </trkpt>
      <trkpt lat="43.48346" lon="2.14205">
        <ele>260</ele>
        <time>2019-12-08T08:50:44Z</time>
      </trkpt>
      <trkpt lat="43.48333" lon="2.14221">
        <ele>261</ele>
        <time>2019-12-08T08:50:49Z</time>
      </trkpt>
      <trkpt lat="43.48327" lon="2.14231">
        <ele>261</ele>
        <time>2019-12-08T08:50:52Z</time>
      </trkpt>
      <trkpt lat="43.48313" lon="2.1425">
        <ele>261</ele>
        <time>2019-12-08T08:50:59Z</time>
      </trkpt>
      <trkpt lat="43.48302" lon="2.14267">
        <ele>262</ele>
        <time>2019-12-08T08:51:05Z</time>
      </trkpt>
      <trkpt lat="43.48291" lon="2.14283">
        <ele>262</ele>
        <time>2019-12-08T08:51:11Z</time>
      </trkpt>
      <trkpt lat="43.48287" lon="2.14288">
        <ele>263</ele>
        <time>2019-12-08T08:51:13Z</time>
      </trkpt>
      <trkpt lat="43.48285" lon="2.14289">
        <ele>263</ele>
        <time>2019-12-08T08:51:14Z</time>
      </trkpt>
      <trkpt lat="43.48282" lon="2.14289">
        <ele>263</ele>
        <time>2019-12-08T08:51:15Z</time>
      </trkpt>
      <trkpt lat="43.48274" lon="2.14281">
        <ele>263</ele>
        <time>2019-12-08T08:51:18Z</time>
      </trkpt>
      <trkpt lat="43.48272" lon="2.14278">
        <ele>263</ele>
        <time>2019-12-08T08:51:19Z</time>
      </trkpt>
      <trkpt lat="43.48263" lon="2.14265">
        <ele>264</ele>
        <time>2019-12-08T08:51:23Z</time>
      </trkpt>
      <trkpt lat="43.48259" lon="2.14259">
        <ele>264</ele>
        <time>2019-12-08T08:51:25Z</time>
      </trkpt>
      <trkpt lat="43.48248" lon="2.14239">
        <ele>265</ele>
        <time>2019-12-08T08:51:31Z</time>
      </trkpt>
      <trkpt lat="43.48242" lon="2.14221">
        <ele>266</ele>
        <time>2019-12-08T08:51:36Z</time>
      </trkpt>
      <trkpt lat="43.48239" lon="2.14212">
        <ele>266</ele>
        <time>2019-12-08T08:51:39Z</time>
      </trkpt>
      <trkpt lat="43.48237" lon="2.14203">
        <ele>267</ele>
        <time>2019-12-08T08:51:42Z</time>
      </trkpt>
      <trkpt lat="43.48235" lon="2.14197">
        <ele>268</ele>
        <time>2019-12-08T08:51:44Z</time>
      </trkpt>
      <trkpt lat="43.48235" lon="2.1419">
        <ele>268</ele>
        <time>2019-12-08T08:51:46Z</time>
      </trkpt>
      <trkpt lat="43.48236" lon="2.14181">
        <ele>269</ele>
        <time>2019-12-08T08:51:49Z</time>
      </trkpt>
      <trkpt lat="43.48237" lon="2.14178">
        <ele>269</ele>
        <time>2019-12-08T08:51:50Z</time>
      </trkpt>
      <trkpt lat="43.4824" lon="2.14165">
        <ele>270</ele>
        <time>2019-12-08T08:51:54Z</time>
      </trkpt>
      <trkpt lat="43.48241" lon="2.14162">
        <ele>271</ele>
        <time>2019-12-08T08:51:55Z</time>
      </trkpt>
      <trkpt lat="43.48244" lon="2.14148">
        <ele>272</ele>
        <time>2019-12-08T08:51:59Z</time>
      </trkpt>
      <trkpt lat="43.48247" lon="2.14135">
        <ele>272</ele>
        <time>2019-12-08T08:52:03Z</time>
      </trkpt>
      <trkpt lat="43.48248" lon="2.14129">
        <ele>273</ele>
        <time>2019-12-08T08:52:05Z</time>
      </trkpt>
      <trkpt lat="43.48249" lon="2.14121">
        <ele>274</ele>
        <time>2019-12-08T08:52:08Z</time>
      </trkpt>
      <trkpt lat="43.4825" lon="2.14119">
        <ele>275</ele>
        <time>2019-12-08T08:52:09Z</time>
      </trkpt>
      <trkpt lat="43.48251" lon="2.14113">
        <ele>275</ele>
        <time>2019-12-08T08:52:11Z</time>
      </trkpt>
      <trkpt lat="43.48249" lon="2.14111">
        <ele>276</ele>
        <time>2019-12-08T08:52:13Z</time>
      </trkpt>
      <trkpt lat="43.48246" lon="2.1411">
        <ele>276</ele>
        <time>2019-12-08T08:52:15Z</time>
      </trkpt>
      <trkpt lat="43.48244" lon="2.14111">
        <ele>276</ele>
        <time>2019-12-08T08:52:16Z</time>
      </trkpt>
      <trkpt lat="43.48243" lon="2.14113">
        <ele>277</ele>
        <time>2019-12-08T08:52:17Z</time>
      </trkpt>
      <trkpt lat="43.4824" lon="2.14117">
        <ele>277</ele>
        <time>2019-12-08T08:52:19Z</time>
      </trkpt>
      <trkpt lat="43.48234" lon="2.14122">
        <ele>277</ele>
        <time>2019-12-08T08:52:22Z</time>
      </trkpt>
      <trkpt lat="43.48224" lon="2.14135">
        <ele>276</ele>
        <time>2019-12-08T08:52:27Z</time>
      </trkpt>
      <trkpt lat="43.4822" lon="2.14141">
        <ele>276</ele>
        <time>2019-12-08T08:52:29Z</time>
      </trkpt>
      <trkpt lat="43.48209" lon="2.14156">
        <ele>277</ele>
        <time>2019-12-08T08:52:35Z</time>
      </trkpt>
      <trkpt lat="43.48207" lon="2.14159">
        <ele>277</ele>
        <time>2019-12-08T08:52:36Z</time>
      </trkpt>
      <trkpt lat="43.48206" lon="2.14162">
        <ele>277</ele>
        <time>2019-12-08T08:52:37Z</time>
      </trkpt>
      <trkpt lat="43.482" lon="2.1418">
        <ele>277</ele>
        <time>2019-12-08T08:52:42Z</time>
      </trkpt>
      <trkpt lat="43.48193" lon="2.14201">
        <ele>277</ele>
        <time>2019-12-08T08:52:48Z</time>
      </trkpt>
      <trkpt lat="43.48185" lon="2.14221">
        <ele>278</ele>
        <time>2019-12-08T08:52:54Z</time>
      </trkpt>
      <trkpt lat="43.48177" lon="2.14244">
        <ele>278</ele>
        <time>2019-12-08T08:53:00Z</time>
      </trkpt>
      <trkpt lat="43.48172" lon="2.14259">
        <ele>278</ele>
        <time>2019-12-08T08:53:04Z</time>
      </trkpt>
      <trkpt lat="43.48167" lon="2.14275">
        <ele>278</ele>
        <time>2019-12-08T08:53:08Z</time>
      </trkpt>
      <trkpt lat="43.48166" lon="2.14279">
        <ele>278</ele>
        <time>2019-12-08T08:53:09Z</time>
      </trkpt>
      <trkpt lat="43.48163" lon="2.14288">
        <ele>278</ele>
        <time>2019-12-08T08:53:11Z</time>
      </trkpt>
      <trkpt lat="43.48159" lon="2.14302">
        <ele>279</ele>
        <time>2019-12-08T08:53:14Z</time>
      </trkpt>
      <trkpt lat="43.48154" lon="2.1432">
        <ele>279</ele>
        <time>2019-12-08T08:53:18Z</time>
      </trkpt>
      <trkpt lat="43.48146" lon="2.14338">
        <ele>279</ele>
        <time>2019-12-08T08:53:22Z</time>
      </trkpt>
      <trkpt lat="43.48145" lon="2.14343">
        <ele>279</ele>
        <time>2019-12-08T08:53:23Z</time>
      </trkpt>
      <trkpt lat="43.48133" lon="2.14368">
        <ele>280</ele>
        <time>2019-12-08T08:53:29Z</time>
      </trkpt>
      <trkpt lat="43.48125" lon="2.14383">
        <ele>280</ele>
        <time>2019-12-08T08:53:33Z</time>
      </trkpt>
      <trkpt lat="43.48123" lon="2.14387">
        <ele>280</ele>
        <time>2019-12-08T08:53:34Z</time>
      </trkpt>
      <trkpt lat="43.48109" lon="2.1441">
        <ele>280</ele>
        <time>2019-12-08T08:53:40Z</time>
      </trkpt>
      <trkpt lat="43.48094" lon="2.14429">
        <ele>280</ele>
        <time>2019-12-08T08:53:45Z</time>
      </trkpt>
      <trkpt lat="43.48085" lon="2.14442">
        <ele>281</ele>
        <time>2019-12-08T08:53:48Z</time>
      </trkpt>
      <trkpt lat="43.48076" lon="2.14454">
        <ele>281</ele>
        <time>2019-12-08T08:53:51Z</time>
      </trkpt>
      <trkpt lat="43.48061" lon="2.14475">
        <ele>282</ele>
        <time>2019-12-08T08:53:57Z</time>
      </trkpt>
      <trkpt lat="43.4805" lon="2.14492">
        <ele>282</ele>
        <time>2019-12-08T08:54:02Z</time>
      </trkpt>
      <trkpt lat="43.48037" lon="2.14508">
        <ele>282</ele>
        <time>2019-12-08T08:54:07Z</time>
      </trkpt>
      <trkpt lat="43.48032" lon="2.14514">
        <ele>283</ele>
        <time>2019-12-08T08:54:09Z</time>
      </trkpt>
      <trkpt lat="43.48022" lon="2.14529">
        <ele>283</ele>
        <time>2019-12-08T08:54:13Z</time>
      </trkpt>
      <trkpt lat="43.48014" lon="2.1454">
        <ele>284</ele>
        <time>2019-12-08T08:54:16Z</time>
      </trkpt>
      <trkpt lat="43.48011" lon="2.14543">
        <ele>284</ele>
        <time>2019-12-08T08:54:17Z</time>
      </trkpt>
      <trkpt lat="43.47995" lon="2.14563">
        <ele>284</ele>
        <time>2019-12-08T08:54:23Z</time>
      </trkpt>
      <trkpt lat="43.47984" lon="2.14581">
        <ele>284</ele>
        <time>2019-12-08T08:54:28Z</time>
      </trkpt>
      <trkpt lat="43.47982" lon="2.14584">
        <ele>285</ele>
        <time>2019-12-08T08:54:29Z</time>
      </trkpt>
      <trkpt lat="43.4797" lon="2.14601">
        <ele>285</ele>
        <time>2019-12-08T08:54:34Z</time>
      </trkpt>
      <trkpt lat="43.47956" lon="2.14622">
        <ele>285</ele>
        <time>2019-12-08T08:54:40Z</time>
      </trkpt>
      <trkpt lat="43.47954" lon="2.14626">
        <ele>285</ele>
        <time>2019-12-08T08:54:41Z</time>
      </trkpt>
      <trkpt lat="43.47946" lon="2.14636">
        <ele>286</ele>
        <time>2019-12-08T08:54:44Z</time>
      </trkpt>
      <trkpt lat="43.47932" lon="2.14654">
        <ele>286</ele>
        <time>2019-12-08T08:54:49Z</time>
      </trkpt>
      <trkpt lat="43.47928" lon="2.14657">
        <ele>286</ele>
        <time>2019-12-08T08:54:50Z</time>
      </trkpt>
      <trkpt lat="43.47914" lon="2.14676">
        <ele>287</ele>
        <time>2019-12-08T08:54:55Z</time>
      </trkpt>
      <trkpt lat="43.47904" lon="2.14689">
        <ele>288</ele>
        <time>2019-12-08T08:54:59Z</time>
      </trkpt>
      <trkpt lat="43.47898" lon="2.14694">
        <ele>288</ele>
        <time>2019-12-08T08:55:01Z</time>
      </trkpt>
      <trkpt lat="43.47885" lon="2.14702">
        <ele>288</ele>
        <time>2019-12-08T08:55:05Z</time>
      </trkpt>
      <trkpt lat="43.47882" lon="2.14703">
        <ele>289</ele>
        <time>2019-12-08T08:55:06Z</time>
      </trkpt>
      <trkpt lat="43.4785" lon="2.14712">
        <ele>289</ele>
        <time>2019-12-08T08:55:15Z</time>
      </trkpt>
      <trkpt lat="43.47839" lon="2.14714">
        <ele>290</ele>
        <time>2019-12-08T08:55:18Z</time>
      </trkpt>
      <trkpt lat="43.47825" lon="2.14717">
        <ele>290</ele>
        <time>2019-12-08T08:55:22Z</time>
      </trkpt>
      <trkpt lat="43.47809" lon="2.14723">
        <ele>291</ele>
        <time>2019-12-08T08:55:27Z</time>
      </trkpt>
      <trkpt lat="43.47806" lon="2.14724">
        <ele>291</ele>
        <time>2019-12-08T08:55:28Z</time>
      </trkpt>
      <trkpt lat="43.4779" lon="2.14731">
        <ele>291</ele>
        <time>2019-12-08T08:55:33Z</time>
      </trkpt>
      <trkpt lat="43.47784" lon="2.14732">
        <ele>291</ele>
        <time>2019-12-08T08:55:35Z</time>
      </trkpt>
      <trkpt lat="43.47774" lon="2.14734">
        <ele>292</ele>
        <time>2019-12-08T08:55:38Z</time>
      </trkpt>
      <trkpt lat="43.4776" lon="2.14737">
        <ele>292</ele>
        <time>2019-12-08T08:55:43Z</time>
      </trkpt>
      <trkpt lat="43.47752" lon="2.14739">
        <ele>293</ele>
        <time>2019-12-08T08:55:46Z</time>
      </trkpt>
      <trkpt lat="43.47742" lon="2.14741">
        <ele>294</ele>
        <time>2019-12-08T08:55:50Z</time>
      </trkpt>
      <trkpt lat="43.47738" lon="2.14741">
        <ele>295</ele>
        <time>2019-12-08T08:55:52Z</time>
      </trkpt>
      <trkpt lat="43.47733" lon="2.14743">
        <ele>295</ele>
        <time>2019-12-08T08:55:54Z</time>
      </trkpt>
      <trkpt lat="43.47725" lon="2.14745">
        <ele>296</ele>
        <time>2019-12-08T08:55:58Z</time>
      </trkpt>
      <trkpt lat="43.47721" lon="2.14746">
        <ele>296</ele>
        <time>2019-12-08T08:56:00Z</time>
      </trkpt>
      <trkpt lat="43.47719" lon="2.14746">
        <ele>297</ele>
        <time>2019-12-08T08:56:01Z</time>
      </trkpt>
      <trkpt lat="43.47712" lon="2.14748">
        <ele>298</ele>
        <time>2019-12-08T08:56:05Z</time>
      </trkpt>
      <trkpt lat="43.4771" lon="2.14748">
        <ele>298</ele>
        <time>2019-12-08T08:56:06Z</time>
      </trkpt>
      <trkpt lat="43.47704" lon="2.14747">
        <ele>299</ele>
        <time>2019-12-08T08:56:10Z</time>
      </trkpt>
      <trkpt lat="43.47701" lon="2.14746">
        <ele>299</ele>
        <time>2019-12-08T08:56:12Z</time>
      </trkpt>
      <trkpt lat="43.47695" lon="2.14744">
        <ele>300</ele>
        <time>2019-12-08T08:56:15Z</time>
      </trkpt>
      <trkpt lat="43.47691" lon="2.14742">
        <ele>300</ele>
        <time>2019-12-08T08:56:17Z</time>
      </trkpt>
      <trkpt lat="43.47682" lon="2.14739">
        <ele>301</ele>
        <time>2019-12-08T08:56:21Z</time>
      </trkpt>
      <trkpt lat="43.47678" lon="2.14738">
        <ele>301</ele>
        <time>2019-12-08T08:56:23Z</time>
      </trkpt>
      <trkpt lat="43.47675" lon="2.14737">
        <ele>302</ele>
        <time>2019-12-08T08:56:24Z</time>
      </trkpt>
      <trkpt lat="43.47672" lon="2.14736">
        <ele>302</ele>
        <time>2019-12-08T08:56:26Z</time>
      </trkpt>
      <trkpt lat="43.47667" lon="2.14733">
        <ele>303</ele>
        <time>2019-12-08T08:56:29Z</time>
      </trkpt>
      <trkpt lat="43.47662" lon="2.14731">
        <ele>303</ele>
        <time>2019-12-08T08:56:31Z</time>
      </trkpt>
      <trkpt lat="43.47654" lon="2.14725">
        <ele>304</ele>
        <time>2019-12-08T08:56:35Z</time>
      </trkpt>
      <trkpt lat="43.47652" lon="2.14723">
        <ele>304</ele>
        <time>2019-12-08T08:56:36Z</time>
      </trkpt>
      <trkpt lat="43.47645" lon="2.14716">
        <ele>305</ele>
        <time>2019-12-08T08:56:40Z</time>
      </trkpt>
      <trkpt lat="43.47644" lon="2.14712">
        <ele>305</ele>
        <time>2019-12-08T08:56:42Z</time>
      </trkpt>
      <trkpt lat="43.4764" lon="2.14704">
        <ele>306</ele>
        <time>2019-12-08T08:56:46Z</time>
      </trkpt>
      <trkpt lat="43.4764" lon="2.14702">
        <ele>306</ele>
        <time>2019-12-08T08:56:47Z</time>
      </trkpt>
      <trkpt lat="43.47638" lon="2.14698">
        <ele>307</ele>
        <time>2019-12-08T08:56:49Z</time>
      </trkpt>
      <trkpt lat="43.47637" lon="2.14689">
        <ele>307</ele>
        <time>2019-12-08T08:56:52Z</time>
      </trkpt>
      <trkpt lat="43.47637" lon="2.14686">
        <ele>307</ele>
        <time>2019-12-08T08:56:53Z</time>
      </trkpt>
      <trkpt lat="43.4764" lon="2.14676">
        <ele>308</ele>
        <time>2019-12-08T08:56:57Z</time>
      </trkpt>
      <trkpt lat="43.47641" lon="2.14675">
        <ele>308</ele>
        <time>2019-12-08T08:56:58Z</time>
      </trkpt>
      <trkpt lat="43.47644" lon="2.14667">
        <ele>309</ele>
        <time>2019-12-08T08:57:02Z</time>
      </trkpt>
      <trkpt lat="43.47644" lon="2.14665">
        <ele>309</ele>
        <time>2019-12-08T08:57:03Z</time>
      </trkpt>
      <trkpt lat="43.47637" lon="2.14659">
        <ele>310</ele>
        <time>2019-12-08T08:57:06Z</time>
      </trkpt>
      <trkpt lat="43.47634" lon="2.14657">
        <ele>310</ele>
        <time>2019-12-08T08:57:07Z</time>
      </trkpt>
      <trkpt lat="43.47632" lon="2.14655">
        <ele>310</ele>
        <time>2019-12-08T08:57:08Z</time>
      </trkpt>
      <trkpt lat="43.47624" lon="2.14652">
        <ele>312</ele>
        <time>2019-12-08T08:57:11Z</time>
      </trkpt>
      <trkpt lat="43.4762" lon="2.14651">
        <ele>312</ele>
        <time>2019-12-08T08:57:13Z</time>
      </trkpt>
      <trkpt lat="43.47613" lon="2.1465">
        <ele>313</ele>
        <time>2019-12-08T08:57:16Z</time>
      </trkpt>
      <trkpt lat="43.47607" lon="2.14649">
        <ele>313</ele>
        <time>2019-12-08T08:57:19Z</time>
      </trkpt>
      <trkpt lat="43.47602" lon="2.14649">
        <ele>314</ele>
        <time>2019-12-08T08:57:21Z</time>
      </trkpt>
      <trkpt lat="43.47593" lon="2.14648">
        <ele>315</ele>
        <time>2019-12-08T08:57:25Z</time>
      </trkpt>
      <trkpt lat="43.47583" lon="2.14647">
        <ele>316</ele>
        <time>2019-12-08T08:57:30Z</time>
      </trkpt>
      <trkpt lat="43.47577" lon="2.14647">
        <ele>317</ele>
        <time>2019-12-08T08:57:33Z</time>
      </trkpt>
      <trkpt lat="43.47576" lon="2.14647">
        <ele>318</ele>
        <time>2019-12-08T08:57:34Z</time>
      </trkpt>
      <trkpt lat="43.47568" lon="2.14648">
        <ele>319</ele>
        <time>2019-12-08T08:57:39Z</time>
      </trkpt>
      <trkpt lat="43.47566" lon="2.14649">
        <ele>319</ele>
        <time>2019-12-08T08:57:40Z</time>
      </trkpt>
      <trkpt lat="43.47559" lon="2.14646">
        <ele>320</ele>
        <time>2019-12-08T08:57:45Z</time>
      </trkpt>
      <trkpt lat="43.47558" lon="2.14645">
        <ele>320</ele>
        <time>2019-12-08T08:57:46Z</time>
      </trkpt>
      <trkpt lat="43.47551" lon="2.14643">
        <ele>321</ele>
        <time>2019-12-08T08:57:50Z</time>
      </trkpt>
      <trkpt lat="43.47549" lon="2.14643">
        <ele>321</ele>
        <time>2019-12-08T08:57:51Z</time>
      </trkpt>
      <trkpt lat="43.47547" lon="2.14643">
        <ele>321</ele>
        <time>2019-12-08T08:57:52Z</time>
      </trkpt>
      <trkpt lat="43.47544" lon="2.14643">
        <ele>322</ele>
        <time>2019-12-08T08:57:54Z</time>
      </trkpt>
      <trkpt lat="43.47541" lon="2.14643">
        <ele>322</ele>
        <time>2019-12-08T08:57:56Z</time>
      </trkpt>
      <trkpt lat="43.47539" lon="2.14643">
        <ele>322</ele>
        <time>2019-12-08T08:57:57Z</time>
      </trkpt>
      <trkpt lat="43.4753" lon="2.14642">
        <ele>323</ele>
        <time>2019-12-08T08:58:02Z</time>
      </trkpt>
      <trkpt lat="43.47529" lon="2.14642">
        <ele>323</ele>
        <time>2019-12-08T08:58:03Z</time>
      </trkpt>
      <trkpt lat="43.47521" lon="2.14641">
        <ele>324</ele>
        <time>2019-12-08T08:58:08Z</time>
      </trkpt>
      <trkpt lat="43.4752" lon="2.14641">
        <ele>324</ele>
        <time>2019-12-08T08:58:09Z</time>
      </trkpt>
      <trkpt lat="43.47515" lon="2.14641">
        <ele>325</ele>
        <time>2019-12-08T08:58:13Z</time>
      </trkpt>
      <trkpt lat="43.47511" lon="2.1464">
        <ele>326</ele>
        <time>2019-12-08T08:58:16Z</time>
      </trkpt>
      <trkpt lat="43.47505" lon="2.14638">
        <ele>327</ele>
        <time>2019-12-08T08:58:20Z</time>
      </trkpt>
      <trkpt lat="43.47503" lon="2.14637">
        <ele>327</ele>
        <time>2019-12-08T08:58:21Z</time>
      </trkpt>
      <trkpt lat="43.47497" lon="2.14634">
        <ele>328</ele>
        <time>2019-12-08T08:58:25Z</time>
      </trkpt>
      <trkpt lat="43.47493" lon="2.14632">
        <ele>328</ele>
        <time>2019-12-08T08:58:27Z</time>
      </trkpt>
      <trkpt lat="43.47491" lon="2.14632">
        <ele>329</ele>
        <time>2019-12-08T08:58:28Z</time>
      </trkpt>
      <trkpt lat="43.47485" lon="2.14631">
        <ele>330</ele>
        <time>2019-12-08T08:58:32Z</time>
      </trkpt>
      <trkpt lat="43.47483" lon="2.14632">
        <ele>330</ele>
        <time>2019-12-08T08:58:33Z</time>
      </trkpt>
      <trkpt lat="43.47485" lon="2.14639">
        <ele>331</ele>
        <time>2019-12-08T08:58:37Z</time>
      </trkpt>
      <trkpt lat="43.4749" lon="2.14645">
        <ele>332</ele>
        <time>2019-12-08T08:58:43Z</time>
      </trkpt>
      <trkpt lat="43.47493" lon="2.14646">
        <ele>333</ele>
        <time>2019-12-08T08:58:45Z</time>
      </trkpt>
      <trkpt lat="43.47496" lon="2.14647">
        <ele>333</ele>
        <time>2019-12-08T08:58:48Z</time>
      </trkpt>
      <trkpt lat="43.47498" lon="2.14647">
        <ele>333</ele>
        <time>2019-12-08T08:58:49Z</time>
      </trkpt>
      <trkpt lat="43.475" lon="2.14648">
        <ele>334</ele>
        <time>2019-12-08T08:58:51Z</time>
      </trkpt>
      <trkpt lat="43.47504" lon="2.14652">
        <ele>334</ele>
        <time>2019-12-08T08:58:54Z</time>
      </trkpt>
      <trkpt lat="43.47512" lon="2.14655">
        <ele>335</ele>
        <time>2019-12-08T08:58:58Z</time>
      </trkpt>
      <trkpt lat="43.47517" lon="2.14658">
        <ele>335</ele>
        <time>2019-12-08T08:59:01Z</time>
      </trkpt>
      <trkpt lat="43.47522" lon="2.14659">
        <ele>336</ele>
        <time>2019-12-08T08:59:04Z</time>
      </trkpt>
      <trkpt lat="43.47531" lon="2.14665">
        <ele>336</ele>
        <time>2019-12-08T08:59:09Z</time>
      </trkpt>
      <trkpt lat="43.47541" lon="2.14669">
        <ele>337</ele>
        <time>2019-12-08T08:59:14Z</time>
      </trkpt>
      <trkpt lat="43.47543" lon="2.1467">
        <ele>337</ele>
        <time>2019-12-08T08:59:15Z</time>
      </trkpt>
      <trkpt lat="43.47555" lon="2.1468">
        <ele>339</ele>
        <time>2019-12-08T08:59:22Z</time>
      </trkpt>
      <trkpt lat="43.47552" lon="2.14688">
        <ele>339</ele>
        <time>2019-12-08T08:59:26Z</time>
      </trkpt>
      <trkpt lat="43.47551" lon="2.14688">
        <ele>340</ele>
        <time>2019-12-08T08:59:27Z</time>
      </trkpt>
      <trkpt lat="43.47546" lon="2.14683">
        <ele>341</ele>
        <time>2019-12-08T08:59:32Z</time>
      </trkpt>
      <trkpt lat="43.47538" lon="2.1468">
        <ele>342</ele>
        <time>2019-12-08T08:59:38Z</time>
      </trkpt>
      <trkpt lat="43.47536" lon="2.1468">
        <ele>342</ele>
        <time>2019-12-08T08:59:39Z</time>
      </trkpt>
      <trkpt lat="43.47531" lon="2.14679">
        <ele>343</ele>
        <time>2019-12-08T08:59:42Z</time>
      </trkpt>
      <trkpt lat="43.47528" lon="2.14679">
        <ele>343</ele>
        <time>2019-12-08T08:59:44Z</time>
      </trkpt>
      <trkpt lat="43.47524" lon="2.14679">
        <ele>344</ele>
        <time>2019-12-08T08:59:47Z</time>
      </trkpt>
      <trkpt lat="43.4752" lon="2.14679">
        <ele>344</ele>
        <time>2019-12-08T08:59:50Z</time>
      </trkpt>
      <trkpt lat="43.47518" lon="2.14679">
        <ele>345</ele>
        <time>2019-12-08T08:59:51Z</time>
      </trkpt>
      <trkpt lat="43.47512" lon="2.1468">
        <ele>346</ele>
        <time>2019-12-08T08:59:55Z</time>
      </trkpt>
      <trkpt lat="43.47506" lon="2.1468">
        <ele>347</ele>
        <time>2019-12-08T08:59:59Z</time>
      </trkpt>
      <trkpt lat="43.47505" lon="2.1468">
        <ele>347</ele>
        <time>2019-12-08T09:00:00Z</time>
      </trkpt>
      <trkpt lat="43.47496" lon="2.1468">
        <ele>348</ele>
        <time>2019-12-08T09:00:05Z</time>
      </trkpt>
      <trkpt lat="43.47489" lon="2.1468">
        <ele>350</ele>
        <time>2019-12-08T09:00:10Z</time>
      </trkpt>
      <trkpt lat="43.47487" lon="2.14679">
        <ele>350</ele>
        <time>2019-12-08T09:00:11Z</time>
      </trkpt>
      <trkpt lat="43.47483" lon="2.14679">
        <ele>351</ele>
        <time>2019-12-08T09:00:14Z</time>
      </trkpt>
      <trkpt lat="43.47479" lon="2.14678">
        <ele>351</ele>
        <time>2019-12-08T09:00:16Z</time>
      </trkpt>
      <trkpt lat="43.47477" lon="2.14677">
        <ele>351</ele>
        <time>2019-12-08T09:00:18Z</time>
      </trkpt>
      <trkpt lat="43.47475" lon="2.14677">
        <ele>352</ele>
        <time>2019-12-08T09:00:20Z</time>
      </trkpt>
      <trkpt lat="43.47462" lon="2.14669">
        <ele>352</ele>
        <time>2019-12-08T09:00:26Z</time>
      </trkpt>
      <trkpt lat="43.47459" lon="2.14667">
        <ele>353</ele>
        <time>2019-12-08T09:00:27Z</time>
      </trkpt>
      <trkpt lat="43.4745" lon="2.1466">
        <ele>354</ele>
        <time>2019-12-08T09:00:31Z</time>
      </trkpt>
      <trkpt lat="43.4744" lon="2.14651">
        <ele>354</ele>
        <time>2019-12-08T09:00:36Z</time>
      </trkpt>
      <trkpt lat="43.47439" lon="2.14649">
        <ele>355</ele>
        <time>2019-12-08T09:00:37Z</time>
      </trkpt>
      <trkpt lat="43.47435" lon="2.14636">
        <ele>356</ele>
        <time>2019-12-08T09:00:42Z</time>
      </trkpt>
      <trkpt lat="43.47434" lon="2.14634">
        <ele>356</ele>
        <time>2019-12-08T09:00:43Z</time>
      </trkpt>
      <trkpt lat="43.4743" lon="2.14625">
        <ele>357</ele>
        <time>2019-12-08T09:00:47Z</time>
      </trkpt>
      <trkpt lat="43.47429" lon="2.14624">
        <ele>357</ele>
        <time>2019-12-08T09:00:48Z</time>
      </trkpt>
      <trkpt lat="43.47426" lon="2.14616">
        <ele>358</ele>
        <time>2019-12-08T09:00:52Z</time>
      </trkpt>
      <trkpt lat="43.47425" lon="2.14614">
        <ele>358</ele>
        <time>2019-12-08T09:00:53Z</time>
      </trkpt>
      <trkpt lat="43.47422" lon="2.14607">
        <ele>359</ele>
        <time>2019-12-08T09:00:57Z</time>
      </trkpt>
      <trkpt lat="43.47421" lon="2.14605">
        <ele>359</ele>
        <time>2019-12-08T09:00:58Z</time>
      </trkpt>
      <trkpt lat="43.47417" lon="2.14598">
        <ele>360</ele>
        <time>2019-12-08T09:01:02Z</time>
      </trkpt>
      <trkpt lat="43.47416" lon="2.14595">
        <ele>361</ele>
        <time>2019-12-08T09:01:03Z</time>
      </trkpt>
      <trkpt lat="43.47413" lon="2.14588">
        <ele>361</ele>
        <time>2019-12-08T09:01:06Z</time>
      </trkpt>
      <trkpt lat="43.47411" lon="2.14581">
        <ele>362</ele>
        <time>2019-12-08T09:01:09Z</time>
      </trkpt>
      <trkpt lat="43.4741" lon="2.14574">
        <ele>362</ele>
        <time>2019-12-08T09:01:12Z</time>
      </trkpt>
      <trkpt lat="43.4741" lon="2.14567">
        <ele>363</ele>
        <time>2019-12-08T09:01:15Z</time>
      </trkpt>
      <trkpt lat="43.47411" lon="2.1456">
        <ele>363</ele>
        <time>2019-12-08T09:01:18Z</time>
      </trkpt>
      <trkpt lat="43.47411" lon="2.14548">
        <ele>364</ele>
        <time>2019-12-08T09:01:22Z</time>
      </trkpt>
      <trkpt lat="43.47411" lon="2.14545">
        <ele>365</ele>
        <time>2019-12-08T09:01:23Z</time>
      </trkpt>
      <trkpt lat="43.47409" lon="2.14529">
        <ele>366</ele>
        <time>2019-12-08T09:01:28Z</time>
      </trkpt>
      <trkpt lat="43.47408" lon="2.14527">
        <ele>366</ele>
        <time>2019-12-08T09:01:29Z</time>
      </trkpt>
      <trkpt lat="43.47405" lon="2.14518">
        <ele>367</ele>
        <time>2019-12-08T09:01:33Z</time>
      </trkpt>
      <trkpt lat="43.474" lon="2.14513">
        <ele>367</ele>
        <time>2019-12-08T09:01:36Z</time>
      </trkpt>
      <trkpt lat="43.47395" lon="2.14508">
        <ele>368</ele>
        <time>2019-12-08T09:01:38Z</time>
      </trkpt>
      <trkpt lat="43.47389" lon="2.14504">
        <ele>369</ele>
        <time>2019-12-08T09:01:42Z</time>
      </trkpt>
      <trkpt lat="43.47386" lon="2.14502">
        <ele>369</ele>
        <time>2019-12-08T09:01:43Z</time>
      </trkpt>
      <trkpt lat="43.47382" lon="2.14499">
        <ele>370</ele>
        <time>2019-12-08T09:01:46Z</time>
      </trkpt>
      <trkpt lat="43.47371" lon="2.14492">
        <ele>371</ele>
        <time>2019-12-08T09:01:52Z</time>
      </trkpt>
      <trkpt lat="43.4737" lon="2.14491">
        <ele>371</ele>
        <time>2019-12-08T09:01:53Z</time>
      </trkpt>
      <trkpt lat="43.47365" lon="2.14487">
        <ele>372</ele>
        <time>2019-12-08T09:01:56Z</time>
      </trkpt>
      <trkpt lat="43.47358" lon="2.14481">
        <ele>373</ele>
        <time>2019-12-08T09:02:00Z</time>
      </trkpt>
      <trkpt lat="43.47357" lon="2.14479">
        <ele>373</ele>
        <time>2019-12-08T09:02:01Z</time>
      </trkpt>
      <trkpt lat="43.47352" lon="2.1447">
        <ele>374</ele>
        <time>2019-12-08T09:02:06Z</time>
      </trkpt>
      <trkpt lat="43.47351" lon="2.14468">
        <ele>374</ele>
        <time>2019-12-08T09:02:07Z</time>
      </trkpt>
      <trkpt lat="43.47351" lon="2.14454">
        <ele>375</ele>
        <time>2019-12-08T09:02:13Z</time>
      </trkpt>
      <trkpt lat="43.4735" lon="2.14451">
        <ele>376</ele>
        <time>2019-12-08T09:02:14Z</time>
      </trkpt>
      <trkpt lat="43.47344" lon="2.14447">
        <ele>377</ele>
        <time>2019-12-08T09:02:17Z</time>
      </trkpt>
      <trkpt lat="43.4734" lon="2.14446">
        <ele>377</ele>
        <time>2019-12-08T09:02:19Z</time>
      </trkpt>
      <trkpt lat="43.47337" lon="2.14445">
        <ele>378</ele>
        <time>2019-12-08T09:02:21Z</time>
      </trkpt>
      <trkpt lat="43.4733" lon="2.14446">
        <ele>378</ele>
        <time>2019-12-08T09:02:24Z</time>
      </trkpt>
      <trkpt lat="43.47326" lon="2.14446">
        <ele>379</ele>
        <time>2019-12-08T09:02:26Z</time>
      </trkpt>
      <trkpt lat="43.47318" lon="2.14445">
        <ele>380</ele>
        <time>2019-12-08T09:02:30Z</time>
      </trkpt>
      <trkpt lat="43.47309" lon="2.14444">
        <ele>381</ele>
        <time>2019-12-08T09:02:35Z</time>
      </trkpt>
      <trkpt lat="43.47306" lon="2.14444">
        <ele>381</ele>
        <time>2019-12-08T09:02:37Z</time>
      </trkpt>
      <trkpt lat="43.47293" lon="2.14445">
        <ele>382</ele>
        <time>2019-12-08T09:02:43Z</time>
      </trkpt>
      <trkpt lat="43.4729" lon="2.14446">
        <ele>382</ele>
        <time>2019-12-08T09:02:44Z</time>
      </trkpt>
      <trkpt lat="43.47282" lon="2.14446">
        <ele>383</ele>
        <time>2019-12-08T09:02:48Z</time>
      </trkpt>
      <trkpt lat="43.47273" lon="2.14449">
        <ele>384</ele>
        <time>2019-12-08T09:02:52Z</time>
      </trkpt>
      <trkpt lat="43.47267" lon="2.14452">
        <ele>384</ele>
        <time>2019-12-08T09:02:55Z</time>
      </trkpt>
      <trkpt lat="43.47261" lon="2.14455">
        <ele>385</ele>
        <time>2019-12-08T09:02:58Z</time>
      </trkpt>
      <trkpt lat="43.47257" lon="2.14457">
        <ele>385</ele>
        <time>2019-12-08T09:03:00Z</time>
      </trkpt>
      <trkpt lat="43.47247" lon="2.14466">
        <ele>386</ele>
        <time>2019-12-08T09:03:06Z</time>
      </trkpt>
      <trkpt lat="43.47246" lon="2.14467">
        <ele>386</ele>
        <time>2019-12-08T09:03:07Z</time>
      </trkpt>
      <trkpt lat="43.47237" lon="2.14477">
        <ele>387</ele>
        <time>2019-12-08T09:03:13Z</time>
      </trkpt>
      <trkpt lat="43.47236" lon="2.14479">
        <ele>388</ele>
        <time>2019-12-08T09:03:14Z</time>
      </trkpt>
      <trkpt lat="43.4723" lon="2.14489">
        <ele>388</ele>
        <time>2019-12-08T09:03:19Z</time>
      </trkpt>
      <trkpt lat="43.47228" lon="2.14494">
        <ele>389</ele>
        <time>2019-12-08T09:03:21Z</time>
      </trkpt>
      <trkpt lat="43.47227" lon="2.14501">
        <ele>390</ele>
        <time>2019-12-08T09:03:24Z</time>
      </trkpt>
      <trkpt lat="43.47226" lon="2.14505">
        <ele>390</ele>
        <time>2019-12-08T09:03:26Z</time>
      </trkpt>
      <trkpt lat="43.47222" lon="2.14514">
        <ele>391</ele>
        <time>2019-12-08T09:03:30Z</time>
      </trkpt>
      <trkpt lat="43.47218" lon="2.1452">
        <ele>392</ele>
        <time>2019-12-08T09:03:33Z</time>
      </trkpt>
      <trkpt lat="43.47215" lon="2.14524">
        <ele>392</ele>
        <time>2019-12-08T09:03:35Z</time>
      </trkpt>
      <trkpt lat="43.47211" lon="2.14529">
        <ele>392</ele>
        <time>2019-12-08T09:03:38Z</time>
      </trkpt>
      <trkpt lat="43.47207" lon="2.14532">
        <ele>393</ele>
        <time>2019-12-08T09:03:41Z</time>
      </trkpt>
      <trkpt lat="43.472" lon="2.14533">
        <ele>394</ele>
        <time>2019-12-08T09:03:45Z</time>
      </trkpt>
      <trkpt lat="43.47198" lon="2.14532">
        <ele>394</ele>
        <time>2019-12-08T09:03:46Z</time>
      </trkpt>
      <trkpt lat="43.47195" lon="2.14532">
        <ele>395</ele>
        <time>2019-12-08T09:03:48Z</time>
      </trkpt>
      <trkpt lat="43.47191" lon="2.14531">
        <ele>395</ele>
        <time>2019-12-08T09:03:50Z</time>
      </trkpt>
      <trkpt lat="43.47189" lon="2.14531">
        <ele>395</ele>
        <time>2019-12-08T09:03:51Z</time>
      </trkpt>
      <trkpt lat="43.47173" lon="2.14529">
        <ele>396</ele>
        <time>2019-12-08T09:03:59Z</time>
      </trkpt>
      <trkpt lat="43.47171" lon="2.14529">
        <ele>397</ele>
        <time>2019-12-08T09:04:00Z</time>
      </trkpt>
      <trkpt lat="43.47164" lon="2.14529">
        <ele>398</ele>
        <time>2019-12-08T09:04:03Z</time>
      </trkpt>
      <trkpt lat="43.47153" lon="2.14533">
        <ele>398</ele>
        <time>2019-12-08T09:04:08Z</time>
      </trkpt>
      <trkpt lat="43.47146" lon="2.14536">
        <ele>399</ele>
        <time>2019-12-08T09:04:12Z</time>
      </trkpt>
      <trkpt lat="43.47139" lon="2.1454">
        <ele>400</ele>
        <time>2019-12-08T09:04:16Z</time>
      </trkpt>
      <trkpt lat="43.47138" lon="2.14541">
        <ele>400</ele>
        <time>2019-12-08T09:04:17Z</time>
      </trkpt>
      <trkpt lat="43.47131" lon="2.14545">
        <ele>401</ele>
        <time>2019-12-08T09:04:21Z</time>
      </trkpt>
      <trkpt lat="43.47122" lon="2.14548">
        <ele>402</ele>
        <time>2019-12-08T09:04:26Z</time>
      </trkpt>
      <trkpt lat="43.47119" lon="2.14548">
        <ele>402</ele>
        <time>2019-12-08T09:04:28Z</time>
      </trkpt>
      <trkpt lat="43.47113" lon="2.1455">
        <ele>403</ele>
        <time>2019-12-08T09:04:31Z</time>
      </trkpt>
      <trkpt lat="43.47104" lon="2.14551">
        <ele>403</ele>
        <time>2019-12-08T09:04:35Z</time>
      </trkpt>
      <trkpt lat="43.47098" lon="2.1455">
        <ele>404</ele>
        <time>2019-12-08T09:04:38Z</time>
      </trkpt>
      <trkpt lat="43.47094" lon="2.1455">
        <ele>404</ele>
        <time>2019-12-08T09:04:40Z</time>
      </trkpt>
      <trkpt lat="43.47086" lon="2.14552">
        <ele>405</ele>
        <time>2019-12-08T09:04:44Z</time>
      </trkpt>
      <trkpt lat="43.47082" lon="2.14554">
        <ele>405</ele>
        <time>2019-12-08T09:04:46Z</time>
      </trkpt>
      <trkpt lat="43.47077" lon="2.1456">
        <ele>406</ele>
        <time>2019-12-08T09:04:50Z</time>
      </trkpt>
      <trkpt lat="43.47074" lon="2.14563">
        <ele>406</ele>
        <time>2019-12-08T09:04:52Z</time>
      </trkpt>
      <trkpt lat="43.47071" lon="2.14569">
        <ele>407</ele>
        <time>2019-12-08T09:04:55Z</time>
      </trkpt>
      <trkpt lat="43.47069" lon="2.14571">
        <ele>407</ele>
        <time>2019-12-08T09:04:56Z</time>
      </trkpt>
      <trkpt lat="43.47065" lon="2.14574">
        <ele>408</ele>
        <time>2019-12-08T09:04:59Z</time>
      </trkpt>
      <trkpt lat="43.47064" lon="2.14575">
        <ele>408</ele>
        <time>2019-12-08T09:05:00Z</time>
      </trkpt>
      <trkpt lat="43.47061" lon="2.14578">
        <ele>408</ele>
        <time>2019-12-08T09:05:02Z</time>
      </trkpt>
      <trkpt lat="43.47056" lon="2.14585">
        <ele>409</ele>
        <time>2019-12-08T09:05:06Z</time>
      </trkpt>
      <trkpt lat="43.47049" lon="2.14592">
        <ele>410</ele>
        <time>2019-12-08T09:05:11Z</time>
      </trkpt>
      <trkpt lat="43.47047" lon="2.14594">
        <ele>410</ele>
        <time>2019-12-08T09:05:12Z</time>
      </trkpt>
      <trkpt lat="43.47039" lon="2.14604">
        <ele>411</ele>
        <time>2019-12-08T09:05:18Z</time>
      </trkpt>
      <trkpt lat="43.47034" lon="2.14609">
        <ele>412</ele>
        <time>2019-12-08T09:05:21Z</time>
      </trkpt>
      <trkpt lat="43.47033" lon="2.14611">
        <ele>413</ele>
        <time>2019-12-08T09:05:22Z</time>
      </trkpt>
      <trkpt lat="43.47026" lon="2.14616">
        <ele>414</ele>
        <time>2019-12-08T09:05:26Z</time>
      </trkpt>
      <trkpt lat="43.47025" lon="2.14617">
        <ele>414</ele>
        <time>2019-12-08T09:05:27Z</time>
      </trkpt>
      <trkpt lat="43.47018" lon="2.14622">
        <ele>415</ele>
        <time>2019-12-08T09:05:31Z</time>
      </trkpt>
      <trkpt lat="43.47014" lon="2.14626">
        <ele>416</ele>
        <time>2019-12-08T09:05:34Z</time>
      </trkpt>
      <trkpt lat="43.47011" lon="2.14629">
        <ele>416</ele>
        <time>2019-12-08T09:05:36Z</time>
      </trkpt>
      <trkpt lat="43.47005" lon="2.14635">
        <ele>417</ele>
        <time>2019-12-08T09:05:40Z</time>
      </trkpt>
      <trkpt lat="43.47002" lon="2.14638">
        <ele>417</ele>
        <time>2019-12-08T09:05:42Z</time>
      </trkpt>
      <trkpt lat="43.46997" lon="2.14644">
        <ele>418</ele>
        <time>2019-12-08T09:05:46Z</time>
      </trkpt>
      <trkpt lat="43.46991" lon="2.14649">
        <ele>419</ele>
        <time>2019-12-08T09:05:50Z</time>
      </trkpt>
      <trkpt lat="43.46989" lon="2.1465">
        <ele>419</ele>
        <time>2019-12-08T09:05:51Z</time>
      </trkpt>
      <trkpt lat="43.46982" lon="2.14654">
        <ele>420</ele>
        <time>2019-12-08T09:05:55Z</time>
      </trkpt>
      <trkpt lat="43.46973" lon="2.14659">
        <ele>421</ele>
        <time>2019-12-08T09:06:00Z</time>
      </trkpt>
      <trkpt lat="43.4697" lon="2.14661">
        <ele>422</ele>
        <time>2019-12-08T09:06:02Z</time>
      </trkpt>
      <trkpt lat="43.46962" lon="2.14666">
        <ele>423</ele>
        <time>2019-12-08T09:06:07Z</time>
      </trkpt>
      <trkpt lat="43.4696" lon="2.14667">
        <ele>423</ele>
        <time>2019-12-08T09:06:08Z</time>
      </trkpt>
      <trkpt lat="43.46945" lon="2.14676">
        <ele>424</ele>
        <time>2019-12-08T09:06:16Z</time>
      </trkpt>
      <trkpt lat="43.46933" lon="2.14685">
        <ele>425</ele>
        <time>2019-12-08T09:06:23Z</time>
      </trkpt>
      <trkpt lat="43.46932" lon="2.14686">
        <ele>425</ele>
        <time>2019-12-08T09:06:24Z</time>
      </trkpt>
      <trkpt lat="43.46925" lon="2.14693">
        <ele>426</ele>
        <time>2019-12-08T09:06:29Z</time>
      </trkpt>
      <trkpt lat="43.46923" lon="2.14694">
        <ele>426</ele>
        <time>2019-12-08T09:06:30Z</time>
      </trkpt>
      <trkpt lat="43.46921" lon="2.14695">
        <ele>426</ele>
        <time>2019-12-08T09:06:31Z</time>
      </trkpt>
      <trkpt lat="43.46913" lon="2.14695">
        <ele>427</ele>
        <time>2019-12-08T09:06:36Z</time>
      </trkpt>
      <trkpt lat="43.46909" lon="2.14695">
        <ele>427</ele>
        <time>2019-12-08T09:06:38Z</time>
      </trkpt>
      <trkpt lat="43.46902" lon="2.14697">
        <ele>428</ele>
        <time>2019-12-08T09:06:42Z</time>
      </trkpt>
      <trkpt lat="43.46895" lon="2.14697">
        <ele>429</ele>
        <time>2019-12-08T09:06:46Z</time>
      </trkpt>
      <trkpt lat="43.46884" lon="2.14696">
        <ele>430</ele>
        <time>2019-12-08T09:06:52Z</time>
      </trkpt>
      <trkpt lat="43.46876" lon="2.14696">
        <ele>431</ele>
        <time>2019-12-08T09:06:57Z</time>
      </trkpt>
      <trkpt lat="43.46876" lon="2.14696">
        <ele>432</ele>
        <time>2019-12-08T09:06:58Z</time>
      </trkpt>
      <trkpt lat="43.46873" lon="2.14695">
        <ele>432</ele>
        <time>2019-12-08T09:07:00Z</time>
      </trkpt>
      <trkpt lat="43.46872" lon="2.14691">
        <ele>433</ele>
        <time>2019-12-08T09:07:02Z</time>
      </trkpt>
      <trkpt lat="43.46871" lon="2.14689">
        <ele>433</ele>
        <time>2019-12-08T09:07:03Z</time>
      </trkpt>
      <trkpt lat="43.46871" lon="2.14679">
        <ele>434</ele>
        <time>2019-12-08T09:07:07Z</time>
      </trkpt>
      <trkpt lat="43.46871" lon="2.14677">
        <ele>434</ele>
        <time>2019-12-08T09:07:08Z</time>
      </trkpt>
      <trkpt lat="43.46871" lon="2.14669">
        <ele>435</ele>
        <time>2019-12-08T09:07:11Z</time>
      </trkpt>
      <trkpt lat="43.4687" lon="2.14663">
        <ele>435</ele>
        <time>2019-12-08T09:07:13Z</time>
      </trkpt>
      <trkpt lat="43.46869" lon="2.14657">
        <ele>435</ele>
        <time>2019-12-08T09:07:15Z</time>
      </trkpt>
      <trkpt lat="43.46863" lon="2.14651">
        <ele>436</ele>
        <time>2019-12-08T09:07:18Z</time>
      </trkpt>
      <trkpt lat="43.46859" lon="2.14649">
        <ele>436</ele>
        <time>2019-12-08T09:07:20Z</time>
      </trkpt>
      <trkpt lat="43.46852" lon="2.14649">
        <ele>437</ele>
        <time>2019-12-08T09:07:23Z</time>
      </trkpt>
      <trkpt lat="43.46847" lon="2.1465">
        <ele>437</ele>
        <time>2019-12-08T09:07:25Z</time>
      </trkpt>
      <trkpt lat="43.46835" lon="2.14656">
        <ele>439</ele>
        <time>2019-12-08T09:07:31Z</time>
      </trkpt>
      <trkpt lat="43.46823" lon="2.14665">
        <ele>439</ele>
        <time>2019-12-08T09:07:38Z</time>
      </trkpt>
      <trkpt lat="43.46818" lon="2.14668">
        <ele>441</ele>
        <time>2019-12-08T09:07:41Z</time>
      </trkpt>
      <trkpt lat="43.46812" lon="2.14671">
        <ele>442</ele>
        <time>2019-12-08T09:07:45Z</time>
      </trkpt>
      <trkpt lat="43.46809" lon="2.14672">
        <ele>442</ele>
        <time>2019-12-08T09:07:47Z</time>
      </trkpt>
      <trkpt lat="43.46803" lon="2.14673">
        <ele>443</ele>
        <time>2019-12-08T09:07:50Z</time>
      </trkpt>
      <trkpt lat="43.468" lon="2.14673">
        <ele>443</ele>
        <time>2019-12-08T09:07:52Z</time>
      </trkpt>
      <trkpt lat="43.46796" lon="2.14672">
        <ele>444</ele>
        <time>2019-12-08T09:07:55Z</time>
      </trkpt>
      <trkpt lat="43.46793" lon="2.14672">
        <ele>444</ele>
        <time>2019-12-08T09:07:57Z</time>
      </trkpt>
      <trkpt lat="43.46787" lon="2.1467">
        <ele>445</ele>
        <time>2019-12-08T09:08:01Z</time>
      </trkpt>
      <trkpt lat="43.46784" lon="2.14669">
        <ele>445</ele>
        <time>2019-12-08T09:08:03Z</time>
      </trkpt>
      <trkpt lat="43.4678" lon="2.14666">
        <ele>446</ele>
        <time>2019-12-08T09:08:06Z</time>
      </trkpt>
      <trkpt lat="43.46777" lon="2.14663">
        <ele>446</ele>
        <time>2019-12-08T09:08:09Z</time>
      </trkpt>
      <trkpt lat="43.46775" lon="2.14661">
        <ele>447</ele>
        <time>2019-12-08T09:08:11Z</time>
      </trkpt>
      <trkpt lat="43.46766" lon="2.14652">
        <ele>447</ele>
        <time>2019-12-08T09:08:17Z</time>
      </trkpt>
      <trkpt lat="43.46759" lon="2.14645">
        <ele>449</ele>
        <time>2019-12-08T09:08:22Z</time>
      </trkpt>
      <trkpt lat="43.46753" lon="2.1464">
        <ele>450</ele>
        <time>2019-12-08T09:08:26Z</time>
      </trkpt>
      <trkpt lat="43.46752" lon="2.14638">
        <ele>450</ele>
        <time>2019-12-08T09:08:27Z</time>
      </trkpt>
      <trkpt lat="43.46746" lon="2.14632">
        <ele>451</ele>
        <time>2019-12-08T09:08:31Z</time>
      </trkpt>
      <trkpt lat="43.46744" lon="2.1463">
        <ele>451</ele>
        <time>2019-12-08T09:08:32Z</time>
      </trkpt>
      <trkpt lat="43.46741" lon="2.14625">
        <ele>452</ele>
        <time>2019-12-08T09:08:35Z</time>
      </trkpt>
      <trkpt lat="43.46739" lon="2.14623">
        <ele>452</ele>
        <time>2019-12-08T09:08:36Z</time>
      </trkpt>
      <trkpt lat="43.46736" lon="2.1462">
        <ele>452</ele>
        <time>2019-12-08T09:08:38Z</time>
      </trkpt>
      <trkpt lat="43.46731" lon="2.14612">
        <ele>453</ele>
        <time>2019-12-08T09:08:41Z</time>
      </trkpt>
      <trkpt lat="43.46726" lon="2.14606">
        <ele>453</ele>
        <time>2019-12-08T09:08:44Z</time>
      </trkpt>
      <trkpt lat="43.4672" lon="2.14597">
        <ele>454</ele>
        <time>2019-12-08T09:08:49Z</time>
      </trkpt>
      <trkpt lat="43.46717" lon="2.14593">
        <ele>455</ele>
        <time>2019-12-08T09:08:51Z</time>
      </trkpt>
      <trkpt lat="43.46715" lon="2.14591">
        <ele>455</ele>
        <time>2019-12-08T09:08:52Z</time>
      </trkpt>
      <trkpt lat="43.46707" lon="2.14583">
        <ele>456</ele>
        <time>2019-12-08T09:08:57Z</time>
      </trkpt>
      <trkpt lat="43.46699" lon="2.14577">
        <ele>457</ele>
        <time>2019-12-08T09:09:01Z</time>
      </trkpt>
      <trkpt lat="43.46694" lon="2.14574">
        <ele>457</ele>
        <time>2019-12-08T09:09:03Z</time>
      </trkpt>
      <trkpt lat="43.46687" lon="2.14568">
        <ele>458</ele>
        <time>2019-12-08T09:09:07Z</time>
      </trkpt>
      <trkpt lat="43.46685" lon="2.14565">
        <ele>458</ele>
        <time>2019-12-08T09:09:09Z</time>
      </trkpt>
      <trkpt lat="43.46682" lon="2.14558">
        <ele>459</ele>
        <time>2019-12-08T09:09:12Z</time>
      </trkpt>
      <trkpt lat="43.46682" lon="2.14556">
        <ele>459</ele>
        <time>2019-12-08T09:09:13Z</time>
      </trkpt>
      <trkpt lat="43.46682" lon="2.14553">
        <ele>459</ele>
        <time>2019-12-08T09:09:14Z</time>
      </trkpt>
      <trkpt lat="43.46683" lon="2.14543">
        <ele>460</ele>
        <time>2019-12-08T09:09:18Z</time>
      </trkpt>
      <trkpt lat="43.46685" lon="2.14539">
        <ele>460</ele>
        <time>2019-12-08T09:09:20Z</time>
      </trkpt>
      <trkpt lat="43.46685" lon="2.14537">
        <ele>461</ele>
        <time>2019-12-08T09:09:21Z</time>
      </trkpt>
      <trkpt lat="43.46687" lon="2.14533">
        <ele>461</ele>
        <time>2019-12-08T09:09:23Z</time>
      </trkpt>
      <trkpt lat="43.46688" lon="2.14525">
        <ele>462</ele>
        <time>2019-12-08T09:09:26Z</time>
      </trkpt>
      <trkpt lat="43.4669" lon="2.14518">
        <ele>463</ele>
        <time>2019-12-08T09:09:29Z</time>
      </trkpt>
      <trkpt lat="43.46692" lon="2.14509">
        <ele>464</ele>
        <time>2019-12-08T09:09:33Z</time>
      </trkpt>
      <trkpt lat="43.46692" lon="2.14507">
        <ele>465</ele>
        <time>2019-12-08T09:09:34Z</time>
      </trkpt>
      <trkpt lat="43.46692" lon="2.14497">
        <ele>466</ele>
        <time>2019-12-08T09:09:39Z</time>
      </trkpt>
      <trkpt lat="43.46692" lon="2.14495">
        <ele>466</ele>
        <time>2019-12-08T09:09:40Z</time>
      </trkpt>
      <trkpt lat="43.46692" lon="2.14494">
        <ele>466</ele>
        <time>2019-12-08T09:09:41Z</time>
      </trkpt>
      <trkpt lat="43.46692" lon="2.14482">
        <ele>466</ele>
        <time>2019-12-08T09:09:48Z</time>
      </trkpt>
      <trkpt lat="43.46692" lon="2.1448">
        <ele>466</ele>
        <time>2019-12-08T09:09:49Z</time>
      </trkpt>
      <trkpt lat="43.46692" lon="2.14469">
        <ele>467</ele>
        <time>2019-12-08T09:09:56Z</time>
      </trkpt>
      <trkpt lat="43.46692" lon="2.14468">
        <ele>467</ele>
        <time>2019-12-08T09:09:57Z</time>
      </trkpt>
      <trkpt lat="43.46692" lon="2.14463">
        <ele>467</ele>
        <time>2019-12-08T09:10:01Z</time>
      </trkpt>
      <trkpt lat="43.46693" lon="2.14458">
        <ele>467</ele>
        <time>2019-12-08T09:10:05Z</time>
      </trkpt>
      <trkpt lat="43.46693" lon="2.14457">
        <ele>467</ele>
        <time>2019-12-08T09:10:06Z</time>
      </trkpt>
      <trkpt lat="43.46693" lon="2.14455">
        <ele>467</ele>
        <time>2019-12-08T09:10:08Z</time>
      </trkpt>
      <trkpt lat="43.46691" lon="2.14453">
        <ele>466</ele>
        <time>2019-12-08T09:11:50Z</time>
      </trkpt>
      <trkpt lat="43.46691" lon="2.14452">
        <ele>467</ele>
        <time>2019-12-08T09:11:51Z</time>
      </trkpt>
      <trkpt lat="43.4669" lon="2.14451">
        <ele>467</ele>
        <time>2019-12-08T09:11:52Z</time>
      </trkpt>
      <trkpt lat="43.4669" lon="2.1445">
        <ele>467</ele>
        <time>2019-12-08T09:11:53Z</time>
      </trkpt>
      <trkpt lat="43.46686" lon="2.14445">
        <ele>467</ele>
        <time>2019-12-08T09:11:56Z</time>
      </trkpt>
      <trkpt lat="43.46685" lon="2.14444">
        <ele>467</ele>
        <time>2019-12-08T09:11:57Z</time>
      </trkpt>
      <trkpt lat="43.46681" lon="2.1444">
        <ele>467</ele>
        <time>2019-12-08T09:12:01Z</time>
      </trkpt>
      <trkpt lat="43.46679" lon="2.14439">
        <ele>468</ele>
        <time>2019-12-08T09:12:02Z</time>
      </trkpt>
      <trkpt lat="43.46677" lon="2.14437">
        <ele>468</ele>
        <time>2019-12-08T09:12:04Z</time>
      </trkpt>
      <trkpt lat="43.46674" lon="2.14434">
        <ele>468</ele>
        <time>2019-12-08T09:12:06Z</time>
      </trkpt>
      <trkpt lat="43.46671" lon="2.1443">
        <ele>469</ele>
        <time>2019-12-08T09:12:08Z</time>
      </trkpt>
      <trkpt lat="43.46668" lon="2.14428">
        <ele>470</ele>
        <time>2019-12-08T09:12:10Z</time>
      </trkpt>
      <trkpt lat="43.46659" lon="2.14426">
        <ele>470</ele>
        <time>2019-12-08T09:12:14Z</time>
      </trkpt>
      <trkpt lat="43.4665" lon="2.14429">
        <ele>470</ele>
        <time>2019-12-08T09:12:19Z</time>
      </trkpt>
      <trkpt lat="43.46649" lon="2.14431">
        <ele>470</ele>
        <time>2019-12-08T09:12:20Z</time>
      </trkpt>
      <trkpt lat="43.46647" lon="2.14442">
        <ele>470</ele>
        <time>2019-12-08T09:12:26Z</time>
      </trkpt>
      <trkpt lat="43.46648" lon="2.14445">
        <ele>470</ele>
        <time>2019-12-08T09:12:28Z</time>
      </trkpt>
      <trkpt lat="43.46649" lon="2.14452">
        <ele>470</ele>
        <time>2019-12-08T09:12:32Z</time>
      </trkpt>
      <trkpt lat="43.46649" lon="2.14457">
        <ele>471</ele>
        <time>2019-12-08T09:12:34Z</time>
      </trkpt>
      <trkpt lat="43.46649" lon="2.14459">
        <ele>471</ele>
        <time>2019-12-08T09:12:35Z</time>
      </trkpt>
      <trkpt lat="43.46649" lon="2.14463">
        <ele>471</ele>
        <time>2019-12-08T09:12:37Z</time>
      </trkpt>
      <trkpt lat="43.46649" lon="2.14467">
        <ele>472</ele>
        <time>2019-12-08T09:12:39Z</time>
      </trkpt>
      <trkpt lat="43.46648" lon="2.14474">
        <ele>472</ele>
        <time>2019-12-08T09:12:43Z</time>
      </trkpt>
      <trkpt lat="43.46647" lon="2.14478">
        <ele>473</ele>
        <time>2019-12-08T09:12:45Z</time>
      </trkpt>
      <trkpt lat="43.46644" lon="2.14487">
        <ele>474</ele>
        <time>2019-12-08T09:12:49Z</time>
      </trkpt>
      <trkpt lat="43.46643" lon="2.14491">
        <ele>474</ele>
        <time>2019-12-08T09:12:51Z</time>
      </trkpt>
      <trkpt lat="43.46639" lon="2.14498">
        <ele>484</ele>
        <time>2019-12-08T09:12:55Z</time>
      </trkpt>
      <trkpt lat="43.46637" lon="2.14504">
        <ele>475</ele>
        <time>2019-12-08T09:12:58Z</time>
      </trkpt>
      <trkpt lat="43.46636" lon="2.14506">
        <ele>475</ele>
        <time>2019-12-08T09:12:59Z</time>
      </trkpt>
      <trkpt lat="43.46635" lon="2.14507">
        <ele>475</ele>
        <time>2019-12-08T09:13:00Z</time>
      </trkpt>
      <trkpt lat="43.46635" lon="2.14509">
        <ele>476</ele>
        <time>2019-12-08T09:13:01Z</time>
      </trkpt>
      <trkpt lat="43.46634" lon="2.14515">
        <ele>476</ele>
        <time>2019-12-08T09:13:04Z</time>
      </trkpt>
      <trkpt lat="43.46634" lon="2.14517">
        <ele>476</ele>
        <time>2019-12-08T09:13:05Z</time>
      </trkpt>
      <trkpt lat="43.46634" lon="2.14523">
        <ele>477</ele>
        <time>2019-12-08T09:13:08Z</time>
      </trkpt>
      <trkpt lat="43.46633" lon="2.14529">
        <ele>477</ele>
        <time>2019-12-08T09:13:11Z</time>
      </trkpt>
      <trkpt lat="43.46632" lon="2.14534">
        <ele>477</ele>
        <time>2019-12-08T09:13:14Z</time>
      </trkpt>
      <trkpt lat="43.46633" lon="2.1454">
        <ele>478</ele>
        <time>2019-12-08T09:13:17Z</time>
      </trkpt>
      <trkpt lat="43.46633" lon="2.14543">
        <ele>478</ele>
        <time>2019-12-08T09:13:18Z</time>
      </trkpt>
      <trkpt lat="43.46636" lon="2.14554">
        <ele>479</ele>
        <time>2019-12-08T09:13:23Z</time>
      </trkpt>
      <trkpt lat="43.46638" lon="2.14558">
        <ele>479</ele>
        <time>2019-12-08T09:13:25Z</time>
      </trkpt>
      <trkpt lat="43.46643" lon="2.14565">
        <ele>480</ele>
        <time>2019-12-08T09:13:29Z</time>
      </trkpt>
      <trkpt lat="43.46645" lon="2.1457">
        <ele>481</ele>
        <time>2019-12-08T09:13:32Z</time>
      </trkpt>
      <trkpt lat="43.46647" lon="2.14575">
        <ele>481</ele>
        <time>2019-12-08T09:13:35Z</time>
      </trkpt>
      <trkpt lat="43.46653" lon="2.14584">
        <ele>482</ele>
        <time>2019-12-08T09:13:40Z</time>
      </trkpt>
      <trkpt lat="43.46657" lon="2.14591">
        <ele>483</ele>
        <time>2019-12-08T09:13:43Z</time>
      </trkpt>
      <trkpt lat="43.4666" lon="2.14595">
        <ele>483</ele>
        <time>2019-12-08T09:13:45Z</time>
      </trkpt>
      <trkpt lat="43.46664" lon="2.14603">
        <ele>484</ele>
        <time>2019-12-08T09:13:49Z</time>
      </trkpt>
      <trkpt lat="43.46665" lon="2.14606">
        <ele>484</ele>
        <time>2019-12-08T09:13:50Z</time>
      </trkpt>
      <trkpt lat="43.46668" lon="2.14611">
        <ele>485</ele>
        <time>2019-12-08T09:13:53Z</time>
      </trkpt>
      <trkpt lat="43.46669" lon="2.14613">
        <ele>485</ele>
        <time>2019-12-08T09:13:54Z</time>
      </trkpt>
      <trkpt lat="43.46671" lon="2.14616">
        <ele>485</ele>
        <time>2019-12-08T09:13:55Z</time>
      </trkpt>
      <trkpt lat="43.46674" lon="2.1462">
        <ele>486</ele>
        <time>2019-12-08T09:13:58Z</time>
      </trkpt>
      <trkpt lat="43.46676" lon="2.14627">
        <ele>487</ele>
        <time>2019-12-08T09:14:01Z</time>
      </trkpt>
      <trkpt lat="43.46679" lon="2.14632">
        <ele>487</ele>
        <time>2019-12-08T09:14:04Z</time>
      </trkpt>
      <trkpt lat="43.46683" lon="2.14639">
        <ele>488</ele>
        <time>2019-12-08T09:14:07Z</time>
      </trkpt>
      <trkpt lat="43.46687" lon="2.14645">
        <ele>489</ele>
        <time>2019-12-08T09:14:10Z</time>
      </trkpt>
      <trkpt lat="43.46691" lon="2.14652">
        <ele>489</ele>
        <time>2019-12-08T09:14:13Z</time>
      </trkpt>
      <trkpt lat="43.46696" lon="2.14657">
        <ele>490</ele>
        <time>2019-12-08T09:14:16Z</time>
      </trkpt>
      <trkpt lat="43.46701" lon="2.14662">
        <ele>490</ele>
        <time>2019-12-08T09:14:19Z</time>
      </trkpt>
      <trkpt lat="43.46704" lon="2.14665">
        <ele>491</ele>
        <time>2019-12-08T09:14:21Z</time>
      </trkpt>
      <trkpt lat="43.4671" lon="2.14674">
        <ele>491</ele>
        <time>2019-12-08T09:14:25Z</time>
      </trkpt>
      <trkpt lat="43.46712" lon="2.14675">
        <ele>492</ele>
        <time>2019-12-08T09:14:26Z</time>
      </trkpt>
      <trkpt lat="43.46718" lon="2.14681">
        <ele>493</ele>
        <time>2019-12-08T09:14:30Z</time>
      </trkpt>
      <trkpt lat="43.46719" lon="2.14682">
        <ele>493</ele>
        <time>2019-12-08T09:14:31Z</time>
      </trkpt>
      <trkpt lat="43.46726" lon="2.1469">
        <ele>494</ele>
        <time>2019-12-08T09:14:35Z</time>
      </trkpt>
      <trkpt lat="43.46729" lon="2.14693">
        <ele>494</ele>
        <time>2019-12-08T09:14:37Z</time>
      </trkpt>
      <trkpt lat="43.46732" lon="2.14703">
        <ele>494</ele>
        <time>2019-12-08T09:14:41Z</time>
      </trkpt>
      <trkpt lat="43.46732" lon="2.14706">
        <ele>495</ele>
        <time>2019-12-08T09:14:42Z</time>
      </trkpt>
      <trkpt lat="43.46729" lon="2.14718">
        <ele>495</ele>
        <time>2019-12-08T09:14:46Z</time>
      </trkpt>
      <trkpt lat="43.46729" lon="2.1472">
        <ele>496</ele>
        <time>2019-12-08T09:14:47Z</time>
      </trkpt>
      <trkpt lat="43.46728" lon="2.14722">
        <ele>496</ele>
        <time>2019-12-08T09:14:48Z</time>
      </trkpt>
      <trkpt lat="43.46727" lon="2.14728">
        <ele>496</ele>
        <time>2019-12-08T09:14:50Z</time>
      </trkpt>
      <trkpt lat="43.46727" lon="2.14734">
        <ele>497</ele>
        <time>2019-12-08T09:14:53Z</time>
      </trkpt>
      <trkpt lat="43.46729" lon="2.14746">
        <ele>497</ele>
        <time>2019-12-08T09:14:57Z</time>
      </trkpt>
      <trkpt lat="43.4673" lon="2.14752">
        <ele>498</ele>
        <time>2019-12-08T09:15:00Z</time>
      </trkpt>
      <trkpt lat="43.4673" lon="2.14754">
        <ele>499</ele>
        <time>2019-12-08T09:15:01Z</time>
      </trkpt>
      <trkpt lat="43.46732" lon="2.14767">
        <ele>500</ele>
        <time>2019-12-08T09:15:07Z</time>
      </trkpt>
      <trkpt lat="43.46733" lon="2.14769">
        <ele>500</ele>
        <time>2019-12-08T09:15:08Z</time>
      </trkpt>
      <trkpt lat="43.46737" lon="2.14779">
        <ele>501</ele>
        <time>2019-12-08T09:15:12Z</time>
      </trkpt>
      <trkpt lat="43.46739" lon="2.1478">
        <ele>501</ele>
        <time>2019-12-08T09:15:13Z</time>
      </trkpt>
      <trkpt lat="43.46746" lon="2.14786">
        <ele>502</ele>
        <time>2019-12-08T09:15:17Z</time>
      </trkpt>
      <trkpt lat="43.46749" lon="2.14789">
        <ele>502</ele>
        <time>2019-12-08T09:15:19Z</time>
      </trkpt>
      <trkpt lat="43.46753" lon="2.14792">
        <ele>503</ele>
        <time>2019-12-08T09:15:22Z</time>
      </trkpt>
      <trkpt lat="43.46757" lon="2.14798">
        <ele>503</ele>
        <time>2019-12-08T09:15:25Z</time>
      </trkpt>
      <trkpt lat="43.46763" lon="2.14805">
        <ele>504</ele>
        <time>2019-12-08T09:15:29Z</time>
      </trkpt>
      <trkpt lat="43.46765" lon="2.14809">
        <ele>504</ele>
        <time>2019-12-08T09:15:31Z</time>
      </trkpt>
      <trkpt lat="43.46767" lon="2.14817">
        <ele>505</ele>
        <time>2019-12-08T09:15:34Z</time>
      </trkpt>
      <trkpt lat="43.4677" lon="2.14828">
        <ele>506</ele>
        <time>2019-12-08T09:15:38Z</time>
      </trkpt>
      <trkpt lat="43.46771" lon="2.14831">
        <ele>506</ele>
        <time>2019-12-08T09:15:39Z</time>
      </trkpt>
      <trkpt lat="43.46771" lon="2.14842">
        <ele>507</ele>
        <time>2019-12-08T09:15:43Z</time>
      </trkpt>
      <trkpt lat="43.46772" lon="2.14844">
        <ele>507</ele>
        <time>2019-12-08T09:15:44Z</time>
      </trkpt>
      <trkpt lat="43.46773" lon="2.14854">
        <ele>508</ele>
        <time>2019-12-08T09:15:48Z</time>
      </trkpt>
      <trkpt lat="43.46773" lon="2.14861">
        <ele>508</ele>
        <time>2019-12-08T09:15:51Z</time>
      </trkpt>
      <trkpt lat="43.46773" lon="2.14867">
        <ele>509</ele>
        <time>2019-12-08T09:15:53Z</time>
      </trkpt>
      <trkpt lat="43.46774" lon="2.14877">
        <ele>509</ele>
        <time>2019-12-08T09:15:57Z</time>
      </trkpt>
      <trkpt lat="43.46774" lon="2.14884">
        <ele>510</ele>
        <time>2019-12-08T09:16:00Z</time>
      </trkpt>
      <trkpt lat="43.46774" lon="2.14891">
        <ele>511</ele>
        <time>2019-12-08T09:16:03Z</time>
      </trkpt>
      <trkpt lat="43.46773" lon="2.14894">
        <ele>511</ele>
        <time>2019-12-08T09:16:04Z</time>
      </trkpt>
      <trkpt lat="43.46774" lon="2.14904">
        <ele>512</ele>
        <time>2019-12-08T09:16:08Z</time>
      </trkpt>
      <trkpt lat="43.46774" lon="2.14906">
        <ele>512</ele>
        <time>2019-12-08T09:16:09Z</time>
      </trkpt>
      <trkpt lat="43.46774" lon="2.14917">
        <ele>513</ele>
        <time>2019-12-08T09:16:14Z</time>
      </trkpt>
      <trkpt lat="43.46774" lon="2.14923">
        <ele>513</ele>
        <time>2019-12-08T09:16:16Z</time>
      </trkpt>
      <trkpt lat="43.46771" lon="2.14936">
        <ele>514</ele>
        <time>2019-12-08T09:16:21Z</time>
      </trkpt>
      <trkpt lat="43.46769" lon="2.14942">
        <ele>514</ele>
        <time>2019-12-08T09:16:23Z</time>
      </trkpt>
      <trkpt lat="43.46768" lon="2.14944">
        <ele>514</ele>
        <time>2019-12-08T09:16:24Z</time>
      </trkpt>
      <trkpt lat="43.46767" lon="2.14949">
        <ele>515</ele>
        <time>2019-12-08T09:16:26Z</time>
      </trkpt>
      <trkpt lat="43.46767" lon="2.14954">
        <ele>515</ele>
        <time>2019-12-08T09:16:28Z</time>
      </trkpt>
      <trkpt lat="43.46764" lon="2.14968">
        <ele>516</ele>
        <time>2019-12-08T09:16:33Z</time>
      </trkpt>
      <trkpt lat="43.46762" lon="2.14973">
        <ele>517</ele>
        <time>2019-12-08T09:16:35Z</time>
      </trkpt>
      <trkpt lat="43.46761" lon="2.14977">
        <ele>517</ele>
        <time>2019-12-08T09:16:37Z</time>
      </trkpt>
      <trkpt lat="43.46756" lon="2.14987">
        <ele>518</ele>
        <time>2019-12-08T09:16:42Z</time>
      </trkpt>
      <trkpt lat="43.46754" lon="2.14989">
        <ele>518</ele>
        <time>2019-12-08T09:16:43Z</time>
      </trkpt>
      <trkpt lat="43.46747" lon="2.15004">
        <ele>519</ele>
        <time>2019-12-08T09:16:49Z</time>
      </trkpt>
      <trkpt lat="43.46741" lon="2.15018">
        <ele>520</ele>
        <time>2019-12-08T09:16:55Z</time>
      </trkpt>
      <trkpt lat="43.46739" lon="2.1502">
        <ele>520</ele>
        <time>2019-12-08T09:16:56Z</time>
      </trkpt>
      <trkpt lat="43.46734" lon="2.15029">
        <ele>521</ele>
        <time>2019-12-08T09:17:01Z</time>
      </trkpt>
      <trkpt lat="43.46731" lon="2.15032">
        <ele>522</ele>
        <time>2019-12-08T09:17:03Z</time>
      </trkpt>
      <trkpt lat="43.46728" lon="2.15034">
        <ele>522</ele>
        <time>2019-12-08T09:17:05Z</time>
      </trkpt>
      <trkpt lat="43.46726" lon="2.15035">
        <ele>522</ele>
        <time>2019-12-08T09:17:06Z</time>
      </trkpt>
      <trkpt lat="43.46721" lon="2.15038">
        <ele>523</ele>
        <time>2019-12-08T09:17:09Z</time>
      </trkpt>
      <trkpt lat="43.46717" lon="2.15041">
        <ele>523</ele>
        <time>2019-12-08T09:17:12Z</time>
      </trkpt>
      <trkpt lat="43.46712" lon="2.15045">
        <ele>524</ele>
        <time>2019-12-08T09:17:16Z</time>
      </trkpt>
      <trkpt lat="43.46708" lon="2.15048">
        <ele>524</ele>
        <time>2019-12-08T09:17:19Z</time>
      </trkpt>
      <trkpt lat="43.46704" lon="2.15051">
        <ele>525</ele>
        <time>2019-12-08T09:17:22Z</time>
      </trkpt>
      <trkpt lat="43.46703" lon="2.15052">
        <ele>525</ele>
        <time>2019-12-08T09:17:23Z</time>
      </trkpt>
      <trkpt lat="43.46699" lon="2.15055">
        <ele>526</ele>
        <time>2019-12-08T09:17:26Z</time>
      </trkpt>
      <trkpt lat="43.46695" lon="2.15058">
        <ele>527</ele>
        <time>2019-12-08T09:17:29Z</time>
      </trkpt>
      <trkpt lat="43.46688" lon="2.15064">
        <ele>527</ele>
        <time>2019-12-08T09:17:34Z</time>
      </trkpt>
      <trkpt lat="43.46686" lon="2.15065">
        <ele>527</ele>
        <time>2019-12-08T09:17:35Z</time>
      </trkpt>
      <trkpt lat="43.46684" lon="2.15068">
        <ele>528</ele>
        <time>2019-12-08T09:17:37Z</time>
      </trkpt>
      <trkpt lat="43.46683" lon="2.15072">
        <ele>528</ele>
        <time>2019-12-08T09:17:40Z</time>
      </trkpt>
      <trkpt lat="43.46682" lon="2.15074">
        <ele>529</ele>
        <time>2019-12-08T09:17:41Z</time>
      </trkpt>
      <trkpt lat="43.46678" lon="2.15081">
        <ele>529</ele>
        <time>2019-12-08T09:17:45Z</time>
      </trkpt>
      <trkpt lat="43.46675" lon="2.15085">
        <ele>530</ele>
        <time>2019-12-08T09:17:47Z</time>
      </trkpt>
      <trkpt lat="43.46673" lon="2.1509">
        <ele>530</ele>
        <time>2019-12-08T09:17:49Z</time>
      </trkpt>
      <trkpt lat="43.46673" lon="2.15091">
        <ele>530</ele>
        <time>2019-12-08T09:17:50Z</time>
      </trkpt>
      <trkpt lat="43.46674" lon="2.15094">
        <ele>531</ele>
        <time>2019-12-08T09:17:52Z</time>
      </trkpt>
      <trkpt lat="43.46673" lon="2.15099">
        <ele>532</ele>
        <time>2019-12-08T09:17:54Z</time>
      </trkpt>
      <trkpt lat="43.46674" lon="2.15105">
        <ele>532</ele>
        <time>2019-12-08T09:17:57Z</time>
      </trkpt>
      <trkpt lat="43.46674" lon="2.15108">
        <ele>533</ele>
        <time>2019-12-08T09:17:58Z</time>
      </trkpt>
      <trkpt lat="43.46676" lon="2.15113">
        <ele>533</ele>
        <time>2019-12-08T09:18:00Z</time>
      </trkpt>
      <trkpt lat="43.46677" lon="2.15119">
        <ele>533</ele>
        <time>2019-12-08T09:18:03Z</time>
      </trkpt>
      <trkpt lat="43.4668" lon="2.15131">
        <ele>534</ele>
        <time>2019-12-08T09:18:08Z</time>
      </trkpt>
      <trkpt lat="43.46681" lon="2.15133">
        <ele>535</ele>
        <time>2019-12-08T09:18:09Z</time>
      </trkpt>
      <trkpt lat="43.46686" lon="2.15142">
        <ele>535</ele>
        <time>2019-12-08T09:18:13Z</time>
      </trkpt>
      <trkpt lat="43.46688" lon="2.15146">
        <ele>536</ele>
        <time>2019-12-08T09:18:15Z</time>
      </trkpt>
      <trkpt lat="43.46692" lon="2.15149">
        <ele>536</ele>
        <time>2019-12-08T09:18:18Z</time>
      </trkpt>
      <trkpt lat="43.46697" lon="2.15154">
        <ele>537</ele>
        <time>2019-12-08T09:18:21Z</time>
      </trkpt>
      <trkpt lat="43.467" lon="2.15156">
        <ele>537</ele>
        <time>2019-12-08T09:18:23Z</time>
      </trkpt>
      <trkpt lat="43.46706" lon="2.15159">
        <ele>538</ele>
        <time>2019-12-08T09:18:27Z</time>
      </trkpt>
      <trkpt lat="43.46712" lon="2.15161">
        <ele>539</ele>
        <time>2019-12-08T09:18:31Z</time>
      </trkpt>
      <trkpt lat="43.46715" lon="2.15163">
        <ele>539</ele>
        <time>2019-12-08T09:18:33Z</time>
      </trkpt>
      <trkpt lat="43.46721" lon="2.15165">
        <ele>540</ele>
        <time>2019-12-08T09:18:37Z</time>
      </trkpt>
      <trkpt lat="43.46723" lon="2.15166">
        <ele>540</ele>
        <time>2019-12-08T09:18:38Z</time>
      </trkpt>
      <trkpt lat="43.46732" lon="2.15167">
        <ele>541</ele>
        <time>2019-12-08T09:18:43Z</time>
      </trkpt>
      <trkpt lat="43.46734" lon="2.15167">
        <ele>541</ele>
        <time>2019-12-08T09:18:44Z</time>
      </trkpt>
      <trkpt lat="43.46738" lon="2.15167">
        <ele>542</ele>
        <time>2019-12-08T09:18:47Z</time>
      </trkpt>
      <trkpt lat="43.46742" lon="2.15167">
        <ele>542</ele>
        <time>2019-12-08T09:18:50Z</time>
      </trkpt>
      <trkpt lat="43.46749" lon="2.15167">
        <ele>543</ele>
        <time>2019-12-08T09:18:54Z</time>
      </trkpt>
      <trkpt lat="43.46751" lon="2.15167">
        <ele>543</ele>
        <time>2019-12-08T09:18:55Z</time>
      </trkpt>
      <trkpt lat="43.46758" lon="2.15168">
        <ele>544</ele>
        <time>2019-12-08T09:18:59Z</time>
      </trkpt>
      <trkpt lat="43.46762" lon="2.15168">
        <ele>544</ele>
        <time>2019-12-08T09:19:02Z</time>
      </trkpt>
      <trkpt lat="43.46767" lon="2.15168">
        <ele>545</ele>
        <time>2019-12-08T09:19:05Z</time>
      </trkpt>
      <trkpt lat="43.46774" lon="2.15168">
        <ele>546</ele>
        <time>2019-12-08T09:19:09Z</time>
      </trkpt>
      <trkpt lat="43.46775" lon="2.15168">
        <ele>546</ele>
        <time>2019-12-08T09:19:10Z</time>
      </trkpt>
      <trkpt lat="43.46784" lon="2.15169">
        <ele>547</ele>
        <time>2019-12-08T09:19:15Z</time>
      </trkpt>
      <trkpt lat="43.46786" lon="2.15168">
        <ele>547</ele>
        <time>2019-12-08T09:19:16Z</time>
      </trkpt>
      <trkpt lat="43.46788" lon="2.15168">
        <ele>547</ele>
        <time>2019-12-08T09:19:17Z</time>
      </trkpt>
      <trkpt lat="43.46795" lon="2.15172">
        <ele>548</ele>
        <time>2019-12-08T09:19:21Z</time>
      </trkpt>
      <trkpt lat="43.46801" lon="2.15175">
        <ele>548</ele>
        <time>2019-12-08T09:19:24Z</time>
      </trkpt>
      <trkpt lat="43.46807" lon="2.15176">
        <ele>549</ele>
        <time>2019-12-08T09:19:27Z</time>
      </trkpt>
      <trkpt lat="43.46809" lon="2.15176">
        <ele>549</ele>
        <time>2019-12-08T09:19:28Z</time>
      </trkpt>
      <trkpt lat="43.46817" lon="2.15176">
        <ele>550</ele>
        <time>2019-12-08T09:19:32Z</time>
      </trkpt>
      <trkpt lat="43.46823" lon="2.15178">
        <ele>551</ele>
        <time>2019-12-08T09:19:35Z</time>
      </trkpt>
      <trkpt lat="43.46829" lon="2.1518">
        <ele>551</ele>
        <time>2019-12-08T09:19:38Z</time>
      </trkpt>
      <trkpt lat="43.46838" lon="2.15184">
        <ele>552</ele>
        <time>2019-12-08T09:19:43Z</time>
      </trkpt>
      <trkpt lat="43.4684" lon="2.15186">
        <ele>552</ele>
        <time>2019-12-08T09:19:44Z</time>
      </trkpt>
      <trkpt lat="43.46847" lon="2.15192">
        <ele>553</ele>
        <time>2019-12-08T09:19:48Z</time>
      </trkpt>
      <trkpt lat="43.46852" lon="2.15197">
        <ele>554</ele>
        <time>2019-12-08T09:19:51Z</time>
      </trkpt>
      <trkpt lat="43.46856" lon="2.15205">
        <ele>554</ele>
        <time>2019-12-08T09:19:54Z</time>
      </trkpt>
      <trkpt lat="43.46861" lon="2.1522">
        <ele>555</ele>
        <time>2019-12-08T09:20:00Z</time>
      </trkpt>
      <trkpt lat="43.46864" lon="2.15236">
        <ele>556</ele>
        <time>2019-12-08T09:20:06Z</time>
      </trkpt>
      <trkpt lat="43.46864" lon="2.15239">
        <ele>557</ele>
        <time>2019-12-08T09:20:07Z</time>
      </trkpt>
      <trkpt lat="43.46863" lon="2.15246">
        <ele>558</ele>
        <time>2019-12-08T09:20:10Z</time>
      </trkpt>
      <trkpt lat="43.46862" lon="2.15255">
        <ele>559</ele>
        <time>2019-12-08T09:20:14Z</time>
      </trkpt>
      <trkpt lat="43.46862" lon="2.15258">
        <ele>559</ele>
        <time>2019-12-08T09:20:15Z</time>
      </trkpt>
      <trkpt lat="43.46862" lon="2.15269">
        <ele>560</ele>
        <time>2019-12-08T09:20:20Z</time>
      </trkpt>
      <trkpt lat="43.46862" lon="2.15271">
        <ele>560</ele>
        <time>2019-12-08T09:20:21Z</time>
      </trkpt>
      <trkpt lat="43.46864" lon="2.15283">
        <ele>561</ele>
        <time>2019-12-08T09:20:26Z</time>
      </trkpt>
      <trkpt lat="43.46865" lon="2.15285">
        <ele>561</ele>
        <time>2019-12-08T09:20:27Z</time>
      </trkpt>
      <trkpt lat="43.46869" lon="2.15297">
        <ele>562</ele>
        <time>2019-12-08T09:20:32Z</time>
      </trkpt>
      <trkpt lat="43.46871" lon="2.15302">
        <ele>563</ele>
        <time>2019-12-08T09:20:34Z</time>
      </trkpt>
      <trkpt lat="43.46873" lon="2.15308">
        <ele>564</ele>
        <time>2019-12-08T09:20:37Z</time>
      </trkpt>
      <trkpt lat="43.46876" lon="2.15315">
        <ele>564</ele>
        <time>2019-12-08T09:20:40Z</time>
      </trkpt>
      <trkpt lat="43.46878" lon="2.15324">
        <ele>565</ele>
        <time>2019-12-08T09:20:44Z</time>
      </trkpt>
      <trkpt lat="43.46881" lon="2.15331">
        <ele>565</ele>
        <time>2019-12-08T09:20:47Z</time>
      </trkpt>
      <trkpt lat="43.46884" lon="2.15339">
        <ele>566</ele>
        <time>2019-12-08T09:20:50Z</time>
      </trkpt>
      <trkpt lat="43.46888" lon="2.15348">
        <ele>567</ele>
        <time>2019-12-08T09:20:54Z</time>
      </trkpt>
      <trkpt lat="43.4689" lon="2.15352">
        <ele>567</ele>
        <time>2019-12-08T09:20:56Z</time>
      </trkpt>
      <trkpt lat="43.46893" lon="2.1536">
        <ele>568</ele>
        <time>2019-12-08T09:20:59Z</time>
      </trkpt>
      <trkpt lat="43.46894" lon="2.15366">
        <ele>568</ele>
        <time>2019-12-08T09:21:01Z</time>
      </trkpt>
      <trkpt lat="43.46899" lon="2.15378">
        <ele>570</ele>
        <time>2019-12-08T09:21:06Z</time>
      </trkpt>
      <trkpt lat="43.46902" lon="2.15388">
        <ele>571</ele>
        <time>2019-12-08T09:21:10Z</time>
      </trkpt>
      <trkpt lat="43.46905" lon="2.15395">
        <ele>571</ele>
        <time>2019-12-08T09:21:13Z</time>
      </trkpt>
      <trkpt lat="43.46908" lon="2.15402">
        <ele>572</ele>
        <time>2019-12-08T09:21:16Z</time>
      </trkpt>
      <trkpt lat="43.4691" lon="2.15411">
        <ele>573</ele>
        <time>2019-12-08T09:21:19Z</time>
      </trkpt>
      <trkpt lat="43.46911" lon="2.15414">
        <ele>573</ele>
        <time>2019-12-08T09:21:20Z</time>
      </trkpt>
      <trkpt lat="43.46915" lon="2.1543">
        <ele>574</ele>
        <time>2019-12-08T09:21:26Z</time>
      </trkpt>
      <trkpt lat="43.46916" lon="2.15439">
        <ele>575</ele>
        <time>2019-12-08T09:21:29Z</time>
      </trkpt>
      <trkpt lat="43.46917" lon="2.15442">
        <ele>575</ele>
        <time>2019-12-08T09:21:30Z</time>
      </trkpt>
      <trkpt lat="43.4692" lon="2.15463">
        <ele>576</ele>
        <time>2019-12-08T09:21:37Z</time>
      </trkpt>
      <trkpt lat="43.46921" lon="2.15469">
        <ele>576</ele>
        <time>2019-12-08T09:21:39Z</time>
      </trkpt>
      <trkpt lat="43.46922" lon="2.15477">
        <ele>577</ele>
        <time>2019-12-08T09:21:42Z</time>
      </trkpt>
      <trkpt lat="43.46924" lon="2.15492">
        <ele>578</ele>
        <time>2019-12-08T09:21:47Z</time>
      </trkpt>
      <trkpt lat="43.46924" lon="2.15495">
        <ele>578</ele>
        <time>2019-12-08T09:21:48Z</time>
      </trkpt>
      <trkpt lat="43.46926" lon="2.15512">
        <ele>579</ele>
        <time>2019-12-08T09:21:54Z</time>
      </trkpt>
      <trkpt lat="43.46928" lon="2.15531">
        <ele>580</ele>
        <time>2019-12-08T09:22:01Z</time>
      </trkpt>
      <trkpt lat="43.4693" lon="2.15546">
        <ele>581</ele>
        <time>2019-12-08T09:22:06Z</time>
      </trkpt>
      <trkpt lat="43.46931" lon="2.15557">
        <ele>582</ele>
        <time>2019-12-08T09:22:10Z</time>
      </trkpt>
      <trkpt lat="43.46932" lon="2.15565">
        <ele>583</ele>
        <time>2019-12-08T09:22:13Z</time>
      </trkpt>
      <trkpt lat="43.46932" lon="2.15578">
        <ele>584</ele>
        <time>2019-12-08T09:22:18Z</time>
      </trkpt>
      <trkpt lat="43.46932" lon="2.15591">
        <ele>585</ele>
        <time>2019-12-08T09:22:23Z</time>
      </trkpt>
      <trkpt lat="43.46931" lon="2.15594">
        <ele>585</ele>
        <time>2019-12-08T09:22:24Z</time>
      </trkpt>
      <trkpt lat="43.46929" lon="2.15609">
        <ele>586</ele>
        <time>2019-12-08T09:22:30Z</time>
      </trkpt>
      <trkpt lat="43.46927" lon="2.15619">
        <ele>587</ele>
        <time>2019-12-08T09:22:34Z</time>
      </trkpt>
      <trkpt lat="43.46926" lon="2.15624">
        <ele>587</ele>
        <time>2019-12-08T09:22:36Z</time>
      </trkpt>
      <trkpt lat="43.46924" lon="2.15634">
        <ele>588</ele>
        <time>2019-12-08T09:22:40Z</time>
      </trkpt>
      <trkpt lat="43.46922" lon="2.15641">
        <ele>589</ele>
        <time>2019-12-08T09:22:43Z</time>
      </trkpt>
      <trkpt lat="43.46921" lon="2.15648">
        <ele>590</ele>
        <time>2019-12-08T09:22:46Z</time>
      </trkpt>
      <trkpt lat="43.46919" lon="2.15658">
        <ele>591</ele>
        <time>2019-12-08T09:22:50Z</time>
      </trkpt>
      <trkpt lat="43.46919" lon="2.15661">
        <ele>591</ele>
        <time>2019-12-08T09:22:51Z</time>
      </trkpt>
      <trkpt lat="43.46916" lon="2.15673">
        <ele>592</ele>
        <time>2019-12-08T09:22:56Z</time>
      </trkpt>
      <trkpt lat="43.46913" lon="2.15685">
        <ele>593</ele>
        <time>2019-12-08T09:23:01Z</time>
      </trkpt>
      <trkpt lat="43.46913" lon="2.15687">
        <ele>593</ele>
        <time>2019-12-08T09:23:02Z</time>
      </trkpt>
      <trkpt lat="43.46909" lon="2.15698">
        <ele>594</ele>
        <time>2019-12-08T09:23:07Z</time>
      </trkpt>
      <trkpt lat="43.46905" lon="2.15704">
        <ele>595</ele>
        <time>2019-12-08T09:23:10Z</time>
      </trkpt>
      <trkpt lat="43.46902" lon="2.15707">
        <ele>595</ele>
        <time>2019-12-08T09:23:12Z</time>
      </trkpt>
      <trkpt lat="43.46894" lon="2.15708">
        <ele>596</ele>
        <time>2019-12-08T09:23:16Z</time>
      </trkpt>
      <trkpt lat="43.4689" lon="2.15706">
        <ele>596</ele>
        <time>2019-12-08T09:23:18Z</time>
      </trkpt>
      <trkpt lat="43.4688" lon="2.157">
        <ele>597</ele>
        <time>2019-12-08T09:23:23Z</time>
      </trkpt>
      <trkpt lat="43.46878" lon="2.15699">
        <ele>597</ele>
        <time>2019-12-08T09:23:24Z</time>
      </trkpt>
      <trkpt lat="43.46869" lon="2.15692">
        <ele>598</ele>
        <time>2019-12-08T09:23:29Z</time>
      </trkpt>
      <trkpt lat="43.46863" lon="2.15687">
        <ele>598</ele>
        <time>2019-12-08T09:23:32Z</time>
      </trkpt>
      <trkpt lat="43.46848" lon="2.15674">
        <ele>599</ele>
        <time>2019-12-08T09:23:40Z</time>
      </trkpt>
      <trkpt lat="43.46846" lon="2.15672">
        <ele>600</ele>
        <time>2019-12-08T09:23:41Z</time>
      </trkpt>
      <trkpt lat="43.46832" lon="2.15656">
        <ele>601</ele>
        <time>2019-12-08T09:23:49Z</time>
      </trkpt>
      <trkpt lat="43.4682" lon="2.15641">
        <ele>602</ele>
        <time>2019-12-08T09:23:56Z</time>
      </trkpt>
      <trkpt lat="43.46816" lon="2.15635">
        <ele>602</ele>
        <time>2019-12-08T09:23:59Z</time>
      </trkpt>
      <trkpt lat="43.46813" lon="2.15631">
        <ele>603</ele>
        <time>2019-12-08T09:24:01Z</time>
      </trkpt>
      <trkpt lat="43.46804" lon="2.15618">
        <ele>604</ele>
        <time>2019-12-08T09:24:07Z</time>
      </trkpt>
      <trkpt lat="43.46799" lon="2.15611">
        <ele>604</ele>
        <time>2019-12-08T09:24:10Z</time>
      </trkpt>
      <trkpt lat="43.4679" lon="2.15599">
        <ele>605</ele>
        <time>2019-12-08T09:24:16Z</time>
      </trkpt>
      <trkpt lat="43.46782" lon="2.15588">
        <ele>606</ele>
        <time>2019-12-08T09:24:22Z</time>
      </trkpt>
      <trkpt lat="43.46779" lon="2.15584">
        <ele>606</ele>
        <time>2019-12-08T09:24:24Z</time>
      </trkpt>
      <trkpt lat="43.4677" lon="2.1557">
        <ele>607</ele>
        <time>2019-12-08T09:24:30Z</time>
      </trkpt>
      <trkpt lat="43.46762" lon="2.15559">
        <ele>609</ele>
        <time>2019-12-08T09:24:35Z</time>
      </trkpt>
      <trkpt lat="43.46757" lon="2.15551">
        <ele>609</ele>
        <time>2019-12-08T09:24:38Z</time>
      </trkpt>
      <trkpt lat="43.46751" lon="2.15541">
        <ele>610</ele>
        <time>2019-12-08T09:24:42Z</time>
      </trkpt>
      <trkpt lat="43.46743" lon="2.15529">
        <ele>610</ele>
        <time>2019-12-08T09:24:47Z</time>
      </trkpt>
      <trkpt lat="43.46739" lon="2.15525">
        <ele>611</ele>
        <time>2019-12-08T09:24:49Z</time>
      </trkpt>
      <trkpt lat="43.46731" lon="2.15516">
        <ele>612</ele>
        <time>2019-12-08T09:24:54Z</time>
      </trkpt>
      <trkpt lat="43.46729" lon="2.15514">
        <ele>612</ele>
        <time>2019-12-08T09:24:55Z</time>
      </trkpt>
      <trkpt lat="43.4672" lon="2.15506">
        <ele>613</ele>
        <time>2019-12-08T09:25:00Z</time>
      </trkpt>
      <trkpt lat="43.46712" lon="2.15501">
        <ele>614</ele>
        <time>2019-12-08T09:25:04Z</time>
      </trkpt>
      <trkpt lat="43.4671" lon="2.15499">
        <ele>614</ele>
        <time>2019-12-08T09:25:05Z</time>
      </trkpt>
      <trkpt lat="43.46701" lon="2.15492">
        <ele>615</ele>
        <time>2019-12-08T09:25:10Z</time>
      </trkpt>
      <trkpt lat="43.46693" lon="2.15487">
        <ele>616</ele>
        <time>2019-12-08T09:25:14Z</time>
      </trkpt>
      <trkpt lat="43.46689" lon="2.15486">
        <ele>616</ele>
        <time>2019-12-08T09:25:16Z</time>
      </trkpt>
      <trkpt lat="43.46679" lon="2.15487">
        <ele>617</ele>
        <time>2019-12-08T09:25:21Z</time>
      </trkpt>
      <trkpt lat="43.46677" lon="2.15488">
        <ele>618</ele>
        <time>2019-12-08T09:25:22Z</time>
      </trkpt>
      <trkpt lat="43.46669" lon="2.15491">
        <ele>619</ele>
        <time>2019-12-08T09:25:26Z</time>
      </trkpt>
      <trkpt lat="43.46665" lon="2.15492">
        <ele>619</ele>
        <time>2019-12-08T09:25:28Z</time>
      </trkpt>
      <trkpt lat="43.46659" lon="2.15493">
        <ele>620</ele>
        <time>2019-12-08T09:25:31Z</time>
      </trkpt>
      <trkpt lat="43.46647" lon="2.15492">
        <ele>621</ele>
        <time>2019-12-08T09:25:37Z</time>
      </trkpt>
      <trkpt lat="43.46645" lon="2.15492">
        <ele>621</ele>
        <time>2019-12-08T09:25:38Z</time>
      </trkpt>
      <trkpt lat="43.46633" lon="2.1549">
        <ele>622</ele>
        <time>2019-12-08T09:25:44Z</time>
      </trkpt>
      <trkpt lat="43.46621" lon="2.15489">
        <ele>623</ele>
        <time>2019-12-08T09:25:50Z</time>
      </trkpt>
      <trkpt lat="43.46607" lon="2.15485">
        <ele>624</ele>
        <time>2019-12-08T09:25:56Z</time>
      </trkpt>
      <trkpt lat="43.46603" lon="2.15484">
        <ele>625</ele>
        <time>2019-12-08T09:25:58Z</time>
      </trkpt>
      <trkpt lat="43.46591" lon="2.15482">
        <ele>625</ele>
        <time>2019-12-08T09:26:03Z</time>
      </trkpt>
      <trkpt lat="43.46587" lon="2.15481">
        <ele>626</ele>
        <time>2019-12-08T09:26:05Z</time>
      </trkpt>
      <trkpt lat="43.46579" lon="2.15479">
        <ele>626</ele>
        <time>2019-12-08T09:26:09Z</time>
      </trkpt>
      <trkpt lat="43.46572" lon="2.1548">
        <ele>627</ele>
        <time>2019-12-08T09:26:12Z</time>
      </trkpt>
      <trkpt lat="43.46565" lon="2.1548">
        <ele>628</ele>
        <time>2019-12-08T09:26:15Z</time>
      </trkpt>
      <trkpt lat="43.46558" lon="2.15481">
        <ele>628</ele>
        <time>2019-12-08T09:26:18Z</time>
      </trkpt>
      <trkpt lat="43.46553" lon="2.15483">
        <ele>629</ele>
        <time>2019-12-08T09:26:20Z</time>
      </trkpt>
      <trkpt lat="43.46539" lon="2.15487">
        <ele>630</ele>
        <time>2019-12-08T09:26:26Z</time>
      </trkpt>
      <trkpt lat="43.46535" lon="2.15488">
        <ele>630</ele>
        <time>2019-12-08T09:26:28Z</time>
      </trkpt>
      <trkpt lat="43.46528" lon="2.1549">
        <ele>631</ele>
        <time>2019-12-08T09:26:31Z</time>
      </trkpt>
      <trkpt lat="43.46517" lon="2.15492">
        <ele>632</ele>
        <time>2019-12-08T09:26:36Z</time>
      </trkpt>
      <trkpt lat="43.46515" lon="2.15493">
        <ele>632</ele>
        <time>2019-12-08T09:26:37Z</time>
      </trkpt>
      <trkpt lat="43.46506" lon="2.15494">
        <ele>634</ele>
        <time>2019-12-08T09:26:41Z</time>
      </trkpt>
      <trkpt lat="43.46494" lon="2.15495">
        <ele>635</ele>
        <time>2019-12-08T09:26:46Z</time>
      </trkpt>
      <trkpt lat="43.4649" lon="2.15496">
        <ele>635</ele>
        <time>2019-12-08T09:26:48Z</time>
      </trkpt>
      <trkpt lat="43.46481" lon="2.15495">
        <ele>636</ele>
        <time>2019-12-08T09:26:52Z</time>
      </trkpt>
      <trkpt lat="43.4647" lon="2.15492">
        <ele>637</ele>
        <time>2019-12-08T09:26:57Z</time>
      </trkpt>
      <trkpt lat="43.46466" lon="2.1549">
        <ele>637</ele>
        <time>2019-12-08T09:26:59Z</time>
      </trkpt>
      <trkpt lat="43.46456" lon="2.15486">
        <ele>638</ele>
        <time>2019-12-08T09:27:04Z</time>
      </trkpt>
      <trkpt lat="43.46452" lon="2.15484">
        <ele>638</ele>
        <time>2019-12-08T09:27:06Z</time>
      </trkpt>
      <trkpt lat="43.46444" lon="2.1548">
        <ele>639</ele>
        <time>2019-12-08T09:27:10Z</time>
      </trkpt>
      <trkpt lat="43.46433" lon="2.15476">
        <ele>640</ele>
        <time>2019-12-08T09:27:15Z</time>
      </trkpt>
      <trkpt lat="43.46431" lon="2.15475">
        <ele>640</ele>
        <time>2019-12-08T09:27:16Z</time>
      </trkpt>
      <trkpt lat="43.46424" lon="2.15471">
        <ele>642</ele>
        <time>2019-12-08T09:27:20Z</time>
      </trkpt>
      <trkpt lat="43.46422" lon="2.1547">
        <ele>642</ele>
        <time>2019-12-08T09:27:21Z</time>
      </trkpt>
      <trkpt lat="43.46414" lon="2.15466">
        <ele>643</ele>
        <time>2019-12-08T09:27:25Z</time>
      </trkpt>
      <trkpt lat="43.4641" lon="2.15464">
        <ele>643</ele>
        <time>2019-12-08T09:27:27Z</time>
      </trkpt>
      <trkpt lat="43.46404" lon="2.1546">
        <ele>644</ele>
        <time>2019-12-08T09:27:30Z</time>
      </trkpt>
      <trkpt lat="43.46395" lon="2.15454">
        <ele>645</ele>
        <time>2019-12-08T09:27:35Z</time>
      </trkpt>
      <trkpt lat="43.46393" lon="2.15453">
        <ele>645</ele>
        <time>2019-12-08T09:27:36Z</time>
      </trkpt>
      <trkpt lat="43.46382" lon="2.15445">
        <ele>646</ele>
        <time>2019-12-08T09:27:42Z</time>
      </trkpt>
      <trkpt lat="43.46374" lon="2.1544">
        <ele>647</ele>
        <time>2019-12-08T09:27:46Z</time>
      </trkpt>
      <trkpt lat="43.46369" lon="2.15436">
        <ele>648</ele>
        <time>2019-12-08T09:27:49Z</time>
      </trkpt>
      <trkpt lat="43.46367" lon="2.15434">
        <ele>648</ele>
        <time>2019-12-08T09:27:50Z</time>
      </trkpt>
      <trkpt lat="43.46354" lon="2.15422">
        <ele>650</ele>
        <time>2019-12-08T09:27:57Z</time>
      </trkpt>
      <trkpt lat="43.46353" lon="2.1542">
        <ele>650</ele>
        <time>2019-12-08T09:27:58Z</time>
      </trkpt>
      <trkpt lat="43.46347" lon="2.15412">
        <ele>651</ele>
        <time>2019-12-08T09:28:02Z</time>
      </trkpt>
      <trkpt lat="43.46339" lon="2.15401">
        <ele>652</ele>
        <time>2019-12-08T09:28:07Z</time>
      </trkpt>
      <trkpt lat="43.46331" lon="2.15391">
        <ele>653</ele>
        <time>2019-12-08T09:28:12Z</time>
      </trkpt>
      <trkpt lat="43.46321" lon="2.15382">
        <ele>654</ele>
        <time>2019-12-08T09:28:18Z</time>
      </trkpt>
      <trkpt lat="43.4631" lon="2.15381">
        <ele>655</ele>
        <time>2019-12-08T09:28:23Z</time>
      </trkpt>
      <trkpt lat="43.46301" lon="2.15382">
        <ele>656</ele>
        <time>2019-12-08T09:28:27Z</time>
      </trkpt>
      <trkpt lat="43.46297" lon="2.15383">
        <ele>656</ele>
        <time>2019-12-08T09:28:29Z</time>
      </trkpt>
      <trkpt lat="43.46282" lon="2.15391">
        <ele>657</ele>
        <time>2019-12-08T09:28:36Z</time>
      </trkpt>
      <trkpt lat="43.4628" lon="2.15392">
        <ele>658</ele>
        <time>2019-12-08T09:28:37Z</time>
      </trkpt>
      <trkpt lat="43.46269" lon="2.15399">
        <ele>658</ele>
        <time>2019-12-08T09:28:42Z</time>
      </trkpt>
      <trkpt lat="43.46261" lon="2.15405">
        <ele>659</ele>
        <time>2019-12-08T09:28:46Z</time>
      </trkpt>
      <trkpt lat="43.46256" lon="2.15409">
        <ele>660</ele>
        <time>2019-12-08T09:28:49Z</time>
      </trkpt>
      <trkpt lat="43.46241" lon="2.1542">
        <ele>661</ele>
        <time>2019-12-08T09:28:56Z</time>
      </trkpt>
      <trkpt lat="43.46227" lon="2.1543">
        <ele>662</ele>
        <time>2019-12-08T09:29:03Z</time>
      </trkpt>
      <trkpt lat="43.46223" lon="2.15433">
        <ele>662</ele>
        <time>2019-12-08T09:29:05Z</time>
      </trkpt>
      <trkpt lat="43.46213" lon="2.15439">
        <ele>663</ele>
        <time>2019-12-08T09:29:10Z</time>
      </trkpt>
      <trkpt lat="43.46206" lon="2.15442">
        <ele>664</ele>
        <time>2019-12-08T09:29:13Z</time>
      </trkpt>
      <trkpt lat="43.46202" lon="2.15443">
        <ele>664</ele>
        <time>2019-12-08T09:29:15Z</time>
      </trkpt>
      <trkpt lat="43.46192" lon="2.15445">
        <ele>666</ele>
        <time>2019-12-08T09:29:20Z</time>
      </trkpt>
      <trkpt lat="43.46182" lon="2.15444">
        <ele>667</ele>
        <time>2019-12-08T09:29:25Z</time>
      </trkpt>
      <trkpt lat="43.4618" lon="2.15444">
        <ele>667</ele>
        <time>2019-12-08T09:29:26Z</time>
      </trkpt>
      <trkpt lat="43.46171" lon="2.15444">
        <ele>668</ele>
        <time>2019-12-08T09:29:30Z</time>
      </trkpt>
      <trkpt lat="43.46162" lon="2.15444">
        <ele>669</ele>
        <time>2019-12-08T09:29:34Z</time>
      </trkpt>
      <trkpt lat="43.46151" lon="2.15445">
        <ele>670</ele>
        <time>2019-12-08T09:29:39Z</time>
      </trkpt>
      <trkpt lat="43.46142" lon="2.15447">
        <ele>671</ele>
        <time>2019-12-08T09:29:43Z</time>
      </trkpt>
      <trkpt lat="43.4614" lon="2.15448">
        <ele>671</ele>
        <time>2019-12-08T09:29:44Z</time>
      </trkpt>
      <trkpt lat="43.46129" lon="2.15452">
        <ele>672</ele>
        <time>2019-12-08T09:29:49Z</time>
      </trkpt>
      <trkpt lat="43.46123" lon="2.15454">
        <ele>673</ele>
        <time>2019-12-08T09:29:52Z</time>
      </trkpt>
      <trkpt lat="43.46121" lon="2.15455">
        <ele>673</ele>
        <time>2019-12-08T09:29:53Z</time>
      </trkpt>
      <trkpt lat="43.46113" lon="2.15459">
        <ele>674</ele>
        <time>2019-12-08T09:29:57Z</time>
      </trkpt>
      <trkpt lat="43.46102" lon="2.1546">
        <ele>675</ele>
        <time>2019-12-08T09:30:02Z</time>
      </trkpt>
      <trkpt lat="43.4609" lon="2.15458">
        <ele>677</ele>
        <time>2019-12-08T09:30:08Z</time>
      </trkpt>
      <trkpt lat="43.46085" lon="2.15455">
        <ele>677</ele>
        <time>2019-12-08T09:30:11Z</time>
      </trkpt>
      <trkpt lat="43.46081" lon="2.15453">
        <ele>678</ele>
        <time>2019-12-08T09:30:13Z</time>
      </trkpt>
      <trkpt lat="43.46071" lon="2.15449">
        <ele>679</ele>
        <time>2019-12-08T09:30:18Z</time>
      </trkpt>
      <trkpt lat="43.46069" lon="2.15448">
        <ele>679</ele>
        <time>2019-12-08T09:30:19Z</time>
      </trkpt>
      <trkpt lat="43.46062" lon="2.15446">
        <ele>680</ele>
        <time>2019-12-08T09:30:23Z</time>
      </trkpt>
      <trkpt lat="43.46056" lon="2.15444">
        <ele>681</ele>
        <time>2019-12-08T09:30:26Z</time>
      </trkpt>
      <trkpt lat="43.46053" lon="2.15443">
        <ele>681</ele>
        <time>2019-12-08T09:30:28Z</time>
      </trkpt>
      <trkpt lat="43.46045" lon="2.15442">
        <ele>682</ele>
        <time>2019-12-08T09:30:33Z</time>
      </trkpt>
      <trkpt lat="43.46036" lon="2.15442">
        <ele>683</ele>
        <time>2019-12-08T09:30:38Z</time>
      </trkpt>
      <trkpt lat="43.46035" lon="2.15442">
        <ele>684</ele>
        <time>2019-12-08T09:30:39Z</time>
      </trkpt>
      <trkpt lat="43.46025" lon="2.1544">
        <ele>685</ele>
        <time>2019-12-08T09:30:45Z</time>
      </trkpt>
      <trkpt lat="43.46023" lon="2.15439">
        <ele>685</ele>
        <time>2019-12-08T09:30:46Z</time>
      </trkpt>
      <trkpt lat="43.46022" lon="2.15438">
        <ele>686</ele>
        <time>2019-12-08T09:30:47Z</time>
      </trkpt>
      <trkpt lat="43.46014" lon="2.15437">
        <ele>686</ele>
        <time>2019-12-08T09:30:51Z</time>
      </trkpt>
      <trkpt lat="43.46012" lon="2.15436">
        <ele>687</ele>
        <time>2019-12-08T09:30:52Z</time>
      </trkpt>
      <trkpt lat="43.46002" lon="2.15432">
        <ele>688</ele>
        <time>2019-12-08T09:30:57Z</time>
      </trkpt>
      <trkpt lat="43.45991" lon="2.15429">
        <ele>689</ele>
        <time>2019-12-08T09:31:03Z</time>
      </trkpt>
      <trkpt lat="43.45989" lon="2.15428">
        <ele>689</ele>
        <time>2019-12-08T09:31:04Z</time>
      </trkpt>
      <trkpt lat="43.45983" lon="2.15427">
        <ele>690</ele>
        <time>2019-12-08T09:31:07Z</time>
      </trkpt>
      <trkpt lat="43.45976" lon="2.15426">
        <ele>691</ele>
        <time>2019-12-08T09:31:10Z</time>
      </trkpt>
      <trkpt lat="43.45969" lon="2.15424">
        <ele>691</ele>
        <time>2019-12-08T09:31:13Z</time>
      </trkpt>
      <trkpt lat="43.45962" lon="2.15418">
        <ele>692</ele>
        <time>2019-12-08T09:31:17Z</time>
      </trkpt>
      <trkpt lat="43.45961" lon="2.15417">
        <ele>693</ele>
        <time>2019-12-08T09:31:18Z</time>
      </trkpt>
      <trkpt lat="43.45955" lon="2.15412">
        <ele>693</ele>
        <time>2019-12-08T09:31:22Z</time>
      </trkpt>
      <trkpt lat="43.45954" lon="2.15409">
        <ele>694</ele>
        <time>2019-12-08T09:31:23Z</time>
      </trkpt>
      <trkpt lat="43.45947" lon="2.15402">
        <ele>694</ele>
        <time>2019-12-08T09:31:27Z</time>
      </trkpt>
      <trkpt lat="43.45944" lon="2.15398">
        <ele>695</ele>
        <time>2019-12-08T09:31:29Z</time>
      </trkpt>
      <trkpt lat="43.45937" lon="2.15391">
        <ele>696</ele>
        <time>2019-12-08T09:31:33Z</time>
      </trkpt>
      <trkpt lat="43.45931" lon="2.15384">
        <ele>696</ele>
        <time>2019-12-08T09:31:37Z</time>
      </trkpt>
      <trkpt lat="43.45929" lon="2.15383">
        <ele>697</ele>
        <time>2019-12-08T09:31:38Z</time>
      </trkpt>
      <trkpt lat="43.4592" lon="2.15375">
        <ele>698</ele>
        <time>2019-12-08T09:31:43Z</time>
      </trkpt>
      <trkpt lat="43.45919" lon="2.15374">
        <ele>698</ele>
        <time>2019-12-08T09:31:44Z</time>
      </trkpt>
      <trkpt lat="43.45914" lon="2.15368">
        <ele>699</ele>
        <time>2019-12-08T09:31:48Z</time>
      </trkpt>
      <trkpt lat="43.45913" lon="2.15367">
        <ele>699</ele>
        <time>2019-12-08T09:31:49Z</time>
      </trkpt>
      <trkpt lat="43.45904" lon="2.15356">
        <ele>700</ele>
        <time>2019-12-08T09:31:55Z</time>
      </trkpt>
      <trkpt lat="43.45903" lon="2.15354">
        <ele>700</ele>
        <time>2019-12-08T09:31:56Z</time>
      </trkpt>
      <trkpt lat="43.45898" lon="2.15345">
        <ele>701</ele>
        <time>2019-12-08T09:32:00Z</time>
      </trkpt>
      <trkpt lat="43.45897" lon="2.15342">
        <ele>701</ele>
        <time>2019-12-08T09:32:01Z</time>
      </trkpt>
      <trkpt lat="43.45892" lon="2.15335">
        <ele>702</ele>
        <time>2019-12-08T09:32:05Z</time>
      </trkpt>
      <trkpt lat="43.4589" lon="2.15333">
        <ele>702</ele>
        <time>2019-12-08T09:32:06Z</time>
      </trkpt>
      <trkpt lat="43.45889" lon="2.15333">
        <ele>702</ele>
        <time>2019-12-08T09:32:07Z</time>
      </trkpt>
      <trkpt lat="43.45885" lon="2.15332">
        <ele>703</ele>
        <time>2019-12-08T09:32:09Z</time>
      </trkpt>
      <trkpt lat="43.45884" lon="2.15332">
        <ele>703</ele>
        <time>2019-12-08T09:32:10Z</time>
      </trkpt>
      <trkpt lat="43.45882" lon="2.15332">
        <ele>703</ele>
        <time>2019-12-08T09:32:11Z</time>
      </trkpt>
      <trkpt lat="43.45876" lon="2.15336">
        <ele>704</ele>
        <time>2019-12-08T09:32:16Z</time>
      </trkpt>
      <trkpt lat="43.45874" lon="2.15337">
        <ele>704</ele>
        <time>2019-12-08T09:32:18Z</time>
      </trkpt>
      <trkpt lat="43.45871" lon="2.15338">
        <ele>704</ele>
        <time>2019-12-08T09:32:22Z</time>
      </trkpt>
      <trkpt lat="43.4587" lon="2.15339">
        <ele>704</ele>
        <time>2019-12-08T09:33:03Z</time>
      </trkpt>
      <trkpt lat="43.45868" lon="2.15341">
        <ele>704</ele>
        <time>2019-12-08T09:33:06Z</time>
      </trkpt>
      <trkpt lat="43.45867" lon="2.15342">
        <ele>704</ele>
        <time>2019-12-08T09:33:08Z</time>
      </trkpt>
      <trkpt lat="43.45867" lon="2.15342">
        <ele>704</ele>
        <time>2019-12-08T09:33:09Z</time>
      </trkpt>
      <trkpt lat="43.45866" lon="2.15345">
        <ele>704</ele>
        <time>2019-12-08T09:34:02Z</time>
      </trkpt>
      <trkpt lat="43.45865" lon="2.15347">
        <ele>704</ele>
        <time>2019-12-08T09:34:03Z</time>
      </trkpt>
      <trkpt lat="43.45863" lon="2.1535">
        <ele>704</ele>
        <time>2019-12-08T09:34:05Z</time>
      </trkpt>
      <trkpt lat="43.4586" lon="2.15358">
        <ele>704</ele>
        <time>2019-12-08T09:34:08Z</time>
      </trkpt>
      <trkpt lat="43.45857" lon="2.15362">
        <ele>704</ele>
        <time>2019-12-08T09:34:10Z</time>
      </trkpt>
      <trkpt lat="43.45851" lon="2.15377">
        <ele>705</ele>
        <time>2019-12-08T09:34:16Z</time>
      </trkpt>
      <trkpt lat="43.4585" lon="2.15387">
        <ele>705</ele>
        <time>2019-12-08T09:34:19Z</time>
      </trkpt>
      <trkpt lat="43.45849" lon="2.15391">
        <ele>705</ele>
        <time>2019-12-08T09:34:20Z</time>
      </trkpt>
      <trkpt lat="43.45847" lon="2.15408">
        <ele>705</ele>
        <time>2019-12-08T09:34:25Z</time>
      </trkpt>
      <trkpt lat="43.45844" lon="2.15426">
        <ele>706</ele>
        <time>2019-12-08T09:34:29Z</time>
      </trkpt>
      <trkpt lat="43.45839" lon="2.15444">
        <ele>706</ele>
        <time>2019-12-08T09:34:33Z</time>
      </trkpt>
      <trkpt lat="43.45838" lon="2.15448">
        <ele>706</ele>
        <time>2019-12-08T09:34:34Z</time>
      </trkpt>
      <trkpt lat="43.45831" lon="2.15476">
        <ele>707</ele>
        <time>2019-12-08T09:34:39Z</time>
      </trkpt>
      <trkpt lat="43.45825" lon="2.15495">
        <ele>707</ele>
        <time>2019-12-08T09:34:43Z</time>
      </trkpt>
      <trkpt lat="43.45817" lon="2.15514">
        <ele>707</ele>
        <time>2019-12-08T09:34:48Z</time>
      </trkpt>
      <trkpt lat="43.4581" lon="2.15531">
        <ele>708</ele>
        <time>2019-12-08T09:34:52Z</time>
      </trkpt>
      <trkpt lat="43.45807" lon="2.15535">
        <ele>708</ele>
        <time>2019-12-08T09:34:53Z</time>
      </trkpt>
      <trkpt lat="43.45797" lon="2.15555">
        <ele>709</ele>
        <time>2019-12-08T09:34:58Z</time>
      </trkpt>
      <trkpt lat="43.45791" lon="2.15563">
        <ele>709</ele>
        <time>2019-12-08T09:35:00Z</time>
      </trkpt>
      <trkpt lat="43.45784" lon="2.15569">
        <ele>709</ele>
        <time>2019-12-08T09:35:02Z</time>
      </trkpt>
      <trkpt lat="43.45769" lon="2.15567">
        <ele>709</ele>
        <time>2019-12-08T09:35:06Z</time>
      </trkpt>
      <trkpt lat="43.45765" lon="2.15565">
        <ele>709</ele>
        <time>2019-12-08T09:35:07Z</time>
      </trkpt>
      <trkpt lat="43.4575" lon="2.15565">
        <ele>709</ele>
        <time>2019-12-08T09:35:11Z</time>
      </trkpt>
      <trkpt lat="43.45746" lon="2.15567">
        <ele>709</ele>
        <time>2019-12-08T09:35:12Z</time>
      </trkpt>
      <trkpt lat="43.45732" lon="2.15585">
        <ele>710</ele>
        <time>2019-12-08T09:35:17Z</time>
      </trkpt>
      <trkpt lat="43.45723" lon="2.156">
        <ele>711</ele>
        <time>2019-12-08T09:35:21Z</time>
      </trkpt>
      <trkpt lat="43.4572" lon="2.15605">
        <ele>711</ele>
        <time>2019-12-08T09:35:22Z</time>
      </trkpt>
      <trkpt lat="43.45711" lon="2.15619">
        <ele>711</ele>
        <time>2019-12-08T09:35:26Z</time>
      </trkpt>
      <trkpt lat="43.45708" lon="2.1562">
        <ele>711</ele>
        <time>2019-12-08T09:35:27Z</time>
      </trkpt>
      <trkpt lat="43.457" lon="2.15618">
        <ele>711</ele>
        <time>2019-12-08T09:35:29Z</time>
      </trkpt>
      <trkpt lat="43.45692" lon="2.15615">
        <ele>711</ele>
        <time>2019-12-08T09:35:31Z</time>
      </trkpt>
      <trkpt lat="43.45688" lon="2.15612">
        <ele>711</ele>
        <time>2019-12-08T09:35:32Z</time>
      </trkpt>
      <trkpt lat="43.4568" lon="2.15613">
        <ele>711</ele>
        <time>2019-12-08T09:35:34Z</time>
      </trkpt>
      <trkpt lat="43.45675" lon="2.15627">
        <ele>710</ele>
        <time>2019-12-08T09:35:37Z</time>
      </trkpt>
      <trkpt lat="43.45677" lon="2.15644">
        <ele>710</ele>
        <time>2019-12-08T09:35:40Z</time>
      </trkpt>
      <trkpt lat="43.45679" lon="2.1565">
        <ele>710</ele>
        <time>2019-12-08T09:35:41Z</time>
      </trkpt>
      <trkpt lat="43.45682" lon="2.15661">
        <ele>710</ele>
        <time>2019-12-08T09:35:43Z</time>
      </trkpt>
      <trkpt lat="43.45685" lon="2.15672">
        <ele>710</ele>
        <time>2019-12-08T09:35:45Z</time>
      </trkpt>
      <trkpt lat="43.45688" lon="2.15683">
        <ele>711</ele>
        <time>2019-12-08T09:35:47Z</time>
      </trkpt>
      <trkpt lat="43.4569" lon="2.15688">
        <ele>711</ele>
        <time>2019-12-08T09:35:48Z</time>
      </trkpt>
      <trkpt lat="43.45697" lon="2.15702">
        <ele>711</ele>
        <time>2019-12-08T09:35:51Z</time>
      </trkpt>
      <trkpt lat="43.457" lon="2.15706">
        <ele>711</ele>
        <time>2019-12-08T09:35:52Z</time>
      </trkpt>
      <trkpt lat="43.45708" lon="2.15716">
        <ele>711</ele>
        <time>2019-12-08T09:35:55Z</time>
      </trkpt>
      <trkpt lat="43.45712" lon="2.15719">
        <ele>711</ele>
        <time>2019-12-08T09:35:56Z</time>
      </trkpt>
      <trkpt lat="43.45722" lon="2.15728">
        <ele>711</ele>
        <time>2019-12-08T09:35:59Z</time>
      </trkpt>
      <trkpt lat="43.45726" lon="2.15732">
        <ele>711</ele>
        <time>2019-12-08T09:36:00Z</time>
      </trkpt>
      <trkpt lat="43.45742" lon="2.15745">
        <ele>711</ele>
        <time>2019-12-08T09:36:04Z</time>
      </trkpt>
      <trkpt lat="43.45745" lon="2.15748">
        <ele>712</ele>
        <time>2019-12-08T09:36:05Z</time>
      </trkpt>
      <trkpt lat="43.45751" lon="2.15757">
        <ele>712</ele>
        <time>2019-12-08T09:36:07Z</time>
      </trkpt>
      <trkpt lat="43.45754" lon="2.15761">
        <ele>712</ele>
        <time>2019-12-08T09:36:08Z</time>
      </trkpt>
      <trkpt lat="43.45761" lon="2.15774">
        <ele>712</ele>
        <time>2019-12-08T09:36:11Z</time>
      </trkpt>
      <trkpt lat="43.45776" lon="2.15791">
        <ele>713</ele>
        <time>2019-12-08T09:36:16Z</time>
      </trkpt>
      <trkpt lat="43.45778" lon="2.15794">
        <ele>714</ele>
        <time>2019-12-08T09:36:17Z</time>
      </trkpt>
      <trkpt lat="43.4579" lon="2.15803">
        <ele>714</ele>
        <time>2019-12-08T09:36:21Z</time>
      </trkpt>
      <trkpt lat="43.45793" lon="2.15806">
        <ele>715</ele>
        <time>2019-12-08T09:36:22Z</time>
      </trkpt>
      <trkpt lat="43.45811" lon="2.15819">
        <ele>716</ele>
        <time>2019-12-08T09:36:28Z</time>
      </trkpt>
      <trkpt lat="43.45826" lon="2.15832">
        <ele>717</ele>
        <time>2019-12-08T09:36:33Z</time>
      </trkpt>
      <trkpt lat="43.45829" lon="2.15834">
        <ele>717</ele>
        <time>2019-12-08T09:36:34Z</time>
      </trkpt>
      <trkpt lat="43.45842" lon="2.1585">
        <ele>718</ele>
        <time>2019-12-08T09:36:39Z</time>
      </trkpt>
      <trkpt lat="43.45844" lon="2.15854">
        <ele>718</ele>
        <time>2019-12-08T09:36:40Z</time>
      </trkpt>
      <trkpt lat="43.45853" lon="2.15869">
        <ele>719</ele>
        <time>2019-12-08T09:36:44Z</time>
      </trkpt>
      <trkpt lat="43.45855" lon="2.15874">
        <ele>719</ele>
        <time>2019-12-08T09:36:45Z</time>
      </trkpt>
      <trkpt lat="43.45863" lon="2.15896">
        <ele>720</ele>
        <time>2019-12-08T09:36:50Z</time>
      </trkpt>
      <trkpt lat="43.45868" lon="2.15917">
        <ele>721</ele>
        <time>2019-12-08T09:36:55Z</time>
      </trkpt>
      <trkpt lat="43.4587" lon="2.15926">
        <ele>721</ele>
        <time>2019-12-08T09:36:57Z</time>
      </trkpt>
      <trkpt lat="43.4587" lon="2.15947">
        <ele>722</ele>
        <time>2019-12-08T09:37:02Z</time>
      </trkpt>
      <trkpt lat="43.45869" lon="2.15952">
        <ele>722</ele>
        <time>2019-12-08T09:37:03Z</time>
      </trkpt>
      <trkpt lat="43.45866" lon="2.15965">
        <ele>723</ele>
        <time>2019-12-08T09:37:06Z</time>
      </trkpt>
      <trkpt lat="43.45863" lon="2.15979">
        <ele>723</ele>
        <time>2019-12-08T09:37:09Z</time>
      </trkpt>
      <trkpt lat="43.45862" lon="2.15999">
        <ele>724</ele>
        <time>2019-12-08T09:37:13Z</time>
      </trkpt>
      <trkpt lat="43.45862" lon="2.16004">
        <ele>724</ele>
        <time>2019-12-08T09:37:14Z</time>
      </trkpt>
      <trkpt lat="43.45863" lon="2.16027">
        <ele>725</ele>
        <time>2019-12-08T09:37:19Z</time>
      </trkpt>
      <trkpt lat="43.45864" lon="2.16032">
        <ele>725</ele>
        <time>2019-12-08T09:37:20Z</time>
      </trkpt>
      <trkpt lat="43.45867" lon="2.16053">
        <ele>726</ele>
        <time>2019-12-08T09:37:25Z</time>
      </trkpt>
      <trkpt lat="43.4587" lon="2.16065">
        <ele>727</ele>
        <time>2019-12-08T09:37:28Z</time>
      </trkpt>
      <trkpt lat="43.45874" lon="2.16092">
        <ele>727</ele>
        <time>2019-12-08T09:37:34Z</time>
      </trkpt>
      <trkpt lat="43.45875" lon="2.16113">
        <ele>728</ele>
        <time>2019-12-08T09:37:39Z</time>
      </trkpt>
      <trkpt lat="43.45875" lon="2.16117">
        <ele>728</ele>
        <time>2019-12-08T09:37:40Z</time>
      </trkpt>
      <trkpt lat="43.45874" lon="2.16137">
        <ele>729</ele>
        <time>2019-12-08T09:37:45Z</time>
      </trkpt>
      <trkpt lat="43.45873" lon="2.16146">
        <ele>730</ele>
        <time>2019-12-08T09:37:47Z</time>
      </trkpt>
      <trkpt lat="43.4587" lon="2.16155">
        <ele>731</ele>
        <time>2019-12-08T09:37:49Z</time>
      </trkpt>
      <trkpt lat="43.45865" lon="2.16172">
        <ele>731</ele>
        <time>2019-12-08T09:37:53Z</time>
      </trkpt>
      <trkpt lat="43.45856" lon="2.16192">
        <ele>731</ele>
        <time>2019-12-08T09:37:58Z</time>
      </trkpt>
      <trkpt lat="43.4585" lon="2.16203">
        <ele>733</ele>
        <time>2019-12-08T09:38:01Z</time>
      </trkpt>
      <trkpt lat="43.45843" lon="2.16214">
        <ele>733</ele>
        <time>2019-12-08T09:38:04Z</time>
      </trkpt>
      <trkpt lat="43.45836" lon="2.16223">
        <ele>733</ele>
        <time>2019-12-08T09:38:07Z</time>
      </trkpt>
      <trkpt lat="43.45829" lon="2.16232">
        <ele>734</ele>
        <time>2019-12-08T09:38:10Z</time>
      </trkpt>
      <trkpt lat="43.45817" lon="2.16248">
        <ele>735</ele>
        <time>2019-12-08T09:38:15Z</time>
      </trkpt>
      <trkpt lat="43.4581" lon="2.16257">
        <ele>735</ele>
        <time>2019-12-08T09:38:18Z</time>
      </trkpt>
      <trkpt lat="43.45799" lon="2.16269">
        <ele>736</ele>
        <time>2019-12-08T09:38:23Z</time>
      </trkpt>
      <trkpt lat="43.45794" lon="2.16273">
        <ele>737</ele>
        <time>2019-12-08T09:38:25Z</time>
      </trkpt>
      <trkpt lat="43.45788" lon="2.16278">
        <ele>737</ele>
        <time>2019-12-08T09:38:27Z</time>
      </trkpt>
      <trkpt lat="43.45777" lon="2.16286">
        <ele>738</ele>
        <time>2019-12-08T09:38:31Z</time>
      </trkpt>
      <trkpt lat="43.45766" lon="2.16295">
        <ele>738</ele>
        <time>2019-12-08T09:38:35Z</time>
      </trkpt>
      <trkpt lat="43.45758" lon="2.16301">
        <ele>739</ele>
        <time>2019-12-08T09:38:38Z</time>
      </trkpt>
      <trkpt lat="43.45744" lon="2.16313">
        <ele>739</ele>
        <time>2019-12-08T09:38:44Z</time>
      </trkpt>
      <trkpt lat="43.45739" lon="2.16316">
        <ele>739</ele>
        <time>2019-12-08T09:38:46Z</time>
      </trkpt>
      <trkpt lat="43.45732" lon="2.16322">
        <ele>740</ele>
        <time>2019-12-08T09:38:49Z</time>
      </trkpt>
      <trkpt lat="43.45726" lon="2.16327">
        <ele>741</ele>
        <time>2019-12-08T09:38:51Z</time>
      </trkpt>
      <trkpt lat="43.45714" lon="2.16342">
        <ele>741</ele>
        <time>2019-12-08T09:38:56Z</time>
      </trkpt>
      <trkpt lat="43.4571" lon="2.16349">
        <ele>742</ele>
        <time>2019-12-08T09:38:58Z</time>
      </trkpt>
      <trkpt lat="43.45701" lon="2.16366">
        <ele>743</ele>
        <time>2019-12-08T09:39:03Z</time>
      </trkpt>
      <trkpt lat="43.45699" lon="2.1637">
        <ele>743</ele>
        <time>2019-12-08T09:39:04Z</time>
      </trkpt>
      <trkpt lat="43.45687" lon="2.16387">
        <ele>744</ele>
        <time>2019-12-08T09:39:10Z</time>
      </trkpt>
      <trkpt lat="43.45685" lon="2.1639">
        <ele>744</ele>
        <time>2019-12-08T09:39:11Z</time>
      </trkpt>
      <trkpt lat="43.45673" lon="2.1641">
        <ele>745</ele>
        <time>2019-12-08T09:39:17Z</time>
      </trkpt>
      <trkpt lat="43.45669" lon="2.16417">
        <ele>745</ele>
        <time>2019-12-08T09:39:19Z</time>
      </trkpt>
      <trkpt lat="43.45659" lon="2.16432">
        <ele>746</ele>
        <time>2019-12-08T09:39:24Z</time>
      </trkpt>
      <trkpt lat="43.45657" lon="2.16435">
        <ele>746</ele>
        <time>2019-12-08T09:39:25Z</time>
      </trkpt>
      <trkpt lat="43.4565" lon="2.16457">
        <ele>747</ele>
        <time>2019-12-08T09:39:31Z</time>
      </trkpt>
      <trkpt lat="43.4565" lon="2.16461">
        <ele>747</ele>
        <time>2019-12-08T09:39:32Z</time>
      </trkpt>
      <trkpt lat="43.45651" lon="2.16478">
        <ele>748</ele>
        <time>2019-12-08T09:39:36Z</time>
      </trkpt>
      <trkpt lat="43.45652" lon="2.16495">
        <ele>748</ele>
        <time>2019-12-08T09:39:40Z</time>
      </trkpt>
      <trkpt lat="43.45653" lon="2.16499">
        <ele>748</ele>
        <time>2019-12-08T09:39:41Z</time>
      </trkpt>
      <trkpt lat="43.45658" lon="2.16518">
        <ele>749</ele>
        <time>2019-12-08T09:39:46Z</time>
      </trkpt>
      <trkpt lat="43.45661" lon="2.1653">
        <ele>749</ele>
        <time>2019-12-08T09:39:49Z</time>
      </trkpt>
      <trkpt lat="43.45663" lon="2.16542">
        <ele>750</ele>
        <time>2019-12-08T09:39:52Z</time>
      </trkpt>
      <trkpt lat="43.45662" lon="2.16559">
        <ele>750</ele>
        <time>2019-12-08T09:39:56Z</time>
      </trkpt>
      <trkpt lat="43.4566" lon="2.16566">
        <ele>751</ele>
        <time>2019-12-08T09:39:58Z</time>
      </trkpt>
      <trkpt lat="43.45658" lon="2.16576">
        <ele>751</ele>
        <time>2019-12-08T09:40:01Z</time>
      </trkpt>
      <trkpt lat="43.45657" lon="2.16579">
        <ele>751</ele>
        <time>2019-12-08T09:40:02Z</time>
      </trkpt>
      <trkpt lat="43.4565" lon="2.16596">
        <ele>752</ele>
        <time>2019-12-08T09:40:07Z</time>
      </trkpt>
      <trkpt lat="43.45639" lon="2.16616">
        <ele>753</ele>
        <time>2019-12-08T09:40:13Z</time>
      </trkpt>
      <trkpt lat="43.45637" lon="2.16619">
        <ele>753</ele>
        <time>2019-12-08T09:40:14Z</time>
      </trkpt>
      <trkpt lat="43.45636" lon="2.16621">
        <ele>753</ele>
        <time>2019-12-08T09:40:15Z</time>
      </trkpt>
      <trkpt lat="43.45632" lon="2.16626">
        <ele>754</ele>
        <time>2019-12-08T09:40:18Z</time>
      </trkpt>
      <trkpt lat="43.4563" lon="2.16628">
        <ele>754</ele>
        <time>2019-12-08T09:40:20Z</time>
      </trkpt>
      <trkpt lat="43.4563" lon="2.16631">
        <ele>754</ele>
        <time>2019-12-08T09:40:22Z</time>
      </trkpt>
      <trkpt lat="43.45629" lon="2.16632">
        <ele>754</ele>
        <time>2019-12-08T09:40:23Z</time>
      </trkpt>
      <trkpt lat="43.45626" lon="2.16637">
        <ele>754</ele>
        <time>2019-12-08T09:40:28Z</time>
      </trkpt>
      <trkpt lat="43.45625" lon="2.16636">
        <ele>754</ele>
        <time>2019-12-08T09:40:29Z</time>
      </trkpt>
      <trkpt lat="43.45623" lon="2.16634">
        <ele>755</ele>
        <time>2019-12-08T09:40:32Z</time>
      </trkpt>
      <trkpt lat="43.45623" lon="2.16633">
        <ele>755</ele>
        <time>2019-12-08T09:40:33Z</time>
      </trkpt>
      <trkpt lat="43.45623" lon="2.16631">
        <ele>755</ele>
        <time>2019-12-08T09:42:26Z</time>
      </trkpt>
      <trkpt lat="43.45623" lon="2.16631">
        <ele>755</ele>
        <time>2019-12-08T09:42:27Z</time>
      </trkpt>
      <trkpt lat="43.45622" lon="2.16626">
        <ele>754</ele>
        <time>2019-12-08T09:42:30Z</time>
      </trkpt>
      <trkpt lat="43.45622" lon="2.16621">
        <ele>754</ele>
        <time>2019-12-08T09:42:32Z</time>
      </trkpt>
      <trkpt lat="43.4562" lon="2.16609">
        <ele>755</ele>
        <time>2019-12-08T09:42:36Z</time>
      </trkpt>
      <trkpt lat="43.45619" lon="2.16596">
        <ele>755</ele>
        <time>2019-12-08T09:42:40Z</time>
      </trkpt>
      <trkpt lat="43.4562" lon="2.16593">
        <ele>755</ele>
        <time>2019-12-08T09:42:41Z</time>
      </trkpt>
      <trkpt lat="43.4562" lon="2.16583">
        <ele>755</ele>
        <time>2019-12-08T09:42:44Z</time>
      </trkpt>
      <trkpt lat="43.4562" lon="2.1658">
        <ele>754</ele>
        <time>2019-12-08T09:42:45Z</time>
      </trkpt>
      <trkpt lat="43.4562" lon="2.16576">
        <ele>754</ele>
        <time>2019-12-08T09:42:46Z</time>
      </trkpt>
      <trkpt lat="43.45618" lon="2.16559">
        <ele>755</ele>
        <time>2019-12-08T09:42:50Z</time>
      </trkpt>
      <trkpt lat="43.45617" lon="2.16555">
        <ele>755</ele>
        <time>2019-12-08T09:42:51Z</time>
      </trkpt>
      <trkpt lat="43.45615" lon="2.16547">
        <ele>755</ele>
        <time>2019-12-08T09:42:53Z</time>
      </trkpt>
      <trkpt lat="43.4561" lon="2.16537">
        <ele>755</ele>
        <time>2019-12-08T09:42:56Z</time>
      </trkpt>
      <trkpt lat="43.45597" lon="2.16521">
        <ele>756</ele>
        <time>2019-12-08T09:43:02Z</time>
      </trkpt>
      <trkpt lat="43.45588" lon="2.16514">
        <ele>756</ele>
        <time>2019-12-08T09:43:06Z</time>
      </trkpt>
      <trkpt lat="43.45586" lon="2.16513">
        <ele>756</ele>
        <time>2019-12-08T09:43:07Z</time>
      </trkpt>
      <trkpt lat="43.45577" lon="2.16507">
        <ele>757</ele>
        <time>2019-12-08T09:43:11Z</time>
      </trkpt>
      <trkpt lat="43.45573" lon="2.16503">
        <ele>758</ele>
        <time>2019-12-08T09:43:13Z</time>
      </trkpt>
      <trkpt lat="43.45568" lon="2.16496">
        <ele>758</ele>
        <time>2019-12-08T09:43:16Z</time>
      </trkpt>
      <trkpt lat="43.45564" lon="2.1649">
        <ele>759</ele>
        <time>2019-12-08T09:43:19Z</time>
      </trkpt>
      <trkpt lat="43.45561" lon="2.16486">
        <ele>760</ele>
        <time>2019-12-08T09:43:21Z</time>
      </trkpt>
      <trkpt lat="43.45554" lon="2.16476">
        <ele>760</ele>
        <time>2019-12-08T09:43:25Z</time>
      </trkpt>
      <trkpt lat="43.45551" lon="2.16471">
        <ele>761</ele>
        <time>2019-12-08T09:43:27Z</time>
      </trkpt>
      <trkpt lat="43.45545" lon="2.16465">
        <ele>762</ele>
        <time>2019-12-08T09:43:30Z</time>
      </trkpt>
      <trkpt lat="43.45543" lon="2.16462">
        <ele>762</ele>
        <time>2019-12-08T09:43:31Z</time>
      </trkpt>
      <trkpt lat="43.45538" lon="2.16455">
        <ele>763</ele>
        <time>2019-12-08T09:43:34Z</time>
      </trkpt>
      <trkpt lat="43.45531" lon="2.16445">
        <ele>764</ele>
        <time>2019-12-08T09:43:38Z</time>
      </trkpt>
      <trkpt lat="43.45529" lon="2.16443">
        <ele>764</ele>
        <time>2019-12-08T09:43:39Z</time>
      </trkpt>
      <trkpt lat="43.4552" lon="2.16434">
        <ele>765</ele>
        <time>2019-12-08T09:43:44Z</time>
      </trkpt>
      <trkpt lat="43.45518" lon="2.16432">
        <ele>765</ele>
        <time>2019-12-08T09:43:45Z</time>
      </trkpt>
      <trkpt lat="43.45508" lon="2.16424">
        <ele>766</ele>
        <time>2019-12-08T09:43:50Z</time>
      </trkpt>
      <trkpt lat="43.45505" lon="2.16423">
        <ele>766</ele>
        <time>2019-12-08T09:43:51Z</time>
      </trkpt>
      <trkpt lat="43.45495" lon="2.1641">
        <ele>767</ele>
        <time>2019-12-08T09:43:57Z</time>
      </trkpt>
      <trkpt lat="43.45485" lon="2.16402">
        <ele>768</ele>
        <time>2019-12-08T09:44:02Z</time>
      </trkpt>
      <trkpt lat="43.45484" lon="2.164">
        <ele>769</ele>
        <time>2019-12-08T09:44:03Z</time>
      </trkpt>
      <trkpt lat="43.45476" lon="2.1639">
        <ele>769</ele>
        <time>2019-12-08T09:44:08Z</time>
      </trkpt>
      <trkpt lat="43.45466" lon="2.16379">
        <ele>770</ele>
        <time>2019-12-08T09:44:13Z</time>
      </trkpt>
      <trkpt lat="43.45456" lon="2.1637">
        <ele>770</ele>
        <time>2019-12-08T09:44:17Z</time>
      </trkpt>
      <trkpt lat="43.45454" lon="2.16368">
        <ele>771</ele>
        <time>2019-12-08T09:44:18Z</time>
      </trkpt>
      <trkpt lat="43.45439" lon="2.16354">
        <ele>771</ele>
        <time>2019-12-08T09:44:23Z</time>
      </trkpt>
      <trkpt lat="43.45424" lon="2.16329">
        <ele>770</ele>
        <time>2019-12-08T09:44:29Z</time>
      </trkpt>
      <trkpt lat="43.45418" lon="2.16304">
        <ele>771</ele>
        <time>2019-12-08T09:44:34Z</time>
      </trkpt>
      <trkpt lat="43.45415" lon="2.16277">
        <ele>771</ele>
        <time>2019-12-08T09:44:39Z</time>
      </trkpt>
      <trkpt lat="43.45414" lon="2.16255">
        <ele>771</ele>
        <time>2019-12-08T09:44:43Z</time>
      </trkpt>
      <trkpt lat="43.45413" lon="2.1625">
        <ele>772</ele>
        <time>2019-12-08T09:44:44Z</time>
      </trkpt>
      <trkpt lat="43.45408" lon="2.16228">
        <ele>772</ele>
        <time>2019-12-08T09:44:49Z</time>
      </trkpt>
      <trkpt lat="43.45401" lon="2.16199">
        <ele>772</ele>
        <time>2019-12-08T09:44:56Z</time>
      </trkpt>
      <trkpt lat="43.45395" lon="2.16179">
        <ele>773</ele>
        <time>2019-12-08T09:45:01Z</time>
      </trkpt>
      <trkpt lat="43.45394" lon="2.16174">
        <ele>773</ele>
        <time>2019-12-08T09:45:02Z</time>
      </trkpt>
      <trkpt lat="43.4539" lon="2.16159">
        <ele>774</ele>
        <time>2019-12-08T09:45:06Z</time>
      </trkpt>
      <trkpt lat="43.45389" lon="2.16155">
        <ele>774</ele>
        <time>2019-12-08T09:45:07Z</time>
      </trkpt>
      <trkpt lat="43.45384" lon="2.16134">
        <ele>775</ele>
        <time>2019-12-08T09:45:12Z</time>
      </trkpt>
      <trkpt lat="43.45374" lon="2.16102">
        <ele>776</ele>
        <time>2019-12-08T09:45:20Z</time>
      </trkpt>
      <trkpt lat="43.45362" lon="2.16088">
        <ele>777</ele>
        <time>2019-12-08T09:45:25Z</time>
      </trkpt>
      <trkpt lat="43.45355" lon="2.16082">
        <ele>777</ele>
        <time>2019-12-08T09:45:28Z</time>
      </trkpt>
      <trkpt lat="43.45351" lon="2.16077">
        <ele>778</ele>
        <time>2019-12-08T09:45:30Z</time>
      </trkpt>
      <trkpt lat="43.45346" lon="2.16073">
        <ele>778</ele>
        <time>2019-12-08T09:45:32Z</time>
      </trkpt>
      <trkpt lat="43.45337" lon="2.16061">
        <ele>779</ele>
        <time>2019-12-08T09:45:36Z</time>
      </trkpt>
      <trkpt lat="43.45333" lon="2.16056">
        <ele>780</ele>
        <time>2019-12-08T09:45:38Z</time>
      </trkpt>
      <trkpt lat="43.45325" lon="2.16051">
        <ele>780</ele>
        <time>2019-12-08T09:45:41Z</time>
      </trkpt>
      <trkpt lat="43.45323" lon="2.16049">
        <ele>781</ele>
        <time>2019-12-08T09:45:42Z</time>
      </trkpt>
      <trkpt lat="43.45311" lon="2.1604">
        <ele>782</ele>
        <time>2019-12-08T09:45:47Z</time>
      </trkpt>
      <trkpt lat="43.45309" lon="2.16038">
        <ele>782</ele>
        <time>2019-12-08T09:45:48Z</time>
      </trkpt>
      <trkpt lat="43.45298" lon="2.16029">
        <ele>783</ele>
        <time>2019-12-08T09:45:52Z</time>
      </trkpt>
      <trkpt lat="43.45295" lon="2.16028">
        <ele>783</ele>
        <time>2019-12-08T09:45:53Z</time>
      </trkpt>
      <trkpt lat="43.45282" lon="2.16011">
        <ele>784</ele>
        <time>2019-12-08T09:45:59Z</time>
      </trkpt>
      <trkpt lat="43.45279" lon="2.16009">
        <ele>784</ele>
        <time>2019-12-08T09:46:00Z</time>
      </trkpt>
      <trkpt lat="43.4527" lon="2.1599">
        <ele>785</ele>
        <time>2019-12-08T09:46:05Z</time>
      </trkpt>
      <trkpt lat="43.45268" lon="2.15986">
        <ele>785</ele>
        <time>2019-12-08T09:46:06Z</time>
      </trkpt>
      <trkpt lat="43.4526" lon="2.15961">
        <ele>786</ele>
        <time>2019-12-08T09:46:12Z</time>
      </trkpt>
      <trkpt lat="43.45257" lon="2.15953">
        <ele>786</ele>
        <time>2019-12-08T09:46:14Z</time>
      </trkpt>
      <trkpt lat="43.45254" lon="2.15942">
        <ele>787</ele>
        <time>2019-12-08T09:46:17Z</time>
      </trkpt>
      <trkpt lat="43.45247" lon="2.15925">
        <ele>787</ele>
        <time>2019-12-08T09:46:22Z</time>
      </trkpt>
      <trkpt lat="43.45245" lon="2.15921">
        <ele>788</ele>
        <time>2019-12-08T09:46:23Z</time>
      </trkpt>
      <trkpt lat="43.45232" lon="2.15909">
        <ele>788</ele>
        <time>2019-12-08T09:46:28Z</time>
      </trkpt>
      <trkpt lat="43.45222" lon="2.15899">
        <ele>789</ele>
        <time>2019-12-08T09:46:32Z</time>
      </trkpt>
      <trkpt lat="43.45215" lon="2.15892">
        <ele>789</ele>
        <time>2019-12-08T09:46:35Z</time>
      </trkpt>
      <trkpt lat="43.45204" lon="2.15878">
        <ele>790</ele>
        <time>2019-12-08T09:46:40Z</time>
      </trkpt>
      <trkpt lat="43.45198" lon="2.15869">
        <ele>790</ele>
        <time>2019-12-08T09:46:43Z</time>
      </trkpt>
      <trkpt lat="43.4519" lon="2.15856">
        <ele>791</ele>
        <time>2019-12-08T09:46:47Z</time>
      </trkpt>
      <trkpt lat="43.45184" lon="2.15847">
        <ele>792</ele>
        <time>2019-12-08T09:46:50Z</time>
      </trkpt>
      <trkpt lat="43.45182" lon="2.15844">
        <ele>792</ele>
        <time>2019-12-08T09:46:51Z</time>
      </trkpt>
      <trkpt lat="43.45173" lon="2.15831">
        <ele>793</ele>
        <time>2019-12-08T09:46:56Z</time>
      </trkpt>
      <trkpt lat="43.45168" lon="2.15825">
        <ele>794</ele>
        <time>2019-12-08T09:46:58Z</time>
      </trkpt>
      <trkpt lat="43.45162" lon="2.15817">
        <ele>794</ele>
        <time>2019-12-08T09:47:01Z</time>
      </trkpt>
      <trkpt lat="43.45153" lon="2.15803">
        <ele>795</ele>
        <time>2019-12-08T09:47:06Z</time>
      </trkpt>
      <trkpt lat="43.45151" lon="2.15801">
        <ele>795</ele>
        <time>2019-12-08T09:47:07Z</time>
      </trkpt>
      <trkpt lat="43.45143" lon="2.1579">
        <ele>797</ele>
        <time>2019-12-08T09:47:11Z</time>
      </trkpt>
      <trkpt lat="43.45137" lon="2.15782">
        <ele>798</ele>
        <time>2019-12-08T09:47:14Z</time>
      </trkpt>
      <trkpt lat="43.45126" lon="2.15765">
        <ele>799</ele>
        <time>2019-12-08T09:47:20Z</time>
      </trkpt>
      <trkpt lat="43.45122" lon="2.1576">
        <ele>799</ele>
        <time>2019-12-08T09:47:22Z</time>
      </trkpt>
      <trkpt lat="43.45111" lon="2.15749">
        <ele>800</ele>
        <time>2019-12-08T09:47:27Z</time>
      </trkpt>
      <trkpt lat="43.45109" lon="2.15747">
        <ele>800</ele>
        <time>2019-12-08T09:47:28Z</time>
      </trkpt>
      <trkpt lat="43.45105" lon="2.15743">
        <ele>801</ele>
        <time>2019-12-08T09:47:30Z</time>
      </trkpt>
      <trkpt lat="43.45093" lon="2.1573">
        <ele>802</ele>
        <time>2019-12-08T09:47:36Z</time>
      </trkpt>
      <trkpt lat="43.45091" lon="2.15727">
        <ele>802</ele>
        <time>2019-12-08T09:47:37Z</time>
      </trkpt>
      <trkpt lat="43.45083" lon="2.15717">
        <ele>803</ele>
        <time>2019-12-08T09:47:41Z</time>
      </trkpt>
      <trkpt lat="43.4508" lon="2.15712">
        <ele>804</ele>
        <time>2019-12-08T09:47:43Z</time>
      </trkpt>
      <trkpt lat="43.4507" lon="2.157">
        <ele>804</ele>
        <time>2019-12-08T09:47:48Z</time>
      </trkpt>
      <trkpt lat="43.45066" lon="2.15695">
        <ele>805</ele>
        <time>2019-12-08T09:47:50Z</time>
      </trkpt>
      <trkpt lat="43.4506" lon="2.15685">
        <ele>806</ele>
        <time>2019-12-08T09:47:54Z</time>
      </trkpt>
      <trkpt lat="43.45056" lon="2.15679">
        <ele>806</ele>
        <time>2019-12-08T09:47:56Z</time>
      </trkpt>
      <trkpt lat="43.45041" lon="2.15658">
        <ele>807</ele>
        <time>2019-12-08T09:48:04Z</time>
      </trkpt>
      <trkpt lat="43.4503" lon="2.15637">
        <ele>807</ele>
        <time>2019-12-08T09:48:11Z</time>
      </trkpt>
      <trkpt lat="43.45025" lon="2.15627">
        <ele>807</ele>
        <time>2019-12-08T09:48:14Z</time>
      </trkpt>
      <trkpt lat="43.45019" lon="2.15614">
        <ele>807</ele>
        <time>2019-12-08T09:48:18Z</time>
      </trkpt>
      <trkpt lat="43.45007" lon="2.15585">
        <ele>807</ele>
        <time>2019-12-08T09:48:26Z</time>
      </trkpt>
      <trkpt lat="43.44999" lon="2.15564">
        <ele>808</ele>
        <time>2019-12-08T09:48:32Z</time>
      </trkpt>
      <trkpt lat="43.44994" lon="2.1555">
        <ele>808</ele>
        <time>2019-12-08T09:48:36Z</time>
      </trkpt>
      <trkpt lat="43.44983" lon="2.15518">
        <ele>809</ele>
        <time>2019-12-08T09:48:45Z</time>
      </trkpt>
      <trkpt lat="43.44979" lon="2.155">
        <ele>809</ele>
        <time>2019-12-08T09:48:50Z</time>
      </trkpt>
      <trkpt lat="43.44976" lon="2.15479">
        <ele>809</ele>
        <time>2019-12-08T09:48:57Z</time>
      </trkpt>
      <trkpt lat="43.44976" lon="2.15476">
        <ele>809</ele>
        <time>2019-12-08T09:48:58Z</time>
      </trkpt>
      <trkpt lat="43.44975" lon="2.15466">
        <ele>809</ele>
        <time>2019-12-08T09:49:01Z</time>
      </trkpt>
      <trkpt lat="43.44972" lon="2.15448">
        <ele>809</ele>
        <time>2019-12-08T09:49:06Z</time>
      </trkpt>
      <trkpt lat="43.4497" lon="2.15421">
        <ele>810</ele>
        <time>2019-12-08T09:49:13Z</time>
      </trkpt>
      <trkpt lat="43.44969" lon="2.15392">
        <ele>809</ele>
        <time>2019-12-08T09:49:20Z</time>
      </trkpt>
      <trkpt lat="43.44966" lon="2.15363">
        <ele>809</ele>
        <time>2019-12-08T09:49:27Z</time>
      </trkpt>
      <trkpt lat="43.44967" lon="2.15344">
        <ele>810</ele>
        <time>2019-12-08T09:49:31Z</time>
      </trkpt>
      <trkpt lat="43.44968" lon="2.15323">
        <ele>810</ele>
        <time>2019-12-08T09:49:35Z</time>
      </trkpt>
      <trkpt lat="43.44968" lon="2.15313">
        <ele>810</ele>
        <time>2019-12-08T09:49:37Z</time>
      </trkpt>
      <trkpt lat="43.44969" lon="2.15291">
        <ele>809</ele>
        <time>2019-12-08T09:49:41Z</time>
      </trkpt>
      <trkpt lat="43.44971" lon="2.15266">
        <ele>809</ele>
        <time>2019-12-08T09:49:45Z</time>
      </trkpt>
      <trkpt lat="43.44973" lon="2.15254">
        <ele>809</ele>
        <time>2019-12-08T09:49:47Z</time>
      </trkpt>
      <trkpt lat="43.44973" lon="2.15241">
        <ele>809</ele>
        <time>2019-12-08T09:49:49Z</time>
      </trkpt>
      <trkpt lat="43.44973" lon="2.15234">
        <ele>809</ele>
        <time>2019-12-08T09:49:50Z</time>
      </trkpt>
      <trkpt lat="43.44971" lon="2.15221">
        <ele>809</ele>
        <time>2019-12-08T09:49:52Z</time>
      </trkpt>
      <trkpt lat="43.44967" lon="2.15209">
        <ele>809</ele>
        <time>2019-12-08T09:49:54Z</time>
      </trkpt>
      <trkpt lat="43.44961" lon="2.15199">
        <ele>808</ele>
        <time>2019-12-08T09:49:56Z</time>
      </trkpt>
      <trkpt lat="43.44952" lon="2.15183">
        <ele>808</ele>
        <time>2019-12-08T09:49:59Z</time>
      </trkpt>
      <trkpt lat="43.44946" lon="2.15173">
        <ele>808</ele>
        <time>2019-12-08T09:50:01Z</time>
      </trkpt>
      <trkpt lat="43.44941" lon="2.15164">
        <ele>808</ele>
        <time>2019-12-08T09:50:03Z</time>
      </trkpt>
      <trkpt lat="43.44937" lon="2.1516">
        <ele>808</ele>
        <time>2019-12-08T09:50:04Z</time>
      </trkpt>
      <trkpt lat="43.44931" lon="2.15152">
        <ele>808</ele>
        <time>2019-12-08T09:50:06Z</time>
      </trkpt>
      <trkpt lat="43.44924" lon="2.15146">
        <ele>808</ele>
        <time>2019-12-08T09:50:08Z</time>
      </trkpt>
      <trkpt lat="43.44917" lon="2.15139">
        <ele>808</ele>
        <time>2019-12-08T09:50:10Z</time>
      </trkpt>
      <trkpt lat="43.44904" lon="2.15123">
        <ele>808</ele>
        <time>2019-12-08T09:50:14Z</time>
      </trkpt>
      <trkpt lat="43.44896" lon="2.15115">
        <ele>808</ele>
        <time>2019-12-08T09:50:16Z</time>
      </trkpt>
      <trkpt lat="43.4487" lon="2.15087">
        <ele>808</ele>
        <time>2019-12-08T09:50:22Z</time>
      </trkpt>
      <trkpt lat="43.44851" lon="2.15059">
        <ele>808</ele>
        <time>2019-12-08T09:50:27Z</time>
      </trkpt>
      <trkpt lat="43.44825" lon="2.15025">
        <ele>807</ele>
        <time>2019-12-08T09:50:33Z</time>
      </trkpt>
      <trkpt lat="43.4482" lon="2.15018">
        <ele>807</ele>
        <time>2019-12-08T09:50:34Z</time>
      </trkpt>
      <trkpt lat="43.4481" lon="2.15005">
        <ele>806</ele>
        <time>2019-12-08T09:50:36Z</time>
      </trkpt>
      <trkpt lat="43.44799" lon="2.14992">
        <ele>805</ele>
        <time>2019-12-08T09:50:38Z</time>
      </trkpt>
      <trkpt lat="43.44782" lon="2.14971">
        <ele>804</ele>
        <time>2019-12-08T09:50:41Z</time>
      </trkpt>
      <trkpt lat="43.44758" lon="2.14938">
        <ele>803</ele>
        <time>2019-12-08T09:50:45Z</time>
      </trkpt>
      <trkpt lat="43.44753" lon="2.14928">
        <ele>803</ele>
        <time>2019-12-08T09:50:46Z</time>
      </trkpt>
      <trkpt lat="43.44743" lon="2.14908">
        <ele>801</ele>
        <time>2019-12-08T09:50:48Z</time>
      </trkpt>
      <trkpt lat="43.44739" lon="2.14898">
        <ele>799</ele>
        <time>2019-12-08T09:50:49Z</time>
      </trkpt>
      <trkpt lat="43.44729" lon="2.14879">
        <ele>798</ele>
        <time>2019-12-08T09:50:51Z</time>
      </trkpt>
      <trkpt lat="43.44724" lon="2.1487">
        <ele>797</ele>
        <time>2019-12-08T09:50:52Z</time>
      </trkpt>
      <trkpt lat="43.44713" lon="2.14849">
        <ele>796</ele>
        <time>2019-12-08T09:50:54Z</time>
      </trkpt>
      <trkpt lat="43.44707" lon="2.14838">
        <ele>794</ele>
        <time>2019-12-08T09:50:55Z</time>
      </trkpt>
      <trkpt lat="43.44695" lon="2.14814">
        <ele>792</ele>
        <time>2019-12-08T09:50:57Z</time>
      </trkpt>
      <trkpt lat="43.44689" lon="2.14802">
        <ele>791</ele>
        <time>2019-12-08T09:50:58Z</time>
      </trkpt>
      <trkpt lat="43.44683" lon="2.1479">
        <ele>790</ele>
        <time>2019-12-08T09:50:59Z</time>
      </trkpt>
      <trkpt lat="43.44677" lon="2.14779">
        <ele>789</ele>
        <time>2019-12-08T09:51:00Z</time>
      </trkpt>
      <trkpt lat="43.44665" lon="2.14755">
        <ele>788</ele>
        <time>2019-12-08T09:51:02Z</time>
      </trkpt>
      <trkpt lat="43.44652" lon="2.14731">
        <ele>786</ele>
        <time>2019-12-08T09:51:04Z</time>
      </trkpt>
      <trkpt lat="43.44643" lon="2.14711">
        <ele>784</ele>
        <time>2019-12-08T09:51:06Z</time>
      </trkpt>
      <trkpt lat="43.44632" lon="2.14691">
        <ele>783</ele>
        <time>2019-12-08T09:51:08Z</time>
      </trkpt>
      <trkpt lat="43.44627" lon="2.1468">
        <ele>781</ele>
        <time>2019-12-08T09:51:09Z</time>
      </trkpt>
      <trkpt lat="43.44616" lon="2.1466">
        <ele>780</ele>
        <time>2019-12-08T09:51:11Z</time>
      </trkpt>
      <trkpt lat="43.44606" lon="2.14639">
        <ele>779</ele>
        <time>2019-12-08T09:51:13Z</time>
      </trkpt>
      <trkpt lat="43.44592" lon="2.14607">
        <ele>777</ele>
        <time>2019-12-08T09:51:16Z</time>
      </trkpt>
      <trkpt lat="43.44587" lon="2.14597">
        <ele>776</ele>
        <time>2019-12-08T09:51:17Z</time>
      </trkpt>
      <trkpt lat="43.44583" lon="2.14589">
        <ele>776</ele>
        <time>2019-12-08T09:51:18Z</time>
      </trkpt>
      <trkpt lat="43.44578" lon="2.14581">
        <ele>775</ele>
        <time>2019-12-08T09:51:20Z</time>
      </trkpt>
      <trkpt lat="43.44577" lon="2.14579">
        <ele>775</ele>
        <time>2019-12-08T09:51:21Z</time>
      </trkpt>
      <trkpt lat="43.44576" lon="2.14578">
        <ele>774</ele>
        <time>2019-12-08T09:51:22Z</time>
      </trkpt>
      <trkpt lat="43.44574" lon="2.1458">
        <ele>774</ele>
        <time>2019-12-08T09:51:23Z</time>
      </trkpt>
      <trkpt lat="43.44569" lon="2.14589">
        <ele>774</ele>
        <time>2019-12-08T09:51:26Z</time>
      </trkpt>
      <trkpt lat="43.44565" lon="2.14597">
        <ele>774</ele>
        <time>2019-12-08T09:51:28Z</time>
      </trkpt>
      <trkpt lat="43.44563" lon="2.14602">
        <ele>774</ele>
        <time>2019-12-08T09:51:29Z</time>
      </trkpt>
      <trkpt lat="43.44559" lon="2.14612">
        <ele>773</ele>
        <time>2019-12-08T09:51:31Z</time>
      </trkpt>
      <trkpt lat="43.44554" lon="2.14629">
        <ele>773</ele>
        <time>2019-12-08T09:51:34Z</time>
      </trkpt>
      <trkpt lat="43.44552" lon="2.14634">
        <ele>772</ele>
        <time>2019-12-08T09:51:35Z</time>
      </trkpt>
      <trkpt lat="43.44543" lon="2.14656">
        <ele>772</ele>
        <time>2019-12-08T09:51:39Z</time>
      </trkpt>
      <trkpt lat="43.44539" lon="2.14668">
        <ele>772</ele>
        <time>2019-12-08T09:51:41Z</time>
      </trkpt>
      <trkpt lat="43.44537" lon="2.14674">
        <ele>771</ele>
        <time>2019-12-08T09:51:42Z</time>
      </trkpt>
      <trkpt lat="43.44532" lon="2.14687">
        <ele>771</ele>
        <time>2019-12-08T09:51:44Z</time>
      </trkpt>
      <trkpt lat="43.44527" lon="2.147">
        <ele>770</ele>
        <time>2019-12-08T09:51:46Z</time>
      </trkpt>
      <trkpt lat="43.44515" lon="2.14729">
        <ele>770</ele>
        <time>2019-12-08T09:51:50Z</time>
      </trkpt>
      <trkpt lat="43.44512" lon="2.14736">
        <ele>769</ele>
        <time>2019-12-08T09:51:51Z</time>
      </trkpt>
      <trkpt lat="43.44506" lon="2.14752">
        <ele>769</ele>
        <time>2019-12-08T09:51:53Z</time>
      </trkpt>
      <trkpt lat="43.44503" lon="2.14761">
        <ele>768</ele>
        <time>2019-12-08T09:51:54Z</time>
      </trkpt>
      <trkpt lat="43.445" lon="2.14771">
        <ele>768</ele>
        <time>2019-12-08T09:51:55Z</time>
      </trkpt>
      <trkpt lat="43.4449" lon="2.14809">
        <ele>767</ele>
        <time>2019-12-08T09:51:59Z</time>
      </trkpt>
      <trkpt lat="43.44488" lon="2.1482">
        <ele>767</ele>
        <time>2019-12-08T09:52:00Z</time>
      </trkpt>
      <trkpt lat="43.44483" lon="2.14853">
        <ele>766</ele>
        <time>2019-12-08T09:52:03Z</time>
      </trkpt>
      <trkpt lat="43.44481" lon="2.14865">
        <ele>765</ele>
        <time>2019-12-08T09:52:04Z</time>
      </trkpt>
      <trkpt lat="43.44479" lon="2.14876">
        <ele>765</ele>
        <time>2019-12-08T09:52:05Z</time>
      </trkpt>
      <trkpt lat="43.44471" lon="2.14898">
        <ele>763</ele>
        <time>2019-12-08T09:52:07Z</time>
      </trkpt>
      <trkpt lat="43.44457" lon="2.14929">
        <ele>762</ele>
        <time>2019-12-08T09:52:10Z</time>
      </trkpt>
      <trkpt lat="43.44428" lon="2.14975">
        <ele>761</ele>
        <time>2019-12-08T09:52:15Z</time>
      </trkpt>
      <trkpt lat="43.44422" lon="2.14983">
        <ele>760</ele>
        <time>2019-12-08T09:52:16Z</time>
      </trkpt>
      <trkpt lat="43.44416" lon="2.14992">
        <ele>760</ele>
        <time>2019-12-08T09:52:17Z</time>
      </trkpt>
      <trkpt lat="43.44394" lon="2.15027">
        <ele>759</ele>
        <time>2019-12-08T09:52:21Z</time>
      </trkpt>
      <trkpt lat="43.44389" lon="2.15036">
        <ele>759</ele>
        <time>2019-12-08T09:52:22Z</time>
      </trkpt>
      <trkpt lat="43.44385" lon="2.15046">
        <ele>758</ele>
        <time>2019-12-08T09:52:23Z</time>
      </trkpt>
      <trkpt lat="43.44379" lon="2.15066">
        <ele>757</ele>
        <time>2019-12-08T09:52:25Z</time>
      </trkpt>
      <trkpt lat="43.44375" lon="2.15076">
        <ele>757</ele>
        <time>2019-12-08T09:52:26Z</time>
      </trkpt>
      <trkpt lat="43.44369" lon="2.15098">
        <ele>756</ele>
        <time>2019-12-08T09:52:28Z</time>
      </trkpt>
      <trkpt lat="43.44364" lon="2.1512">
        <ele>755</ele>
        <time>2019-12-08T09:52:30Z</time>
      </trkpt>
      <trkpt lat="43.44362" lon="2.15132">
        <ele>755</ele>
        <time>2019-12-08T09:52:31Z</time>
      </trkpt>
      <trkpt lat="43.44357" lon="2.15155">
        <ele>754</ele>
        <time>2019-12-08T09:52:33Z</time>
      </trkpt>
      <trkpt lat="43.4435" lon="2.15191">
        <ele>753</ele>
        <time>2019-12-08T09:52:36Z</time>
      </trkpt>
      <trkpt lat="43.44341" lon="2.15227">
        <ele>752</ele>
        <time>2019-12-08T09:52:39Z</time>
      </trkpt>
      <trkpt lat="43.44337" lon="2.15238">
        <ele>751</ele>
        <time>2019-12-08T09:52:40Z</time>
      </trkpt>
      <trkpt lat="43.44332" lon="2.15249">
        <ele>751</ele>
        <time>2019-12-08T09:52:41Z</time>
      </trkpt>
      <trkpt lat="43.44326" lon="2.15259">
        <ele>750</ele>
        <time>2019-12-08T09:52:42Z</time>
      </trkpt>
      <trkpt lat="43.44313" lon="2.15275">
        <ele>750</ele>
        <time>2019-12-08T09:52:44Z</time>
      </trkpt>
      <trkpt lat="43.44306" lon="2.15283">
        <ele>750</ele>
        <time>2019-12-08T09:52:45Z</time>
      </trkpt>
      <trkpt lat="43.44294" lon="2.15297">
        <ele>749</ele>
        <time>2019-12-08T09:52:47Z</time>
      </trkpt>
      <trkpt lat="43.44276" lon="2.15317">
        <ele>748</ele>
        <time>2019-12-08T09:52:50Z</time>
      </trkpt>
      <trkpt lat="43.44265" lon="2.15331">
        <ele>748</ele>
        <time>2019-12-08T09:52:52Z</time>
      </trkpt>
      <trkpt lat="43.44259" lon="2.15337">
        <ele>748</ele>
        <time>2019-12-08T09:52:53Z</time>
      </trkpt>
      <trkpt lat="43.44228" lon="2.15374">
        <ele>748</ele>
        <time>2019-12-08T09:52:59Z</time>
      </trkpt>
      <trkpt lat="43.44222" lon="2.15378">
        <ele>747</ele>
        <time>2019-12-08T09:53:00Z</time>
      </trkpt>
      <trkpt lat="43.44216" lon="2.15383">
        <ele>747</ele>
        <time>2019-12-08T09:53:01Z</time>
      </trkpt>
      <trkpt lat="43.44194" lon="2.1539">
        <ele>747</ele>
        <time>2019-12-08T09:53:04Z</time>
      </trkpt>
      <trkpt lat="43.44169" lon="2.15383">
        <ele>745</ele>
        <time>2019-12-08T09:53:07Z</time>
      </trkpt>
      <trkpt lat="43.44144" lon="2.15386">
        <ele>744</ele>
        <time>2019-12-08T09:53:10Z</time>
      </trkpt>
      <trkpt lat="43.44131" lon="2.15399">
        <ele>743</ele>
        <time>2019-12-08T09:53:12Z</time>
      </trkpt>
      <trkpt lat="43.44126" lon="2.15407">
        <ele>742</ele>
        <time>2019-12-08T09:53:13Z</time>
      </trkpt>
      <trkpt lat="43.44121" lon="2.15414">
        <ele>742</ele>
        <time>2019-12-08T09:53:14Z</time>
      </trkpt>
      <trkpt lat="43.44108" lon="2.15425">
        <ele>742</ele>
        <time>2019-12-08T09:53:16Z</time>
      </trkpt>
      <trkpt lat="43.44101" lon="2.1543">
        <ele>741</ele>
        <time>2019-12-08T09:53:17Z</time>
      </trkpt>
      <trkpt lat="43.44088" lon="2.15438">
        <ele>740</ele>
        <time>2019-12-08T09:53:19Z</time>
      </trkpt>
      <trkpt lat="43.44081" lon="2.15442">
        <ele>739</ele>
        <time>2019-12-08T09:53:20Z</time>
      </trkpt>
      <trkpt lat="43.44074" lon="2.15446">
        <ele>739</ele>
        <time>2019-12-08T09:53:21Z</time>
      </trkpt>
      <trkpt lat="43.4405" lon="2.15462">
        <ele>738</ele>
        <time>2019-12-08T09:53:24Z</time>
      </trkpt>
      <trkpt lat="43.44027" lon="2.15473">
        <ele>736</ele>
        <time>2019-12-08T09:53:27Z</time>
      </trkpt>
      <trkpt lat="43.44012" lon="2.15479">
        <ele>735</ele>
        <time>2019-12-08T09:53:29Z</time>
      </trkpt>
      <trkpt lat="43.44005" lon="2.15481">
        <ele>735</ele>
        <time>2019-12-08T09:53:30Z</time>
      </trkpt>
      <trkpt lat="43.43983" lon="2.15482">
        <ele>736</ele>
        <time>2019-12-08T09:53:33Z</time>
      </trkpt>
      <trkpt lat="43.4396" lon="2.15482">
        <ele>736</ele>
        <time>2019-12-08T09:53:36Z</time>
      </trkpt>
      <trkpt lat="43.43945" lon="2.15481">
        <ele>735</ele>
        <time>2019-12-08T09:53:38Z</time>
      </trkpt>
      <trkpt lat="43.43937" lon="2.15481">
        <ele>735</ele>
        <time>2019-12-08T09:53:39Z</time>
      </trkpt>
      <trkpt lat="43.43923" lon="2.15481">
        <ele>735</ele>
        <time>2019-12-08T09:53:41Z</time>
      </trkpt>
      <trkpt lat="43.43904" lon="2.15481">
        <ele>736</ele>
        <time>2019-12-08T09:53:44Z</time>
      </trkpt>
      <trkpt lat="43.43892" lon="2.15481">
        <ele>737</ele>
        <time>2019-12-08T09:53:46Z</time>
      </trkpt>
      <trkpt lat="43.43876" lon="2.15483">
        <ele>737</ele>
        <time>2019-12-08T09:53:49Z</time>
      </trkpt>
      <trkpt lat="43.43865" lon="2.15484">
        <ele>737</ele>
        <time>2019-12-08T09:53:51Z</time>
      </trkpt>
      <trkpt lat="43.43859" lon="2.15484">
        <ele>737</ele>
        <time>2019-12-08T09:53:52Z</time>
      </trkpt>
      <trkpt lat="43.43845" lon="2.15483">
        <ele>738</ele>
        <time>2019-12-08T09:53:55Z</time>
      </trkpt>
      <trkpt lat="43.4384" lon="2.15482">
        <ele>738</ele>
        <time>2019-12-08T09:53:56Z</time>
      </trkpt>
      <trkpt lat="43.43836" lon="2.1548">
        <ele>738</ele>
        <time>2019-12-08T09:53:57Z</time>
      </trkpt>
      <trkpt lat="43.43827" lon="2.15478">
        <ele>738</ele>
        <time>2019-12-08T09:53:59Z</time>
      </trkpt>
      <trkpt lat="43.43813" lon="2.15477">
        <ele>739</ele>
        <time>2019-12-08T09:54:02Z</time>
      </trkpt>
      <trkpt lat="43.43804" lon="2.15477">
        <ele>740</ele>
        <time>2019-12-08T09:54:04Z</time>
      </trkpt>
      <trkpt lat="43.43795" lon="2.15476">
        <ele>740</ele>
        <time>2019-12-08T09:54:06Z</time>
      </trkpt>
      <trkpt lat="43.43772" lon="2.15475">
        <ele>741</ele>
        <time>2019-12-08T09:54:11Z</time>
      </trkpt>
      <trkpt lat="43.43763" lon="2.15475">
        <ele>741</ele>
        <time>2019-12-08T09:54:13Z</time>
      </trkpt>
      <trkpt lat="43.43726" lon="2.15474">
        <ele>741</ele>
        <time>2019-12-08T09:54:21Z</time>
      </trkpt>
      <trkpt lat="43.43692" lon="2.15474">
        <ele>739</ele>
        <time>2019-12-08T09:54:29Z</time>
      </trkpt>
      <trkpt lat="43.43687" lon="2.15474">
        <ele>739</ele>
        <time>2019-12-08T09:54:30Z</time>
      </trkpt>
      <trkpt lat="43.43658" lon="2.15477">
        <ele>738</ele>
        <time>2019-12-08T09:54:36Z</time>
      </trkpt>
      <trkpt lat="43.43653" lon="2.15476">
        <ele>738</ele>
        <time>2019-12-08T09:54:37Z</time>
      </trkpt>
      <trkpt lat="43.4362" lon="2.15478">
        <ele>737</ele>
        <time>2019-12-08T09:54:43Z</time>
      </trkpt>
      <trkpt lat="43.43613" lon="2.15479">
        <ele>737</ele>
        <time>2019-12-08T09:54:44Z</time>
      </trkpt>
      <trkpt lat="43.436" lon="2.15481">
        <ele>736</ele>
        <time>2019-12-08T09:54:46Z</time>
      </trkpt>
      <trkpt lat="43.43578" lon="2.15483">
        <ele>734</ele>
        <time>2019-12-08T09:54:49Z</time>
      </trkpt>
      <trkpt lat="43.43563" lon="2.15484">
        <ele>733</ele>
        <time>2019-12-08T09:54:51Z</time>
      </trkpt>
      <trkpt lat="43.43548" lon="2.15486">
        <ele>732</ele>
        <time>2019-12-08T09:54:53Z</time>
      </trkpt>
      <trkpt lat="43.43519" lon="2.15489">
        <ele>731</ele>
        <time>2019-12-08T09:54:57Z</time>
      </trkpt>
      <trkpt lat="43.43504" lon="2.1549">
        <ele>730</ele>
        <time>2019-12-08T09:54:59Z</time>
      </trkpt>
      <trkpt lat="43.43497" lon="2.15492">
        <ele>729</ele>
        <time>2019-12-08T09:55:00Z</time>
      </trkpt>
      <trkpt lat="43.43484" lon="2.15495">
        <ele>729</ele>
        <time>2019-12-08T09:55:02Z</time>
      </trkpt>
      <trkpt lat="43.43478" lon="2.15496">
        <ele>728</ele>
        <time>2019-12-08T09:55:03Z</time>
      </trkpt>
      <trkpt lat="43.43458" lon="2.15496">
        <ele>728</ele>
        <time>2019-12-08T09:55:06Z</time>
      </trkpt>
      <trkpt lat="43.43414" lon="2.15493">
        <ele>728</ele>
        <time>2019-12-08T09:55:13Z</time>
      </trkpt>
      <trkpt lat="43.43409" lon="2.15493">
        <ele>728</ele>
        <time>2019-12-08T09:55:14Z</time>
      </trkpt>
      <trkpt lat="43.43374" lon="2.15485">
        <ele>728</ele>
        <time>2019-12-08T09:55:20Z</time>
      </trkpt>
      <trkpt lat="43.43326" lon="2.15474">
        <ele>727</ele>
        <time>2019-12-08T09:55:28Z</time>
      </trkpt>
      <trkpt lat="43.43291" lon="2.15466">
        <ele>727</ele>
        <time>2019-12-08T09:55:34Z</time>
      </trkpt>
      <trkpt lat="43.43268" lon="2.15462">
        <ele>727</ele>
        <time>2019-12-08T09:55:38Z</time>
      </trkpt>
      <trkpt lat="43.43229" lon="2.15454">
        <ele>728</ele>
        <time>2019-12-08T09:55:45Z</time>
      </trkpt>
      <trkpt lat="43.43183" lon="2.15446">
        <ele>727</ele>
        <time>2019-12-08T09:55:53Z</time>
      </trkpt>
      <trkpt lat="43.43178" lon="2.15446">
        <ele>727</ele>
        <time>2019-12-08T09:55:54Z</time>
      </trkpt>
      <trkpt lat="43.43167" lon="2.15446">
        <ele>726</ele>
        <time>2019-12-08T09:55:56Z</time>
      </trkpt>
      <trkpt lat="43.43151" lon="2.15444">
        <ele>725</ele>
        <time>2019-12-08T09:55:59Z</time>
      </trkpt>
      <trkpt lat="43.43146" lon="2.15442">
        <ele>725</ele>
        <time>2019-12-08T09:56:00Z</time>
      </trkpt>
      <trkpt lat="43.43119" lon="2.15435">
        <ele>725</ele>
        <time>2019-12-08T09:56:05Z</time>
      </trkpt>
      <trkpt lat="43.43094" lon="2.15426">
        <ele>724</ele>
        <time>2019-12-08T09:56:10Z</time>
      </trkpt>
      <trkpt lat="43.43082" lon="2.15423">
        <ele>724</ele>
        <time>2019-12-08T09:56:12Z</time>
      </trkpt>
      <trkpt lat="43.43076" lon="2.15422">
        <ele>724</ele>
        <time>2019-12-08T09:56:13Z</time>
      </trkpt>
      <trkpt lat="43.43069" lon="2.1542">
        <ele>724</ele>
        <time>2019-12-08T09:56:14Z</time>
      </trkpt>
      <trkpt lat="43.43042" lon="2.15414">
        <ele>723</ele>
        <time>2019-12-08T09:56:18Z</time>
      </trkpt>
      <trkpt lat="43.43023" lon="2.15414">
        <ele>724</ele>
        <time>2019-12-08T09:56:21Z</time>
      </trkpt>
      <trkpt lat="43.43017" lon="2.15414">
        <ele>724</ele>
        <time>2019-12-08T09:56:22Z</time>
      </trkpt>
      <trkpt lat="43.42998" lon="2.15412">
        <ele>725</ele>
        <time>2019-12-08T09:56:26Z</time>
      </trkpt>
      <trkpt lat="43.42995" lon="2.15411">
        <ele>725</ele>
        <time>2019-12-08T09:56:27Z</time>
      </trkpt>
      <trkpt lat="43.42987" lon="2.15407">
        <ele>726</ele>
        <time>2019-12-08T09:56:29Z</time>
      </trkpt>
      <trkpt lat="43.4298" lon="2.15402">
        <ele>726</ele>
        <time>2019-12-08T09:56:31Z</time>
      </trkpt>
      <trkpt lat="43.42977" lon="2.154">
        <ele>726</ele>
        <time>2019-12-08T09:56:32Z</time>
      </trkpt>
      <trkpt lat="43.42969" lon="2.15399">
        <ele>727</ele>
        <time>2019-12-08T09:56:34Z</time>
      </trkpt>
      <trkpt lat="43.42953" lon="2.15399">
        <ele>728</ele>
        <time>2019-12-08T09:56:38Z</time>
      </trkpt>
      <trkpt lat="43.4295" lon="2.154">
        <ele>728</ele>
        <time>2019-12-08T09:56:39Z</time>
      </trkpt>
      <trkpt lat="43.42936" lon="2.15408">
        <ele>727</ele>
        <time>2019-12-08T09:56:43Z</time>
      </trkpt>
      <trkpt lat="43.42928" lon="2.15402">
        <ele>726</ele>
        <time>2019-12-08T09:56:46Z</time>
      </trkpt>
      <trkpt lat="43.42924" lon="2.15394">
        <ele>726</ele>
        <time>2019-12-08T09:56:48Z</time>
      </trkpt>
      <trkpt lat="43.42921" lon="2.15387">
        <ele>726</ele>
        <time>2019-12-08T09:56:50Z</time>
      </trkpt>
      <trkpt lat="43.42912" lon="2.1537">
        <ele>725</ele>
        <time>2019-12-08T09:56:55Z</time>
      </trkpt>
      <trkpt lat="43.42902" lon="2.15351">
        <ele>725</ele>
        <time>2019-12-08T09:57:00Z</time>
      </trkpt>
      <trkpt lat="43.42897" lon="2.15342">
        <ele>725</ele>
        <time>2019-12-08T09:57:02Z</time>
      </trkpt>
      <trkpt lat="43.42892" lon="2.15333">
        <ele>725</ele>
        <time>2019-12-08T09:57:04Z</time>
      </trkpt>
      <trkpt lat="43.42884" lon="2.15318">
        <ele>724</ele>
        <time>2019-12-08T09:57:07Z</time>
      </trkpt>
      <trkpt lat="43.42879" lon="2.15305">
        <ele>724</ele>
        <time>2019-12-08T09:57:09Z</time>
      </trkpt>
      <trkpt lat="43.42871" lon="2.15286">
        <ele>723</ele>
        <time>2019-12-08T09:57:12Z</time>
      </trkpt>
      <trkpt lat="43.42868" lon="2.15279">
        <ele>723</ele>
        <time>2019-12-08T09:57:13Z</time>
      </trkpt>
      <trkpt lat="43.42862" lon="2.15265">
        <ele>722</ele>
        <time>2019-12-08T09:57:15Z</time>
      </trkpt>
      <trkpt lat="43.42854" lon="2.15242">
        <ele>721</ele>
        <time>2019-12-08T09:57:18Z</time>
      </trkpt>
      <trkpt lat="43.42843" lon="2.1522">
        <ele>720</ele>
        <time>2019-12-08T09:57:21Z</time>
      </trkpt>
      <trkpt lat="43.42839" lon="2.15212">
        <ele>719</ele>
        <time>2019-12-08T09:57:22Z</time>
      </trkpt>
      <trkpt lat="43.42834" lon="2.15194">
        <ele>718</ele>
        <time>2019-12-08T09:57:24Z</time>
      </trkpt>
      <trkpt lat="43.42827" lon="2.15177">
        <ele>718</ele>
        <time>2019-12-08T09:57:26Z</time>
      </trkpt>
      <trkpt lat="43.42823" lon="2.15168">
        <ele>717</ele>
        <time>2019-12-08T09:57:27Z</time>
      </trkpt>
      <trkpt lat="43.42811" lon="2.15138">
        <ele>716</ele>
        <time>2019-12-08T09:57:30Z</time>
      </trkpt>
      <trkpt lat="43.42801" lon="2.1512">
        <ele>714</ele>
        <time>2019-12-08T09:57:32Z</time>
      </trkpt>
      <trkpt lat="43.42791" lon="2.15099">
        <ele>713</ele>
        <time>2019-12-08T09:57:34Z</time>
      </trkpt>
      <trkpt lat="43.42782" lon="2.15081">
        <ele>711</ele>
        <time>2019-12-08T09:57:36Z</time>
      </trkpt>
      <trkpt lat="43.42778" lon="2.15074">
        <ele>710</ele>
        <time>2019-12-08T09:57:37Z</time>
      </trkpt>
      <trkpt lat="43.42775" lon="2.15066">
        <ele>709</ele>
        <time>2019-12-08T09:57:38Z</time>
      </trkpt>
      <trkpt lat="43.42769" lon="2.1505">
        <ele>708</ele>
        <time>2019-12-08T09:57:40Z</time>
      </trkpt>
      <trkpt lat="43.42766" lon="2.15042">
        <ele>708</ele>
        <time>2019-12-08T09:57:41Z</time>
      </trkpt>
      <trkpt lat="43.42759" lon="2.15028">
        <ele>706</ele>
        <time>2019-12-08T09:57:43Z</time>
      </trkpt>
      <trkpt lat="43.42754" lon="2.15017">
        <ele>704</ele>
        <time>2019-12-08T09:57:45Z</time>
      </trkpt>
      <trkpt lat="43.4275" lon="2.1501">
        <ele>703</ele>
        <time>2019-12-08T09:57:47Z</time>
      </trkpt>
      <trkpt lat="43.42745" lon="2.14999">
        <ele>701</ele>
        <time>2019-12-08T09:57:50Z</time>
      </trkpt>
      <trkpt lat="43.42744" lon="2.14996">
        <ele>701</ele>
        <time>2019-12-08T09:57:51Z</time>
      </trkpt>
      <trkpt lat="43.42742" lon="2.14993">
        <ele>700</ele>
        <time>2019-12-08T09:57:53Z</time>
      </trkpt>
      <trkpt lat="43.4274" lon="2.14984">
        <ele>699</ele>
        <time>2019-12-08T09:58:06Z</time>
      </trkpt>
      <trkpt lat="43.4274" lon="2.14982">
        <ele>699</ele>
        <time>2019-12-08T09:58:07Z</time>
      </trkpt>
      <trkpt lat="43.42736" lon="2.14971">
        <ele>698</ele>
        <time>2019-12-08T09:58:10Z</time>
      </trkpt>
      <trkpt lat="43.42734" lon="2.14966">
        <ele>698</ele>
        <time>2019-12-08T09:58:11Z</time>
      </trkpt>
      <trkpt lat="43.42732" lon="2.14961">
        <ele>698</ele>
        <time>2019-12-08T09:58:12Z</time>
      </trkpt>
      <trkpt lat="43.42731" lon="2.14956">
        <ele>697</ele>
        <time>2019-12-08T09:58:13Z</time>
      </trkpt>
      <trkpt lat="43.42726" lon="2.14945">
        <ele>696</ele>
        <time>2019-12-08T09:58:15Z</time>
      </trkpt>
      <trkpt lat="43.42723" lon="2.14939">
        <ele>695</ele>
        <time>2019-12-08T09:58:16Z</time>
      </trkpt>
      <trkpt lat="43.4272" lon="2.14934">
        <ele>694</ele>
        <time>2019-12-08T09:58:17Z</time>
      </trkpt>
      <trkpt lat="43.42717" lon="2.1493">
        <ele>693</ele>
        <time>2019-12-08T09:58:18Z</time>
      </trkpt>
      <trkpt lat="43.42713" lon="2.14923">
        <ele>692</ele>
        <time>2019-12-08T09:58:20Z</time>
      </trkpt>
      <trkpt lat="43.42705" lon="2.1492">
        <ele>691</ele>
        <time>2019-12-08T09:58:23Z</time>
      </trkpt>
      <trkpt lat="43.42697" lon="2.14917">
        <ele>690</ele>
        <time>2019-12-08T09:58:25Z</time>
      </trkpt>
      <trkpt lat="43.42693" lon="2.14914">
        <ele>689</ele>
        <time>2019-12-08T09:58:26Z</time>
      </trkpt>
      <trkpt lat="43.42683" lon="2.1491">
        <ele>688</ele>
        <time>2019-12-08T09:58:28Z</time>
      </trkpt>
      <trkpt lat="43.42679" lon="2.14907">
        <ele>688</ele>
        <time>2019-12-08T09:58:29Z</time>
      </trkpt>
      <trkpt lat="43.42675" lon="2.14905">
        <ele>687</ele>
        <time>2019-12-08T09:58:30Z</time>
      </trkpt>
      <trkpt lat="43.4267" lon="2.14902">
        <ele>686</ele>
        <time>2019-12-08T09:58:31Z</time>
      </trkpt>
      <trkpt lat="43.42661" lon="2.14896">
        <ele>686</ele>
        <time>2019-12-08T09:58:33Z</time>
      </trkpt>
      <trkpt lat="43.42656" lon="2.14894">
        <ele>686</ele>
        <time>2019-12-08T09:58:34Z</time>
      </trkpt>
      <trkpt lat="43.42652" lon="2.14892">
        <ele>685</ele>
        <time>2019-12-08T09:58:35Z</time>
      </trkpt>
      <trkpt lat="43.42638" lon="2.14885">
        <ele>684</ele>
        <time>2019-12-08T09:58:38Z</time>
      </trkpt>
      <trkpt lat="43.42627" lon="2.14879">
        <ele>683</ele>
        <time>2019-12-08T09:58:40Z</time>
      </trkpt>
      <trkpt lat="43.42621" lon="2.14876">
        <ele>682</ele>
        <time>2019-12-08T09:58:41Z</time>
      </trkpt>
      <trkpt lat="43.42616" lon="2.14872">
        <ele>681</ele>
        <time>2019-12-08T09:58:42Z</time>
      </trkpt>
      <trkpt lat="43.4261" lon="2.1487">
        <ele>681</ele>
        <time>2019-12-08T09:58:43Z</time>
      </trkpt>
      <trkpt lat="43.42605" lon="2.14868">
        <ele>680</ele>
        <time>2019-12-08T09:58:44Z</time>
      </trkpt>
      <trkpt lat="43.42598" lon="2.14866">
        <ele>680</ele>
        <time>2019-12-08T09:58:45Z</time>
      </trkpt>
      <trkpt lat="43.42588" lon="2.1486">
        <ele>679</ele>
        <time>2019-12-08T09:58:47Z</time>
      </trkpt>
      <trkpt lat="43.42584" lon="2.14857">
        <ele>678</ele>
        <time>2019-12-08T09:58:48Z</time>
      </trkpt>
      <trkpt lat="43.42581" lon="2.14853">
        <ele>678</ele>
        <time>2019-12-08T09:58:49Z</time>
      </trkpt>
      <trkpt lat="43.42573" lon="2.14845">
        <ele>677</ele>
        <time>2019-12-08T09:58:51Z</time>
      </trkpt>
      <trkpt lat="43.42568" lon="2.14842">
        <ele>677</ele>
        <time>2019-12-08T09:58:52Z</time>
      </trkpt>
      <trkpt lat="43.42558" lon="2.14841">
        <ele>676</ele>
        <time>2019-12-08T09:58:54Z</time>
      </trkpt>
      <trkpt lat="43.42552" lon="2.1484">
        <ele>676</ele>
        <time>2019-12-08T09:58:55Z</time>
      </trkpt>
      <trkpt lat="43.42547" lon="2.14841">
        <ele>676</ele>
        <time>2019-12-08T09:58:56Z</time>
      </trkpt>
      <trkpt lat="43.42542" lon="2.1484">
        <ele>675</ele>
        <time>2019-12-08T09:58:57Z</time>
      </trkpt>
      <trkpt lat="43.42537" lon="2.1484">
        <ele>674</ele>
        <time>2019-12-08T09:58:58Z</time>
      </trkpt>
      <trkpt lat="43.42527" lon="2.14843">
        <ele>674</ele>
        <time>2019-12-08T09:59:00Z</time>
      </trkpt>
      <trkpt lat="43.42523" lon="2.14844">
        <ele>673</ele>
        <time>2019-12-08T09:59:01Z</time>
      </trkpt>
      <trkpt lat="43.42514" lon="2.14844">
        <ele>672</ele>
        <time>2019-12-08T09:59:03Z</time>
      </trkpt>
      <trkpt lat="43.42509" lon="2.14845">
        <ele>671</ele>
        <time>2019-12-08T09:59:04Z</time>
      </trkpt>
      <trkpt lat="43.42502" lon="2.14847">
        <ele>670</ele>
        <time>2019-12-08T09:59:06Z</time>
      </trkpt>
      <trkpt lat="43.42497" lon="2.14847">
        <ele>670</ele>
        <time>2019-12-08T09:59:07Z</time>
      </trkpt>
      <trkpt lat="43.42492" lon="2.14846">
        <ele>669</ele>
        <time>2019-12-08T09:59:09Z</time>
      </trkpt>
      <trkpt lat="43.42489" lon="2.14845">
        <ele>669</ele>
        <time>2019-12-08T09:59:10Z</time>
      </trkpt>
      <trkpt lat="43.4248" lon="2.14845">
        <ele>668</ele>
        <time>2019-12-08T09:59:12Z</time>
      </trkpt>
      <trkpt lat="43.42475" lon="2.14846">
        <ele>667</ele>
        <time>2019-12-08T09:59:13Z</time>
      </trkpt>
      <trkpt lat="43.4247" lon="2.14847">
        <ele>667</ele>
        <time>2019-12-08T09:59:14Z</time>
      </trkpt>
      <trkpt lat="43.42457" lon="2.14851">
        <ele>665</ele>
        <time>2019-12-08T09:59:17Z</time>
      </trkpt>
      <trkpt lat="43.42449" lon="2.14852">
        <ele>664</ele>
        <time>2019-12-08T09:59:19Z</time>
      </trkpt>
      <trkpt lat="43.42437" lon="2.14855">
        <ele>663</ele>
        <time>2019-12-08T09:59:22Z</time>
      </trkpt>
      <trkpt lat="43.42424" lon="2.14858">
        <ele>663</ele>
        <time>2019-12-08T09:59:25Z</time>
      </trkpt>
      <trkpt lat="43.42418" lon="2.14859">
        <ele>663</ele>
        <time>2019-12-08T09:59:26Z</time>
      </trkpt>
      <trkpt lat="43.42412" lon="2.1486">
        <ele>663</ele>
        <time>2019-12-08T09:59:27Z</time>
      </trkpt>
      <trkpt lat="43.42406" lon="2.14861">
        <ele>663</ele>
        <time>2019-12-08T09:59:28Z</time>
      </trkpt>
      <trkpt lat="43.42396" lon="2.14862">
        <ele>662</ele>
        <time>2019-12-08T09:59:30Z</time>
      </trkpt>
      <trkpt lat="43.4238" lon="2.14862">
        <ele>661</ele>
        <time>2019-12-08T09:59:33Z</time>
      </trkpt>
      <trkpt lat="43.4237" lon="2.14859">
        <ele>660</ele>
        <time>2019-12-08T09:59:35Z</time>
      </trkpt>
      <trkpt lat="43.4236" lon="2.1486">
        <ele>659</ele>
        <time>2019-12-08T09:59:37Z</time>
      </trkpt>
      <trkpt lat="43.42349" lon="2.14865">
        <ele>657</ele>
        <time>2019-12-08T09:59:39Z</time>
      </trkpt>
      <trkpt lat="43.42337" lon="2.14873">
        <ele>657</ele>
        <time>2019-12-08T09:59:42Z</time>
      </trkpt>
      <trkpt lat="43.42331" lon="2.14874">
        <ele>657</ele>
        <time>2019-12-08T09:59:44Z</time>
      </trkpt>
      <trkpt lat="43.42324" lon="2.14872">
        <ele>657</ele>
        <time>2019-12-08T09:59:46Z</time>
      </trkpt>
      <trkpt lat="43.42319" lon="2.14871">
        <ele>656</ele>
        <time>2019-12-08T09:59:47Z</time>
      </trkpt>
      <trkpt lat="43.42314" lon="2.1487">
        <ele>655</ele>
        <time>2019-12-08T09:59:48Z</time>
      </trkpt>
      <trkpt lat="43.42309" lon="2.1487">
        <ele>655</ele>
        <time>2019-12-08T09:59:49Z</time>
      </trkpt>
      <trkpt lat="43.42304" lon="2.14873">
        <ele>654</ele>
        <time>2019-12-08T09:59:50Z</time>
      </trkpt>
      <trkpt lat="43.42296" lon="2.1488">
        <ele>654</ele>
        <time>2019-12-08T09:59:52Z</time>
      </trkpt>
      <trkpt lat="43.42288" lon="2.14888">
        <ele>653</ele>
        <time>2019-12-08T09:59:54Z</time>
      </trkpt>
      <trkpt lat="43.42274" lon="2.14902">
        <ele>653</ele>
        <time>2019-12-08T09:59:58Z</time>
      </trkpt>
      <trkpt lat="43.42271" lon="2.14905">
        <ele>653</ele>
        <time>2019-12-08T09:59:59Z</time>
      </trkpt>
      <trkpt lat="43.42261" lon="2.1491">
        <ele>652</ele>
        <time>2019-12-08T10:00:03Z</time>
      </trkpt>
      <trkpt lat="43.42256" lon="2.14915">
        <ele>652</ele>
        <time>2019-12-08T10:00:05Z</time>
      </trkpt>
      <trkpt lat="43.42252" lon="2.14917">
        <ele>651</ele>
        <time>2019-12-08T10:00:06Z</time>
      </trkpt>
      <trkpt lat="43.42247" lon="2.1492">
        <ele>651</ele>
        <time>2019-12-08T10:00:07Z</time>
      </trkpt>
      <trkpt lat="43.42242" lon="2.14924">
        <ele>650</ele>
        <time>2019-12-08T10:00:08Z</time>
      </trkpt>
      <trkpt lat="43.42237" lon="2.14926">
        <ele>650</ele>
        <time>2019-12-08T10:00:09Z</time>
      </trkpt>
      <trkpt lat="43.42231" lon="2.14926">
        <ele>649</ele>
        <time>2019-12-08T10:00:10Z</time>
      </trkpt>
      <trkpt lat="43.42227" lon="2.14923">
        <ele>649</ele>
        <time>2019-12-08T10:00:11Z</time>
      </trkpt>
      <trkpt lat="43.42216" lon="2.14908">
        <ele>648</ele>
        <time>2019-12-08T10:00:14Z</time>
      </trkpt>
      <trkpt lat="43.42212" lon="2.14904">
        <ele>647</ele>
        <time>2019-12-08T10:00:15Z</time>
      </trkpt>
      <trkpt lat="43.42206" lon="2.14896">
        <ele>647</ele>
        <time>2019-12-08T10:00:17Z</time>
      </trkpt>
      <trkpt lat="43.42199" lon="2.14895">
        <ele>646</ele>
        <time>2019-12-08T10:00:19Z</time>
      </trkpt>
      <trkpt lat="43.42191" lon="2.14894">
        <ele>646</ele>
        <time>2019-12-08T10:00:22Z</time>
      </trkpt>
      <trkpt lat="43.42185" lon="2.14894">
        <ele>646</ele>
        <time>2019-12-08T10:00:24Z</time>
      </trkpt>
      <trkpt lat="43.42169" lon="2.14902">
        <ele>647</ele>
        <time>2019-12-08T10:00:28Z</time>
      </trkpt>
      <trkpt lat="43.4216" lon="2.14907">
        <ele>647</ele>
        <time>2019-12-08T10:00:30Z</time>
      </trkpt>
      <trkpt lat="43.42152" lon="2.14914">
        <ele>647</ele>
        <time>2019-12-08T10:00:32Z</time>
      </trkpt>
      <trkpt lat="43.42143" lon="2.14922">
        <ele>647</ele>
        <time>2019-12-08T10:00:34Z</time>
      </trkpt>
      <trkpt lat="43.42128" lon="2.14929">
        <ele>646</ele>
        <time>2019-12-08T10:00:37Z</time>
      </trkpt>
      <trkpt lat="43.42123" lon="2.14932">
        <ele>646</ele>
        <time>2019-12-08T10:00:38Z</time>
      </trkpt>
      <trkpt lat="43.42121" lon="2.14936">
        <ele>646</ele>
        <time>2019-12-08T10:00:39Z</time>
      </trkpt>
      <trkpt lat="43.42119" lon="2.14942">
        <ele>646</ele>
        <time>2019-12-08T10:00:40Z</time>
      </trkpt>
      <trkpt lat="43.4211" lon="2.14958">
        <ele>645</ele>
        <time>2019-12-08T10:00:43Z</time>
      </trkpt>
      <trkpt lat="43.42102" lon="2.14968">
        <ele>645</ele>
        <time>2019-12-08T10:00:45Z</time>
      </trkpt>
      <trkpt lat="43.42094" lon="2.14977">
        <ele>643</ele>
        <time>2019-12-08T10:00:47Z</time>
      </trkpt>
      <trkpt lat="43.4209" lon="2.1498">
        <ele>643</ele>
        <time>2019-12-08T10:00:48Z</time>
      </trkpt>
      <trkpt lat="43.42085" lon="2.14984">
        <ele>642</ele>
        <time>2019-12-08T10:00:49Z</time>
      </trkpt>
      <trkpt lat="43.42077" lon="2.14992">
        <ele>642</ele>
        <time>2019-12-08T10:00:51Z</time>
      </trkpt>
      <trkpt lat="43.42073" lon="2.14996">
        <ele>642</ele>
        <time>2019-12-08T10:00:52Z</time>
      </trkpt>
      <trkpt lat="43.42068" lon="2.14998">
        <ele>642</ele>
        <time>2019-12-08T10:00:53Z</time>
      </trkpt>
      <trkpt lat="43.42059" lon="2.15004">
        <ele>642</ele>
        <time>2019-12-08T10:00:55Z</time>
      </trkpt>
      <trkpt lat="43.42055" lon="2.15008">
        <ele>641</ele>
        <time>2019-12-08T10:00:56Z</time>
      </trkpt>
      <trkpt lat="43.42046" lon="2.15015">
        <ele>640</ele>
        <time>2019-12-08T10:00:58Z</time>
      </trkpt>
      <trkpt lat="43.42041" lon="2.15018">
        <ele>639</ele>
        <time>2019-12-08T10:00:59Z</time>
      </trkpt>
      <trkpt lat="43.42028" lon="2.15025">
        <ele>639</ele>
        <time>2019-12-08T10:01:02Z</time>
      </trkpt>
      <trkpt lat="43.42018" lon="2.15028">
        <ele>638</ele>
        <time>2019-12-08T10:01:06Z</time>
      </trkpt>
      <trkpt lat="43.42015" lon="2.1503">
        <ele>637</ele>
        <time>2019-12-08T10:01:08Z</time>
      </trkpt>
      <trkpt lat="43.42011" lon="2.15029">
        <ele>637</ele>
        <time>2019-12-08T10:01:10Z</time>
      </trkpt>
      <trkpt lat="43.42001" lon="2.1502">
        <ele>637</ele>
        <time>2019-12-08T10:01:14Z</time>
      </trkpt>
      <trkpt lat="43.41997" lon="2.15014">
        <ele>637</ele>
        <time>2019-12-08T10:01:16Z</time>
      </trkpt>
      <trkpt lat="43.41985" lon="2.15002">
        <ele>637</ele>
        <time>2019-12-08T10:01:21Z</time>
      </trkpt>
      <trkpt lat="43.41967" lon="2.14984">
        <ele>638</ele>
        <time>2019-12-08T10:01:29Z</time>
      </trkpt>
      <trkpt lat="43.41947" lon="2.14972">
        <ele>638</ele>
        <time>2019-12-08T10:01:37Z</time>
      </trkpt>
      <trkpt lat="43.41939" lon="2.14967">
        <ele>639</ele>
        <time>2019-12-08T10:01:41Z</time>
      </trkpt>
      <trkpt lat="43.41931" lon="2.14961">
        <ele>639</ele>
        <time>2019-12-08T10:01:45Z</time>
      </trkpt>
      <trkpt lat="43.41924" lon="2.14953">
        <ele>640</ele>
        <time>2019-12-08T10:01:49Z</time>
      </trkpt>
      <trkpt lat="43.41921" lon="2.14949">
        <ele>641</ele>
        <time>2019-12-08T10:01:51Z</time>
      </trkpt>
      <trkpt lat="43.41916" lon="2.14944">
        <ele>641</ele>
        <time>2019-12-08T10:01:54Z</time>
      </trkpt>
      <trkpt lat="43.41911" lon="2.14939">
        <ele>642</ele>
        <time>2019-12-08T10:01:57Z</time>
      </trkpt>
      <trkpt lat="43.41903" lon="2.14928">
        <ele>644</ele>
        <time>2019-12-08T10:02:02Z</time>
      </trkpt>
      <trkpt lat="43.41898" lon="2.14922">
        <ele>644</ele>
        <time>2019-12-08T10:02:05Z</time>
      </trkpt>
      <trkpt lat="43.41894" lon="2.14917">
        <ele>645</ele>
        <time>2019-12-08T10:02:07Z</time>
      </trkpt>
      <trkpt lat="43.41888" lon="2.14908">
        <ele>645</ele>
        <time>2019-12-08T10:02:11Z</time>
      </trkpt>
      <trkpt lat="43.41886" lon="2.14905">
        <ele>646</ele>
        <time>2019-12-08T10:02:12Z</time>
      </trkpt>
      <trkpt lat="43.41877" lon="2.14895">
        <ele>646</ele>
        <time>2019-12-08T10:02:17Z</time>
      </trkpt>
      <trkpt lat="43.41876" lon="2.14893">
        <ele>647</ele>
        <time>2019-12-08T10:02:18Z</time>
      </trkpt>
      <trkpt lat="43.41865" lon="2.14878">
        <ele>648</ele>
        <time>2019-12-08T10:02:24Z</time>
      </trkpt>
      <trkpt lat="43.41851" lon="2.1486">
        <ele>648</ele>
        <time>2019-12-08T10:02:31Z</time>
      </trkpt>
      <trkpt lat="43.41833" lon="2.14839">
        <ele>649</ele>
        <time>2019-12-08T10:02:38Z</time>
      </trkpt>
      <trkpt lat="43.41816" lon="2.14818">
        <ele>649</ele>
        <time>2019-12-08T10:02:45Z</time>
      </trkpt>
      <trkpt lat="43.41804" lon="2.14802">
        <ele>649</ele>
        <time>2019-12-08T10:02:50Z</time>
      </trkpt>
      <trkpt lat="43.41797" lon="2.14793">
        <ele>649</ele>
        <time>2019-12-08T10:02:53Z</time>
      </trkpt>
      <trkpt lat="43.41786" lon="2.14778">
        <ele>649</ele>
        <time>2019-12-08T10:02:58Z</time>
      </trkpt>
      <trkpt lat="43.4178" lon="2.14774">
        <ele>649</ele>
        <time>2019-12-08T10:03:00Z</time>
      </trkpt>
      <trkpt lat="43.41765" lon="2.14762">
        <ele>650</ele>
        <time>2019-12-08T10:03:06Z</time>
      </trkpt>
      <trkpt lat="43.41752" lon="2.14756">
        <ele>650</ele>
        <time>2019-12-08T10:03:11Z</time>
      </trkpt>
      <trkpt lat="43.41743" lon="2.14755">
        <ele>650</ele>
        <time>2019-12-08T10:03:14Z</time>
      </trkpt>
      <trkpt lat="43.41732" lon="2.14753">
        <ele>651</ele>
        <time>2019-12-08T10:03:18Z</time>
      </trkpt>
      <trkpt lat="43.41713" lon="2.14749">
        <ele>651</ele>
        <time>2019-12-08T10:03:24Z</time>
      </trkpt>
      <trkpt lat="43.41711" lon="2.14748">
        <ele>651</ele>
        <time>2019-12-08T10:03:25Z</time>
      </trkpt>
      <trkpt lat="43.41699" lon="2.14744">
        <ele>651</ele>
        <time>2019-12-08T10:03:29Z</time>
      </trkpt>
      <trkpt lat="43.41687" lon="2.1474">
        <ele>652</ele>
        <time>2019-12-08T10:03:33Z</time>
      </trkpt>
      <trkpt lat="43.41684" lon="2.14738">
        <ele>652</ele>
        <time>2019-12-08T10:03:34Z</time>
      </trkpt>
      <trkpt lat="43.4167" lon="2.14731">
        <ele>653</ele>
        <time>2019-12-08T10:03:39Z</time>
      </trkpt>
      <trkpt lat="43.41662" lon="2.14726">
        <ele>653</ele>
        <time>2019-12-08T10:03:42Z</time>
      </trkpt>
      <trkpt lat="43.41655" lon="2.1472">
        <ele>654</ele>
        <time>2019-12-08T10:03:45Z</time>
      </trkpt>
      <trkpt lat="43.41642" lon="2.14709">
        <ele>654</ele>
        <time>2019-12-08T10:03:50Z</time>
      </trkpt>
      <trkpt lat="43.41626" lon="2.14694">
        <ele>654</ele>
        <time>2019-12-08T10:03:56Z</time>
      </trkpt>
      <trkpt lat="43.4161" lon="2.14682">
        <ele>653</ele>
        <time>2019-12-08T10:04:01Z</time>
      </trkpt>
      <trkpt lat="43.41588" lon="2.14669">
        <ele>653</ele>
        <time>2019-12-08T10:04:07Z</time>
      </trkpt>
      <trkpt lat="43.41583" lon="2.14668">
        <ele>652</ele>
        <time>2019-12-08T10:04:08Z</time>
      </trkpt>
      <trkpt lat="43.41569" lon="2.1466">
        <ele>652</ele>
        <time>2019-12-08T10:04:11Z</time>
      </trkpt>
      <trkpt lat="43.41558" lon="2.14654">
        <ele>652</ele>
        <time>2019-12-08T10:04:13Z</time>
      </trkpt>
      <trkpt lat="43.41543" lon="2.14645">
        <ele>652</ele>
        <time>2019-12-08T10:04:16Z</time>
      </trkpt>
      <trkpt lat="43.41539" lon="2.14642">
        <ele>652</ele>
        <time>2019-12-08T10:04:17Z</time>
      </trkpt>
      <trkpt lat="43.41526" lon="2.1463">
        <ele>651</ele>
        <time>2019-12-08T10:04:20Z</time>
      </trkpt>
      <trkpt lat="43.41514" lon="2.14614">
        <ele>651</ele>
        <time>2019-12-08T10:04:23Z</time>
      </trkpt>
      <trkpt lat="43.41509" lon="2.14599">
        <ele>651</ele>
        <time>2019-12-08T10:04:25Z</time>
      </trkpt>
      <trkpt lat="43.41506" lon="2.14583">
        <ele>650</ele>
        <time>2019-12-08T10:04:27Z</time>
      </trkpt>
      <trkpt lat="43.41504" lon="2.14575">
        <ele>650</ele>
        <time>2019-12-08T10:04:28Z</time>
      </trkpt>
      <trkpt lat="43.41498" lon="2.1455">
        <ele>650</ele>
        <time>2019-12-08T10:04:31Z</time>
      </trkpt>
      <trkpt lat="43.41496" lon="2.14541">
        <ele>650</ele>
        <time>2019-12-08T10:04:32Z</time>
      </trkpt>
      <trkpt lat="43.41488" lon="2.14517">
        <ele>649</ele>
        <time>2019-12-08T10:04:35Z</time>
      </trkpt>
      <trkpt lat="43.41485" lon="2.1451">
        <ele>649</ele>
        <time>2019-12-08T10:04:36Z</time>
      </trkpt>
      <trkpt lat="43.41478" lon="2.14496">
        <ele>648</ele>
        <time>2019-12-08T10:04:38Z</time>
      </trkpt>
      <trkpt lat="43.41474" lon="2.14489">
        <ele>648</ele>
        <time>2019-12-08T10:04:39Z</time>
      </trkpt>
      <trkpt lat="43.4146" lon="2.1447">
        <ele>648</ele>
        <time>2019-12-08T10:04:42Z</time>
      </trkpt>
      <trkpt lat="43.41456" lon="2.14464">
        <ele>648</ele>
        <time>2019-12-08T10:04:43Z</time>
      </trkpt>
      <trkpt lat="43.41435" lon="2.1443">
        <ele>647</ele>
        <time>2019-12-08T10:04:48Z</time>
      </trkpt>
      <trkpt lat="43.41433" lon="2.14421">
        <ele>646</ele>
        <time>2019-12-08T10:04:49Z</time>
      </trkpt>
      <trkpt lat="43.41427" lon="2.14393">
        <ele>646</ele>
        <time>2019-12-08T10:04:52Z</time>
      </trkpt>
      <trkpt lat="43.41422" lon="2.14374">
        <ele>645</ele>
        <time>2019-12-08T10:04:54Z</time>
      </trkpt>
      <trkpt lat="43.41414" lon="2.14342">
        <ele>644</ele>
        <time>2019-12-08T10:04:57Z</time>
      </trkpt>
      <trkpt lat="43.41412" lon="2.14331">
        <ele>644</ele>
        <time>2019-12-08T10:04:58Z</time>
      </trkpt>
      <trkpt lat="43.41406" lon="2.14298">
        <ele>642</ele>
        <time>2019-12-08T10:05:01Z</time>
      </trkpt>
      <trkpt lat="43.41404" lon="2.14274">
        <ele>641</ele>
        <time>2019-12-08T10:05:03Z</time>
      </trkpt>
      <trkpt lat="43.41398" lon="2.14237">
        <ele>640</ele>
        <time>2019-12-08T10:05:06Z</time>
      </trkpt>
      <trkpt lat="43.41395" lon="2.14211">
        <ele>638</ele>
        <time>2019-12-08T10:05:08Z</time>
      </trkpt>
      <trkpt lat="43.41392" lon="2.14184">
        <ele>637</ele>
        <time>2019-12-08T10:05:10Z</time>
      </trkpt>
      <trkpt lat="43.41384" lon="2.14145">
        <ele>636</ele>
        <time>2019-12-08T10:05:13Z</time>
      </trkpt>
      <trkpt lat="43.41381" lon="2.14133">
        <ele>635</ele>
        <time>2019-12-08T10:05:14Z</time>
      </trkpt>
      <trkpt lat="43.4137" lon="2.14097">
        <ele>634</ele>
        <time>2019-12-08T10:05:17Z</time>
      </trkpt>
      <trkpt lat="43.41363" lon="2.14073">
        <ele>633</ele>
        <time>2019-12-08T10:05:19Z</time>
      </trkpt>
      <trkpt lat="43.41359" lon="2.14062">
        <ele>632</ele>
        <time>2019-12-08T10:05:20Z</time>
      </trkpt>
      <trkpt lat="43.41351" lon="2.14041">
        <ele>632</ele>
        <time>2019-12-08T10:05:22Z</time>
      </trkpt>
      <trkpt lat="43.41342" lon="2.14019">
        <ele>631</ele>
        <time>2019-12-08T10:05:24Z</time>
      </trkpt>
      <trkpt lat="43.41338" lon="2.14009">
        <ele>631</ele>
        <time>2019-12-08T10:05:25Z</time>
      </trkpt>
      <trkpt lat="43.41323" lon="2.13981">
        <ele>630</ele>
        <time>2019-12-08T10:05:28Z</time>
      </trkpt>
      <trkpt lat="43.41318" lon="2.13973">
        <ele>630</ele>
        <time>2019-12-08T10:05:29Z</time>
      </trkpt>
      <trkpt lat="43.41312" lon="2.13966">
        <ele>629</ele>
        <time>2019-12-08T10:05:30Z</time>
      </trkpt>
      <trkpt lat="43.41288" lon="2.13939">
        <ele>629</ele>
        <time>2019-12-08T10:05:34Z</time>
      </trkpt>
      <trkpt lat="43.41261" lon="2.13914">
        <ele>628</ele>
        <time>2019-12-08T10:05:38Z</time>
      </trkpt>
      <trkpt lat="43.41248" lon="2.13902">
        <ele>628</ele>
        <time>2019-12-08T10:05:40Z</time>
      </trkpt>
      <trkpt lat="43.4123" lon="2.13883">
        <ele>627</ele>
        <time>2019-12-08T10:05:43Z</time>
      </trkpt>
      <trkpt lat="43.41205" lon="2.1386">
        <ele>628</ele>
        <time>2019-12-08T10:05:47Z</time>
      </trkpt>
      <trkpt lat="43.41181" lon="2.1384">
        <ele>628</ele>
        <time>2019-12-08T10:05:51Z</time>
      </trkpt>
      <trkpt lat="43.4117" lon="2.13831">
        <ele>628</ele>
        <time>2019-12-08T10:05:53Z</time>
      </trkpt>
      <trkpt lat="43.41159" lon="2.13822">
        <ele>628</ele>
        <time>2019-12-08T10:05:55Z</time>
      </trkpt>
      <trkpt lat="43.41144" lon="2.13812">
        <ele>629</ele>
        <time>2019-12-08T10:05:58Z</time>
      </trkpt>
      <trkpt lat="43.4114" lon="2.13809">
        <ele>630</ele>
        <time>2019-12-08T10:05:59Z</time>
      </trkpt>
      <trkpt lat="43.41136" lon="2.13806">
        <ele>630</ele>
        <time>2019-12-08T10:06:00Z</time>
      </trkpt>
      <trkpt lat="43.41125" lon="2.13797">
        <ele>631</ele>
        <time>2019-12-08T10:06:03Z</time>
      </trkpt>
      <trkpt lat="43.41121" lon="2.13795">
        <ele>631</ele>
        <time>2019-12-08T10:06:04Z</time>
      </trkpt>
      <trkpt lat="43.41117" lon="2.13791">
        <ele>632</ele>
        <time>2019-12-08T10:06:05Z</time>
      </trkpt>
      <trkpt lat="43.4111" lon="2.13785">
        <ele>632</ele>
        <time>2019-12-08T10:06:07Z</time>
      </trkpt>
      <trkpt lat="43.41103" lon="2.1378">
        <ele>633</ele>
        <time>2019-12-08T10:06:09Z</time>
      </trkpt>
      <trkpt lat="43.41099" lon="2.13776">
        <ele>633</ele>
        <time>2019-12-08T10:06:10Z</time>
      </trkpt>
      <trkpt lat="43.41085" lon="2.13762">
        <ele>635</ele>
        <time>2019-12-08T10:06:14Z</time>
      </trkpt>
      <trkpt lat="43.41068" lon="2.13746">
        <ele>636</ele>
        <time>2019-12-08T10:06:19Z</time>
      </trkpt>
      <trkpt lat="43.41054" lon="2.13734">
        <ele>636</ele>
        <time>2019-12-08T10:06:23Z</time>
      </trkpt>
      <trkpt lat="43.41031" lon="2.13714">
        <ele>637</ele>
        <time>2019-12-08T10:06:30Z</time>
      </trkpt>
      <trkpt lat="43.41027" lon="2.13711">
        <ele>637</ele>
        <time>2019-12-08T10:06:31Z</time>
      </trkpt>
      <trkpt lat="43.41023" lon="2.13707">
        <ele>637</ele>
        <time>2019-12-08T10:06:32Z</time>
      </trkpt>
      <trkpt lat="43.40991" lon="2.13675">
        <ele>637</ele>
        <time>2019-12-08T10:06:40Z</time>
      </trkpt>
      <trkpt lat="43.40963" lon="2.13658">
        <ele>636</ele>
        <time>2019-12-08T10:06:45Z</time>
      </trkpt>
      <trkpt lat="43.40944" lon="2.13653">
        <ele>635</ele>
        <time>2019-12-08T10:06:48Z</time>
      </trkpt>
      <trkpt lat="43.40931" lon="2.13651">
        <ele>635</ele>
        <time>2019-12-08T10:06:50Z</time>
      </trkpt>
      <trkpt lat="43.40924" lon="2.1365">
        <ele>635</ele>
        <time>2019-12-08T10:06:51Z</time>
      </trkpt>
      <trkpt lat="43.40893" lon="2.13646">
        <ele>635</ele>
        <time>2019-12-08T10:06:56Z</time>
      </trkpt>
      <trkpt lat="43.40881" lon="2.13645">
        <ele>635</ele>
        <time>2019-12-08T10:06:58Z</time>
      </trkpt>
      <trkpt lat="43.40864" lon="2.13647">
        <ele>635</ele>
        <time>2019-12-08T10:07:01Z</time>
      </trkpt>
      <trkpt lat="43.40823" lon="2.13651">
        <ele>635</ele>
        <time>2019-12-08T10:07:08Z</time>
      </trkpt>
      <trkpt lat="43.40799" lon="2.13652">
        <ele>635</ele>
        <time>2019-12-08T10:07:12Z</time>
      </trkpt>
      <trkpt lat="43.40792" lon="2.13653">
        <ele>634</ele>
        <time>2019-12-08T10:07:13Z</time>
      </trkpt>
      <trkpt lat="43.40765" lon="2.13656">
        <ele>634</ele>
        <time>2019-12-08T10:07:17Z</time>
      </trkpt>
      <trkpt lat="43.40745" lon="2.1366">
        <ele>634</ele>
        <time>2019-12-08T10:07:20Z</time>
      </trkpt>
      <trkpt lat="43.40733" lon="2.13664">
        <ele>634</ele>
        <time>2019-12-08T10:07:22Z</time>
      </trkpt>
      <trkpt lat="43.40721" lon="2.13673">
        <ele>633</ele>
        <time>2019-12-08T10:07:24Z</time>
      </trkpt>
      <trkpt lat="43.40712" lon="2.13691">
        <ele>633</ele>
        <time>2019-12-08T10:07:26Z</time>
      </trkpt>
      <trkpt lat="43.40708" lon="2.13701">
        <ele>632</ele>
        <time>2019-12-08T10:07:27Z</time>
      </trkpt>
      <trkpt lat="43.40705" lon="2.13712">
        <ele>631</ele>
        <time>2019-12-08T10:07:28Z</time>
      </trkpt>
      <trkpt lat="43.40701" lon="2.13722">
        <ele>631</ele>
        <time>2019-12-08T10:07:29Z</time>
      </trkpt>
      <trkpt lat="43.40697" lon="2.13732">
        <ele>630</ele>
        <time>2019-12-08T10:07:30Z</time>
      </trkpt>
      <trkpt lat="43.40692" lon="2.13742">
        <ele>630</ele>
        <time>2019-12-08T10:07:31Z</time>
      </trkpt>
      <trkpt lat="43.40687" lon="2.13752">
        <ele>629</ele>
        <time>2019-12-08T10:07:32Z</time>
      </trkpt>
      <trkpt lat="43.40676" lon="2.13771">
        <ele>628</ele>
        <time>2019-12-08T10:07:34Z</time>
      </trkpt>
      <trkpt lat="43.40669" lon="2.13779">
        <ele>627</ele>
        <time>2019-12-08T10:07:35Z</time>
      </trkpt>
      <trkpt lat="43.40656" lon="2.13794">
        <ele>627</ele>
        <time>2019-12-08T10:07:37Z</time>
      </trkpt>
      <trkpt lat="43.40642" lon="2.13811">
        <ele>625</ele>
        <time>2019-12-08T10:07:39Z</time>
      </trkpt>
      <trkpt lat="43.40636" lon="2.1382">
        <ele>624</ele>
        <time>2019-12-08T10:07:40Z</time>
      </trkpt>
      <trkpt lat="43.40629" lon="2.13829">
        <ele>623</ele>
        <time>2019-12-08T10:07:41Z</time>
      </trkpt>
      <trkpt lat="43.40607" lon="2.13854">
        <ele>622</ele>
        <time>2019-12-08T10:07:44Z</time>
      </trkpt>
      <trkpt lat="43.40599" lon="2.1386">
        <ele>622</ele>
        <time>2019-12-08T10:07:45Z</time>
      </trkpt>
      <trkpt lat="43.4059" lon="2.13863">
        <ele>621</ele>
        <time>2019-12-08T10:07:46Z</time>
      </trkpt>
      <trkpt lat="43.40575" lon="2.13866">
        <ele>620</ele>
        <time>2019-12-08T10:07:48Z</time>
      </trkpt>
      <trkpt lat="43.40559" lon="2.13854">
        <ele>618</ele>
        <time>2019-12-08T10:07:51Z</time>
      </trkpt>
      <trkpt lat="43.40552" lon="2.13837">
        <ele>618</ele>
        <time>2019-12-08T10:07:53Z</time>
      </trkpt>
      <trkpt lat="43.40547" lon="2.13817">
        <ele>616</ele>
        <time>2019-12-08T10:07:55Z</time>
      </trkpt>
      <trkpt lat="43.40547" lon="2.13793">
        <ele>616</ele>
        <time>2019-12-08T10:07:57Z</time>
      </trkpt>
      <trkpt lat="43.40547" lon="2.13781">
        <ele>615</ele>
        <time>2019-12-08T10:07:58Z</time>
      </trkpt>
      <trkpt lat="43.40547" lon="2.13769">
        <ele>614</ele>
        <time>2019-12-08T10:07:59Z</time>
      </trkpt>
      <trkpt lat="43.40547" lon="2.13757">
        <ele>613</ele>
        <time>2019-12-08T10:08:00Z</time>
      </trkpt>
      <trkpt lat="43.40546" lon="2.13744">
        <ele>612</ele>
        <time>2019-12-08T10:08:01Z</time>
      </trkpt>
      <trkpt lat="43.40545" lon="2.13721">
        <ele>612</ele>
        <time>2019-12-08T10:08:03Z</time>
      </trkpt>
      <trkpt lat="43.40545" lon="2.1371">
        <ele>612</ele>
        <time>2019-12-08T10:08:04Z</time>
      </trkpt>
      <trkpt lat="43.4055" lon="2.13678">
        <ele>611</ele>
        <time>2019-12-08T10:08:07Z</time>
      </trkpt>
      <trkpt lat="43.4055" lon="2.13656">
        <ele>611</ele>
        <time>2019-12-08T10:08:09Z</time>
      </trkpt>
      <trkpt lat="43.40548" lon="2.13646">
        <ele>611</ele>
        <time>2019-12-08T10:08:10Z</time>
      </trkpt>
      <trkpt lat="43.40537" lon="2.1362">
        <ele>610</ele>
        <time>2019-12-08T10:08:13Z</time>
      </trkpt>
      <trkpt lat="43.40532" lon="2.13594">
        <ele>609</ele>
        <time>2019-12-08T10:08:16Z</time>
      </trkpt>
      <trkpt lat="43.40531" lon="2.13586">
        <ele>608</ele>
        <time>2019-12-08T10:08:17Z</time>
      </trkpt>
      <trkpt lat="43.40528" lon="2.13566">
        <ele>607</ele>
        <time>2019-12-08T10:08:20Z</time>
      </trkpt>
      <trkpt lat="43.40526" lon="2.1356">
        <ele>606</ele>
        <time>2019-12-08T10:08:21Z</time>
      </trkpt>
      <trkpt lat="43.4052" lon="2.1356">
        <ele>605</ele>
        <time>2019-12-08T10:08:22Z</time>
      </trkpt>
      <trkpt lat="43.40504" lon="2.13573">
        <ele>604</ele>
        <time>2019-12-08T10:08:25Z</time>
      </trkpt>
      <trkpt lat="43.405" lon="2.13579">
        <ele>603</ele>
        <time>2019-12-08T10:08:26Z</time>
      </trkpt>
      <trkpt lat="43.4049" lon="2.1359">
        <ele>603</ele>
        <time>2019-12-08T10:08:28Z</time>
      </trkpt>
      <trkpt lat="43.40485" lon="2.13593">
        <ele>602</ele>
        <time>2019-12-08T10:08:29Z</time>
      </trkpt>
      <trkpt lat="43.40478" lon="2.13594">
        <ele>601</ele>
        <time>2019-12-08T10:08:30Z</time>
      </trkpt>
      <trkpt lat="43.40464" lon="2.13592">
        <ele>600</ele>
        <time>2019-12-08T10:08:32Z</time>
      </trkpt>
      <trkpt lat="43.40451" lon="2.13581">
        <ele>598</ele>
        <time>2019-12-08T10:08:34Z</time>
      </trkpt>
      <trkpt lat="43.40445" lon="2.13575">
        <ele>597</ele>
        <time>2019-12-08T10:08:35Z</time>
      </trkpt>
      <trkpt lat="43.40439" lon="2.13549">
        <ele>596</ele>
        <time>2019-12-08T10:08:38Z</time>
      </trkpt>
      <trkpt lat="43.4045" lon="2.13527">
        <ele>595</ele>
        <time>2019-12-08T10:08:41Z</time>
      </trkpt>
      <trkpt lat="43.40458" lon="2.1351">
        <ele>595</ele>
        <time>2019-12-08T10:08:43Z</time>
      </trkpt>
      <trkpt lat="43.40463" lon="2.13501">
        <ele>595</ele>
        <time>2019-12-08T10:08:44Z</time>
      </trkpt>
      <trkpt lat="43.40468" lon="2.13492">
        <ele>594</ele>
        <time>2019-12-08T10:08:45Z</time>
      </trkpt>
      <trkpt lat="43.40472" lon="2.13483">
        <ele>594</ele>
        <time>2019-12-08T10:08:46Z</time>
      </trkpt>
      <trkpt lat="43.40475" lon="2.13474">
        <ele>592</ele>
        <time>2019-12-08T10:08:47Z</time>
      </trkpt>
      <trkpt lat="43.40476" lon="2.13464">
        <ele>591</ele>
        <time>2019-12-08T10:08:48Z</time>
      </trkpt>
      <trkpt lat="43.40474" lon="2.13454">
        <ele>590</ele>
        <time>2019-12-08T10:08:49Z</time>
      </trkpt>
      <trkpt lat="43.40468" lon="2.13435">
        <ele>588</ele>
        <time>2019-12-08T10:08:51Z</time>
      </trkpt>
      <trkpt lat="43.40464" lon="2.13426">
        <ele>588</ele>
        <time>2019-12-08T10:08:52Z</time>
      </trkpt>
      <trkpt lat="43.4046" lon="2.13416">
        <ele>587</ele>
        <time>2019-12-08T10:08:53Z</time>
      </trkpt>
      <trkpt lat="43.40453" lon="2.13398">
        <ele>586</ele>
        <time>2019-12-08T10:08:55Z</time>
      </trkpt>
      <trkpt lat="43.40448" lon="2.13379">
        <ele>584</ele>
        <time>2019-12-08T10:08:57Z</time>
      </trkpt>
      <trkpt lat="43.40446" lon="2.13364">
        <ele>582</ele>
        <time>2019-12-08T10:08:59Z</time>
      </trkpt>
      <trkpt lat="43.40447" lon="2.13356">
        <ele>581</ele>
        <time>2019-12-08T10:09:00Z</time>
      </trkpt>
      <trkpt lat="43.40448" lon="2.13348">
        <ele>580</ele>
        <time>2019-12-08T10:09:01Z</time>
      </trkpt>
      <trkpt lat="43.4045" lon="2.1333">
        <ele>579</ele>
        <time>2019-12-08T10:09:03Z</time>
      </trkpt>
      <trkpt lat="43.40451" lon="2.13323">
        <ele>579</ele>
        <time>2019-12-08T10:09:04Z</time>
      </trkpt>
      <trkpt lat="43.40453" lon="2.13317">
        <ele>578</ele>
        <time>2019-12-08T10:09:05Z</time>
      </trkpt>
      <trkpt lat="43.40457" lon="2.13308">
        <ele>576</ele>
        <time>2019-12-08T10:09:07Z</time>
      </trkpt>
      <trkpt lat="43.40455" lon="2.13306">
        <ele>576</ele>
        <time>2019-12-08T10:09:08Z</time>
      </trkpt>
      <trkpt lat="43.40452" lon="2.13307">
        <ele>575</ele>
        <time>2019-12-08T10:09:09Z</time>
      </trkpt>
      <trkpt lat="43.40448" lon="2.13311">
        <ele>574</ele>
        <time>2019-12-08T10:09:10Z</time>
      </trkpt>
      <trkpt lat="43.40445" lon="2.13317">
        <ele>574</ele>
        <time>2019-12-08T10:09:11Z</time>
      </trkpt>
      <trkpt lat="43.40439" lon="2.1333">
        <ele>573</ele>
        <time>2019-12-08T10:09:13Z</time>
      </trkpt>
      <trkpt lat="43.40435" lon="2.13344">
        <ele>571</ele>
        <time>2019-12-08T10:09:15Z</time>
      </trkpt>
      <trkpt lat="43.40431" lon="2.13356">
        <ele>571</ele>
        <time>2019-12-08T10:09:17Z</time>
      </trkpt>
      <trkpt lat="43.40424" lon="2.13379">
        <ele>571</ele>
        <time>2019-12-08T10:09:21Z</time>
      </trkpt>
      <trkpt lat="43.40421" lon="2.13384">
        <ele>572</ele>
        <time>2019-12-08T10:09:22Z</time>
      </trkpt>
      <trkpt lat="43.40411" lon="2.13398">
        <ele>571</ele>
        <time>2019-12-08T10:09:25Z</time>
      </trkpt>
      <trkpt lat="43.40402" lon="2.13405">
        <ele>571</ele>
        <time>2019-12-08T10:09:28Z</time>
      </trkpt>
      <trkpt lat="43.40399" lon="2.13407">
        <ele>571</ele>
        <time>2019-12-08T10:09:29Z</time>
      </trkpt>
      <trkpt lat="43.40383" lon="2.13411">
        <ele>571</ele>
        <time>2019-12-08T10:09:33Z</time>
      </trkpt>
      <trkpt lat="43.40379" lon="2.13411">
        <ele>571</ele>
        <time>2019-12-08T10:09:34Z</time>
      </trkpt>
      <trkpt lat="43.40374" lon="2.13411">
        <ele>571</ele>
        <time>2019-12-08T10:09:35Z</time>
      </trkpt>
      <trkpt lat="43.40362" lon="2.13408">
        <ele>571</ele>
        <time>2019-12-08T10:09:37Z</time>
      </trkpt>
      <trkpt lat="43.40357" lon="2.13405">
        <ele>570</ele>
        <time>2019-12-08T10:09:38Z</time>
      </trkpt>
      <trkpt lat="43.40347" lon="2.1339">
        <ele>569</ele>
        <time>2019-12-08T10:09:41Z</time>
      </trkpt>
      <trkpt lat="43.40345" lon="2.13385">
        <ele>569</ele>
        <time>2019-12-08T10:09:42Z</time>
      </trkpt>
      <trkpt lat="43.40342" lon="2.1338">
        <ele>569</ele>
        <time>2019-12-08T10:09:43Z</time>
      </trkpt>
      <trkpt lat="43.40336" lon="2.13366">
        <ele>569</ele>
        <time>2019-12-08T10:09:46Z</time>
      </trkpt>
      <trkpt lat="43.40326" lon="2.13354">
        <ele>569</ele>
        <time>2019-12-08T10:09:50Z</time>
      </trkpt>
      <trkpt lat="43.40321" lon="2.1335">
        <ele>569</ele>
        <time>2019-12-08T10:09:53Z</time>
      </trkpt>
      <trkpt lat="43.40319" lon="2.13347">
        <ele>569</ele>
        <time>2019-12-08T10:10:55Z</time>
      </trkpt>
      <trkpt lat="43.40318" lon="2.13346">
        <ele>569</ele>
        <time>2019-12-08T10:10:56Z</time>
      </trkpt>
      <trkpt lat="43.4031" lon="2.13338">
        <ele>570</ele>
        <time>2019-12-08T10:11:00Z</time>
      </trkpt>
      <trkpt lat="43.40301" lon="2.13322">
        <ele>570</ele>
        <time>2019-12-08T10:11:05Z</time>
      </trkpt>
      <trkpt lat="43.40295" lon="2.13311">
        <ele>570</ele>
        <time>2019-12-08T10:11:08Z</time>
      </trkpt>
      <trkpt lat="43.40291" lon="2.13303">
        <ele>571</ele>
        <time>2019-12-08T10:11:10Z</time>
      </trkpt>
      <trkpt lat="43.40284" lon="2.13283">
        <ele>571</ele>
        <time>2019-12-08T10:11:14Z</time>
      </trkpt>
      <trkpt lat="43.40282" lon="2.13279">
        <ele>571</ele>
        <time>2019-12-08T10:11:15Z</time>
      </trkpt>
      <trkpt lat="43.40272" lon="2.13264">
        <ele>571</ele>
        <time>2019-12-08T10:11:19Z</time>
      </trkpt>
      <trkpt lat="43.40269" lon="2.13261">
        <ele>572</ele>
        <time>2019-12-08T10:11:20Z</time>
      </trkpt>
      <trkpt lat="43.40267" lon="2.13259">
        <ele>572</ele>
        <time>2019-12-08T10:11:21Z</time>
      </trkpt>
      <trkpt lat="43.40258" lon="2.13251">
        <ele>573</ele>
        <time>2019-12-08T10:11:24Z</time>
      </trkpt>
      <trkpt lat="43.40247" lon="2.13243">
        <ele>574</ele>
        <time>2019-12-08T10:11:28Z</time>
      </trkpt>
      <trkpt lat="43.40244" lon="2.13241">
        <ele>574</ele>
        <time>2019-12-08T10:11:29Z</time>
      </trkpt>
      <trkpt lat="43.40232" lon="2.13234">
        <ele>575</ele>
        <time>2019-12-08T10:11:33Z</time>
      </trkpt>
      <trkpt lat="43.40228" lon="2.13233">
        <ele>575</ele>
        <time>2019-12-08T10:11:34Z</time>
      </trkpt>
      <trkpt lat="43.40207" lon="2.13221">
        <ele>576</ele>
        <time>2019-12-08T10:11:40Z</time>
      </trkpt>
      <trkpt lat="43.4019" lon="2.13206">
        <ele>576</ele>
        <time>2019-12-08T10:11:45Z</time>
      </trkpt>
      <trkpt lat="43.40182" lon="2.132">
        <ele>576</ele>
        <time>2019-12-08T10:11:47Z</time>
      </trkpt>
      <trkpt lat="43.40164" lon="2.13185">
        <ele>576</ele>
        <time>2019-12-08T10:11:52Z</time>
      </trkpt>
      <trkpt lat="43.4016" lon="2.13183">
        <ele>576</ele>
        <time>2019-12-08T10:11:53Z</time>
      </trkpt>
      <trkpt lat="43.40156" lon="2.1318">
        <ele>576</ele>
        <time>2019-12-08T10:11:54Z</time>
      </trkpt>
      <trkpt lat="43.4015" lon="2.13175">
        <ele>577</ele>
        <time>2019-12-08T10:11:56Z</time>
      </trkpt>
      <trkpt lat="43.40144" lon="2.13171">
        <ele>578</ele>
        <time>2019-12-08T10:11:58Z</time>
      </trkpt>
      <trkpt lat="43.40127" lon="2.1316">
        <ele>579</ele>
        <time>2019-12-08T10:12:03Z</time>
      </trkpt>
      <trkpt lat="43.40124" lon="2.13157">
        <ele>579</ele>
        <time>2019-12-08T10:12:04Z</time>
      </trkpt>
      <trkpt lat="43.40112" lon="2.13149">
        <ele>580</ele>
        <time>2019-12-08T10:12:08Z</time>
      </trkpt>
      <trkpt lat="43.40097" lon="2.13139">
        <ele>581</ele>
        <time>2019-12-08T10:12:13Z</time>
      </trkpt>
      <trkpt lat="43.40074" lon="2.1313">
        <ele>582</ele>
        <time>2019-12-08T10:12:20Z</time>
      </trkpt>
      <trkpt lat="43.40068" lon="2.13128">
        <ele>582</ele>
        <time>2019-12-08T10:12:22Z</time>
      </trkpt>
      <trkpt lat="43.40056" lon="2.13125">
        <ele>583</ele>
        <time>2019-12-08T10:12:26Z</time>
      </trkpt>
      <trkpt lat="43.40053" lon="2.13124">
        <ele>584</ele>
        <time>2019-12-08T10:12:27Z</time>
      </trkpt>
      <trkpt lat="43.4004" lon="2.13123">
        <ele>584</ele>
        <time>2019-12-08T10:12:31Z</time>
      </trkpt>
      <trkpt lat="43.40037" lon="2.13122">
        <ele>584</ele>
        <time>2019-12-08T10:12:32Z</time>
      </trkpt>
      <trkpt lat="43.40017" lon="2.1311">
        <ele>585</ele>
        <time>2019-12-08T10:12:38Z</time>
      </trkpt>
      <trkpt lat="43.40015" lon="2.13108">
        <ele>585</ele>
        <time>2019-12-08T10:12:39Z</time>
      </trkpt>
      <trkpt lat="43.40009" lon="2.13105">
        <ele>586</ele>
        <time>2019-12-08T10:12:41Z</time>
      </trkpt>
      <trkpt lat="43.40004" lon="2.13105">
        <ele>586</ele>
        <time>2019-12-08T10:12:43Z</time>
      </trkpt>
      <trkpt lat="43.40001" lon="2.13104">
        <ele>587</ele>
        <time>2019-12-08T10:12:44Z</time>
      </trkpt>
      <trkpt lat="43.39992" lon="2.13101">
        <ele>587</ele>
        <time>2019-12-08T10:12:47Z</time>
      </trkpt>
      <trkpt lat="43.39982" lon="2.13101">
        <ele>588</ele>
        <time>2019-12-08T10:12:51Z</time>
      </trkpt>
      <trkpt lat="43.39979" lon="2.131">
        <ele>588</ele>
        <time>2019-12-08T10:12:52Z</time>
      </trkpt>
      <trkpt lat="43.39971" lon="2.13096">
        <ele>589</ele>
        <time>2019-12-08T10:12:55Z</time>
      </trkpt>
      <trkpt lat="43.39968" lon="2.13096">
        <ele>589</ele>
        <time>2019-12-08T10:12:56Z</time>
      </trkpt>
      <trkpt lat="43.39961" lon="2.13092">
        <ele>590</ele>
        <time>2019-12-08T10:12:59Z</time>
      </trkpt>
      <trkpt lat="43.39955" lon="2.1309">
        <ele>590</ele>
        <time>2019-12-08T10:13:01Z</time>
      </trkpt>
      <trkpt lat="43.3995" lon="2.13091">
        <ele>591</ele>
        <time>2019-12-08T10:13:03Z</time>
      </trkpt>
      <trkpt lat="43.39946" lon="2.13092">
        <ele>591</ele>
        <time>2019-12-08T10:13:05Z</time>
      </trkpt>
      <trkpt lat="43.39944" lon="2.13094">
        <ele>592</ele>
        <time>2019-12-08T10:13:06Z</time>
      </trkpt>
      <trkpt lat="43.39942" lon="2.13094">
        <ele>592</ele>
        <time>2019-12-08T10:13:07Z</time>
      </trkpt>
      <trkpt lat="43.39939" lon="2.13095">
        <ele>593</ele>
        <time>2019-12-08T10:13:09Z</time>
      </trkpt>
      <trkpt lat="43.39935" lon="2.13097">
        <ele>593</ele>
        <time>2019-12-08T10:13:11Z</time>
      </trkpt>
      <trkpt lat="43.39931" lon="2.131">
        <ele>594</ele>
        <time>2019-12-08T10:13:13Z</time>
      </trkpt>
      <trkpt lat="43.39925" lon="2.13105">
        <ele>594</ele>
        <time>2019-12-08T10:13:16Z</time>
      </trkpt>
      <trkpt lat="43.39917" lon="2.1311">
        <ele>595</ele>
        <time>2019-12-08T10:13:20Z</time>
      </trkpt>
      <trkpt lat="43.39916" lon="2.13112">
        <ele>595</ele>
        <time>2019-12-08T10:13:21Z</time>
      </trkpt>
      <trkpt lat="43.39911" lon="2.13116">
        <ele>596</ele>
        <time>2019-12-08T10:13:24Z</time>
      </trkpt>
      <trkpt lat="43.3991" lon="2.13117">
        <ele>596</ele>
        <time>2019-12-08T10:13:25Z</time>
      </trkpt>
      <trkpt lat="43.39905" lon="2.13121">
        <ele>597</ele>
        <time>2019-12-08T10:13:28Z</time>
      </trkpt>
      <trkpt lat="43.399" lon="2.13126">
        <ele>598</ele>
        <time>2019-12-08T10:13:31Z</time>
      </trkpt>
      <trkpt lat="43.39893" lon="2.13131">
        <ele>599</ele>
        <time>2019-12-08T10:13:35Z</time>
      </trkpt>
      <trkpt lat="43.39881" lon="2.13136">
        <ele>600</ele>
        <time>2019-12-08T10:13:40Z</time>
      </trkpt>
      <trkpt lat="43.39872" lon="2.13139">
        <ele>601</ele>
        <time>2019-12-08T10:13:45Z</time>
      </trkpt>
      <trkpt lat="43.39868" lon="2.1314">
        <ele>602</ele>
        <time>2019-12-08T10:13:47Z</time>
      </trkpt>
      <trkpt lat="43.39862" lon="2.13142">
        <ele>603</ele>
        <time>2019-12-08T10:13:50Z</time>
      </trkpt>
      <trkpt lat="43.39858" lon="2.13142">
        <ele>603</ele>
        <time>2019-12-08T10:13:52Z</time>
      </trkpt>
      <trkpt lat="43.39852" lon="2.13142">
        <ele>603</ele>
        <time>2019-12-08T10:13:55Z</time>
      </trkpt>
      <trkpt lat="43.39841" lon="2.13143">
        <ele>604</ele>
        <time>2019-12-08T10:14:01Z</time>
      </trkpt>
      <trkpt lat="43.39827" lon="2.13144">
        <ele>605</ele>
        <time>2019-12-08T10:14:07Z</time>
      </trkpt>
      <trkpt lat="43.39826" lon="2.13145">
        <ele>605</ele>
        <time>2019-12-08T10:14:08Z</time>
      </trkpt>
      <trkpt lat="43.39818" lon="2.13146">
        <ele>606</ele>
        <time>2019-12-08T10:14:12Z</time>
      </trkpt>
      <trkpt lat="43.39814" lon="2.13148">
        <ele>606</ele>
        <time>2019-12-08T10:14:14Z</time>
      </trkpt>
      <trkpt lat="43.39804" lon="2.13151">
        <ele>607</ele>
        <time>2019-12-08T10:14:18Z</time>
      </trkpt>
      <trkpt lat="43.39788" lon="2.13157">
        <ele>608</ele>
        <time>2019-12-08T10:14:24Z</time>
      </trkpt>
      <trkpt lat="43.3978" lon="2.13162">
        <ele>609</ele>
        <time>2019-12-08T10:14:28Z</time>
      </trkpt>
      <trkpt lat="43.3977" lon="2.13169">
        <ele>609</ele>
        <time>2019-12-08T10:14:32Z</time>
      </trkpt>
      <trkpt lat="43.39768" lon="2.1317">
        <ele>609</ele>
        <time>2019-12-08T10:14:33Z</time>
      </trkpt>
      <trkpt lat="43.39765" lon="2.13171">
        <ele>610</ele>
        <time>2019-12-08T10:14:34Z</time>
      </trkpt>
      <trkpt lat="43.39753" lon="2.13178">
        <ele>611</ele>
        <time>2019-12-08T10:14:38Z</time>
      </trkpt>
      <trkpt lat="43.39751" lon="2.13179">
        <ele>611</ele>
        <time>2019-12-08T10:14:39Z</time>
      </trkpt>
      <trkpt lat="43.39742" lon="2.13185">
        <ele>612</ele>
        <time>2019-12-08T10:14:43Z</time>
      </trkpt>
      <trkpt lat="43.39737" lon="2.13189">
        <ele>612</ele>
        <time>2019-12-08T10:14:45Z</time>
      </trkpt>
      <trkpt lat="43.39731" lon="2.13193">
        <ele>613</ele>
        <time>2019-12-08T10:14:47Z</time>
      </trkpt>
      <trkpt lat="43.39728" lon="2.13196">
        <ele>613</ele>
        <time>2019-12-08T10:14:49Z</time>
      </trkpt>
      <trkpt lat="43.39722" lon="2.13201">
        <ele>614</ele>
        <time>2019-12-08T10:14:52Z</time>
      </trkpt>
      <trkpt lat="43.39718" lon="2.13205">
        <ele>614</ele>
        <time>2019-12-08T10:14:54Z</time>
      </trkpt>
      <trkpt lat="43.39711" lon="2.13212">
        <ele>615</ele>
        <time>2019-12-08T10:14:58Z</time>
      </trkpt>
      <trkpt lat="43.39707" lon="2.13215">
        <ele>616</ele>
        <time>2019-12-08T10:15:00Z</time>
      </trkpt>
      <trkpt lat="43.39705" lon="2.13217">
        <ele>617</ele>
        <time>2019-12-08T10:15:02Z</time>
      </trkpt>
      <trkpt lat="43.39702" lon="2.1322">
        <ele>617</ele>
        <time>2019-12-08T10:15:04Z</time>
      </trkpt>
      <trkpt lat="43.39701" lon="2.13221">
        <ele>617</ele>
        <time>2019-12-08T10:15:05Z</time>
      </trkpt>
      <trkpt lat="43.397" lon="2.13222">
        <ele>618</ele>
        <time>2019-12-08T10:15:06Z</time>
      </trkpt>
      <trkpt lat="43.39697" lon="2.13225">
        <ele>618</ele>
        <time>2019-12-08T10:15:08Z</time>
      </trkpt>
      <trkpt lat="43.39695" lon="2.13228">
        <ele>619</ele>
        <time>2019-12-08T10:15:10Z</time>
      </trkpt>
      <trkpt lat="43.39693" lon="2.13229">
        <ele>619</ele>
        <time>2019-12-08T10:15:11Z</time>
      </trkpt>
      <trkpt lat="43.3969" lon="2.13229">
        <ele>620</ele>
        <time>2019-12-08T10:15:14Z</time>
      </trkpt>
      <trkpt lat="43.39689" lon="2.1323">
        <ele>620</ele>
        <time>2019-12-08T10:15:15Z</time>
      </trkpt>
      <trkpt lat="43.39685" lon="2.1323">
        <ele>621</ele>
        <time>2019-12-08T10:15:20Z</time>
      </trkpt>
      <trkpt lat="43.39684" lon="2.1323">
        <ele>621</ele>
        <time>2019-12-08T10:15:21Z</time>
      </trkpt>
      <trkpt lat="43.39676" lon="2.1323">
        <ele>622</ele>
        <time>2019-12-08T10:15:27Z</time>
      </trkpt>
      <trkpt lat="43.39675" lon="2.1323">
        <ele>622</ele>
        <time>2019-12-08T10:15:28Z</time>
      </trkpt>
      <trkpt lat="43.39675" lon="2.13233">
        <ele>621</ele>
        <time>2019-12-08T10:23:31Z</time>
      </trkpt>
      <trkpt lat="43.39676" lon="2.13232">
        <ele>621</ele>
        <time>2019-12-08T10:23:32Z</time>
      </trkpt>
      <trkpt lat="43.39675" lon="2.13229">
        <ele>621</ele>
        <time>2019-12-08T10:23:33Z</time>
      </trkpt>
      <trkpt lat="43.39675" lon="2.13225">
        <ele>621</ele>
        <time>2019-12-08T10:23:35Z</time>
      </trkpt>
      <trkpt lat="43.39671" lon="2.13225">
        <ele>621</ele>
        <time>2019-12-08T10:23:38Z</time>
      </trkpt>
      <trkpt lat="43.39671" lon="2.13233">
        <ele>620</ele>
        <time>2019-12-08T10:23:41Z</time>
      </trkpt>
      <trkpt lat="43.39671" lon="2.13235">
        <ele>621</ele>
        <time>2019-12-08T10:23:42Z</time>
      </trkpt>
      <trkpt lat="43.39669" lon="2.13239">
        <ele>621</ele>
        <time>2019-12-08T10:23:44Z</time>
      </trkpt>
      <trkpt lat="43.39666" lon="2.1324">
        <ele>621</ele>
        <time>2019-12-08T10:23:46Z</time>
      </trkpt>
      <trkpt lat="43.39658" lon="2.13243">
        <ele>621</ele>
        <time>2019-12-08T10:23:51Z</time>
      </trkpt>
      <trkpt lat="43.39656" lon="2.13244">
        <ele>621</ele>
        <time>2019-12-08T10:23:52Z</time>
      </trkpt>
      <trkpt lat="43.39651" lon="2.13253">
        <ele>622</ele>
        <time>2019-12-08T10:23:56Z</time>
      </trkpt>
      <trkpt lat="43.39648" lon="2.13266">
        <ele>621</ele>
        <time>2019-12-08T10:24:00Z</time>
      </trkpt>
      <trkpt lat="43.39648" lon="2.1328">
        <ele>622</ele>
        <time>2019-12-08T10:24:04Z</time>
      </trkpt>
      <trkpt lat="43.39647" lon="2.1329">
        <ele>622</ele>
        <time>2019-12-08T10:24:07Z</time>
      </trkpt>
      <trkpt lat="43.39645" lon="2.13299">
        <ele>623</ele>
        <time>2019-12-08T10:24:10Z</time>
      </trkpt>
      <trkpt lat="43.39644" lon="2.13307">
        <ele>623</ele>
        <time>2019-12-08T10:24:13Z</time>
      </trkpt>
      <trkpt lat="43.39642" lon="2.13318">
        <ele>623</ele>
        <time>2019-12-08T10:24:16Z</time>
      </trkpt>
      <trkpt lat="43.39643" lon="2.13323">
        <ele>624</ele>
        <time>2019-12-08T10:24:18Z</time>
      </trkpt>
      <trkpt lat="43.39642" lon="2.1333">
        <ele>624</ele>
        <time>2019-12-08T10:24:20Z</time>
      </trkpt>
      <trkpt lat="43.39641" lon="2.13342">
        <ele>625</ele>
        <time>2019-12-08T10:24:23Z</time>
      </trkpt>
      <trkpt lat="43.39634" lon="2.13358">
        <ele>625</ele>
        <time>2019-12-08T10:24:27Z</time>
      </trkpt>
      <trkpt lat="43.39631" lon="2.13362">
        <ele>625</ele>
        <time>2019-12-08T10:24:28Z</time>
      </trkpt>
      <trkpt lat="43.39619" lon="2.13378">
        <ele>624</ele>
        <time>2019-12-08T10:24:32Z</time>
      </trkpt>
      <trkpt lat="43.39616" lon="2.13382">
        <ele>624</ele>
        <time>2019-12-08T10:24:33Z</time>
      </trkpt>
      <trkpt lat="43.39608" lon="2.13396">
        <ele>624</ele>
        <time>2019-12-08T10:24:36Z</time>
      </trkpt>
      <trkpt lat="43.39606" lon="2.13402">
        <ele>625</ele>
        <time>2019-12-08T10:24:37Z</time>
      </trkpt>
      <trkpt lat="43.39604" lon="2.13408">
        <ele>625</ele>
        <time>2019-12-08T10:24:38Z</time>
      </trkpt>
      <trkpt lat="43.39601" lon="2.1342">
        <ele>625</ele>
        <time>2019-12-08T10:24:40Z</time>
      </trkpt>
      <trkpt lat="43.39599" lon="2.13439">
        <ele>625</ele>
        <time>2019-12-08T10:24:43Z</time>
      </trkpt>
      <trkpt lat="43.39597" lon="2.13458">
        <ele>625</ele>
        <time>2019-12-08T10:24:46Z</time>
      </trkpt>
      <trkpt lat="43.39597" lon="2.13473">
        <ele>624</ele>
        <time>2019-12-08T10:24:48Z</time>
      </trkpt>
      <trkpt lat="43.39596" lon="2.13483">
        <ele>624</ele>
        <time>2019-12-08T10:24:49Z</time>
      </trkpt>
      <trkpt lat="43.39596" lon="2.13492">
        <ele>623</ele>
        <time>2019-12-08T10:24:50Z</time>
      </trkpt>
      <trkpt lat="43.39595" lon="2.1351">
        <ele>623</ele>
        <time>2019-12-08T10:24:52Z</time>
      </trkpt>
      <trkpt lat="43.39595" lon="2.13518">
        <ele>623</ele>
        <time>2019-12-08T10:24:53Z</time>
      </trkpt>
      <trkpt lat="43.39599" lon="2.13534">
        <ele>623</ele>
        <time>2019-12-08T10:24:55Z</time>
      </trkpt>
      <trkpt lat="43.39606" lon="2.13544">
        <ele>623</ele>
        <time>2019-12-08T10:24:57Z</time>
      </trkpt>
      <trkpt lat="43.3961" lon="2.13549">
        <ele>622</ele>
        <time>2019-12-08T10:24:58Z</time>
      </trkpt>
      <trkpt lat="43.39625" lon="2.13563">
        <ele>622</ele>
        <time>2019-12-08T10:25:01Z</time>
      </trkpt>
      <trkpt lat="43.39634" lon="2.13569">
        <ele>622</ele>
        <time>2019-12-08T10:25:03Z</time>
      </trkpt>
      <trkpt lat="43.39643" lon="2.13574">
        <ele>622</ele>
        <time>2019-12-08T10:25:05Z</time>
      </trkpt>
      <trkpt lat="43.39651" lon="2.13589">
        <ele>622</ele>
        <time>2019-12-08T10:25:08Z</time>
      </trkpt>
      <trkpt lat="43.39649" lon="2.13604">
        <ele>622</ele>
        <time>2019-12-08T10:25:10Z</time>
      </trkpt>
      <trkpt lat="43.39648" lon="2.13611">
        <ele>622</ele>
        <time>2019-12-08T10:25:11Z</time>
      </trkpt>
      <trkpt lat="43.39649" lon="2.13632">
        <ele>622</ele>
        <time>2019-12-08T10:25:14Z</time>
      </trkpt>
      <trkpt lat="43.39651" lon="2.13638">
        <ele>622</ele>
        <time>2019-12-08T10:25:15Z</time>
      </trkpt>
      <trkpt lat="43.39658" lon="2.13648">
        <ele>622</ele>
        <time>2019-12-08T10:25:17Z</time>
      </trkpt>
      <trkpt lat="43.39667" lon="2.13656">
        <ele>623</ele>
        <time>2019-12-08T10:25:19Z</time>
      </trkpt>
      <trkpt lat="43.39676" lon="2.13663">
        <ele>623</ele>
        <time>2019-12-08T10:25:21Z</time>
      </trkpt>
      <trkpt lat="43.39679" lon="2.13666">
        <ele>623</ele>
        <time>2019-12-08T10:25:22Z</time>
      </trkpt>
      <trkpt lat="43.39686" lon="2.13673">
        <ele>623</ele>
        <time>2019-12-08T10:25:24Z</time>
      </trkpt>
      <trkpt lat="43.39687" lon="2.13676">
        <ele>623</ele>
        <time>2019-12-08T10:25:25Z</time>
      </trkpt>
      <trkpt lat="43.3969" lon="2.13695">
        <ele>623</ele>
        <time>2019-12-08T10:25:28Z</time>
      </trkpt>
      <trkpt lat="43.39683" lon="2.13711">
        <ele>623</ele>
        <time>2019-12-08T10:25:31Z</time>
      </trkpt>
      <trkpt lat="43.39673" lon="2.13719">
        <ele>623</ele>
        <time>2019-12-08T10:25:34Z</time>
      </trkpt>
      <trkpt lat="43.3967" lon="2.13721">
        <ele>623</ele>
        <time>2019-12-08T10:25:35Z</time>
      </trkpt>
      <trkpt lat="43.39657" lon="2.13731">
        <ele>623</ele>
        <time>2019-12-08T10:25:38Z</time>
      </trkpt>
      <trkpt lat="43.39641" lon="2.13742">
        <ele>624</ele>
        <time>2019-12-08T10:25:42Z</time>
      </trkpt>
      <trkpt lat="43.39636" lon="2.13744">
        <ele>624</ele>
        <time>2019-12-08T10:25:43Z</time>
      </trkpt>
      <trkpt lat="43.39622" lon="2.13745">
        <ele>624</ele>
        <time>2019-12-08T10:25:46Z</time>
      </trkpt>
      <trkpt lat="43.39617" lon="2.13746">
        <ele>624</ele>
        <time>2019-12-08T10:25:47Z</time>
      </trkpt>
      <trkpt lat="43.39612" lon="2.13747">
        <ele>624</ele>
        <time>2019-12-08T10:25:48Z</time>
      </trkpt>
      <trkpt lat="43.39607" lon="2.13749">
        <ele>624</ele>
        <time>2019-12-08T10:25:49Z</time>
      </trkpt>
      <trkpt lat="43.39595" lon="2.13762">
        <ele>624</ele>
        <time>2019-12-08T10:25:52Z</time>
      </trkpt>
      <trkpt lat="43.39592" lon="2.13767">
        <ele>624</ele>
        <time>2019-12-08T10:25:53Z</time>
      </trkpt>
      <trkpt lat="43.39574" lon="2.13797">
        <ele>624</ele>
        <time>2019-12-08T10:25:58Z</time>
      </trkpt>
      <trkpt lat="43.39559" lon="2.1382">
        <ele>624</ele>
        <time>2019-12-08T10:26:02Z</time>
      </trkpt>
      <trkpt lat="43.39551" lon="2.1383">
        <ele>624</ele>
        <time>2019-12-08T10:26:04Z</time>
      </trkpt>
      <trkpt lat="43.39527" lon="2.13858">
        <ele>623</ele>
        <time>2019-12-08T10:26:09Z</time>
      </trkpt>
      <trkpt lat="43.39518" lon="2.13869">
        <ele>623</ele>
        <time>2019-12-08T10:26:11Z</time>
      </trkpt>
      <trkpt lat="43.39507" lon="2.13883">
        <ele>623</ele>
        <time>2019-12-08T10:26:14Z</time>
      </trkpt>
      <trkpt lat="43.39493" lon="2.13897">
        <ele>623</ele>
        <time>2019-12-08T10:26:18Z</time>
      </trkpt>
      <trkpt lat="43.3949" lon="2.139">
        <ele>623</ele>
        <time>2019-12-08T10:26:19Z</time>
      </trkpt>
      <trkpt lat="43.39477" lon="2.13914">
        <ele>624</ele>
        <time>2019-12-08T10:26:23Z</time>
      </trkpt>
      <trkpt lat="43.39471" lon="2.13922">
        <ele>624</ele>
        <time>2019-12-08T10:26:25Z</time>
      </trkpt>
      <trkpt lat="43.39459" lon="2.13946">
        <ele>624</ele>
        <time>2019-12-08T10:26:30Z</time>
      </trkpt>
      <trkpt lat="43.39457" lon="2.13951">
        <ele>624</ele>
        <time>2019-12-08T10:26:31Z</time>
      </trkpt>
      <trkpt lat="43.39447" lon="2.13988">
        <ele>623</ele>
        <time>2019-12-08T10:26:37Z</time>
      </trkpt>
      <trkpt lat="43.39446" lon="2.13993">
        <ele>624</ele>
        <time>2019-12-08T10:26:38Z</time>
      </trkpt>
      <trkpt lat="43.39444" lon="2.14012">
        <ele>624</ele>
        <time>2019-12-08T10:26:42Z</time>
      </trkpt>
      <trkpt lat="43.39442" lon="2.14035">
        <ele>624</ele>
        <time>2019-12-08T10:26:46Z</time>
      </trkpt>
      <trkpt lat="43.39442" lon="2.14047">
        <ele>624</ele>
        <time>2019-12-08T10:26:48Z</time>
      </trkpt>
      <trkpt lat="43.39441" lon="2.14064">
        <ele>624</ele>
        <time>2019-12-08T10:26:51Z</time>
      </trkpt>
      <trkpt lat="43.39441" lon="2.14075">
        <ele>624</ele>
        <time>2019-12-08T10:26:53Z</time>
      </trkpt>
      <trkpt lat="43.39441" lon="2.1409">
        <ele>624</ele>
        <time>2019-12-08T10:26:56Z</time>
      </trkpt>
      <trkpt lat="43.3944" lon="2.141">
        <ele>624</ele>
        <time>2019-12-08T10:26:58Z</time>
      </trkpt>
      <trkpt lat="43.39438" lon="2.14123">
        <ele>623</ele>
        <time>2019-12-08T10:27:02Z</time>
      </trkpt>
      <trkpt lat="43.39438" lon="2.14129">
        <ele>623</ele>
        <time>2019-12-08T10:27:03Z</time>
      </trkpt>
      <trkpt lat="43.39437" lon="2.14162">
        <ele>624</ele>
        <time>2019-12-08T10:27:09Z</time>
      </trkpt>
      <trkpt lat="43.39437" lon="2.14168">
        <ele>624</ele>
        <time>2019-12-08T10:27:10Z</time>
      </trkpt>
      <trkpt lat="43.39437" lon="2.14175">
        <ele>624</ele>
        <time>2019-12-08T10:27:11Z</time>
      </trkpt>
      <trkpt lat="43.39434" lon="2.14199">
        <ele>624</ele>
        <time>2019-12-08T10:27:15Z</time>
      </trkpt>
      <trkpt lat="43.39434" lon="2.14224">
        <ele>624</ele>
        <time>2019-12-08T10:27:20Z</time>
      </trkpt>
      <trkpt lat="43.39434" lon="2.14229">
        <ele>624</ele>
        <time>2019-12-08T10:27:21Z</time>
      </trkpt>
      <trkpt lat="43.39434" lon="2.14244">
        <ele>624</ele>
        <time>2019-12-08T10:27:24Z</time>
      </trkpt>
      <trkpt lat="43.39433" lon="2.14249">
        <ele>624</ele>
        <time>2019-12-08T10:27:25Z</time>
      </trkpt>
      <trkpt lat="43.39433" lon="2.14268">
        <ele>624</ele>
        <time>2019-12-08T10:27:29Z</time>
      </trkpt>
      <trkpt lat="43.39435" lon="2.14285">
        <ele>625</ele>
        <time>2019-12-08T10:27:33Z</time>
      </trkpt>
      <trkpt lat="43.39435" lon="2.14289">
        <ele>626</ele>
        <time>2019-12-08T10:27:34Z</time>
      </trkpt>
      <trkpt lat="43.39436" lon="2.14313">
        <ele>626</ele>
        <time>2019-12-08T10:27:39Z</time>
      </trkpt>
      <trkpt lat="43.39434" lon="2.14322">
        <ele>626</ele>
        <time>2019-12-08T10:27:41Z</time>
      </trkpt>
      <trkpt lat="43.39432" lon="2.14325">
        <ele>627</ele>
        <time>2019-12-08T10:27:42Z</time>
      </trkpt>
      <trkpt lat="43.3943" lon="2.14327">
        <ele>627</ele>
        <time>2019-12-08T10:27:43Z</time>
      </trkpt>
      <trkpt lat="43.39426" lon="2.14329">
        <ele>628</ele>
        <time>2019-12-08T10:27:45Z</time>
      </trkpt>
      <trkpt lat="43.3942" lon="2.14332">
        <ele>628</ele>
        <time>2019-12-08T10:27:48Z</time>
      </trkpt>
      <trkpt lat="43.39415" lon="2.14332">
        <ele>629</ele>
        <time>2019-12-08T10:27:50Z</time>
      </trkpt>
      <trkpt lat="43.39407" lon="2.14335">
        <ele>629</ele>
        <time>2019-12-08T10:27:53Z</time>
      </trkpt>
      <trkpt lat="43.39402" lon="2.14336">
        <ele>630</ele>
        <time>2019-12-08T10:27:55Z</time>
      </trkpt>
      <trkpt lat="43.39387" lon="2.14341">
        <ele>631</ele>
        <time>2019-12-08T10:28:00Z</time>
      </trkpt>
      <trkpt lat="43.39384" lon="2.14342">
        <ele>631</ele>
        <time>2019-12-08T10:28:01Z</time>
      </trkpt>
      <trkpt lat="43.39374" lon="2.14347">
        <ele>632</ele>
        <time>2019-12-08T10:28:05Z</time>
      </trkpt>
      <trkpt lat="43.3937" lon="2.14347">
        <ele>632</ele>
        <time>2019-12-08T10:28:06Z</time>
      </trkpt>
      <trkpt lat="43.3935" lon="2.14354">
        <ele>633</ele>
        <time>2019-12-08T10:28:12Z</time>
      </trkpt>
      <trkpt lat="43.39331" lon="2.1436">
        <ele>633</ele>
        <time>2019-12-08T10:28:17Z</time>
      </trkpt>
      <trkpt lat="43.39326" lon="2.14361">
        <ele>633</ele>
        <time>2019-12-08T10:28:18Z</time>
      </trkpt>
      <trkpt lat="43.39322" lon="2.14363">
        <ele>633</ele>
        <time>2019-12-08T10:28:19Z</time>
      </trkpt>
      <trkpt lat="43.39308" lon="2.14366">
        <ele>632</ele>
        <time>2019-12-08T10:28:22Z</time>
      </trkpt>
      <trkpt lat="43.39289" lon="2.14373">
        <ele>630</ele>
        <time>2019-12-08T10:28:25Z</time>
      </trkpt>
      <trkpt lat="43.39284" lon="2.14378">
        <ele>630</ele>
        <time>2019-12-08T10:28:26Z</time>
      </trkpt>
      <trkpt lat="43.39281" lon="2.14384">
        <ele>629</ele>
        <time>2019-12-08T10:28:27Z</time>
      </trkpt>
      <trkpt lat="43.39279" lon="2.14392">
        <ele>629</ele>
        <time>2019-12-08T10:28:28Z</time>
      </trkpt>
      <trkpt lat="43.39278" lon="2.14407">
        <ele>628</ele>
        <time>2019-12-08T10:28:30Z</time>
      </trkpt>
      <trkpt lat="43.39278" lon="2.14415">
        <ele>628</ele>
        <time>2019-12-08T10:28:31Z</time>
      </trkpt>
      <trkpt lat="43.39279" lon="2.14421">
        <ele>627</ele>
        <time>2019-12-08T10:28:32Z</time>
      </trkpt>
      <trkpt lat="43.39279" lon="2.14427">
        <ele>627</ele>
        <time>2019-12-08T10:28:33Z</time>
      </trkpt>
      <trkpt lat="43.39277" lon="2.14447">
        <ele>627</ele>
        <time>2019-12-08T10:28:36Z</time>
      </trkpt>
      <trkpt lat="43.39277" lon="2.14452">
        <ele>627</ele>
        <time>2019-12-08T10:28:37Z</time>
      </trkpt>
      <trkpt lat="43.39274" lon="2.14469">
        <ele>627</ele>
        <time>2019-12-08T10:28:40Z</time>
      </trkpt>
      <trkpt lat="43.39265" lon="2.14478">
        <ele>627</ele>
        <time>2019-12-08T10:28:43Z</time>
      </trkpt>
      <trkpt lat="43.39262" lon="2.14479">
        <ele>627</ele>
        <time>2019-12-08T10:28:44Z</time>
      </trkpt>
      <trkpt lat="43.39247" lon="2.14483">
        <ele>627</ele>
        <time>2019-12-08T10:28:48Z</time>
      </trkpt>
      <trkpt lat="43.39238" lon="2.14487">
        <ele>627</ele>
        <time>2019-12-08T10:28:50Z</time>
      </trkpt>
      <trkpt lat="43.39224" lon="2.14496">
        <ele>627</ele>
        <time>2019-12-08T10:28:53Z</time>
      </trkpt>
      <trkpt lat="43.3921" lon="2.14507">
        <ele>627</ele>
        <time>2019-12-08T10:28:57Z</time>
      </trkpt>
      <trkpt lat="43.39207" lon="2.1451">
        <ele>626</ele>
        <time>2019-12-08T10:28:58Z</time>
      </trkpt>
      <trkpt lat="43.3919" lon="2.14533">
        <ele>627</ele>
        <time>2019-12-08T10:29:03Z</time>
      </trkpt>
      <trkpt lat="43.39185" lon="2.14539">
        <ele>627</ele>
        <time>2019-12-08T10:29:04Z</time>
      </trkpt>
      <trkpt lat="43.39181" lon="2.14544">
        <ele>627</ele>
        <time>2019-12-08T10:29:05Z</time>
      </trkpt>
      <trkpt lat="43.39173" lon="2.14554">
        <ele>627</ele>
        <time>2019-12-08T10:29:07Z</time>
      </trkpt>
      <trkpt lat="43.39169" lon="2.1456">
        <ele>628</ele>
        <time>2019-12-08T10:29:08Z</time>
      </trkpt>
      <trkpt lat="43.39164" lon="2.14566">
        <ele>628</ele>
        <time>2019-12-08T10:29:09Z</time>
      </trkpt>
      <trkpt lat="43.39157" lon="2.14578">
        <ele>628</ele>
        <time>2019-12-08T10:29:11Z</time>
      </trkpt>
      <trkpt lat="43.39151" lon="2.14594">
        <ele>628</ele>
        <time>2019-12-08T10:29:14Z</time>
      </trkpt>
      <trkpt lat="43.39145" lon="2.14609">
        <ele>628</ele>
        <time>2019-12-08T10:29:16Z</time>
      </trkpt>
      <trkpt lat="43.3914" lon="2.14622">
        <ele>628</ele>
        <time>2019-12-08T10:29:18Z</time>
      </trkpt>
      <trkpt lat="43.3914" lon="2.14629">
        <ele>628</ele>
        <time>2019-12-08T10:29:19Z</time>
      </trkpt>
      <trkpt lat="43.39146" lon="2.14645">
        <ele>628</ele>
        <time>2019-12-08T10:29:22Z</time>
      </trkpt>
      <trkpt lat="43.39161" lon="2.14653">
        <ele>628</ele>
        <time>2019-12-08T10:29:26Z</time>
      </trkpt>
      <trkpt lat="43.39177" lon="2.1466">
        <ele>628</ele>
        <time>2019-12-08T10:29:30Z</time>
      </trkpt>
      <trkpt lat="43.39184" lon="2.14665">
        <ele>628</ele>
        <time>2019-12-08T10:29:32Z</time>
      </trkpt>
      <trkpt lat="43.39193" lon="2.14673">
        <ele>628</ele>
        <time>2019-12-08T10:29:35Z</time>
      </trkpt>
      <trkpt lat="43.392" lon="2.14678">
        <ele>628</ele>
        <time>2019-12-08T10:29:37Z</time>
      </trkpt>
      <trkpt lat="43.39208" lon="2.14682">
        <ele>628</ele>
        <time>2019-12-08T10:29:39Z</time>
      </trkpt>
      <trkpt lat="43.39216" lon="2.14685">
        <ele>628</ele>
        <time>2019-12-08T10:29:41Z</time>
      </trkpt>
      <trkpt lat="43.3923" lon="2.14692">
        <ele>628</ele>
        <time>2019-12-08T10:29:44Z</time>
      </trkpt>
      <trkpt lat="43.39238" lon="2.14695">
        <ele>628</ele>
        <time>2019-12-08T10:29:46Z</time>
      </trkpt>
      <trkpt lat="43.39246" lon="2.14698">
        <ele>628</ele>
        <time>2019-12-08T10:29:48Z</time>
      </trkpt>
      <trkpt lat="43.39254" lon="2.147">
        <ele>628</ele>
        <time>2019-12-08T10:29:50Z</time>
      </trkpt>
      <trkpt lat="43.39262" lon="2.14704">
        <ele>628</ele>
        <time>2019-12-08T10:29:52Z</time>
      </trkpt>
      <trkpt lat="43.39266" lon="2.14706">
        <ele>628</ele>
        <time>2019-12-08T10:29:53Z</time>
      </trkpt>
      <trkpt lat="43.39269" lon="2.14709">
        <ele>628</ele>
        <time>2019-12-08T10:29:54Z</time>
      </trkpt>
      <trkpt lat="43.39275" lon="2.14716">
        <ele>628</ele>
        <time>2019-12-08T10:29:56Z</time>
      </trkpt>
      <trkpt lat="43.39282" lon="2.14722">
        <ele>628</ele>
        <time>2019-12-08T10:29:58Z</time>
      </trkpt>
      <trkpt lat="43.39292" lon="2.14733">
        <ele>628</ele>
        <time>2019-12-08T10:30:01Z</time>
      </trkpt>
      <trkpt lat="43.39302" lon="2.14746">
        <ele>628</ele>
        <time>2019-12-08T10:30:04Z</time>
      </trkpt>
      <trkpt lat="43.39314" lon="2.14755">
        <ele>628</ele>
        <time>2019-12-08T10:30:07Z</time>
      </trkpt>
      <trkpt lat="43.39318" lon="2.14758">
        <ele>628</ele>
        <time>2019-12-08T10:30:08Z</time>
      </trkpt>
      <trkpt lat="43.39333" lon="2.1477">
        <ele>628</ele>
        <time>2019-12-08T10:30:12Z</time>
      </trkpt>
      <trkpt lat="43.39337" lon="2.14774">
        <ele>628</ele>
        <time>2019-12-08T10:30:13Z</time>
      </trkpt>
      <trkpt lat="43.39347" lon="2.148">
        <ele>628</ele>
        <time>2019-12-08T10:30:17Z</time>
      </trkpt>
      <trkpt lat="43.39348" lon="2.14808">
        <ele>628</ele>
        <time>2019-12-08T10:30:18Z</time>
      </trkpt>
      <trkpt lat="43.39352" lon="2.1482">
        <ele>628</ele>
        <time>2019-12-08T10:30:20Z</time>
      </trkpt>
      <trkpt lat="43.39355" lon="2.14826">
        <ele>628</ele>
        <time>2019-12-08T10:30:21Z</time>
      </trkpt>
      <trkpt lat="43.3937" lon="2.14843">
        <ele>629</ele>
        <time>2019-12-08T10:30:25Z</time>
      </trkpt>
      <trkpt lat="43.39373" lon="2.14846">
        <ele>628</ele>
        <time>2019-12-08T10:30:26Z</time>
      </trkpt>
      <trkpt lat="43.39383" lon="2.14861">
        <ele>628</ele>
        <time>2019-12-08T10:30:29Z</time>
      </trkpt>
      <trkpt lat="43.39389" lon="2.14889">
        <ele>628</ele>
        <time>2019-12-08T10:30:33Z</time>
      </trkpt>
      <trkpt lat="43.39383" lon="2.14905">
        <ele>628</ele>
        <time>2019-12-08T10:30:36Z</time>
      </trkpt>
      <trkpt lat="43.39374" lon="2.14914">
        <ele>628</ele>
        <time>2019-12-08T10:30:39Z</time>
      </trkpt>
      <trkpt lat="43.3937" lon="2.14916">
        <ele>628</ele>
        <time>2019-12-08T10:30:40Z</time>
      </trkpt>
      <trkpt lat="43.39363" lon="2.14919">
        <ele>628</ele>
        <time>2019-12-08T10:30:42Z</time>
      </trkpt>
      <trkpt lat="43.3935" lon="2.14921">
        <ele>628</ele>
        <time>2019-12-08T10:30:45Z</time>
      </trkpt>
      <trkpt lat="43.39345" lon="2.14921">
        <ele>628</ele>
        <time>2019-12-08T10:30:46Z</time>
      </trkpt>
      <trkpt lat="43.39331" lon="2.14917">
        <ele>628</ele>
        <time>2019-12-08T10:30:50Z</time>
      </trkpt>
      <trkpt lat="43.39317" lon="2.1491">
        <ele>628</ele>
        <time>2019-12-08T10:30:54Z</time>
      </trkpt>
      <trkpt lat="43.39309" lon="2.14907">
        <ele>628</ele>
        <time>2019-12-08T10:30:56Z</time>
      </trkpt>
      <trkpt lat="43.393" lon="2.14907">
        <ele>628</ele>
        <time>2019-12-08T10:30:58Z</time>
      </trkpt>
      <trkpt lat="43.39289" lon="2.1491">
        <ele>628</ele>
        <time>2019-12-08T10:31:01Z</time>
      </trkpt>
      <trkpt lat="43.39284" lon="2.14911">
        <ele>628</ele>
        <time>2019-12-08T10:31:02Z</time>
      </trkpt>
      <trkpt lat="43.39274" lon="2.14915">
        <ele>628</ele>
        <time>2019-12-08T10:31:04Z</time>
      </trkpt>
      <trkpt lat="43.39261" lon="2.14924">
        <ele>628</ele>
        <time>2019-12-08T10:31:07Z</time>
      </trkpt>
      <trkpt lat="43.39252" lon="2.14947">
        <ele>628</ele>
        <time>2019-12-08T10:31:11Z</time>
      </trkpt>
      <trkpt lat="43.3925" lon="2.14959">
        <ele>628</ele>
        <time>2019-12-08T10:31:13Z</time>
      </trkpt>
      <trkpt lat="43.3925" lon="2.14966">
        <ele>628</ele>
        <time>2019-12-08T10:31:14Z</time>
      </trkpt>
      <trkpt lat="43.39251" lon="2.14979">
        <ele>628</ele>
        <time>2019-12-08T10:31:16Z</time>
      </trkpt>
      <trkpt lat="43.39254" lon="2.14995">
        <ele>628</ele>
        <time>2019-12-08T10:31:19Z</time>
      </trkpt>
      <trkpt lat="43.39257" lon="2.15001">
        <ele>628</ele>
        <time>2019-12-08T10:31:20Z</time>
      </trkpt>
      <trkpt lat="43.39262" lon="2.15013">
        <ele>628</ele>
        <time>2019-12-08T10:31:22Z</time>
      </trkpt>
      <trkpt lat="43.39271" lon="2.15027">
        <ele>628</ele>
        <time>2019-12-08T10:31:25Z</time>
      </trkpt>
      <trkpt lat="43.39281" lon="2.15038">
        <ele>628</ele>
        <time>2019-12-08T10:31:28Z</time>
      </trkpt>
      <trkpt lat="43.39288" lon="2.15044">
        <ele>628</ele>
        <time>2019-12-08T10:31:30Z</time>
      </trkpt>
      <trkpt lat="43.39295" lon="2.1505">
        <ele>628</ele>
        <time>2019-12-08T10:31:32Z</time>
      </trkpt>
      <trkpt lat="43.39302" lon="2.15061">
        <ele>628</ele>
        <time>2019-12-08T10:31:34Z</time>
      </trkpt>
      <trkpt lat="43.39302" lon="2.15081">
        <ele>628</ele>
        <time>2019-12-08T10:31:37Z</time>
      </trkpt>
      <trkpt lat="43.39294" lon="2.15103">
        <ele>629</ele>
        <time>2019-12-08T10:31:41Z</time>
      </trkpt>
      <trkpt lat="43.39292" lon="2.15108">
        <ele>629</ele>
        <time>2019-12-08T10:31:42Z</time>
      </trkpt>
      <trkpt lat="43.3929" lon="2.15112">
        <ele>629</ele>
        <time>2019-12-08T10:31:43Z</time>
      </trkpt>
      <trkpt lat="43.39278" lon="2.1513">
        <ele>629</ele>
        <time>2019-12-08T10:31:47Z</time>
      </trkpt>
      <trkpt lat="43.39259" lon="2.1515">
        <ele>629</ele>
        <time>2019-12-08T10:31:52Z</time>
      </trkpt>
      <trkpt lat="43.39247" lon="2.15169">
        <ele>628</ele>
        <time>2019-12-08T10:31:56Z</time>
      </trkpt>
      <trkpt lat="43.39243" lon="2.15175">
        <ele>628</ele>
        <time>2019-12-08T10:31:57Z</time>
      </trkpt>
      <trkpt lat="43.3924" lon="2.15181">
        <ele>628</ele>
        <time>2019-12-08T10:31:58Z</time>
      </trkpt>
      <trkpt lat="43.39232" lon="2.152">
        <ele>628</ele>
        <time>2019-12-08T10:32:01Z</time>
      </trkpt>
      <trkpt lat="43.3923" lon="2.15206">
        <ele>628</ele>
        <time>2019-12-08T10:32:02Z</time>
      </trkpt>
      <trkpt lat="43.39227" lon="2.15218">
        <ele>628</ele>
        <time>2019-12-08T10:32:04Z</time>
      </trkpt>
      <trkpt lat="43.39224" lon="2.15232">
        <ele>628</ele>
        <time>2019-12-08T10:32:06Z</time>
      </trkpt>
      <trkpt lat="43.39217" lon="2.15265">
        <ele>628</ele>
        <time>2019-12-08T10:32:11Z</time>
      </trkpt>
      <trkpt lat="43.39216" lon="2.1527">
        <ele>628</ele>
        <time>2019-12-08T10:32:12Z</time>
      </trkpt>
      <trkpt lat="43.39214" lon="2.15288">
        <ele>628</ele>
        <time>2019-12-08T10:32:15Z</time>
      </trkpt>
      <trkpt lat="43.39213" lon="2.153">
        <ele>629</ele>
        <time>2019-12-08T10:32:17Z</time>
      </trkpt>
      <trkpt lat="43.39212" lon="2.15325">
        <ele>629</ele>
        <time>2019-12-08T10:32:21Z</time>
      </trkpt>
      <trkpt lat="43.39211" lon="2.15345">
        <ele>629</ele>
        <time>2019-12-08T10:32:24Z</time>
      </trkpt>
      <trkpt lat="43.39212" lon="2.15358">
        <ele>629</ele>
        <time>2019-12-08T10:32:26Z</time>
      </trkpt>
      <trkpt lat="43.39213" lon="2.15377">
        <ele>628</ele>
        <time>2019-12-08T10:32:30Z</time>
      </trkpt>
      <trkpt lat="43.39222" lon="2.15394">
        <ele>629</ele>
        <time>2019-12-08T10:32:34Z</time>
      </trkpt>
      <trkpt lat="43.39232" lon="2.154">
        <ele>628</ele>
        <time>2019-12-08T10:32:37Z</time>
      </trkpt>
      <trkpt lat="43.39234" lon="2.15402">
        <ele>628</ele>
        <time>2019-12-08T10:32:38Z</time>
      </trkpt>
      <trkpt lat="43.3925" lon="2.15409">
        <ele>628</ele>
        <time>2019-12-08T10:32:43Z</time>
      </trkpt>
      <trkpt lat="43.39268" lon="2.15419">
        <ele>628</ele>
        <time>2019-12-08T10:32:49Z</time>
      </trkpt>
      <trkpt lat="43.3928" lon="2.15421">
        <ele>628</ele>
        <time>2019-12-08T10:32:53Z</time>
      </trkpt>
      <trkpt lat="43.3929" lon="2.15423">
        <ele>628</ele>
        <time>2019-12-08T10:32:56Z</time>
      </trkpt>
      <trkpt lat="43.39293" lon="2.15426">
        <ele>628</ele>
        <time>2019-12-08T10:32:57Z</time>
      </trkpt>
      <trkpt lat="43.39295" lon="2.15437">
        <ele>628</ele>
        <time>2019-12-08T10:32:59Z</time>
      </trkpt>
      <trkpt lat="43.39296" lon="2.15445">
        <ele>628</ele>
        <time>2019-12-08T10:33:01Z</time>
      </trkpt>
      <trkpt lat="43.39292" lon="2.15459">
        <ele>628</ele>
        <time>2019-12-08T10:33:05Z</time>
      </trkpt>
      <trkpt lat="43.39291" lon="2.15462">
        <ele>628</ele>
        <time>2019-12-08T10:33:06Z</time>
      </trkpt>
      <trkpt lat="43.39284" lon="2.15475">
        <ele>629</ele>
        <time>2019-12-08T10:33:10Z</time>
      </trkpt>
      <trkpt lat="43.39279" lon="2.15481">
        <ele>629</ele>
        <time>2019-12-08T10:33:12Z</time>
      </trkpt>
      <trkpt lat="43.39271" lon="2.15493">
        <ele>629</ele>
        <time>2019-12-08T10:33:16Z</time>
      </trkpt>
      <trkpt lat="43.39268" lon="2.15502">
        <ele>629</ele>
        <time>2019-12-08T10:33:18Z</time>
      </trkpt>
      <trkpt lat="43.39266" lon="2.15514">
        <ele>629</ele>
        <time>2019-12-08T10:33:20Z</time>
      </trkpt>
      <trkpt lat="43.39264" lon="2.15527">
        <ele>629</ele>
        <time>2019-12-08T10:33:22Z</time>
      </trkpt>
      <trkpt lat="43.39263" lon="2.1555">
        <ele>629</ele>
        <time>2019-12-08T10:33:26Z</time>
      </trkpt>
      <trkpt lat="43.39263" lon="2.15555">
        <ele>629</ele>
        <time>2019-12-08T10:33:27Z</time>
      </trkpt>
      <trkpt lat="43.39263" lon="2.15561">
        <ele>629</ele>
        <time>2019-12-08T10:33:28Z</time>
      </trkpt>
      <trkpt lat="43.39264" lon="2.15578">
        <ele>629</ele>
        <time>2019-12-08T10:33:31Z</time>
      </trkpt>
      <trkpt lat="43.39265" lon="2.15583">
        <ele>629</ele>
        <time>2019-12-08T10:33:32Z</time>
      </trkpt>
      <trkpt lat="43.39265" lon="2.15589">
        <ele>629</ele>
        <time>2019-12-08T10:33:33Z</time>
      </trkpt>
      <trkpt lat="43.39265" lon="2.1561">
        <ele>629</ele>
        <time>2019-12-08T10:33:36Z</time>
      </trkpt>
      <trkpt lat="43.39265" lon="2.15617">
        <ele>629</ele>
        <time>2019-12-08T10:33:37Z</time>
      </trkpt>
      <trkpt lat="43.39262" lon="2.15635">
        <ele>629</ele>
        <time>2019-12-08T10:33:40Z</time>
      </trkpt>
      <trkpt lat="43.39257" lon="2.15646">
        <ele>629</ele>
        <time>2019-12-08T10:33:42Z</time>
      </trkpt>
      <trkpt lat="43.39253" lon="2.15659">
        <ele>629</ele>
        <time>2019-12-08T10:33:44Z</time>
      </trkpt>
      <trkpt lat="43.39248" lon="2.1568">
        <ele>629</ele>
        <time>2019-12-08T10:33:47Z</time>
      </trkpt>
      <trkpt lat="43.39246" lon="2.15694">
        <ele>629</ele>
        <time>2019-12-08T10:33:49Z</time>
      </trkpt>
      <trkpt lat="43.39244" lon="2.15711">
        <ele>629</ele>
        <time>2019-12-08T10:33:51Z</time>
      </trkpt>
      <trkpt lat="43.39246" lon="2.15729">
        <ele>629</ele>
        <time>2019-12-08T10:33:54Z</time>
      </trkpt>
      <trkpt lat="43.39259" lon="2.15742">
        <ele>629</ele>
        <time>2019-12-08T10:33:58Z</time>
      </trkpt>
      <trkpt lat="43.39262" lon="2.15743">
        <ele>629</ele>
        <time>2019-12-08T10:33:59Z</time>
      </trkpt>
      <trkpt lat="43.39274" lon="2.15745">
        <ele>629</ele>
        <time>2019-12-08T10:34:02Z</time>
      </trkpt>
      <trkpt lat="43.39285" lon="2.15749">
        <ele>629</ele>
        <time>2019-12-08T10:34:05Z</time>
      </trkpt>
      <trkpt lat="43.39291" lon="2.15754">
        <ele>629</ele>
        <time>2019-12-08T10:34:07Z</time>
      </trkpt>
      <trkpt lat="43.39297" lon="2.15761">
        <ele>629</ele>
        <time>2019-12-08T10:34:09Z</time>
      </trkpt>
      <trkpt lat="43.39308" lon="2.15776">
        <ele>629</ele>
        <time>2019-12-08T10:34:12Z</time>
      </trkpt>
      <trkpt lat="43.39321" lon="2.15793">
        <ele>629</ele>
        <time>2019-12-08T10:34:16Z</time>
      </trkpt>
      <trkpt lat="43.39325" lon="2.15804">
        <ele>629</ele>
        <time>2019-12-08T10:34:18Z</time>
      </trkpt>
      <trkpt lat="43.3933" lon="2.15829">
        <ele>629</ele>
        <time>2019-12-08T10:34:22Z</time>
      </trkpt>
      <trkpt lat="43.39339" lon="2.15846">
        <ele>629</ele>
        <time>2019-12-08T10:34:26Z</time>
      </trkpt>
      <trkpt lat="43.39353" lon="2.15847">
        <ele>629</ele>
        <time>2019-12-08T10:34:29Z</time>
      </trkpt>
      <trkpt lat="43.39358" lon="2.15846">
        <ele>629</ele>
        <time>2019-12-08T10:34:30Z</time>
      </trkpt>
      <trkpt lat="43.39372" lon="2.15841">
        <ele>629</ele>
        <time>2019-12-08T10:34:33Z</time>
      </trkpt>
      <trkpt lat="43.3938" lon="2.15836">
        <ele>629</ele>
        <time>2019-12-08T10:34:35Z</time>
      </trkpt>
      <trkpt lat="43.39393" lon="2.15831">
        <ele>629</ele>
        <time>2019-12-08T10:34:38Z</time>
      </trkpt>
      <trkpt lat="43.39398" lon="2.1583">
        <ele>629</ele>
        <time>2019-12-08T10:34:39Z</time>
      </trkpt>
      <trkpt lat="43.39412" lon="2.15836">
        <ele>629</ele>
        <time>2019-12-08T10:34:43Z</time>
      </trkpt>
      <trkpt lat="43.3942" lon="2.15859">
        <ele>629</ele>
        <time>2019-12-08T10:34:47Z</time>
      </trkpt>
      <trkpt lat="43.39421" lon="2.15864">
        <ele>629</ele>
        <time>2019-12-08T10:34:48Z</time>
      </trkpt>
      <trkpt lat="43.39423" lon="2.15882">
        <ele>629</ele>
        <time>2019-12-08T10:34:51Z</time>
      </trkpt>
      <trkpt lat="43.39425" lon="2.15906">
        <ele>629</ele>
        <time>2019-12-08T10:34:55Z</time>
      </trkpt>
      <trkpt lat="43.39425" lon="2.15911">
        <ele>629</ele>
        <time>2019-12-08T10:34:56Z</time>
      </trkpt>
      <trkpt lat="43.39426" lon="2.15916">
        <ele>629</ele>
        <time>2019-12-08T10:34:57Z</time>
      </trkpt>
      <trkpt lat="43.39427" lon="2.15926">
        <ele>629</ele>
        <time>2019-12-08T10:34:59Z</time>
      </trkpt>
      <trkpt lat="43.39428" lon="2.15932">
        <ele>629</ele>
        <time>2019-12-08T10:35:00Z</time>
      </trkpt>
      <trkpt lat="43.3943" lon="2.15942">
        <ele>629</ele>
        <time>2019-12-08T10:35:02Z</time>
      </trkpt>
      <trkpt lat="43.39434" lon="2.15953">
        <ele>629</ele>
        <time>2019-12-08T10:35:04Z</time>
      </trkpt>
      <trkpt lat="43.39444" lon="2.15966">
        <ele>629</ele>
        <time>2019-12-08T10:35:07Z</time>
      </trkpt>
      <trkpt lat="43.39465" lon="2.15975">
        <ele>629</ele>
        <time>2019-12-08T10:35:12Z</time>
      </trkpt>
      <trkpt lat="43.39469" lon="2.15977">
        <ele>629</ele>
        <time>2019-12-08T10:35:13Z</time>
      </trkpt>
      <trkpt lat="43.39487" lon="2.15984">
        <ele>629</ele>
        <time>2019-12-08T10:35:18Z</time>
      </trkpt>
      <trkpt lat="43.39502" lon="2.15997">
        <ele>629</ele>
        <time>2019-12-08T10:35:23Z</time>
      </trkpt>
      <trkpt lat="43.39509" lon="2.16012">
        <ele>629</ele>
        <time>2019-12-08T10:35:26Z</time>
      </trkpt>
      <trkpt lat="43.3951" lon="2.16019">
        <ele>629</ele>
        <time>2019-12-08T10:35:27Z</time>
      </trkpt>
      <trkpt lat="43.39512" lon="2.16031">
        <ele>629</ele>
        <time>2019-12-08T10:35:29Z</time>
      </trkpt>
      <trkpt lat="43.39513" lon="2.16049">
        <ele>629</ele>
        <time>2019-12-08T10:35:32Z</time>
      </trkpt>
      <trkpt lat="43.39513" lon="2.16056">
        <ele>629</ele>
        <time>2019-12-08T10:35:33Z</time>
      </trkpt>
      <trkpt lat="43.39514" lon="2.16062">
        <ele>629</ele>
        <time>2019-12-08T10:35:34Z</time>
      </trkpt>
      <trkpt lat="43.39511" lon="2.16074">
        <ele>629</ele>
        <time>2019-12-08T10:35:36Z</time>
      </trkpt>
      <trkpt lat="43.39507" lon="2.16097">
        <ele>629</ele>
        <time>2019-12-08T10:35:40Z</time>
      </trkpt>
      <trkpt lat="43.39504" lon="2.16119">
        <ele>629</ele>
        <time>2019-12-08T10:35:44Z</time>
      </trkpt>
      <trkpt lat="43.39502" lon="2.16125">
        <ele>629</ele>
        <time>2019-12-08T10:35:45Z</time>
      </trkpt>
      <trkpt lat="43.39504" lon="2.16145">
        <ele>629</ele>
        <time>2019-12-08T10:35:48Z</time>
      </trkpt>
      <trkpt lat="43.39509" lon="2.16167">
        <ele>629</ele>
        <time>2019-12-08T10:35:52Z</time>
      </trkpt>
      <trkpt lat="43.39519" lon="2.16177">
        <ele>629</ele>
        <time>2019-12-08T10:35:55Z</time>
      </trkpt>
      <trkpt lat="43.39527" lon="2.16183">
        <ele>630</ele>
        <time>2019-12-08T10:35:57Z</time>
      </trkpt>
      <trkpt lat="43.39534" lon="2.16188">
        <ele>629</ele>
        <time>2019-12-08T10:35:59Z</time>
      </trkpt>
      <trkpt lat="43.39542" lon="2.16198">
        <ele>629</ele>
        <time>2019-12-08T10:36:02Z</time>
      </trkpt>
      <trkpt lat="43.39547" lon="2.16205">
        <ele>629</ele>
        <time>2019-12-08T10:36:04Z</time>
      </trkpt>
      <trkpt lat="43.3955" lon="2.16218">
        <ele>629</ele>
        <time>2019-12-08T10:36:06Z</time>
      </trkpt>
      <trkpt lat="43.3955" lon="2.16242">
        <ele>629</ele>
        <time>2019-12-08T10:36:10Z</time>
      </trkpt>
      <trkpt lat="43.3954" lon="2.16261">
        <ele>629</ele>
        <time>2019-12-08T10:36:15Z</time>
      </trkpt>
      <trkpt lat="43.39539" lon="2.16265">
        <ele>629</ele>
        <time>2019-12-08T10:36:16Z</time>
      </trkpt>
      <trkpt lat="43.39534" lon="2.16276">
        <ele>629</ele>
        <time>2019-12-08T10:36:19Z</time>
      </trkpt>
      <trkpt lat="43.39533" lon="2.16292">
        <ele>629</ele>
        <time>2019-12-08T10:36:22Z</time>
      </trkpt>
      <trkpt lat="43.39533" lon="2.16305">
        <ele>629</ele>
        <time>2019-12-08T10:36:24Z</time>
      </trkpt>
      <trkpt lat="43.3953" lon="2.16318">
        <ele>629</ele>
        <time>2019-12-08T10:36:26Z</time>
      </trkpt>
      <trkpt lat="43.39519" lon="2.1633">
        <ele>629</ele>
        <time>2019-12-08T10:36:30Z</time>
      </trkpt>
      <trkpt lat="43.39509" lon="2.16339">
        <ele>629</ele>
        <time>2019-12-08T10:36:33Z</time>
      </trkpt>
      <trkpt lat="43.39507" lon="2.16343">
        <ele>629</ele>
        <time>2019-12-08T10:36:34Z</time>
      </trkpt>
      <trkpt lat="43.39502" lon="2.16351">
        <ele>630</ele>
        <time>2019-12-08T10:36:36Z</time>
      </trkpt>
      <trkpt lat="43.39497" lon="2.16359">
        <ele>630</ele>
        <time>2019-12-08T10:36:38Z</time>
      </trkpt>
      <trkpt lat="43.3949" lon="2.16371">
        <ele>630</ele>
        <time>2019-12-08T10:36:41Z</time>
      </trkpt>
      <trkpt lat="43.39486" lon="2.16384">
        <ele>630</ele>
        <time>2019-12-08T10:36:43Z</time>
      </trkpt>
      <trkpt lat="43.39479" lon="2.16403">
        <ele>630</ele>
        <time>2019-12-08T10:36:47Z</time>
      </trkpt>
      <trkpt lat="43.39469" lon="2.16427">
        <ele>630</ele>
        <time>2019-12-08T10:36:52Z</time>
      </trkpt>
      <trkpt lat="43.39463" lon="2.16439">
        <ele>630</ele>
        <time>2019-12-08T10:36:56Z</time>
      </trkpt>
      <trkpt lat="43.39461" lon="2.16441">
        <ele>630</ele>
        <time>2019-12-08T10:36:57Z</time>
      </trkpt>
      <trkpt lat="43.39451" lon="2.16448">
        <ele>630</ele>
        <time>2019-12-08T10:37:00Z</time>
      </trkpt>
      <trkpt lat="43.39437" lon="2.16459">
        <ele>630</ele>
        <time>2019-12-08T10:37:04Z</time>
      </trkpt>
      <trkpt lat="43.39435" lon="2.16462">
        <ele>630</ele>
        <time>2019-12-08T10:37:05Z</time>
      </trkpt>
      <trkpt lat="43.39431" lon="2.16466">
        <ele>630</ele>
        <time>2019-12-08T10:37:06Z</time>
      </trkpt>
      <trkpt lat="43.39417" lon="2.16475">
        <ele>630</ele>
        <time>2019-12-08T10:37:09Z</time>
      </trkpt>
      <trkpt lat="43.39393" lon="2.16491">
        <ele>630</ele>
        <time>2019-12-08T10:37:15Z</time>
      </trkpt>
      <trkpt lat="43.39389" lon="2.16497">
        <ele>630</ele>
        <time>2019-12-08T10:37:17Z</time>
      </trkpt>
      <trkpt lat="43.39387" lon="2.16501">
        <ele>630</ele>
        <time>2019-12-08T10:37:18Z</time>
      </trkpt>
      <trkpt lat="43.39387" lon="2.16517">
        <ele>630</ele>
        <time>2019-12-08T10:37:22Z</time>
      </trkpt>
      <trkpt lat="43.39387" lon="2.16528">
        <ele>630</ele>
        <time>2019-12-08T10:37:24Z</time>
      </trkpt>
      <trkpt lat="43.39386" lon="2.16555">
        <ele>630</ele>
        <time>2019-12-08T10:37:29Z</time>
      </trkpt>
      <trkpt lat="43.39386" lon="2.1657">
        <ele>630</ele>
        <time>2019-12-08T10:37:32Z</time>
      </trkpt>
      <trkpt lat="43.39385" lon="2.16575">
        <ele>630</ele>
        <time>2019-12-08T10:37:33Z</time>
      </trkpt>
      <trkpt lat="43.3939" lon="2.16603">
        <ele>630</ele>
        <time>2019-12-08T10:37:38Z</time>
      </trkpt>
      <trkpt lat="43.39393" lon="2.16626">
        <ele>630</ele>
        <time>2019-12-08T10:37:42Z</time>
      </trkpt>
      <trkpt lat="43.39393" lon="2.16658">
        <ele>630</ele>
        <time>2019-12-08T10:37:46Z</time>
      </trkpt>
      <trkpt lat="43.39393" lon="2.16672">
        <ele>630</ele>
        <time>2019-12-08T10:37:48Z</time>
      </trkpt>
      <trkpt lat="43.39393" lon="2.16687">
        <ele>630</ele>
        <time>2019-12-08T10:37:50Z</time>
      </trkpt>
      <trkpt lat="43.39392" lon="2.16712">
        <ele>630</ele>
        <time>2019-12-08T10:37:54Z</time>
      </trkpt>
      <trkpt lat="43.39392" lon="2.16717">
        <ele>630</ele>
        <time>2019-12-08T10:37:55Z</time>
      </trkpt>
      <trkpt lat="43.39394" lon="2.16731">
        <ele>630</ele>
        <time>2019-12-08T10:37:58Z</time>
      </trkpt>
      <trkpt lat="43.39395" lon="2.16736">
        <ele>630</ele>
        <time>2019-12-08T10:37:59Z</time>
      </trkpt>
      <trkpt lat="43.39398" lon="2.16757">
        <ele>630</ele>
        <time>2019-12-08T10:38:03Z</time>
      </trkpt>
      <trkpt lat="43.394" lon="2.16768">
        <ele>630</ele>
        <time>2019-12-08T10:38:05Z</time>
      </trkpt>
      <trkpt lat="43.39398" lon="2.16784">
        <ele>630</ele>
        <time>2019-12-08T10:38:08Z</time>
      </trkpt>
      <trkpt lat="43.39397" lon="2.16796">
        <ele>631</ele>
        <time>2019-12-08T10:38:10Z</time>
      </trkpt>
      <trkpt lat="43.39396" lon="2.16808">
        <ele>631</ele>
        <time>2019-12-08T10:38:12Z</time>
      </trkpt>
      <trkpt lat="43.39395" lon="2.16821">
        <ele>631</ele>
        <time>2019-12-08T10:38:14Z</time>
      </trkpt>
      <trkpt lat="43.39395" lon="2.16828">
        <ele>631</ele>
        <time>2019-12-08T10:38:15Z</time>
      </trkpt>
      <trkpt lat="43.39393" lon="2.16861">
        <ele>631</ele>
        <time>2019-12-08T10:38:20Z</time>
      </trkpt>
      <trkpt lat="43.39391" lon="2.16879">
        <ele>631</ele>
        <time>2019-12-08T10:38:23Z</time>
      </trkpt>
      <trkpt lat="43.39389" lon="2.16889">
        <ele>631</ele>
        <time>2019-12-08T10:38:25Z</time>
      </trkpt>
      <trkpt lat="43.39394" lon="2.16914">
        <ele>631</ele>
        <time>2019-12-08T10:38:29Z</time>
      </trkpt>
      <trkpt lat="43.394" lon="2.16925">
        <ele>631</ele>
        <time>2019-12-08T10:38:31Z</time>
      </trkpt>
      <trkpt lat="43.39402" lon="2.1693">
        <ele>631</ele>
        <time>2019-12-08T10:38:32Z</time>
      </trkpt>
      <trkpt lat="43.39405" lon="2.16935">
        <ele>631</ele>
        <time>2019-12-08T10:38:33Z</time>
      </trkpt>
      <trkpt lat="43.39411" lon="2.16944">
        <ele>632</ele>
        <time>2019-12-08T10:38:35Z</time>
      </trkpt>
      <trkpt lat="43.39418" lon="2.16952">
        <ele>632</ele>
        <time>2019-12-08T10:38:37Z</time>
      </trkpt>
      <trkpt lat="43.39426" lon="2.16961">
        <ele>632</ele>
        <time>2019-12-08T10:38:39Z</time>
      </trkpt>
      <trkpt lat="43.39436" lon="2.16968">
        <ele>632</ele>
        <time>2019-12-08T10:38:41Z</time>
      </trkpt>
      <trkpt lat="43.39453" lon="2.16976">
        <ele>632</ele>
        <time>2019-12-08T10:38:44Z</time>
      </trkpt>
      <trkpt lat="43.39468" lon="2.1698">
        <ele>632</ele>
        <time>2019-12-08T10:38:47Z</time>
      </trkpt>
      <trkpt lat="43.39477" lon="2.16982">
        <ele>631</ele>
        <time>2019-12-08T10:38:49Z</time>
      </trkpt>
      <trkpt lat="43.39491" lon="2.16985">
        <ele>631</ele>
        <time>2019-12-08T10:38:52Z</time>
      </trkpt>
      <trkpt lat="43.39499" lon="2.16988">
        <ele>631</ele>
        <time>2019-12-08T10:38:54Z</time>
      </trkpt>
      <trkpt lat="43.39509" lon="2.16989">
        <ele>632</ele>
        <time>2019-12-08T10:38:56Z</time>
      </trkpt>
      <trkpt lat="43.39518" lon="2.1699">
        <ele>632</ele>
        <time>2019-12-08T10:38:58Z</time>
      </trkpt>
      <trkpt lat="43.39523" lon="2.1699">
        <ele>632</ele>
        <time>2019-12-08T10:38:59Z</time>
      </trkpt>
      <trkpt lat="43.39533" lon="2.16989">
        <ele>632</ele>
        <time>2019-12-08T10:39:01Z</time>
      </trkpt>
      <trkpt lat="43.39541" lon="2.16988">
        <ele>631</ele>
        <time>2019-12-08T10:39:03Z</time>
      </trkpt>
      <trkpt lat="43.39549" lon="2.16986">
        <ele>631</ele>
        <time>2019-12-08T10:39:05Z</time>
      </trkpt>
      <trkpt lat="43.39557" lon="2.16984">
        <ele>631</ele>
        <time>2019-12-08T10:39:07Z</time>
      </trkpt>
      <trkpt lat="43.39565" lon="2.16985">
        <ele>631</ele>
        <time>2019-12-08T10:39:09Z</time>
      </trkpt>
      <trkpt lat="43.39578" lon="2.16986">
        <ele>632</ele>
        <time>2019-12-08T10:39:12Z</time>
      </trkpt>
      <trkpt lat="43.39586" lon="2.16987">
        <ele>632</ele>
        <time>2019-12-08T10:39:14Z</time>
      </trkpt>
      <trkpt lat="43.39604" lon="2.16993">
        <ele>631</ele>
        <time>2019-12-08T10:39:18Z</time>
      </trkpt>
      <trkpt lat="43.39611" lon="2.17012">
        <ele>631</ele>
        <time>2019-12-08T10:39:22Z</time>
      </trkpt>
      <trkpt lat="43.39611" lon="2.17017">
        <ele>632</ele>
        <time>2019-12-08T10:39:23Z</time>
      </trkpt>
      <trkpt lat="43.39614" lon="2.17026">
        <ele>632</ele>
        <time>2019-12-08T10:39:25Z</time>
      </trkpt>
      <trkpt lat="43.39617" lon="2.17034">
        <ele>632</ele>
        <time>2019-12-08T10:39:27Z</time>
      </trkpt>
      <trkpt lat="43.39629" lon="2.17049">
        <ele>632</ele>
        <time>2019-12-08T10:39:31Z</time>
      </trkpt>
      <trkpt lat="43.3964" lon="2.17061">
        <ele>632</ele>
        <time>2019-12-08T10:39:35Z</time>
      </trkpt>
      <trkpt lat="43.39651" lon="2.17077">
        <ele>633</ele>
        <time>2019-12-08T10:39:39Z</time>
      </trkpt>
      <trkpt lat="43.39653" lon="2.1708">
        <ele>633</ele>
        <time>2019-12-08T10:39:40Z</time>
      </trkpt>
      <trkpt lat="43.3966" lon="2.17094">
        <ele>634</ele>
        <time>2019-12-08T10:39:44Z</time>
      </trkpt>
      <trkpt lat="43.39662" lon="2.17098">
        <ele>635</ele>
        <time>2019-12-08T10:39:45Z</time>
      </trkpt>
      <trkpt lat="43.39664" lon="2.17102">
        <ele>635</ele>
        <time>2019-12-08T10:39:46Z</time>
      </trkpt>
      <trkpt lat="43.39667" lon="2.17115">
        <ele>636</ele>
        <time>2019-12-08T10:39:49Z</time>
      </trkpt>
      <trkpt lat="43.39668" lon="2.17121">
        <ele>636</ele>
        <time>2019-12-08T10:39:50Z</time>
      </trkpt>
      <trkpt lat="43.39669" lon="2.17125">
        <ele>636</ele>
        <time>2019-12-08T10:39:51Z</time>
      </trkpt>
      <trkpt lat="43.3967" lon="2.17137">
        <ele>637</ele>
        <time>2019-12-08T10:39:54Z</time>
      </trkpt>
      <trkpt lat="43.39674" lon="2.1715">
        <ele>638</ele>
        <time>2019-12-08T10:39:57Z</time>
      </trkpt>
      <trkpt lat="43.39676" lon="2.17157">
        <ele>638</ele>
        <time>2019-12-08T10:39:59Z</time>
      </trkpt>
      <trkpt lat="43.39677" lon="2.17162">
        <ele>638</ele>
        <time>2019-12-08T10:40:00Z</time>
      </trkpt>
      <trkpt lat="43.3968" lon="2.17171">
        <ele>639</ele>
        <time>2019-12-08T10:40:03Z</time>
      </trkpt>
      <trkpt lat="43.3968" lon="2.17175">
        <ele>640</ele>
        <time>2019-12-08T10:40:04Z</time>
      </trkpt>
      <trkpt lat="43.39684" lon="2.17197">
        <ele>641</ele>
        <time>2019-12-08T10:40:09Z</time>
      </trkpt>
      <trkpt lat="43.39686" lon="2.17213">
        <ele>642</ele>
        <time>2019-12-08T10:40:13Z</time>
      </trkpt>
      <trkpt lat="43.39687" lon="2.17216">
        <ele>642</ele>
        <time>2019-12-08T10:40:14Z</time>
      </trkpt>
      <trkpt lat="43.39688" lon="2.17226">
        <ele>643</ele>
        <time>2019-12-08T10:40:17Z</time>
      </trkpt>
      <trkpt lat="43.39688" lon="2.17233">
        <ele>643</ele>
        <time>2019-12-08T10:40:19Z</time>
      </trkpt>
      <trkpt lat="43.39691" lon="2.17246">
        <ele>644</ele>
        <time>2019-12-08T10:40:23Z</time>
      </trkpt>
      <trkpt lat="43.39691" lon="2.17249">
        <ele>644</ele>
        <time>2019-12-08T10:40:24Z</time>
      </trkpt>
      <trkpt lat="43.39696" lon="2.17256">
        <ele>645</ele>
        <time>2019-12-08T10:40:27Z</time>
      </trkpt>
      <trkpt lat="43.39702" lon="2.17259">
        <ele>646</ele>
        <time>2019-12-08T10:40:30Z</time>
      </trkpt>
      <trkpt lat="43.39703" lon="2.1726">
        <ele>646</ele>
        <time>2019-12-08T10:40:31Z</time>
      </trkpt>
      <trkpt lat="43.39706" lon="2.17259">
        <ele>646</ele>
        <time>2019-12-08T10:40:32Z</time>
      </trkpt>
      <trkpt lat="43.39714" lon="2.17259">
        <ele>648</ele>
        <time>2019-12-08T10:40:37Z</time>
      </trkpt>
      <trkpt lat="43.39721" lon="2.17255">
        <ele>648</ele>
        <time>2019-12-08T10:40:42Z</time>
      </trkpt>
      <trkpt lat="43.39725" lon="2.17252">
        <ele>649</ele>
        <time>2019-12-08T10:40:45Z</time>
      </trkpt>
      <trkpt lat="43.39725" lon="2.17252">
        <ele>649</ele>
        <time>2019-12-08T10:40:46Z</time>
      </trkpt>
      <trkpt lat="43.39726" lon="2.17252">
        <ele>649</ele>
        <time>2019-12-08T10:40:47Z</time>
      </trkpt>
      <trkpt lat="43.39727" lon="2.17253">
        <ele>649</ele>
        <time>2019-12-08T10:40:48Z</time>
      </trkpt>
      <trkpt lat="43.39731" lon="2.17252">
        <ele>649</ele>
        <time>2019-12-08T10:40:55Z</time>
      </trkpt>
      <trkpt lat="43.39734" lon="2.17253">
        <ele>649</ele>
        <time>2019-12-08T10:40:57Z</time>
      </trkpt>
      <trkpt lat="43.39738" lon="2.17255">
        <ele>649</ele>
        <time>2019-12-08T10:40:59Z</time>
      </trkpt>
      <trkpt lat="43.39739" lon="2.17261">
        <ele>650</ele>
        <time>2019-12-08T10:41:01Z</time>
      </trkpt>
      <trkpt lat="43.39739" lon="2.17287">
        <ele>650</ele>
        <time>2019-12-08T10:41:08Z</time>
      </trkpt>
      <trkpt lat="43.39737" lon="2.17315">
        <ele>649</ele>
        <time>2019-12-08T10:41:15Z</time>
      </trkpt>
      <trkpt lat="43.39736" lon="2.17345">
        <ele>650</ele>
        <time>2019-12-08T10:41:22Z</time>
      </trkpt>
      <trkpt lat="43.39736" lon="2.17349">
        <ele>650</ele>
        <time>2019-12-08T10:41:23Z</time>
      </trkpt>
      <trkpt lat="43.39735" lon="2.17356">
        <ele>650</ele>
        <time>2019-12-08T10:41:25Z</time>
      </trkpt>
      <trkpt lat="43.39734" lon="2.17367">
        <ele>650</ele>
        <time>2019-12-08T10:41:28Z</time>
      </trkpt>
      <trkpt lat="43.39734" lon="2.17374">
        <ele>650</ele>
        <time>2019-12-08T10:41:30Z</time>
      </trkpt>
      <trkpt lat="43.39733" lon="2.17388">
        <ele>650</ele>
        <time>2019-12-08T10:41:35Z</time>
      </trkpt>
      <trkpt lat="43.39733" lon="2.17388">
        <ele>650</ele>
        <time>2019-12-08T10:41:36Z</time>
      </trkpt>
      <trkpt lat="43.39733" lon="2.17389">
        <ele>650</ele>
        <time>2019-12-08T10:41:37Z</time>
      </trkpt>
      <trkpt lat="43.39733" lon="2.17389">
        <ele>650</ele>
        <time>2019-12-08T10:41:38Z</time>
      </trkpt>
      <trkpt lat="43.39733" lon="2.17391">
        <ele>649</ele>
        <time>2019-12-08T10:43:09Z</time>
      </trkpt>
      <trkpt lat="43.39734" lon="2.17393">
        <ele>650</ele>
        <time>2019-12-08T10:43:11Z</time>
      </trkpt>
      <trkpt lat="43.39734" lon="2.17396">
        <ele>650</ele>
        <time>2019-12-08T10:43:13Z</time>
      </trkpt>
      <trkpt lat="43.39734" lon="2.17399">
        <ele>650</ele>
        <time>2019-12-08T10:43:17Z</time>
      </trkpt>
      <trkpt lat="43.39735" lon="2.174">
        <ele>651</ele>
        <time>2019-12-08T10:43:19Z</time>
      </trkpt>
      <trkpt lat="43.39735" lon="2.174">
        <ele>651</ele>
        <time>2019-12-08T10:43:20Z</time>
      </trkpt>
      <trkpt lat="43.39734" lon="2.17403">
        <ele>651</ele>
        <time>2019-12-08T10:43:27Z</time>
      </trkpt>
      <trkpt lat="43.39734" lon="2.17404">
        <ele>651</ele>
        <time>2019-12-08T10:43:28Z</time>
      </trkpt>
      <trkpt lat="43.39734" lon="2.17406">
        <ele>651</ele>
        <time>2019-12-08T10:43:29Z</time>
      </trkpt>
      <trkpt lat="43.39736" lon="2.17406">
        <ele>651</ele>
        <time>2019-12-08T10:43:30Z</time>
      </trkpt>
      <trkpt lat="43.39741" lon="2.17408">
        <ele>651</ele>
        <time>2019-12-08T10:43:39Z</time>
      </trkpt>
      <trkpt lat="43.39743" lon="2.17409">
        <ele>652</ele>
        <time>2019-12-08T10:43:44Z</time>
      </trkpt>
      <trkpt lat="43.39745" lon="2.17412">
        <ele>652</ele>
        <time>2019-12-08T10:44:50Z</time>
      </trkpt>
      <trkpt lat="43.39745" lon="2.17413">
        <ele>652</ele>
        <time>2019-12-08T10:44:51Z</time>
      </trkpt>
      <trkpt lat="43.39745" lon="2.17414">
        <ele>652</ele>
        <time>2019-12-08T10:44:52Z</time>
      </trkpt>
      <trkpt lat="43.39746" lon="2.17415">
        <ele>652</ele>
        <time>2019-12-08T10:44:54Z</time>
      </trkpt>
      <trkpt lat="43.39746" lon="2.17417">
        <ele>653</ele>
        <time>2019-12-08T10:44:55Z</time>
      </trkpt>
      <trkpt lat="43.39748" lon="2.17421">
        <ele>653</ele>
        <time>2019-12-08T10:44:58Z</time>
      </trkpt>
      <trkpt lat="43.39748" lon="2.17422">
        <ele>654</ele>
        <time>2019-12-08T10:44:59Z</time>
      </trkpt>
      <trkpt lat="43.3975" lon="2.17427">
        <ele>654</ele>
        <time>2019-12-08T10:45:03Z</time>
      </trkpt>
      <trkpt lat="43.39751" lon="2.17428">
        <ele>654</ele>
        <time>2019-12-08T10:45:04Z</time>
      </trkpt>
      <trkpt lat="43.39752" lon="2.1743">
        <ele>654</ele>
        <time>2019-12-08T10:45:06Z</time>
      </trkpt>
      <trkpt lat="43.39754" lon="2.17435">
        <ele>655</ele>
        <time>2019-12-08T10:45:09Z</time>
      </trkpt>
      <trkpt lat="43.39754" lon="2.17438">
        <ele>655</ele>
        <time>2019-12-08T10:45:10Z</time>
      </trkpt>
      <trkpt lat="43.39755" lon="2.1744">
        <ele>655</ele>
        <time>2019-12-08T10:45:11Z</time>
      </trkpt>
      <trkpt lat="43.39757" lon="2.17443">
        <ele>655</ele>
        <time>2019-12-08T10:45:13Z</time>
      </trkpt>
      <trkpt lat="43.39761" lon="2.17447">
        <ele>655</ele>
        <time>2019-12-08T10:45:16Z</time>
      </trkpt>
      <trkpt lat="43.39766" lon="2.17456">
        <ele>656</ele>
        <time>2019-12-08T10:45:21Z</time>
      </trkpt>
      <trkpt lat="43.39767" lon="2.17458">
        <ele>656</ele>
        <time>2019-12-08T10:45:22Z</time>
      </trkpt>
      <trkpt lat="43.39768" lon="2.17459">
        <ele>656</ele>
        <time>2019-12-08T10:45:23Z</time>
      </trkpt>
      <trkpt lat="43.39769" lon="2.17463">
        <ele>656</ele>
        <time>2019-12-08T10:45:25Z</time>
      </trkpt>
      <trkpt lat="43.39769" lon="2.17465">
        <ele>656</ele>
        <time>2019-12-08T10:45:26Z</time>
      </trkpt>
      <trkpt lat="43.39772" lon="2.1747">
        <ele>656</ele>
        <time>2019-12-08T10:45:30Z</time>
      </trkpt>
      <trkpt lat="43.39778" lon="2.17479">
        <ele>656</ele>
        <time>2019-12-08T10:45:34Z</time>
      </trkpt>
      <trkpt lat="43.39782" lon="2.17487">
        <ele>656</ele>
        <time>2019-12-08T10:45:38Z</time>
      </trkpt>
      <trkpt lat="43.39788" lon="2.17499">
        <ele>656</ele>
        <time>2019-12-08T10:45:43Z</time>
      </trkpt>
      <trkpt lat="43.39789" lon="2.175">
        <ele>656</ele>
        <time>2019-12-08T10:45:44Z</time>
      </trkpt>
      <trkpt lat="43.39793" lon="2.1751">
        <ele>656</ele>
        <time>2019-12-08T10:45:49Z</time>
      </trkpt>
      <trkpt lat="43.39797" lon="2.17519">
        <ele>656</ele>
        <time>2019-12-08T10:45:54Z</time>
      </trkpt>
      <trkpt lat="43.398" lon="2.17536">
        <ele>656</ele>
        <time>2019-12-08T10:45:58Z</time>
      </trkpt>
      <trkpt lat="43.398" lon="2.1754">
        <ele>656</ele>
        <time>2019-12-08T10:45:59Z</time>
      </trkpt>
      <trkpt lat="43.39802" lon="2.17551">
        <ele>656</ele>
        <time>2019-12-08T10:46:03Z</time>
      </trkpt>
      <trkpt lat="43.39803" lon="2.1756">
        <ele>657</ele>
        <time>2019-12-08T10:46:07Z</time>
      </trkpt>
      <trkpt lat="43.39803" lon="2.17563">
        <ele>657</ele>
        <time>2019-12-08T10:46:08Z</time>
      </trkpt>
      <trkpt lat="43.39804" lon="2.17577">
        <ele>657</ele>
        <time>2019-12-08T10:46:13Z</time>
      </trkpt>
      <trkpt lat="43.39807" lon="2.17599">
        <ele>656</ele>
        <time>2019-12-08T10:46:19Z</time>
      </trkpt>
      <trkpt lat="43.39807" lon="2.17603">
        <ele>655</ele>
        <time>2019-12-08T10:46:20Z</time>
      </trkpt>
      <trkpt lat="43.39806" lon="2.17609">
        <ele>655</ele>
        <time>2019-12-08T10:46:22Z</time>
      </trkpt>
      <trkpt lat="43.39807" lon="2.17612">
        <ele>655</ele>
        <time>2019-12-08T10:46:23Z</time>
      </trkpt>
      <trkpt lat="43.3981" lon="2.1762">
        <ele>654</ele>
        <time>2019-12-08T10:46:25Z</time>
      </trkpt>
      <trkpt lat="43.39812" lon="2.17629">
        <ele>653</ele>
        <time>2019-12-08T10:46:27Z</time>
      </trkpt>
      <trkpt lat="43.39813" lon="2.17634">
        <ele>653</ele>
        <time>2019-12-08T10:46:28Z</time>
      </trkpt>
      <trkpt lat="43.39814" lon="2.17642">
        <ele>651</ele>
        <time>2019-12-08T10:46:30Z</time>
      </trkpt>
      <trkpt lat="43.39816" lon="2.17653">
        <ele>650</ele>
        <time>2019-12-08T10:46:33Z</time>
      </trkpt>
      <trkpt lat="43.39817" lon="2.17664">
        <ele>650</ele>
        <time>2019-12-08T10:46:36Z</time>
      </trkpt>
      <trkpt lat="43.39818" lon="2.17674">
        <ele>650</ele>
        <time>2019-12-08T10:46:38Z</time>
      </trkpt>
      <trkpt lat="43.39818" lon="2.17689">
        <ele>650</ele>
        <time>2019-12-08T10:46:43Z</time>
      </trkpt>
      <trkpt lat="43.39823" lon="2.17697">
        <ele>649</ele>
        <time>2019-12-08T10:47:02Z</time>
      </trkpt>
      <trkpt lat="43.39823" lon="2.17692">
        <ele>649</ele>
        <time>2019-12-08T10:47:04Z</time>
      </trkpt>
      <trkpt lat="43.39825" lon="2.17689">
        <ele>649</ele>
        <time>2019-12-08T10:47:06Z</time>
      </trkpt>
      <trkpt lat="43.39826" lon="2.17686">
        <ele>650</ele>
        <time>2019-12-08T10:47:09Z</time>
      </trkpt>
      <trkpt lat="43.39828" lon="2.1769">
        <ele>649</ele>
        <time>2019-12-08T10:47:11Z</time>
      </trkpt>
      <trkpt lat="43.39831" lon="2.17693">
        <ele>649</ele>
        <time>2019-12-08T10:47:13Z</time>
      </trkpt>
      <trkpt lat="43.39832" lon="2.17694">
        <ele>649</ele>
        <time>2019-12-08T10:47:14Z</time>
      </trkpt>
      <trkpt lat="43.39834" lon="2.17696">
        <ele>648</ele>
        <time>2019-12-08T10:47:16Z</time>
      </trkpt>
      <trkpt lat="43.39835" lon="2.17695">
        <ele>648</ele>
        <time>2019-12-08T10:47:18Z</time>
      </trkpt>
      <trkpt lat="43.39837" lon="2.17694">
        <ele>648</ele>
        <time>2019-12-08T10:47:19Z</time>
      </trkpt>
      <trkpt lat="43.3984" lon="2.17694">
        <ele>648</ele>
        <time>2019-12-08T10:47:24Z</time>
      </trkpt>
      <trkpt lat="43.3984" lon="2.17694">
        <ele>649</ele>
        <time>2019-12-08T10:47:25Z</time>
      </trkpt>
      <trkpt lat="43.3984" lon="2.17694">
        <ele>649</ele>
        <time>2019-12-08T10:47:26Z</time>
      </trkpt>
      <trkpt lat="43.39842" lon="2.17694">
        <ele>649</ele>
        <time>2019-12-08T10:47:29Z</time>
      </trkpt>
      <trkpt lat="43.39843" lon="2.17694">
        <ele>649</ele>
        <time>2019-12-08T10:47:30Z</time>
      </trkpt>
      <trkpt lat="43.39846" lon="2.17692">
        <ele>649</ele>
        <time>2019-12-08T10:47:33Z</time>
      </trkpt>
      <trkpt lat="43.3985" lon="2.17688">
        <ele>650</ele>
        <time>2019-12-08T10:47:36Z</time>
      </trkpt>
      <trkpt lat="43.39852" lon="2.17685">
        <ele>650</ele>
        <time>2019-12-08T10:47:38Z</time>
      </trkpt>
      <trkpt lat="43.39855" lon="2.17684">
        <ele>650</ele>
        <time>2019-12-08T10:47:41Z</time>
      </trkpt>
      <trkpt lat="43.39857" lon="2.17684">
        <ele>650</ele>
        <time>2019-12-08T10:47:42Z</time>
      </trkpt>
      <trkpt lat="43.39861" lon="2.17685">
        <ele>650</ele>
        <time>2019-12-08T10:47:44Z</time>
      </trkpt>
      <trkpt lat="43.39863" lon="2.17682">
        <ele>650</ele>
        <time>2019-12-08T10:47:46Z</time>
      </trkpt>
      <trkpt lat="43.39868" lon="2.17679">
        <ele>651</ele>
        <time>2019-12-08T10:47:50Z</time>
      </trkpt>
      <trkpt lat="43.39869" lon="2.17677">
        <ele>651</ele>
        <time>2019-12-08T10:47:51Z</time>
      </trkpt>
      <trkpt lat="43.3987" lon="2.17673">
        <ele>652</ele>
        <time>2019-12-08T10:47:53Z</time>
      </trkpt>
      <trkpt lat="43.39871" lon="2.1767">
        <ele>652</ele>
        <time>2019-12-08T10:47:54Z</time>
      </trkpt>
      <trkpt lat="43.39873" lon="2.17667">
        <ele>653</ele>
        <time>2019-12-08T10:47:56Z</time>
      </trkpt>
      <trkpt lat="43.39877" lon="2.1766">
        <ele>653</ele>
        <time>2019-12-08T10:47:59Z</time>
      </trkpt>
      <trkpt lat="43.39881" lon="2.17655">
        <ele>654</ele>
        <time>2019-12-08T10:48:02Z</time>
      </trkpt>
      <trkpt lat="43.39883" lon="2.17653">
        <ele>654</ele>
        <time>2019-12-08T10:48:03Z</time>
      </trkpt>
      <trkpt lat="43.39884" lon="2.17651">
        <ele>654</ele>
        <time>2019-12-08T10:48:04Z</time>
      </trkpt>
      <trkpt lat="43.39887" lon="2.17639">
        <ele>655</ele>
        <time>2019-12-08T10:48:08Z</time>
      </trkpt>
      <trkpt lat="43.39888" lon="2.17637">
        <ele>655</ele>
        <time>2019-12-08T10:48:09Z</time>
      </trkpt>
      <trkpt lat="43.3989" lon="2.17623">
        <ele>655</ele>
        <time>2019-12-08T10:48:14Z</time>
      </trkpt>
      <trkpt lat="43.39891" lon="2.17615">
        <ele>655</ele>
        <time>2019-12-08T10:48:17Z</time>
      </trkpt>
      <trkpt lat="43.39892" lon="2.17609">
        <ele>655</ele>
        <time>2019-12-08T10:48:19Z</time>
      </trkpt>
      <trkpt lat="43.39893" lon="2.17594">
        <ele>655</ele>
        <time>2019-12-08T10:48:23Z</time>
      </trkpt>
      <trkpt lat="43.39893" lon="2.17589">
        <ele>655</ele>
        <time>2019-12-08T10:48:24Z</time>
      </trkpt>
      <trkpt lat="43.39888" lon="2.17574">
        <ele>655</ele>
        <time>2019-12-08T10:48:27Z</time>
      </trkpt>
      <trkpt lat="43.39886" lon="2.1757">
        <ele>655</ele>
        <time>2019-12-08T10:48:28Z</time>
      </trkpt>
      <trkpt lat="43.39885" lon="2.17564">
        <ele>654</ele>
        <time>2019-12-08T10:48:29Z</time>
      </trkpt>
      <trkpt lat="43.39885" lon="2.17553">
        <ele>654</ele>
        <time>2019-12-08T10:48:31Z</time>
      </trkpt>
      <trkpt lat="43.39886" lon="2.17549">
        <ele>653</ele>
        <time>2019-12-08T10:48:32Z</time>
      </trkpt>
      <trkpt lat="43.39888" lon="2.17545">
        <ele>653</ele>
        <time>2019-12-08T10:48:33Z</time>
      </trkpt>
      <trkpt lat="43.39891" lon="2.17538">
        <ele>651</ele>
        <time>2019-12-08T10:48:35Z</time>
      </trkpt>
      <trkpt lat="43.39893" lon="2.17537">
        <ele>651</ele>
        <time>2019-12-08T10:48:36Z</time>
      </trkpt>
      <trkpt lat="43.39899" lon="2.17531">
        <ele>651</ele>
        <time>2019-12-08T10:48:39Z</time>
      </trkpt>
      <trkpt lat="43.3991" lon="2.17516">
        <ele>651</ele>
        <time>2019-12-08T10:48:43Z</time>
      </trkpt>
      <trkpt lat="43.39924" lon="2.17506">
        <ele>651</ele>
        <time>2019-12-08T10:48:48Z</time>
      </trkpt>
      <trkpt lat="43.39937" lon="2.17498">
        <ele>651</ele>
        <time>2019-12-08T10:48:52Z</time>
      </trkpt>
      <trkpt lat="43.39951" lon="2.1749">
        <ele>651</ele>
        <time>2019-12-08T10:48:57Z</time>
      </trkpt>
      <trkpt lat="43.39964" lon="2.17484">
        <ele>651</ele>
        <time>2019-12-08T10:49:02Z</time>
      </trkpt>
      <trkpt lat="43.39967" lon="2.17483">
        <ele>651</ele>
        <time>2019-12-08T10:49:03Z</time>
      </trkpt>
      <trkpt lat="43.39976" lon="2.17476">
        <ele>652</ele>
        <time>2019-12-08T10:49:06Z</time>
      </trkpt>
      <trkpt lat="43.39981" lon="2.17474">
        <ele>652</ele>
        <time>2019-12-08T10:49:08Z</time>
      </trkpt>
      <trkpt lat="43.39988" lon="2.17472">
        <ele>652</ele>
        <time>2019-12-08T10:49:10Z</time>
      </trkpt>
      <trkpt lat="43.40004" lon="2.17467">
        <ele>653</ele>
        <time>2019-12-08T10:49:15Z</time>
      </trkpt>
      <trkpt lat="43.40006" lon="2.17465">
        <ele>653</ele>
        <time>2019-12-08T10:49:16Z</time>
      </trkpt>
      <trkpt lat="43.40015" lon="2.17462">
        <ele>653</ele>
        <time>2019-12-08T10:49:19Z</time>
      </trkpt>
      <trkpt lat="43.40018" lon="2.17462">
        <ele>653</ele>
        <time>2019-12-08T10:49:20Z</time>
      </trkpt>
      <trkpt lat="43.40031" lon="2.17461">
        <ele>653</ele>
        <time>2019-12-08T10:49:24Z</time>
      </trkpt>
      <trkpt lat="43.40045" lon="2.17469">
        <ele>653</ele>
        <time>2019-12-08T10:49:29Z</time>
      </trkpt>
      <trkpt lat="43.40056" lon="2.17476">
        <ele>653</ele>
        <time>2019-12-08T10:49:34Z</time>
      </trkpt>
      <trkpt lat="43.40063" lon="2.17478">
        <ele>653</ele>
        <time>2019-12-08T10:49:38Z</time>
      </trkpt>
      <trkpt lat="43.40066" lon="2.17481">
        <ele>652</ele>
        <time>2019-12-08T10:49:40Z</time>
      </trkpt>
      <trkpt lat="43.40071" lon="2.1749">
        <ele>652</ele>
        <time>2019-12-08T10:49:44Z</time>
      </trkpt>
      <trkpt lat="43.40072" lon="2.17494">
        <ele>652</ele>
        <time>2019-12-08T10:49:45Z</time>
      </trkpt>
      <trkpt lat="43.40075" lon="2.17502">
        <ele>651</ele>
        <time>2019-12-08T10:49:47Z</time>
      </trkpt>
      <trkpt lat="43.40076" lon="2.17507">
        <ele>651</ele>
        <time>2019-12-08T10:49:48Z</time>
      </trkpt>
      <trkpt lat="43.40079" lon="2.1751">
        <ele>651</ele>
        <time>2019-12-08T10:49:49Z</time>
      </trkpt>
      <trkpt lat="43.40082" lon="2.17512">
        <ele>650</ele>
        <time>2019-12-08T10:49:50Z</time>
      </trkpt>
      <trkpt lat="43.40085" lon="2.17513">
        <ele>650</ele>
        <time>2019-12-08T10:49:51Z</time>
      </trkpt>
      <trkpt lat="43.40092" lon="2.17512">
        <ele>650</ele>
        <time>2019-12-08T10:49:54Z</time>
      </trkpt>
      <trkpt lat="43.40094" lon="2.17509">
        <ele>649</ele>
        <time>2019-12-08T10:49:56Z</time>
      </trkpt>
      <trkpt lat="43.40097" lon="2.17508">
        <ele>649</ele>
        <time>2019-12-08T10:49:58Z</time>
      </trkpt>
      <trkpt lat="43.40104" lon="2.17512">
        <ele>650</ele>
        <time>2019-12-08T10:50:03Z</time>
      </trkpt>
      <trkpt lat="43.40115" lon="2.17513">
        <ele>651</ele>
        <time>2019-12-08T10:50:08Z</time>
      </trkpt>
      <trkpt lat="43.40132" lon="2.17509">
        <ele>651</ele>
        <time>2019-12-08T10:50:14Z</time>
      </trkpt>
      <trkpt lat="43.40144" lon="2.17507">
        <ele>651</ele>
        <time>2019-12-08T10:50:19Z</time>
      </trkpt>
      <trkpt lat="43.40157" lon="2.17503">
        <ele>652</ele>
        <time>2019-12-08T10:50:25Z</time>
      </trkpt>
      <trkpt lat="43.4016" lon="2.17502">
        <ele>652</ele>
        <time>2019-12-08T10:50:27Z</time>
      </trkpt>
      <trkpt lat="43.40162" lon="2.17503">
        <ele>652</ele>
        <time>2019-12-08T10:50:29Z</time>
      </trkpt>
      <trkpt lat="43.40163" lon="2.17504">
        <ele>652</ele>
        <time>2019-12-08T10:50:30Z</time>
      </trkpt>
      <trkpt lat="43.40166" lon="2.17505">
        <ele>652</ele>
        <time>2019-12-08T10:50:32Z</time>
      </trkpt>
      <trkpt lat="43.40168" lon="2.17508">
        <ele>652</ele>
        <time>2019-12-08T10:50:34Z</time>
      </trkpt>
      <trkpt lat="43.40168" lon="2.17508">
        <ele>652</ele>
        <time>2019-12-08T10:50:35Z</time>
      </trkpt>
      <trkpt lat="43.4017" lon="2.1751">
        <ele>653</ele>
        <time>2019-12-08T10:50:38Z</time>
      </trkpt>
      <trkpt lat="43.40174" lon="2.17516">
        <ele>653</ele>
        <time>2019-12-08T10:50:44Z</time>
      </trkpt>
      <trkpt lat="43.40174" lon="2.17516">
        <ele>653</ele>
        <time>2019-12-08T10:50:45Z</time>
      </trkpt>
      <trkpt lat="43.40175" lon="2.17516">
        <ele>653</ele>
        <time>2019-12-08T10:50:53Z</time>
      </trkpt>
      <trkpt lat="43.40176" lon="2.17517">
        <ele>653</ele>
        <time>2019-12-08T10:50:55Z</time>
      </trkpt>
      <trkpt lat="43.40179" lon="2.17518">
        <ele>653</ele>
        <time>2019-12-08T10:50:58Z</time>
      </trkpt>
      <trkpt lat="43.40187" lon="2.17516">
        <ele>653</ele>
        <time>2019-12-08T10:51:02Z</time>
      </trkpt>
      <trkpt lat="43.40189" lon="2.17517">
        <ele>653</ele>
        <time>2019-12-08T10:51:03Z</time>
      </trkpt>
      <trkpt lat="43.40196" lon="2.17518">
        <ele>653</ele>
        <time>2019-12-08T10:51:07Z</time>
      </trkpt>
      <trkpt lat="43.40203" lon="2.17524">
        <ele>654</ele>
        <time>2019-12-08T10:51:12Z</time>
      </trkpt>
      <trkpt lat="43.40206" lon="2.17529">
        <ele>654</ele>
        <time>2019-12-08T10:51:15Z</time>
      </trkpt>
      <trkpt lat="43.40209" lon="2.17532">
        <ele>655</ele>
        <time>2019-12-08T10:51:17Z</time>
      </trkpt>
      <trkpt lat="43.40215" lon="2.17535">
        <ele>655</ele>
        <time>2019-12-08T10:51:20Z</time>
      </trkpt>
      <trkpt lat="43.4022" lon="2.17536">
        <ele>656</ele>
        <time>2019-12-08T10:51:23Z</time>
      </trkpt>
      <trkpt lat="43.40222" lon="2.17537">
        <ele>656</ele>
        <time>2019-12-08T10:51:24Z</time>
      </trkpt>
      <trkpt lat="43.40225" lon="2.17539">
        <ele>656</ele>
        <time>2019-12-08T10:51:26Z</time>
      </trkpt>
      <trkpt lat="43.40227" lon="2.17539">
        <ele>657</ele>
        <time>2019-12-08T10:51:27Z</time>
      </trkpt>
      <trkpt lat="43.40236" lon="2.17541">
        <ele>657</ele>
        <time>2019-12-08T10:51:32Z</time>
      </trkpt>
      <trkpt lat="43.40238" lon="2.17542">
        <ele>657</ele>
        <time>2019-12-08T10:51:33Z</time>
      </trkpt>
      <trkpt lat="43.40241" lon="2.17543">
        <ele>658</ele>
        <time>2019-12-08T10:51:35Z</time>
      </trkpt>
      <trkpt lat="43.40245" lon="2.17545">
        <ele>658</ele>
        <time>2019-12-08T10:51:37Z</time>
      </trkpt>
      <trkpt lat="43.40247" lon="2.17546">
        <ele>658</ele>
        <time>2019-12-08T10:51:38Z</time>
      </trkpt>
      <trkpt lat="43.40251" lon="2.17547">
        <ele>659</ele>
        <time>2019-12-08T10:51:40Z</time>
      </trkpt>
      <trkpt lat="43.40254" lon="2.17548">
        <ele>659</ele>
        <time>2019-12-08T10:51:42Z</time>
      </trkpt>
      <trkpt lat="43.40263" lon="2.17553">
        <ele>660</ele>
        <time>2019-12-08T10:51:47Z</time>
      </trkpt>
      <trkpt lat="43.40266" lon="2.17553">
        <ele>660</ele>
        <time>2019-12-08T10:51:48Z</time>
      </trkpt>
      <trkpt lat="43.40268" lon="2.17554">
        <ele>660</ele>
        <time>2019-12-08T10:51:49Z</time>
      </trkpt>
      <trkpt lat="43.40274" lon="2.17558">
        <ele>660</ele>
        <time>2019-12-08T10:51:52Z</time>
      </trkpt>
      <trkpt lat="43.40285" lon="2.17562">
        <ele>661</ele>
        <time>2019-12-08T10:51:57Z</time>
      </trkpt>
      <trkpt lat="43.40287" lon="2.17563">
        <ele>661</ele>
        <time>2019-12-08T10:51:58Z</time>
      </trkpt>
      <trkpt lat="43.40297" lon="2.17568">
        <ele>661</ele>
        <time>2019-12-08T10:52:02Z</time>
      </trkpt>
      <trkpt lat="43.40308" lon="2.17575">
        <ele>661</ele>
        <time>2019-12-08T10:52:06Z</time>
      </trkpt>
      <trkpt lat="43.40322" lon="2.17588">
        <ele>661</ele>
        <time>2019-12-08T10:52:12Z</time>
      </trkpt>
      <trkpt lat="43.40336" lon="2.17596">
        <ele>661</ele>
        <time>2019-12-08T10:52:17Z</time>
      </trkpt>
      <trkpt lat="43.40352" lon="2.17604">
        <ele>660</ele>
        <time>2019-12-08T10:52:22Z</time>
      </trkpt>
      <trkpt lat="43.40358" lon="2.17609">
        <ele>660</ele>
        <time>2019-12-08T10:52:24Z</time>
      </trkpt>
      <trkpt lat="43.40365" lon="2.17613">
        <ele>659</ele>
        <time>2019-12-08T10:52:26Z</time>
      </trkpt>
      <trkpt lat="43.40369" lon="2.17615">
        <ele>659</ele>
        <time>2019-12-08T10:52:27Z</time>
      </trkpt>
      <trkpt lat="43.40378" lon="2.17622">
        <ele>659</ele>
        <time>2019-12-08T10:52:29Z</time>
      </trkpt>
      <trkpt lat="43.40386" lon="2.17629">
        <ele>658</ele>
        <time>2019-12-08T10:52:31Z</time>
      </trkpt>
      <trkpt lat="43.4039" lon="2.17633">
        <ele>658</ele>
        <time>2019-12-08T10:52:32Z</time>
      </trkpt>
      <trkpt lat="43.40395" lon="2.1764">
        <ele>658</ele>
        <time>2019-12-08T10:52:34Z</time>
      </trkpt>
      <trkpt lat="43.404" lon="2.17665">
        <ele>658</ele>
        <time>2019-12-08T10:52:40Z</time>
      </trkpt>
      <trkpt lat="43.40403" lon="2.17668">
        <ele>658</ele>
        <time>2019-12-08T10:52:41Z</time>
      </trkpt>
      <trkpt lat="43.40407" lon="2.17668">
        <ele>658</ele>
        <time>2019-12-08T10:52:43Z</time>
      </trkpt>
      <trkpt lat="43.40415" lon="2.17665">
        <ele>658</ele>
        <time>2019-12-08T10:52:46Z</time>
      </trkpt>
      <trkpt lat="43.40422" lon="2.17662">
        <ele>658</ele>
        <time>2019-12-08T10:52:48Z</time>
      </trkpt>
      <trkpt lat="43.40429" lon="2.1766">
        <ele>657</ele>
        <time>2019-12-08T10:52:50Z</time>
      </trkpt>
      <trkpt lat="43.4044" lon="2.17657">
        <ele>656</ele>
        <time>2019-12-08T10:52:53Z</time>
      </trkpt>
      <trkpt lat="43.40448" lon="2.17655">
        <ele>656</ele>
        <time>2019-12-08T10:52:55Z</time>
      </trkpt>
      <trkpt lat="43.40461" lon="2.17651">
        <ele>655</ele>
        <time>2019-12-08T10:52:58Z</time>
      </trkpt>
      <trkpt lat="43.40471" lon="2.17649">
        <ele>655</ele>
        <time>2019-12-08T10:53:00Z</time>
      </trkpt>
      <trkpt lat="43.40476" lon="2.17649">
        <ele>655</ele>
        <time>2019-12-08T10:53:01Z</time>
      </trkpt>
      <trkpt lat="43.40481" lon="2.17648">
        <ele>655</ele>
        <time>2019-12-08T10:53:02Z</time>
      </trkpt>
      <trkpt lat="43.4049" lon="2.17648">
        <ele>654</ele>
        <time>2019-12-08T10:53:04Z</time>
      </trkpt>
      <trkpt lat="43.40492" lon="2.1765">
        <ele>653</ele>
        <time>2019-12-08T10:53:05Z</time>
      </trkpt>
      <trkpt lat="43.40495" lon="2.17653">
        <ele>653</ele>
        <time>2019-12-08T10:53:06Z</time>
      </trkpt>
      <trkpt lat="43.405" lon="2.17662">
        <ele>652</ele>
        <time>2019-12-08T10:53:08Z</time>
      </trkpt>
      <trkpt lat="43.40504" lon="2.17673">
        <ele>652</ele>
        <time>2019-12-08T10:53:10Z</time>
      </trkpt>
      <trkpt lat="43.4051" lon="2.17685">
        <ele>651</ele>
        <time>2019-12-08T10:53:13Z</time>
      </trkpt>
      <trkpt lat="43.40512" lon="2.17689">
        <ele>651</ele>
        <time>2019-12-08T10:53:14Z</time>
      </trkpt>
      <trkpt lat="43.40522" lon="2.17702">
        <ele>650</ele>
        <time>2019-12-08T10:53:18Z</time>
      </trkpt>
      <trkpt lat="43.40524" lon="2.17706">
        <ele>650</ele>
        <time>2019-12-08T10:53:19Z</time>
      </trkpt>
      <trkpt lat="43.40526" lon="2.17709">
        <ele>650</ele>
        <time>2019-12-08T10:53:20Z</time>
      </trkpt>
      <trkpt lat="43.40531" lon="2.17716">
        <ele>650</ele>
        <time>2019-12-08T10:53:22Z</time>
      </trkpt>
      <trkpt lat="43.40533" lon="2.17721">
        <ele>650</ele>
        <time>2019-12-08T10:53:23Z</time>
      </trkpt>
      <trkpt lat="43.40539" lon="2.17744">
        <ele>650</ele>
        <time>2019-12-08T10:53:28Z</time>
      </trkpt>
      <trkpt lat="43.40542" lon="2.17755">
        <ele>651</ele>
        <time>2019-12-08T10:53:31Z</time>
      </trkpt>
      <trkpt lat="43.40546" lon="2.17766">
        <ele>651</ele>
        <time>2019-12-08T10:53:34Z</time>
      </trkpt>
      <trkpt lat="43.40547" lon="2.17769">
        <ele>651</ele>
        <time>2019-12-08T10:53:35Z</time>
      </trkpt>
      <trkpt lat="43.4055" lon="2.17774">
        <ele>652</ele>
        <time>2019-12-08T10:53:37Z</time>
      </trkpt>
      <trkpt lat="43.40553" lon="2.17778">
        <ele>652</ele>
        <time>2019-12-08T10:53:39Z</time>
      </trkpt>
      <trkpt lat="43.40556" lon="2.17782">
        <ele>652</ele>
        <time>2019-12-08T10:53:42Z</time>
      </trkpt>
      <trkpt lat="43.40558" lon="2.17784">
        <ele>652</ele>
        <time>2019-12-08T10:53:44Z</time>
      </trkpt>
      <trkpt lat="43.40565" lon="2.17788">
        <ele>652</ele>
        <time>2019-12-08T10:53:47Z</time>
      </trkpt>
      <trkpt lat="43.40567" lon="2.17789">
        <ele>653</ele>
        <time>2019-12-08T10:53:48Z</time>
      </trkpt>
      <trkpt lat="43.4057" lon="2.1779">
        <ele>653</ele>
        <time>2019-12-08T10:53:50Z</time>
      </trkpt>
      <trkpt lat="43.40573" lon="2.17789">
        <ele>655</ele>
        <time>2019-12-08T10:53:52Z</time>
      </trkpt>
      <trkpt lat="43.40575" lon="2.17789">
        <ele>655</ele>
        <time>2019-12-08T10:53:53Z</time>
      </trkpt>
      <trkpt lat="43.40577" lon="2.17788">
        <ele>656</ele>
        <time>2019-12-08T10:53:55Z</time>
      </trkpt>
      <trkpt lat="43.40581" lon="2.17787">
        <ele>656</ele>
        <time>2019-12-08T10:54:05Z</time>
      </trkpt>
      <trkpt lat="43.40584" lon="2.17787">
        <ele>656</ele>
        <time>2019-12-08T10:54:07Z</time>
      </trkpt>
      <trkpt lat="43.40588" lon="2.17785">
        <ele>657</ele>
        <time>2019-12-08T10:54:10Z</time>
      </trkpt>
      <trkpt lat="43.40593" lon="2.17783">
        <ele>658</ele>
        <time>2019-12-08T10:54:13Z</time>
      </trkpt>
      <trkpt lat="43.40595" lon="2.17784">
        <ele>658</ele>
        <time>2019-12-08T10:54:15Z</time>
      </trkpt>
      <trkpt lat="43.40599" lon="2.17787">
        <ele>659</ele>
        <time>2019-12-08T10:54:18Z</time>
      </trkpt>
      <trkpt lat="43.40602" lon="2.17787">
        <ele>660</ele>
        <time>2019-12-08T10:54:21Z</time>
      </trkpt>
      <trkpt lat="43.40603" lon="2.17787">
        <ele>660</ele>
        <time>2019-12-08T10:54:22Z</time>
      </trkpt>
      <trkpt lat="43.40609" lon="2.17786">
        <ele>662</ele>
        <time>2019-12-08T10:54:26Z</time>
      </trkpt>
      <trkpt lat="43.40612" lon="2.17785">
        <ele>663</ele>
        <time>2019-12-08T10:54:29Z</time>
      </trkpt>
      <trkpt lat="43.40613" lon="2.17785">
        <ele>663</ele>
        <time>2019-12-08T10:54:30Z</time>
      </trkpt>
      <trkpt lat="43.40614" lon="2.17785">
        <ele>663</ele>
        <time>2019-12-08T10:54:31Z</time>
      </trkpt>
      <trkpt lat="43.40618" lon="2.17786">
        <ele>664</ele>
        <time>2019-12-08T10:54:35Z</time>
      </trkpt>
      <trkpt lat="43.40619" lon="2.17785">
        <ele>665</ele>
        <time>2019-12-08T10:54:36Z</time>
      </trkpt>
      <trkpt lat="43.40622" lon="2.17786">
        <ele>665</ele>
        <time>2019-12-08T10:54:39Z</time>
      </trkpt>
      <trkpt lat="43.40627" lon="2.17786">
        <ele>667</ele>
        <time>2019-12-08T10:54:43Z</time>
      </trkpt>
      <trkpt lat="43.40629" lon="2.17786">
        <ele>667</ele>
        <time>2019-12-08T10:54:44Z</time>
      </trkpt>
      <trkpt lat="43.40631" lon="2.17785">
        <ele>667</ele>
        <time>2019-12-08T10:54:46Z</time>
      </trkpt>
      <trkpt lat="43.40633" lon="2.17785">
        <ele>668</ele>
        <time>2019-12-08T10:54:48Z</time>
      </trkpt>
      <trkpt lat="43.40634" lon="2.17785">
        <ele>668</ele>
        <time>2019-12-08T10:54:49Z</time>
      </trkpt>
      <trkpt lat="43.4064" lon="2.17785">
        <ele>669</ele>
        <time>2019-12-08T10:54:54Z</time>
      </trkpt>
      <trkpt lat="43.40642" lon="2.17785">
        <ele>669</ele>
        <time>2019-12-08T10:54:55Z</time>
      </trkpt>
      <trkpt lat="43.40646" lon="2.17784">
        <ele>670</ele>
        <time>2019-12-08T10:54:59Z</time>
      </trkpt>
      <trkpt lat="43.4065" lon="2.17784">
        <ele>670</ele>
        <time>2019-12-08T10:55:02Z</time>
      </trkpt>
      <trkpt lat="43.40657" lon="2.17781">
        <ele>671</ele>
        <time>2019-12-08T10:55:08Z</time>
      </trkpt>
      <trkpt lat="43.40659" lon="2.17781">
        <ele>671</ele>
        <time>2019-12-08T10:55:09Z</time>
      </trkpt>
      <trkpt lat="43.40665" lon="2.17778">
        <ele>672</ele>
        <time>2019-12-08T10:55:14Z</time>
      </trkpt>
      <trkpt lat="43.40668" lon="2.17777">
        <ele>673</ele>
        <time>2019-12-08T10:55:16Z</time>
      </trkpt>
      <trkpt lat="43.40678" lon="2.17775">
        <ele>673</ele>
        <time>2019-12-08T10:55:21Z</time>
      </trkpt>
      <trkpt lat="43.40682" lon="2.17774">
        <ele>673</ele>
        <time>2019-12-08T10:55:23Z</time>
      </trkpt>
      <trkpt lat="43.40695" lon="2.17771">
        <ele>674</ele>
        <time>2019-12-08T10:55:30Z</time>
      </trkpt>
      <trkpt lat="43.40707" lon="2.17769">
        <ele>675</ele>
        <time>2019-12-08T10:55:35Z</time>
      </trkpt>
      <trkpt lat="43.40718" lon="2.17767">
        <ele>675</ele>
        <time>2019-12-08T10:55:39Z</time>
      </trkpt>
      <trkpt lat="43.40723" lon="2.17764">
        <ele>676</ele>
        <time>2019-12-08T10:55:41Z</time>
      </trkpt>
      <trkpt lat="43.40731" lon="2.17761">
        <ele>676</ele>
        <time>2019-12-08T10:55:44Z</time>
      </trkpt>
      <trkpt lat="43.40748" lon="2.17756">
        <ele>676</ele>
        <time>2019-12-08T10:55:50Z</time>
      </trkpt>
      <trkpt lat="43.40762" lon="2.17752">
        <ele>677</ele>
        <time>2019-12-08T10:55:55Z</time>
      </trkpt>
      <trkpt lat="43.40765" lon="2.1775">
        <ele>677</ele>
        <time>2019-12-08T10:55:56Z</time>
      </trkpt>
      <trkpt lat="43.40776" lon="2.17738">
        <ele>677</ele>
        <time>2019-12-08T10:56:01Z</time>
      </trkpt>
      <trkpt lat="43.40781" lon="2.17732">
        <ele>678</ele>
        <time>2019-12-08T10:56:03Z</time>
      </trkpt>
      <trkpt lat="43.40788" lon="2.17725">
        <ele>679</ele>
        <time>2019-12-08T10:56:06Z</time>
      </trkpt>
      <trkpt lat="43.4079" lon="2.17723">
        <ele>679</ele>
        <time>2019-12-08T10:56:07Z</time>
      </trkpt>
      <trkpt lat="43.40798" lon="2.17713">
        <ele>680</ele>
        <time>2019-12-08T10:56:11Z</time>
      </trkpt>
      <trkpt lat="43.40802" lon="2.17707">
        <ele>681</ele>
        <time>2019-12-08T10:56:13Z</time>
      </trkpt>
      <trkpt lat="43.40807" lon="2.177">
        <ele>681</ele>
        <time>2019-12-08T10:56:16Z</time>
      </trkpt>
      <trkpt lat="43.4081" lon="2.17698">
        <ele>681</ele>
        <time>2019-12-08T10:56:17Z</time>
      </trkpt>
      <trkpt lat="43.4082" lon="2.17687">
        <ele>682</ele>
        <time>2019-12-08T10:56:22Z</time>
      </trkpt>
      <trkpt lat="43.40822" lon="2.17685">
        <ele>683</ele>
        <time>2019-12-08T10:56:23Z</time>
      </trkpt>
      <trkpt lat="43.4083" lon="2.17678">
        <ele>684</ele>
        <time>2019-12-08T10:56:27Z</time>
      </trkpt>
      <trkpt lat="43.40836" lon="2.17673">
        <ele>684</ele>
        <time>2019-12-08T10:56:30Z</time>
      </trkpt>
      <trkpt lat="43.40841" lon="2.17669">
        <ele>685</ele>
        <time>2019-12-08T10:56:32Z</time>
      </trkpt>
      <trkpt lat="43.40847" lon="2.17667">
        <ele>685</ele>
        <time>2019-12-08T10:56:35Z</time>
      </trkpt>
      <trkpt lat="43.40852" lon="2.17665">
        <ele>686</ele>
        <time>2019-12-08T10:56:37Z</time>
      </trkpt>
      <trkpt lat="43.40862" lon="2.17665">
        <ele>686</ele>
        <time>2019-12-08T10:56:41Z</time>
      </trkpt>
      <trkpt lat="43.4087" lon="2.17664">
        <ele>687</ele>
        <time>2019-12-08T10:56:44Z</time>
      </trkpt>
      <trkpt lat="43.40878" lon="2.17664">
        <ele>688</ele>
        <time>2019-12-08T10:56:47Z</time>
      </trkpt>
      <trkpt lat="43.40884" lon="2.17665">
        <ele>688</ele>
        <time>2019-12-08T10:56:50Z</time>
      </trkpt>
      <trkpt lat="43.40889" lon="2.17666">
        <ele>688</ele>
        <time>2019-12-08T10:56:52Z</time>
      </trkpt>
      <trkpt lat="43.40891" lon="2.17666">
        <ele>688</ele>
        <time>2019-12-08T10:56:53Z</time>
      </trkpt>
      <trkpt lat="43.40899" lon="2.17662">
        <ele>688</ele>
        <time>2019-12-08T10:56:56Z</time>
      </trkpt>
      <trkpt lat="43.40905" lon="2.17659">
        <ele>688</ele>
        <time>2019-12-08T10:56:58Z</time>
      </trkpt>
      <trkpt lat="43.40924" lon="2.17647">
        <ele>688</ele>
        <time>2019-12-08T10:57:04Z</time>
      </trkpt>
      <trkpt lat="43.40943" lon="2.17628">
        <ele>688</ele>
        <time>2019-12-08T10:57:10Z</time>
      </trkpt>
      <trkpt lat="43.40955" lon="2.17613">
        <ele>688</ele>
        <time>2019-12-08T10:57:14Z</time>
      </trkpt>
      <trkpt lat="43.40961" lon="2.17606">
        <ele>688</ele>
        <time>2019-12-08T10:57:16Z</time>
      </trkpt>
      <trkpt lat="43.40968" lon="2.17599">
        <ele>688</ele>
        <time>2019-12-08T10:57:18Z</time>
      </trkpt>
      <trkpt lat="43.40976" lon="2.17594">
        <ele>687</ele>
        <time>2019-12-08T10:57:20Z</time>
      </trkpt>
      <trkpt lat="43.40987" lon="2.17586">
        <ele>687</ele>
        <time>2019-12-08T10:57:23Z</time>
      </trkpt>
      <trkpt lat="43.40991" lon="2.17584">
        <ele>687</ele>
        <time>2019-12-08T10:57:24Z</time>
      </trkpt>
      <trkpt lat="43.41007" lon="2.17577">
        <ele>687</ele>
        <time>2019-12-08T10:57:29Z</time>
      </trkpt>
      <trkpt lat="43.41025" lon="2.17565">
        <ele>687</ele>
        <time>2019-12-08T10:57:35Z</time>
      </trkpt>
      <trkpt lat="43.41028" lon="2.17563">
        <ele>687</ele>
        <time>2019-12-08T10:57:36Z</time>
      </trkpt>
      <trkpt lat="43.41038" lon="2.17556">
        <ele>688</ele>
        <time>2019-12-08T10:57:39Z</time>
      </trkpt>
      <trkpt lat="43.41053" lon="2.17541">
        <ele>689</ele>
        <time>2019-12-08T10:57:44Z</time>
      </trkpt>
      <trkpt lat="43.41056" lon="2.17538">
        <ele>689</ele>
        <time>2019-12-08T10:57:45Z</time>
      </trkpt>
      <trkpt lat="43.41061" lon="2.17535">
        <ele>690</ele>
        <time>2019-12-08T10:57:47Z</time>
      </trkpt>
      <trkpt lat="43.41069" lon="2.17531">
        <ele>691</ele>
        <time>2019-12-08T10:57:50Z</time>
      </trkpt>
      <trkpt lat="43.41074" lon="2.17529">
        <ele>692</ele>
        <time>2019-12-08T10:57:52Z</time>
      </trkpt>
      <trkpt lat="43.41078" lon="2.17527">
        <ele>693</ele>
        <time>2019-12-08T10:57:54Z</time>
      </trkpt>
      <trkpt lat="43.41082" lon="2.17523">
        <ele>693</ele>
        <time>2019-12-08T10:57:56Z</time>
      </trkpt>
      <trkpt lat="43.4109" lon="2.17519">
        <ele>695</ele>
        <time>2019-12-08T10:57:59Z</time>
      </trkpt>
      <trkpt lat="43.41092" lon="2.17517">
        <ele>695</ele>
        <time>2019-12-08T10:58:00Z</time>
      </trkpt>
      <trkpt lat="43.41102" lon="2.1751">
        <ele>695</ele>
        <time>2019-12-08T10:58:05Z</time>
      </trkpt>
      <trkpt lat="43.41105" lon="2.17508">
        <ele>696</ele>
        <time>2019-12-08T10:58:06Z</time>
      </trkpt>
      <trkpt lat="43.41113" lon="2.17502">
        <ele>696</ele>
        <time>2019-12-08T10:58:10Z</time>
      </trkpt>
      <trkpt lat="43.41118" lon="2.17498">
        <ele>697</ele>
        <time>2019-12-08T10:58:12Z</time>
      </trkpt>
      <trkpt lat="43.41129" lon="2.17489">
        <ele>697</ele>
        <time>2019-12-08T10:58:17Z</time>
      </trkpt>
      <trkpt lat="43.41135" lon="2.17486">
        <ele>697</ele>
        <time>2019-12-08T10:58:19Z</time>
      </trkpt>
      <trkpt lat="43.41146" lon="2.17481">
        <ele>699</ele>
        <time>2019-12-08T10:58:23Z</time>
      </trkpt>
      <trkpt lat="43.41157" lon="2.17475">
        <ele>699</ele>
        <time>2019-12-08T10:58:28Z</time>
      </trkpt>
      <trkpt lat="43.41161" lon="2.17472">
        <ele>699</ele>
        <time>2019-12-08T10:58:30Z</time>
      </trkpt>
      <trkpt lat="43.41164" lon="2.17468">
        <ele>700</ele>
        <time>2019-12-08T10:58:32Z</time>
      </trkpt>
      <trkpt lat="43.41169" lon="2.17465">
        <ele>700</ele>
        <time>2019-12-08T10:58:34Z</time>
      </trkpt>
      <trkpt lat="43.41178" lon="2.17459">
        <ele>700</ele>
        <time>2019-12-08T10:58:38Z</time>
      </trkpt>
      <trkpt lat="43.41189" lon="2.17451">
        <ele>701</ele>
        <time>2019-12-08T10:58:43Z</time>
      </trkpt>
      <trkpt lat="43.41201" lon="2.17439">
        <ele>701</ele>
        <time>2019-12-08T10:58:48Z</time>
      </trkpt>
      <trkpt lat="43.41216" lon="2.17427">
        <ele>701</ele>
        <time>2019-12-08T10:58:53Z</time>
      </trkpt>
      <trkpt lat="43.4123" lon="2.17414">
        <ele>701</ele>
        <time>2019-12-08T10:58:58Z</time>
      </trkpt>
      <trkpt lat="43.4124" lon="2.17408">
        <ele>702</ele>
        <time>2019-12-08T10:59:02Z</time>
      </trkpt>
      <trkpt lat="43.41243" lon="2.17407">
        <ele>702</ele>
        <time>2019-12-08T10:59:03Z</time>
      </trkpt>
      <trkpt lat="43.4126" lon="2.17403">
        <ele>702</ele>
        <time>2019-12-08T10:59:09Z</time>
      </trkpt>
      <trkpt lat="43.41267" lon="2.17409">
        <ele>703</ele>
        <time>2019-12-08T10:59:12Z</time>
      </trkpt>
      <trkpt lat="43.41268" lon="2.17412">
        <ele>703</ele>
        <time>2019-12-08T10:59:13Z</time>
      </trkpt>
      <trkpt lat="43.41277" lon="2.17421">
        <ele>704</ele>
        <time>2019-12-08T10:59:18Z</time>
      </trkpt>
      <trkpt lat="43.41284" lon="2.17423">
        <ele>705</ele>
        <time>2019-12-08T10:59:22Z</time>
      </trkpt>
      <trkpt lat="43.41287" lon="2.17423">
        <ele>705</ele>
        <time>2019-12-08T10:59:23Z</time>
      </trkpt>
      <trkpt lat="43.4129" lon="2.17423">
        <ele>705</ele>
        <time>2019-12-08T10:59:24Z</time>
      </trkpt>
      <trkpt lat="43.41297" lon="2.17422">
        <ele>706</ele>
        <time>2019-12-08T10:59:27Z</time>
      </trkpt>
      <trkpt lat="43.41301" lon="2.17424">
        <ele>706</ele>
        <time>2019-12-08T10:59:29Z</time>
      </trkpt>
      <trkpt lat="43.41313" lon="2.17425">
        <ele>707</ele>
        <time>2019-12-08T10:59:33Z</time>
      </trkpt>
      <trkpt lat="43.41328" lon="2.17425">
        <ele>707</ele>
        <time>2019-12-08T10:59:38Z</time>
      </trkpt>
      <trkpt lat="43.41343" lon="2.17422">
        <ele>707</ele>
        <time>2019-12-08T10:59:43Z</time>
      </trkpt>
      <trkpt lat="43.41352" lon="2.17416">
        <ele>707</ele>
        <time>2019-12-08T10:59:46Z</time>
      </trkpt>
      <trkpt lat="43.41358" lon="2.17414">
        <ele>708</ele>
        <time>2019-12-08T10:59:48Z</time>
      </trkpt>
      <trkpt lat="43.41366" lon="2.17412">
        <ele>709</ele>
        <time>2019-12-08T10:59:50Z</time>
      </trkpt>
      <trkpt lat="43.41373" lon="2.1741">
        <ele>709</ele>
        <time>2019-12-08T10:59:52Z</time>
      </trkpt>
      <trkpt lat="43.41383" lon="2.17409">
        <ele>710</ele>
        <time>2019-12-08T10:59:55Z</time>
      </trkpt>
      <trkpt lat="43.41394" lon="2.17406">
        <ele>710</ele>
        <time>2019-12-08T10:59:58Z</time>
      </trkpt>
      <trkpt lat="43.41409" lon="2.17401">
        <ele>710</ele>
        <time>2019-12-08T11:00:03Z</time>
      </trkpt>
      <trkpt lat="43.41415" lon="2.17403">
        <ele>711</ele>
        <time>2019-12-08T11:00:05Z</time>
      </trkpt>
      <trkpt lat="43.4142" lon="2.17406">
        <ele>711</ele>
        <time>2019-12-08T11:00:07Z</time>
      </trkpt>
      <trkpt lat="43.41431" lon="2.17418">
        <ele>712</ele>
        <time>2019-12-08T11:00:12Z</time>
      </trkpt>
      <trkpt lat="43.41442" lon="2.17433">
        <ele>713</ele>
        <time>2019-12-08T11:00:18Z</time>
      </trkpt>
      <trkpt lat="43.41452" lon="2.17454">
        <ele>714</ele>
        <time>2019-12-08T11:00:24Z</time>
      </trkpt>
      <trkpt lat="43.41454" lon="2.17459">
        <ele>714</ele>
        <time>2019-12-08T11:00:25Z</time>
      </trkpt>
      <trkpt lat="43.41458" lon="2.1747">
        <ele>714</ele>
        <time>2019-12-08T11:00:28Z</time>
      </trkpt>
      <trkpt lat="43.4146" lon="2.17473">
        <ele>714</ele>
        <time>2019-12-08T11:00:29Z</time>
      </trkpt>
      <trkpt lat="43.41473" lon="2.1748">
        <ele>714</ele>
        <time>2019-12-08T11:00:33Z</time>
      </trkpt>
      <trkpt lat="43.41476" lon="2.17481">
        <ele>714</ele>
        <time>2019-12-08T11:00:34Z</time>
      </trkpt>
      <trkpt lat="43.41494" lon="2.17486">
        <ele>713</ele>
        <time>2019-12-08T11:00:40Z</time>
      </trkpt>
      <trkpt lat="43.41497" lon="2.17487">
        <ele>713</ele>
        <time>2019-12-08T11:00:41Z</time>
      </trkpt>
      <trkpt lat="43.41505" lon="2.17492">
        <ele>713</ele>
        <time>2019-12-08T11:00:43Z</time>
      </trkpt>
      <trkpt lat="43.41509" lon="2.17494">
        <ele>713</ele>
        <time>2019-12-08T11:00:44Z</time>
      </trkpt>
      <trkpt lat="43.41514" lon="2.17497">
        <ele>713</ele>
        <time>2019-12-08T11:00:45Z</time>
      </trkpt>
      <trkpt lat="43.41529" lon="2.17505">
        <ele>712</ele>
        <time>2019-12-08T11:00:48Z</time>
      </trkpt>
      <trkpt lat="43.41539" lon="2.17513">
        <ele>711</ele>
        <time>2019-12-08T11:00:50Z</time>
      </trkpt>
      <trkpt lat="43.41543" lon="2.17518">
        <ele>711</ele>
        <time>2019-12-08T11:00:51Z</time>
      </trkpt>
      <trkpt lat="43.41548" lon="2.17523">
        <ele>711</ele>
        <time>2019-12-08T11:00:52Z</time>
      </trkpt>
      <trkpt lat="43.41553" lon="2.17527">
        <ele>711</ele>
        <time>2019-12-08T11:00:53Z</time>
      </trkpt>
      <trkpt lat="43.41564" lon="2.17536">
        <ele>710</ele>
        <time>2019-12-08T11:00:55Z</time>
      </trkpt>
      <trkpt lat="43.4157" lon="2.17542">
        <ele>710</ele>
        <time>2019-12-08T11:00:56Z</time>
      </trkpt>
      <trkpt lat="43.41583" lon="2.17562">
        <ele>709</ele>
        <time>2019-12-08T11:00:59Z</time>
      </trkpt>
      <trkpt lat="43.4159" lon="2.17573">
        <ele>708</ele>
        <time>2019-12-08T11:01:01Z</time>
      </trkpt>
      <trkpt lat="43.41597" lon="2.17584">
        <ele>708</ele>
        <time>2019-12-08T11:01:03Z</time>
      </trkpt>
      <trkpt lat="43.41603" lon="2.17595">
        <ele>707</ele>
        <time>2019-12-08T11:01:06Z</time>
      </trkpt>
      <trkpt lat="43.41606" lon="2.17597">
        <ele>706</ele>
        <time>2019-12-08T11:01:08Z</time>
      </trkpt>
      <trkpt lat="43.41609" lon="2.17596">
        <ele>706</ele>
        <time>2019-12-08T11:01:48Z</time>
      </trkpt>
      <trkpt lat="43.41611" lon="2.17597">
        <ele>706</ele>
        <time>2019-12-08T11:01:49Z</time>
      </trkpt>
      <trkpt lat="43.41623" lon="2.17596">
        <ele>705</ele>
        <time>2019-12-08T11:01:54Z</time>
      </trkpt>
      <trkpt lat="43.41625" lon="2.17594">
        <ele>705</ele>
        <time>2019-12-08T11:01:55Z</time>
      </trkpt>
      <trkpt lat="43.4163" lon="2.1759">
        <ele>705</ele>
        <time>2019-12-08T11:01:57Z</time>
      </trkpt>
      <trkpt lat="43.41647" lon="2.17578">
        <ele>706</ele>
        <time>2019-12-08T11:02:03Z</time>
      </trkpt>
      <trkpt lat="43.41656" lon="2.17572">
        <ele>706</ele>
        <time>2019-12-08T11:02:06Z</time>
      </trkpt>
      <trkpt lat="43.41659" lon="2.1757">
        <ele>707</ele>
        <time>2019-12-08T11:02:07Z</time>
      </trkpt>
      <trkpt lat="43.41661" lon="2.17569">
        <ele>707</ele>
        <time>2019-12-08T11:02:08Z</time>
      </trkpt>
      <trkpt lat="43.41663" lon="2.17568">
        <ele>707</ele>
        <time>2019-12-08T11:02:09Z</time>
      </trkpt>
      <trkpt lat="43.41671" lon="2.17565">
        <ele>709</ele>
        <time>2019-12-08T11:02:12Z</time>
      </trkpt>
      <trkpt lat="43.41673" lon="2.17563">
        <ele>709</ele>
        <time>2019-12-08T11:02:13Z</time>
      </trkpt>
      <trkpt lat="43.41674" lon="2.17561">
        <ele>709</ele>
        <time>2019-12-08T11:02:14Z</time>
      </trkpt>
      <trkpt lat="43.41676" lon="2.1756">
        <ele>710</ele>
        <time>2019-12-08T11:02:15Z</time>
      </trkpt>
      <trkpt lat="43.41682" lon="2.17555">
        <ele>711</ele>
        <time>2019-12-08T11:02:18Z</time>
      </trkpt>
      <trkpt lat="43.41688" lon="2.1755">
        <ele>712</ele>
        <time>2019-12-08T11:02:21Z</time>
      </trkpt>
      <trkpt lat="43.4169" lon="2.17547">
        <ele>712</ele>
        <time>2019-12-08T11:02:22Z</time>
      </trkpt>
      <trkpt lat="43.41695" lon="2.17543">
        <ele>713</ele>
        <time>2019-12-08T11:02:25Z</time>
      </trkpt>
      <trkpt lat="43.41699" lon="2.17541">
        <ele>714</ele>
        <time>2019-12-08T11:02:27Z</time>
      </trkpt>
      <trkpt lat="43.41707" lon="2.17536">
        <ele>714</ele>
        <time>2019-12-08T11:02:31Z</time>
      </trkpt>
      <trkpt lat="43.41713" lon="2.17532">
        <ele>715</ele>
        <time>2019-12-08T11:02:34Z</time>
      </trkpt>
      <trkpt lat="43.41721" lon="2.17527">
        <ele>716</ele>
        <time>2019-12-08T11:02:38Z</time>
      </trkpt>
      <trkpt lat="43.41724" lon="2.17525">
        <ele>716</ele>
        <time>2019-12-08T11:02:40Z</time>
      </trkpt>
      <trkpt lat="43.41732" lon="2.17519">
        <ele>717</ele>
        <time>2019-12-08T11:02:44Z</time>
      </trkpt>
      <trkpt lat="43.41736" lon="2.17516">
        <ele>717</ele>
        <time>2019-12-08T11:02:46Z</time>
      </trkpt>
      <trkpt lat="43.41747" lon="2.17506">
        <ele>718</ele>
        <time>2019-12-08T11:02:52Z</time>
      </trkpt>
      <trkpt lat="43.41753" lon="2.175">
        <ele>718</ele>
        <time>2019-12-08T11:02:55Z</time>
      </trkpt>
      <trkpt lat="43.41761" lon="2.17491">
        <ele>719</ele>
        <time>2019-12-08T11:02:59Z</time>
      </trkpt>
      <trkpt lat="43.41762" lon="2.17489">
        <ele>719</ele>
        <time>2019-12-08T11:03:00Z</time>
      </trkpt>
      <trkpt lat="43.41769" lon="2.17479">
        <ele>720</ele>
        <time>2019-12-08T11:03:05Z</time>
      </trkpt>
      <trkpt lat="43.41777" lon="2.17462">
        <ele>720</ele>
        <time>2019-12-08T11:03:11Z</time>
      </trkpt>
      <trkpt lat="43.41784" lon="2.17448">
        <ele>720</ele>
        <time>2019-12-08T11:03:15Z</time>
      </trkpt>
      <trkpt lat="43.4179" lon="2.17434">
        <ele>720</ele>
        <time>2019-12-08T11:03:19Z</time>
      </trkpt>
      <trkpt lat="43.41799" lon="2.17415">
        <ele>721</ele>
        <time>2019-12-08T11:03:25Z</time>
      </trkpt>
      <trkpt lat="43.41809" lon="2.17396">
        <ele>721</ele>
        <time>2019-12-08T11:03:31Z</time>
      </trkpt>
      <trkpt lat="43.4181" lon="2.17393">
        <ele>722</ele>
        <time>2019-12-08T11:03:32Z</time>
      </trkpt>
      <trkpt lat="43.41817" lon="2.17376">
        <ele>722</ele>
        <time>2019-12-08T11:03:38Z</time>
      </trkpt>
      <trkpt lat="43.41822" lon="2.17361">
        <ele>722</ele>
        <time>2019-12-08T11:03:43Z</time>
      </trkpt>
      <trkpt lat="43.41823" lon="2.17357">
        <ele>722</ele>
        <time>2019-12-08T11:03:44Z</time>
      </trkpt>
      <trkpt lat="43.41829" lon="2.17344">
        <ele>723</ele>
        <time>2019-12-08T11:03:49Z</time>
      </trkpt>
      <trkpt lat="43.41834" lon="2.17335">
        <ele>724</ele>
        <time>2019-12-08T11:03:53Z</time>
      </trkpt>
      <trkpt lat="43.41836" lon="2.17333">
        <ele>724</ele>
        <time>2019-12-08T11:03:54Z</time>
      </trkpt>
      <trkpt lat="43.41836" lon="2.17329">
        <ele>724</ele>
        <time>2019-12-08T11:03:56Z</time>
      </trkpt>
      <trkpt lat="43.41837" lon="2.17322">
        <ele>724</ele>
        <time>2019-12-08T11:03:59Z</time>
      </trkpt>
      <trkpt lat="43.41839" lon="2.17319">
        <ele>724</ele>
        <time>2019-12-08T11:04:01Z</time>
      </trkpt>
      <trkpt lat="43.41839" lon="2.17317">
        <ele>724</ele>
        <time>2019-12-08T11:04:02Z</time>
      </trkpt>
      <trkpt lat="43.4184" lon="2.173">
        <ele>724</ele>
        <time>2019-12-08T11:04:08Z</time>
      </trkpt>
      <trkpt lat="43.41843" lon="2.17292">
        <ele>725</ele>
        <time>2019-12-08T11:04:11Z</time>
      </trkpt>
      <trkpt lat="43.41845" lon="2.17285">
        <ele>725</ele>
        <time>2019-12-08T11:04:14Z</time>
      </trkpt>
      <trkpt lat="43.41848" lon="2.17278">
        <ele>726</ele>
        <time>2019-12-08T11:04:18Z</time>
      </trkpt>
      <trkpt lat="43.4185" lon="2.17274">
        <ele>726</ele>
        <time>2019-12-08T11:04:20Z</time>
      </trkpt>
      <trkpt lat="43.41852" lon="2.17271">
        <ele>727</ele>
        <time>2019-12-08T11:04:23Z</time>
      </trkpt>
      <trkpt lat="43.41852" lon="2.1727">
        <ele>727</ele>
        <time>2019-12-08T11:04:25Z</time>
      </trkpt>
      <trkpt lat="43.41854" lon="2.17268">
        <ele>728</ele>
        <time>2019-12-08T11:04:27Z</time>
      </trkpt>
      <trkpt lat="43.41856" lon="2.17267">
        <ele>728</ele>
        <time>2019-12-08T11:04:29Z</time>
      </trkpt>
      <trkpt lat="43.41859" lon="2.17264">
        <ele>729</ele>
        <time>2019-12-08T11:04:31Z</time>
      </trkpt>
      <trkpt lat="43.4186" lon="2.17262">
        <ele>730</ele>
        <time>2019-12-08T11:04:32Z</time>
      </trkpt>
      <trkpt lat="43.41861" lon="2.1726">
        <ele>730</ele>
        <time>2019-12-08T11:04:33Z</time>
      </trkpt>
      <trkpt lat="43.41864" lon="2.17255">
        <ele>731</ele>
        <time>2019-12-08T11:04:36Z</time>
      </trkpt>
      <trkpt lat="43.41866" lon="2.17247">
        <ele>732</ele>
        <time>2019-12-08T11:04:40Z</time>
      </trkpt>
      <trkpt lat="43.41867" lon="2.17245">
        <ele>732</ele>
        <time>2019-12-08T11:04:41Z</time>
      </trkpt>
      <trkpt lat="43.41869" lon="2.17244">
        <ele>733</ele>
        <time>2019-12-08T11:04:42Z</time>
      </trkpt>
      <trkpt lat="43.4187" lon="2.17242">
        <ele>733</ele>
        <time>2019-12-08T11:04:43Z</time>
      </trkpt>
      <trkpt lat="43.41873" lon="2.1724">
        <ele>734</ele>
        <time>2019-12-08T11:04:46Z</time>
      </trkpt>
      <trkpt lat="43.41874" lon="2.17239">
        <ele>734</ele>
        <time>2019-12-08T11:04:47Z</time>
      </trkpt>
      <trkpt lat="43.41876" lon="2.17238">
        <ele>735</ele>
        <time>2019-12-08T11:04:49Z</time>
      </trkpt>
      <trkpt lat="43.4188" lon="2.17236">
        <ele>736</ele>
        <time>2019-12-08T11:04:52Z</time>
      </trkpt>
      <trkpt lat="43.41884" lon="2.17232">
        <ele>737</ele>
        <time>2019-12-08T11:04:55Z</time>
      </trkpt>
      <trkpt lat="43.41885" lon="2.17232">
        <ele>737</ele>
        <time>2019-12-08T11:04:56Z</time>
      </trkpt>
      <trkpt lat="43.41886" lon="2.17229">
        <ele>738</ele>
        <time>2019-12-08T11:05:00Z</time>
      </trkpt>
      <trkpt lat="43.41889" lon="2.17227">
        <ele>739</ele>
        <time>2019-12-08T11:05:04Z</time>
      </trkpt>
      <trkpt lat="43.41891" lon="2.17227">
        <ele>739</ele>
        <time>2019-12-08T11:05:06Z</time>
      </trkpt>
      <trkpt lat="43.41894" lon="2.17224">
        <ele>739</ele>
        <time>2019-12-08T11:05:10Z</time>
      </trkpt>
      <trkpt lat="43.41898" lon="2.1722">
        <ele>740</ele>
        <time>2019-12-08T11:05:15Z</time>
      </trkpt>
      <trkpt lat="43.41904" lon="2.17216">
        <ele>741</ele>
        <time>2019-12-08T11:05:22Z</time>
      </trkpt>
      <trkpt lat="43.41906" lon="2.17213">
        <ele>741</ele>
        <time>2019-12-08T11:05:25Z</time>
      </trkpt>
      <trkpt lat="43.41908" lon="2.1721">
        <ele>741</ele>
        <time>2019-12-08T11:05:28Z</time>
      </trkpt>
      <trkpt lat="43.41908" lon="2.1721">
        <ele>742</ele>
        <time>2019-12-08T11:05:29Z</time>
      </trkpt>
      <trkpt lat="43.41908" lon="2.1721">
        <ele>742</ele>
        <time>2019-12-08T11:05:30Z</time>
      </trkpt>
      <trkpt lat="43.4191" lon="2.17208">
        <ele>742</ele>
        <time>2019-12-08T11:05:46Z</time>
      </trkpt>
      <trkpt lat="43.41912" lon="2.17208">
        <ele>742</ele>
        <time>2019-12-08T11:05:48Z</time>
      </trkpt>
      <trkpt lat="43.41916" lon="2.17208">
        <ele>743</ele>
        <time>2019-12-08T11:05:50Z</time>
      </trkpt>
      <trkpt lat="43.41926" lon="2.17209">
        <ele>743</ele>
        <time>2019-12-08T11:05:56Z</time>
      </trkpt>
      <trkpt lat="43.41928" lon="2.17209">
        <ele>744</ele>
        <time>2019-12-08T11:05:57Z</time>
      </trkpt>
      <trkpt lat="43.41935" lon="2.17208">
        <ele>745</ele>
        <time>2019-12-08T11:06:02Z</time>
      </trkpt>
      <trkpt lat="43.41938" lon="2.17208">
        <ele>745</ele>
        <time>2019-12-08T11:06:04Z</time>
      </trkpt>
      <trkpt lat="43.41945" lon="2.17208">
        <ele>744</ele>
        <time>2019-12-08T11:06:08Z</time>
      </trkpt>
      <trkpt lat="43.41947" lon="2.17208">
        <ele>744</ele>
        <time>2019-12-08T11:06:09Z</time>
      </trkpt>
      <trkpt lat="43.41955" lon="2.17207">
        <ele>744</ele>
        <time>2019-12-08T11:06:11Z</time>
      </trkpt>
      <trkpt lat="43.4197" lon="2.17206">
        <ele>744</ele>
        <time>2019-12-08T11:06:15Z</time>
      </trkpt>
      <trkpt lat="43.41974" lon="2.17206">
        <ele>743</ele>
        <time>2019-12-08T11:06:16Z</time>
      </trkpt>
      <trkpt lat="43.4198" lon="2.17207">
        <ele>743</ele>
        <time>2019-12-08T11:06:17Z</time>
      </trkpt>
      <trkpt lat="43.4199" lon="2.17207">
        <ele>743</ele>
        <time>2019-12-08T11:06:19Z</time>
      </trkpt>
      <trkpt lat="43.41996" lon="2.17208">
        <ele>742</ele>
        <time>2019-12-08T11:06:21Z</time>
      </trkpt>
      <trkpt lat="43.42001" lon="2.17212">
        <ele>742</ele>
        <time>2019-12-08T11:06:22Z</time>
      </trkpt>
      <trkpt lat="43.42008" lon="2.1722">
        <ele>742</ele>
        <time>2019-12-08T11:06:24Z</time>
      </trkpt>
      <trkpt lat="43.42012" lon="2.17224">
        <ele>741</ele>
        <time>2019-12-08T11:06:25Z</time>
      </trkpt>
      <trkpt lat="43.42016" lon="2.17229">
        <ele>741</ele>
        <time>2019-12-08T11:06:26Z</time>
      </trkpt>
      <trkpt lat="43.42028" lon="2.17245">
        <ele>741</ele>
        <time>2019-12-08T11:06:29Z</time>
      </trkpt>
      <trkpt lat="43.42034" lon="2.17258">
        <ele>741</ele>
        <time>2019-12-08T11:06:31Z</time>
      </trkpt>
      <trkpt lat="43.42042" lon="2.17277">
        <ele>740</ele>
        <time>2019-12-08T11:06:34Z</time>
      </trkpt>
      <trkpt lat="43.42051" lon="2.17296">
        <ele>740</ele>
        <time>2019-12-08T11:06:37Z</time>
      </trkpt>
      <trkpt lat="43.42057" lon="2.17307">
        <ele>739</ele>
        <time>2019-12-08T11:06:39Z</time>
      </trkpt>
      <trkpt lat="43.42069" lon="2.17338">
        <ele>738</ele>
        <time>2019-12-08T11:06:44Z</time>
      </trkpt>
      <trkpt lat="43.42071" lon="2.17345">
        <ele>738</ele>
        <time>2019-12-08T11:06:45Z</time>
      </trkpt>
      <trkpt lat="43.42073" lon="2.17352">
        <ele>738</ele>
        <time>2019-12-08T11:06:46Z</time>
      </trkpt>
      <trkpt lat="43.4208" lon="2.17377">
        <ele>738</ele>
        <time>2019-12-08T11:06:50Z</time>
      </trkpt>
      <trkpt lat="43.42086" lon="2.17387">
        <ele>737</ele>
        <time>2019-12-08T11:06:53Z</time>
      </trkpt>
      <trkpt lat="43.42088" lon="2.17388">
        <ele>737</ele>
        <time>2019-12-08T11:06:54Z</time>
      </trkpt>
      <trkpt lat="43.42097" lon="2.17393">
        <ele>736</ele>
        <time>2019-12-08T11:06:57Z</time>
      </trkpt>
      <trkpt lat="43.421" lon="2.17393">
        <ele>735</ele>
        <time>2019-12-08T11:06:58Z</time>
      </trkpt>
      <trkpt lat="43.42104" lon="2.17394">
        <ele>734</ele>
        <time>2019-12-08T11:06:59Z</time>
      </trkpt>
      <trkpt lat="43.42108" lon="2.17394">
        <ele>733</ele>
        <time>2019-12-08T11:07:00Z</time>
      </trkpt>
      <trkpt lat="43.42111" lon="2.17394">
        <ele>732</ele>
        <time>2019-12-08T11:07:01Z</time>
      </trkpt>
      <trkpt lat="43.42115" lon="2.17392">
        <ele>732</ele>
        <time>2019-12-08T11:07:02Z</time>
      </trkpt>
      <trkpt lat="43.4212" lon="2.17391">
        <ele>731</ele>
        <time>2019-12-08T11:07:03Z</time>
      </trkpt>
      <trkpt lat="43.42125" lon="2.17388">
        <ele>730</ele>
        <time>2019-12-08T11:07:04Z</time>
      </trkpt>
      <trkpt lat="43.42133" lon="2.1738">
        <ele>729</ele>
        <time>2019-12-08T11:07:06Z</time>
      </trkpt>
      <trkpt lat="43.42137" lon="2.17377">
        <ele>728</ele>
        <time>2019-12-08T11:07:07Z</time>
      </trkpt>
      <trkpt lat="43.42141" lon="2.17375">
        <ele>727</ele>
        <time>2019-12-08T11:07:08Z</time>
      </trkpt>
      <trkpt lat="43.42147" lon="2.17372">
        <ele>726</ele>
        <time>2019-12-08T11:07:09Z</time>
      </trkpt>
      <trkpt lat="43.42153" lon="2.17368">
        <ele>725</ele>
        <time>2019-12-08T11:07:10Z</time>
      </trkpt>
      <trkpt lat="43.42158" lon="2.17365">
        <ele>724</ele>
        <time>2019-12-08T11:07:11Z</time>
      </trkpt>
      <trkpt lat="43.42162" lon="2.17361">
        <ele>723</ele>
        <time>2019-12-08T11:07:12Z</time>
      </trkpt>
      <trkpt lat="43.42171" lon="2.17352">
        <ele>722</ele>
        <time>2019-12-08T11:07:14Z</time>
      </trkpt>
      <trkpt lat="43.42175" lon="2.17348">
        <ele>720</ele>
        <time>2019-12-08T11:07:15Z</time>
      </trkpt>
      <trkpt lat="43.42185" lon="2.1734">
        <ele>719</ele>
        <time>2019-12-08T11:07:17Z</time>
      </trkpt>
      <trkpt lat="43.42193" lon="2.17333">
        <ele>718</ele>
        <time>2019-12-08T11:07:19Z</time>
      </trkpt>
      <trkpt lat="43.42197" lon="2.17328">
        <ele>718</ele>
        <time>2019-12-08T11:07:20Z</time>
      </trkpt>
      <trkpt lat="43.42206" lon="2.17319">
        <ele>716</ele>
        <time>2019-12-08T11:07:22Z</time>
      </trkpt>
      <trkpt lat="43.42209" lon="2.17315">
        <ele>714</ele>
        <time>2019-12-08T11:07:23Z</time>
      </trkpt>
      <trkpt lat="43.42213" lon="2.17312">
        <ele>713</ele>
        <time>2019-12-08T11:07:24Z</time>
      </trkpt>
      <trkpt lat="43.42216" lon="2.1731">
        <ele>713</ele>
        <time>2019-12-08T11:07:25Z</time>
      </trkpt>
      <trkpt lat="43.4222" lon="2.17307">
        <ele>712</ele>
        <time>2019-12-08T11:07:26Z</time>
      </trkpt>
      <trkpt lat="43.42224" lon="2.17304">
        <ele>712</ele>
        <time>2019-12-08T11:07:27Z</time>
      </trkpt>
      <trkpt lat="43.42233" lon="2.17298">
        <ele>710</ele>
        <time>2019-12-08T11:07:29Z</time>
      </trkpt>
      <trkpt lat="43.42237" lon="2.17294">
        <ele>709</ele>
        <time>2019-12-08T11:07:30Z</time>
      </trkpt>
      <trkpt lat="43.42242" lon="2.17289">
        <ele>708</ele>
        <time>2019-12-08T11:07:31Z</time>
      </trkpt>
      <trkpt lat="43.42253" lon="2.17279">
        <ele>708</ele>
        <time>2019-12-08T11:07:33Z</time>
      </trkpt>
      <trkpt lat="43.42258" lon="2.17274">
        <ele>708</ele>
        <time>2019-12-08T11:07:34Z</time>
      </trkpt>
      <trkpt lat="43.42275" lon="2.17263">
        <ele>707</ele>
        <time>2019-12-08T11:07:37Z</time>
      </trkpt>
      <trkpt lat="43.42286" lon="2.17258">
        <ele>705</ele>
        <time>2019-12-08T11:07:39Z</time>
      </trkpt>
      <trkpt lat="43.42291" lon="2.17255">
        <ele>704</ele>
        <time>2019-12-08T11:07:40Z</time>
      </trkpt>
      <trkpt lat="43.42298" lon="2.17251">
        <ele>703</ele>
        <time>2019-12-08T11:07:42Z</time>
      </trkpt>
      <trkpt lat="43.423" lon="2.17249">
        <ele>702</ele>
        <time>2019-12-08T11:07:43Z</time>
      </trkpt>
      <trkpt lat="43.42302" lon="2.17248">
        <ele>702</ele>
        <time>2019-12-08T11:07:44Z</time>
      </trkpt>
      <trkpt lat="43.42305" lon="2.17245">
        <ele>701</ele>
        <time>2019-12-08T11:07:46Z</time>
      </trkpt>
      <trkpt lat="43.42307" lon="2.17244">
        <ele>701</ele>
        <time>2019-12-08T11:07:47Z</time>
      </trkpt>
      <trkpt lat="43.42308" lon="2.17244">
        <ele>700</ele>
        <time>2019-12-08T11:07:48Z</time>
      </trkpt>
      <trkpt lat="43.42319" lon="2.1724">
        <ele>700</ele>
        <time>2019-12-08T11:07:53Z</time>
      </trkpt>
      <trkpt lat="43.42322" lon="2.17239">
        <ele>699</ele>
        <time>2019-12-08T11:07:54Z</time>
      </trkpt>
      <trkpt lat="43.42329" lon="2.17237">
        <ele>699</ele>
        <time>2019-12-08T11:07:56Z</time>
      </trkpt>
      <trkpt lat="43.42332" lon="2.17236">
        <ele>698</ele>
        <time>2019-12-08T11:07:57Z</time>
      </trkpt>
      <trkpt lat="43.42336" lon="2.17235">
        <ele>698</ele>
        <time>2019-12-08T11:07:58Z</time>
      </trkpt>
      <trkpt lat="43.42342" lon="2.17235">
        <ele>697</ele>
        <time>2019-12-08T11:08:00Z</time>
      </trkpt>
      <trkpt lat="43.42346" lon="2.17234">
        <ele>696</ele>
        <time>2019-12-08T11:08:01Z</time>
      </trkpt>
      <trkpt lat="43.4235" lon="2.17231">
        <ele>695</ele>
        <time>2019-12-08T11:08:02Z</time>
      </trkpt>
      <trkpt lat="43.42356" lon="2.1723">
        <ele>694</ele>
        <time>2019-12-08T11:08:04Z</time>
      </trkpt>
      <trkpt lat="43.42363" lon="2.17231">
        <ele>693</ele>
        <time>2019-12-08T11:08:06Z</time>
      </trkpt>
      <trkpt lat="43.42371" lon="2.17231">
        <ele>692</ele>
        <time>2019-12-08T11:08:08Z</time>
      </trkpt>
      <trkpt lat="43.42375" lon="2.17231">
        <ele>691</ele>
        <time>2019-12-08T11:08:09Z</time>
      </trkpt>
      <trkpt lat="43.42384" lon="2.1723">
        <ele>690</ele>
        <time>2019-12-08T11:08:11Z</time>
      </trkpt>
      <trkpt lat="43.42394" lon="2.1723">
        <ele>689</ele>
        <time>2019-12-08T11:08:13Z</time>
      </trkpt>
      <trkpt lat="43.42399" lon="2.17231">
        <ele>688</ele>
        <time>2019-12-08T11:08:14Z</time>
      </trkpt>
      <trkpt lat="43.42409" lon="2.17235">
        <ele>686</ele>
        <time>2019-12-08T11:08:16Z</time>
      </trkpt>
      <trkpt lat="43.42416" lon="2.17238">
        <ele>685</ele>
        <time>2019-12-08T11:08:18Z</time>
      </trkpt>
      <trkpt lat="43.42422" lon="2.1724">
        <ele>683</ele>
        <time>2019-12-08T11:08:20Z</time>
      </trkpt>
      <trkpt lat="43.42426" lon="2.1724">
        <ele>682</ele>
        <time>2019-12-08T11:08:21Z</time>
      </trkpt>
      <trkpt lat="43.42433" lon="2.1724">
        <ele>680</ele>
        <time>2019-12-08T11:08:23Z</time>
      </trkpt>
      <trkpt lat="43.42437" lon="2.17239">
        <ele>680</ele>
        <time>2019-12-08T11:08:24Z</time>
      </trkpt>
      <trkpt lat="43.42442" lon="2.17238">
        <ele>679</ele>
        <time>2019-12-08T11:08:25Z</time>
      </trkpt>
      <trkpt lat="43.42451" lon="2.17236">
        <ele>677</ele>
        <time>2019-12-08T11:08:27Z</time>
      </trkpt>
      <trkpt lat="43.42455" lon="2.17236">
        <ele>676</ele>
        <time>2019-12-08T11:08:28Z</time>
      </trkpt>
      <trkpt lat="43.42459" lon="2.17237">
        <ele>676</ele>
        <time>2019-12-08T11:08:29Z</time>
      </trkpt>
      <trkpt lat="43.42467" lon="2.17237">
        <ele>674</ele>
        <time>2019-12-08T11:08:31Z</time>
      </trkpt>
      <trkpt lat="43.42474" lon="2.17238">
        <ele>672</ele>
        <time>2019-12-08T11:08:33Z</time>
      </trkpt>
      <trkpt lat="43.42482" lon="2.17238">
        <ele>671</ele>
        <time>2019-12-08T11:08:35Z</time>
      </trkpt>
      <trkpt lat="43.42486" lon="2.17239">
        <ele>670</ele>
        <time>2019-12-08T11:08:36Z</time>
      </trkpt>
      <trkpt lat="43.42489" lon="2.17239">
        <ele>669</ele>
        <time>2019-12-08T11:08:37Z</time>
      </trkpt>
      <trkpt lat="43.42492" lon="2.1724">
        <ele>668</ele>
        <time>2019-12-08T11:08:38Z</time>
      </trkpt>
      <trkpt lat="43.42496" lon="2.17242">
        <ele>667</ele>
        <time>2019-12-08T11:08:39Z</time>
      </trkpt>
      <trkpt lat="43.42502" lon="2.17244">
        <ele>666</ele>
        <time>2019-12-08T11:08:41Z</time>
      </trkpt>
      <trkpt lat="43.42505" lon="2.17244">
        <ele>665</ele>
        <time>2019-12-08T11:08:42Z</time>
      </trkpt>
      <trkpt lat="43.42507" lon="2.17245">
        <ele>664</ele>
        <time>2019-12-08T11:08:43Z</time>
      </trkpt>
      <trkpt lat="43.42516" lon="2.17242">
        <ele>663</ele>
        <time>2019-12-08T11:08:45Z</time>
      </trkpt>
      <trkpt lat="43.4252" lon="2.17239">
        <ele>662</ele>
        <time>2019-12-08T11:08:46Z</time>
      </trkpt>
      <trkpt lat="43.42522" lon="2.17233">
        <ele>662</ele>
        <time>2019-12-08T11:08:47Z</time>
      </trkpt>
      <trkpt lat="43.42525" lon="2.17224">
        <ele>660</ele>
        <time>2019-12-08T11:08:49Z</time>
      </trkpt>
      <trkpt lat="43.42526" lon="2.1722">
        <ele>659</ele>
        <time>2019-12-08T11:08:50Z</time>
      </trkpt>
      <trkpt lat="43.42526" lon="2.17216">
        <ele>658</ele>
        <time>2019-12-08T11:08:51Z</time>
      </trkpt>
      <trkpt lat="43.42524" lon="2.17206">
        <ele>657</ele>
        <time>2019-12-08T11:08:53Z</time>
      </trkpt>
      <trkpt lat="43.42523" lon="2.172">
        <ele>655</ele>
        <time>2019-12-08T11:08:55Z</time>
      </trkpt>
      <trkpt lat="43.42522" lon="2.17193">
        <ele>654</ele>
        <time>2019-12-08T11:08:57Z</time>
      </trkpt>
      <trkpt lat="43.42523" lon="2.17188">
        <ele>653</ele>
        <time>2019-12-08T11:08:58Z</time>
      </trkpt>
      <trkpt lat="43.42529" lon="2.1718">
        <ele>652</ele>
        <time>2019-12-08T11:09:00Z</time>
      </trkpt>
      <trkpt lat="43.42532" lon="2.17178">
        <ele>651</ele>
        <time>2019-12-08T11:09:01Z</time>
      </trkpt>
      <trkpt lat="43.42536" lon="2.17177">
        <ele>650</ele>
        <time>2019-12-08T11:09:02Z</time>
      </trkpt>
      <trkpt lat="43.42542" lon="2.17177">
        <ele>649</ele>
        <time>2019-12-08T11:09:04Z</time>
      </trkpt>
      <trkpt lat="43.42546" lon="2.17176">
        <ele>649</ele>
        <time>2019-12-08T11:09:05Z</time>
      </trkpt>
      <trkpt lat="43.42555" lon="2.17167">
        <ele>647</ele>
        <time>2019-12-08T11:09:07Z</time>
      </trkpt>
      <trkpt lat="43.42557" lon="2.17163">
        <ele>646</ele>
        <time>2019-12-08T11:09:08Z</time>
      </trkpt>
      <trkpt lat="43.42559" lon="2.1716">
        <ele>646</ele>
        <time>2019-12-08T11:09:09Z</time>
      </trkpt>
      <trkpt lat="43.42561" lon="2.17154">
        <ele>646</ele>
        <time>2019-12-08T11:09:11Z</time>
      </trkpt>
      <trkpt lat="43.42561" lon="2.17149">
        <ele>645</ele>
        <time>2019-12-08T11:09:12Z</time>
      </trkpt>
      <trkpt lat="43.42556" lon="2.17133">
        <ele>644</ele>
        <time>2019-12-08T11:09:15Z</time>
      </trkpt>
      <trkpt lat="43.42554" lon="2.17128">
        <ele>643</ele>
        <time>2019-12-08T11:09:16Z</time>
      </trkpt>
      <trkpt lat="43.42554" lon="2.17123">
        <ele>642</ele>
        <time>2019-12-08T11:09:17Z</time>
      </trkpt>
      <trkpt lat="43.42554" lon="2.17119">
        <ele>642</ele>
        <time>2019-12-08T11:09:18Z</time>
      </trkpt>
      <trkpt lat="43.42556" lon="2.17116">
        <ele>641</ele>
        <time>2019-12-08T11:09:19Z</time>
      </trkpt>
      <trkpt lat="43.42567" lon="2.17111">
        <ele>641</ele>
        <time>2019-12-08T11:09:23Z</time>
      </trkpt>
      <trkpt lat="43.4257" lon="2.17111">
        <ele>641</ele>
        <time>2019-12-08T11:09:24Z</time>
      </trkpt>
      <trkpt lat="43.42584" lon="2.17108">
        <ele>640</ele>
        <time>2019-12-08T11:09:29Z</time>
      </trkpt>
      <trkpt lat="43.42605" lon="2.17102">
        <ele>641</ele>
        <time>2019-12-08T11:09:36Z</time>
      </trkpt>
      <trkpt lat="43.42624" lon="2.17094">
        <ele>642</ele>
        <time>2019-12-08T11:09:42Z</time>
      </trkpt>
      <trkpt lat="43.42635" lon="2.1709">
        <ele>643</ele>
        <time>2019-12-08T11:09:46Z</time>
      </trkpt>
      <trkpt lat="43.42641" lon="2.17089">
        <ele>643</ele>
        <time>2019-12-08T11:09:48Z</time>
      </trkpt>
      <trkpt lat="43.42649" lon="2.17087">
        <ele>644</ele>
        <time>2019-12-08T11:09:51Z</time>
      </trkpt>
      <trkpt lat="43.42657" lon="2.17085">
        <ele>644</ele>
        <time>2019-12-08T11:09:54Z</time>
      </trkpt>
      <trkpt lat="43.42665" lon="2.17085">
        <ele>645</ele>
        <time>2019-12-08T11:09:57Z</time>
      </trkpt>
      <trkpt lat="43.42675" lon="2.17086">
        <ele>646</ele>
        <time>2019-12-08T11:10:01Z</time>
      </trkpt>
      <trkpt lat="43.42686" lon="2.17083">
        <ele>646</ele>
        <time>2019-12-08T11:10:05Z</time>
      </trkpt>
      <trkpt lat="43.42692" lon="2.17079">
        <ele>646</ele>
        <time>2019-12-08T11:10:07Z</time>
      </trkpt>
      <trkpt lat="43.42705" lon="2.17068">
        <ele>647</ele>
        <time>2019-12-08T11:10:12Z</time>
      </trkpt>
      <trkpt lat="43.42709" lon="2.17063">
        <ele>648</ele>
        <time>2019-12-08T11:10:14Z</time>
      </trkpt>
      <trkpt lat="43.42729" lon="2.17041">
        <ele>649</ele>
        <time>2019-12-08T11:10:22Z</time>
      </trkpt>
      <trkpt lat="43.42731" lon="2.17038">
        <ele>649</ele>
        <time>2019-12-08T11:10:23Z</time>
      </trkpt>
      <trkpt lat="43.42746" lon="2.17021">
        <ele>650</ele>
        <time>2019-12-08T11:10:29Z</time>
      </trkpt>
      <trkpt lat="43.42755" lon="2.17011">
        <ele>650</ele>
        <time>2019-12-08T11:10:33Z</time>
      </trkpt>
      <trkpt lat="43.42764" lon="2.17">
        <ele>651</ele>
        <time>2019-12-08T11:10:37Z</time>
      </trkpt>
      <trkpt lat="43.42776" lon="2.16986">
        <ele>652</ele>
        <time>2019-12-08T11:10:42Z</time>
      </trkpt>
      <trkpt lat="43.42792" lon="2.16967">
        <ele>653</ele>
        <time>2019-12-08T11:10:49Z</time>
      </trkpt>
      <trkpt lat="43.42794" lon="2.16965">
        <ele>653</ele>
        <time>2019-12-08T11:10:50Z</time>
      </trkpt>
      <trkpt lat="43.42813" lon="2.16943">
        <ele>654</ele>
        <time>2019-12-08T11:10:58Z</time>
      </trkpt>
      <trkpt lat="43.42832" lon="2.16921">
        <ele>655</ele>
        <time>2019-12-08T11:11:06Z</time>
      </trkpt>
      <trkpt lat="43.42835" lon="2.16918">
        <ele>655</ele>
        <time>2019-12-08T11:11:07Z</time>
      </trkpt>
      <trkpt lat="43.42849" lon="2.169">
        <ele>656</ele>
        <time>2019-12-08T11:11:13Z</time>
      </trkpt>
      <trkpt lat="43.42854" lon="2.16894">
        <ele>657</ele>
        <time>2019-12-08T11:11:15Z</time>
      </trkpt>
      <trkpt lat="43.42862" lon="2.16879">
        <ele>657</ele>
        <time>2019-12-08T11:11:19Z</time>
      </trkpt>
      <trkpt lat="43.4287" lon="2.16864">
        <ele>658</ele>
        <time>2019-12-08T11:11:23Z</time>
      </trkpt>
      <trkpt lat="43.42879" lon="2.16845">
        <ele>658</ele>
        <time>2019-12-08T11:11:28Z</time>
      </trkpt>
      <trkpt lat="43.42883" lon="2.16833">
        <ele>659</ele>
        <time>2019-12-08T11:11:31Z</time>
      </trkpt>
      <trkpt lat="43.42887" lon="2.16824">
        <ele>660</ele>
        <time>2019-12-08T11:11:33Z</time>
      </trkpt>
      <trkpt lat="43.42898" lon="2.16793">
        <ele>660</ele>
        <time>2019-12-08T11:11:40Z</time>
      </trkpt>
      <trkpt lat="43.42903" lon="2.16781">
        <ele>661</ele>
        <time>2019-12-08T11:11:43Z</time>
      </trkpt>
      <trkpt lat="43.42911" lon="2.16758">
        <ele>661</ele>
        <time>2019-12-08T11:11:48Z</time>
      </trkpt>
      <trkpt lat="43.42926" lon="2.16717">
        <ele>662</ele>
        <time>2019-12-08T11:11:57Z</time>
      </trkpt>
      <trkpt lat="43.42936" lon="2.1669">
        <ele>662</ele>
        <time>2019-12-08T11:12:03Z</time>
      </trkpt>
      <trkpt lat="43.42938" lon="2.16681">
        <ele>661</ele>
        <time>2019-12-08T11:12:05Z</time>
      </trkpt>
      <trkpt lat="43.4294" lon="2.16676">
        <ele>661</ele>
        <time>2019-12-08T11:12:06Z</time>
      </trkpt>
      <trkpt lat="43.42948" lon="2.16655">
        <ele>661</ele>
        <time>2019-12-08T11:12:11Z</time>
      </trkpt>
      <trkpt lat="43.42959" lon="2.16646">
        <ele>660</ele>
        <time>2019-12-08T11:12:15Z</time>
      </trkpt>
      <trkpt lat="43.42962" lon="2.16645">
        <ele>660</ele>
        <time>2019-12-08T11:12:16Z</time>
      </trkpt>
      <trkpt lat="43.42964" lon="2.16644">
        <ele>660</ele>
        <time>2019-12-08T11:12:18Z</time>
      </trkpt>
      <trkpt lat="43.42967" lon="2.16643">
        <ele>660</ele>
        <time>2019-12-08T11:12:21Z</time>
      </trkpt>
      <trkpt lat="43.42973" lon="2.16639">
        <ele>660</ele>
        <time>2019-12-08T11:12:26Z</time>
      </trkpt>
      <trkpt lat="43.4298" lon="2.16635">
        <ele>660</ele>
        <time>2019-12-08T11:12:31Z</time>
      </trkpt>
      <trkpt lat="43.42983" lon="2.16634">
        <ele>660</ele>
        <time>2019-12-08T11:12:32Z</time>
      </trkpt>
      <trkpt lat="43.42989" lon="2.16631">
        <ele>660</ele>
        <time>2019-12-08T11:12:34Z</time>
      </trkpt>
      <trkpt lat="43.42991" lon="2.16631">
        <ele>660</ele>
        <time>2019-12-08T11:12:35Z</time>
      </trkpt>
      <trkpt lat="43.42999" lon="2.16628">
        <ele>661</ele>
        <time>2019-12-08T11:12:38Z</time>
      </trkpt>
      <trkpt lat="43.43002" lon="2.16627">
        <ele>661</ele>
        <time>2019-12-08T11:12:39Z</time>
      </trkpt>
      <trkpt lat="43.43016" lon="2.16616">
        <ele>661</ele>
        <time>2019-12-08T11:12:44Z</time>
      </trkpt>
      <trkpt lat="43.43021" lon="2.16611">
        <ele>661</ele>
        <time>2019-12-08T11:12:46Z</time>
      </trkpt>
      <trkpt lat="43.43036" lon="2.16591">
        <ele>662</ele>
        <time>2019-12-08T11:12:53Z</time>
      </trkpt>
      <trkpt lat="43.43043" lon="2.16577">
        <ele>662</ele>
        <time>2019-12-08T11:12:58Z</time>
      </trkpt>
      <trkpt lat="43.43047" lon="2.16571">
        <ele>661</ele>
        <time>2019-12-08T11:13:04Z</time>
      </trkpt>
      <trkpt lat="43.43051" lon="2.16567">
        <ele>661</ele>
        <time>2019-12-08T11:13:50Z</time>
      </trkpt>
      <trkpt lat="43.43052" lon="2.16565">
        <ele>661</ele>
        <time>2019-12-08T11:13:51Z</time>
      </trkpt>
      <trkpt lat="43.43054" lon="2.16562">
        <ele>661</ele>
        <time>2019-12-08T11:13:53Z</time>
      </trkpt>
      <trkpt lat="43.43056" lon="2.16561">
        <ele>661</ele>
        <time>2019-12-08T11:13:54Z</time>
      </trkpt>
      <trkpt lat="43.43067" lon="2.16559">
        <ele>661</ele>
        <time>2019-12-08T11:13:58Z</time>
      </trkpt>
      <trkpt lat="43.4307" lon="2.16558">
        <ele>661</ele>
        <time>2019-12-08T11:13:59Z</time>
      </trkpt>
      <trkpt lat="43.43074" lon="2.16556">
        <ele>661</ele>
        <time>2019-12-08T11:14:02Z</time>
      </trkpt>
      <trkpt lat="43.43075" lon="2.16555">
        <ele>661</ele>
        <time>2019-12-08T11:14:03Z</time>
      </trkpt>
      <trkpt lat="43.4307" lon="2.16551">
        <ele>661</ele>
        <time>2019-12-08T11:14:07Z</time>
      </trkpt>
      <trkpt lat="43.43061" lon="2.16548">
        <ele>661</ele>
        <time>2019-12-08T11:14:12Z</time>
      </trkpt>
      <trkpt lat="43.43059" lon="2.16546">
        <ele>661</ele>
        <time>2019-12-08T11:14:13Z</time>
      </trkpt>
      <trkpt lat="43.43057" lon="2.16532">
        <ele>661</ele>
        <time>2019-12-08T11:14:17Z</time>
      </trkpt>
      <trkpt lat="43.4306" lon="2.16507">
        <ele>661</ele>
        <time>2019-12-08T11:14:22Z</time>
      </trkpt>
      <trkpt lat="43.43061" lon="2.16502">
        <ele>660</ele>
        <time>2019-12-08T11:14:23Z</time>
      </trkpt>
      <trkpt lat="43.43068" lon="2.16477">
        <ele>660</ele>
        <time>2019-12-08T11:14:28Z</time>
      </trkpt>
      <trkpt lat="43.43069" lon="2.1647">
        <ele>659</ele>
        <time>2019-12-08T11:14:30Z</time>
      </trkpt>
      <trkpt lat="43.43067" lon="2.16466">
        <ele>659</ele>
        <time>2019-12-08T11:14:32Z</time>
      </trkpt>
      <trkpt lat="43.43066" lon="2.16463">
        <ele>659</ele>
        <time>2019-12-08T11:16:08Z</time>
      </trkpt>
      <trkpt lat="43.43066" lon="2.16465">
        <ele>659</ele>
        <time>2019-12-08T11:16:09Z</time>
      </trkpt>
      <trkpt lat="43.43065" lon="2.16469">
        <ele>659</ele>
        <time>2019-12-08T11:16:11Z</time>
      </trkpt>
      <trkpt lat="43.43063" lon="2.16477">
        <ele>659</ele>
        <time>2019-12-08T11:16:13Z</time>
      </trkpt>
      <trkpt lat="43.4306" lon="2.16495">
        <ele>660</ele>
        <time>2019-12-08T11:16:17Z</time>
      </trkpt>
      <trkpt lat="43.43058" lon="2.16519">
        <ele>660</ele>
        <time>2019-12-08T11:16:22Z</time>
      </trkpt>
      <trkpt lat="43.43058" lon="2.16524">
        <ele>660</ele>
        <time>2019-12-08T11:16:23Z</time>
      </trkpt>
      <trkpt lat="43.43058" lon="2.16537">
        <ele>660</ele>
        <time>2019-12-08T11:16:26Z</time>
      </trkpt>
      <trkpt lat="43.43061" lon="2.16544">
        <ele>661</ele>
        <time>2019-12-08T11:16:28Z</time>
      </trkpt>
      <trkpt lat="43.43063" lon="2.16546">
        <ele>661</ele>
        <time>2019-12-08T11:16:29Z</time>
      </trkpt>
      <trkpt lat="43.43072" lon="2.1655">
        <ele>660</ele>
        <time>2019-12-08T11:16:32Z</time>
      </trkpt>
      <trkpt lat="43.43089" lon="2.16546">
        <ele>660</ele>
        <time>2019-12-08T11:16:36Z</time>
      </trkpt>
      <trkpt lat="43.43109" lon="2.1654">
        <ele>659</ele>
        <time>2019-12-08T11:16:39Z</time>
      </trkpt>
      <trkpt lat="43.43117" lon="2.16539">
        <ele>659</ele>
        <time>2019-12-08T11:16:40Z</time>
      </trkpt>
      <trkpt lat="43.43135" lon="2.16537">
        <ele>657</ele>
        <time>2019-12-08T11:16:42Z</time>
      </trkpt>
      <trkpt lat="43.43144" lon="2.16538">
        <ele>656</ele>
        <time>2019-12-08T11:16:43Z</time>
      </trkpt>
      <trkpt lat="43.43155" lon="2.16538">
        <ele>655</ele>
        <time>2019-12-08T11:16:44Z</time>
      </trkpt>
      <trkpt lat="43.43176" lon="2.16538">
        <ele>654</ele>
        <time>2019-12-08T11:16:46Z</time>
      </trkpt>
      <trkpt lat="43.43187" lon="2.16539">
        <ele>653</ele>
        <time>2019-12-08T11:16:47Z</time>
      </trkpt>
      <trkpt lat="43.43197" lon="2.16539">
        <ele>652</ele>
        <time>2019-12-08T11:16:48Z</time>
      </trkpt>
      <trkpt lat="43.43207" lon="2.16541">
        <ele>651</ele>
        <time>2019-12-08T11:16:49Z</time>
      </trkpt>
      <trkpt lat="43.43216" lon="2.16545">
        <ele>650</ele>
        <time>2019-12-08T11:16:50Z</time>
      </trkpt>
      <trkpt lat="43.43234" lon="2.16553">
        <ele>649</ele>
        <time>2019-12-08T11:16:52Z</time>
      </trkpt>
      <trkpt lat="43.4325" lon="2.16554">
        <ele>649</ele>
        <time>2019-12-08T11:16:54Z</time>
      </trkpt>
      <trkpt lat="43.43257" lon="2.16553">
        <ele>649</ele>
        <time>2019-12-08T11:16:55Z</time>
      </trkpt>
      <trkpt lat="43.43272" lon="2.16551">
        <ele>649</ele>
        <time>2019-12-08T11:16:58Z</time>
      </trkpt>
      <trkpt lat="43.43281" lon="2.16549">
        <ele>650</ele>
        <time>2019-12-08T11:17:00Z</time>
      </trkpt>
      <trkpt lat="43.43286" lon="2.16548">
        <ele>651</ele>
        <time>2019-12-08T11:17:02Z</time>
      </trkpt>
      <trkpt lat="43.43288" lon="2.16548">
        <ele>652</ele>
        <time>2019-12-08T11:17:03Z</time>
      </trkpt>
      <trkpt lat="43.43292" lon="2.16547">
        <ele>652</ele>
        <time>2019-12-08T11:17:06Z</time>
      </trkpt>
      <trkpt lat="43.43305" lon="2.16542">
        <ele>652</ele>
        <time>2019-12-08T11:17:11Z</time>
      </trkpt>
      <trkpt lat="43.43315" lon="2.16541">
        <ele>652</ele>
        <time>2019-12-08T11:17:14Z</time>
      </trkpt>
      <trkpt lat="43.43323" lon="2.1654">
        <ele>653</ele>
        <time>2019-12-08T11:17:16Z</time>
      </trkpt>
      <trkpt lat="43.4333" lon="2.1654">
        <ele>653</ele>
        <time>2019-12-08T11:17:18Z</time>
      </trkpt>
      <trkpt lat="43.43341" lon="2.16538">
        <ele>653</ele>
        <time>2019-12-08T11:17:21Z</time>
      </trkpt>
      <trkpt lat="43.43349" lon="2.16537">
        <ele>653</ele>
        <time>2019-12-08T11:17:23Z</time>
      </trkpt>
      <trkpt lat="43.43352" lon="2.16537">
        <ele>653</ele>
        <time>2019-12-08T11:17:24Z</time>
      </trkpt>
      <trkpt lat="43.43367" lon="2.16537">
        <ele>653</ele>
        <time>2019-12-08T11:17:28Z</time>
      </trkpt>
      <trkpt lat="43.4337" lon="2.16538">
        <ele>653</ele>
        <time>2019-12-08T11:17:29Z</time>
      </trkpt>
      <trkpt lat="43.43385" lon="2.16544">
        <ele>654</ele>
        <time>2019-12-08T11:17:33Z</time>
      </trkpt>
      <trkpt lat="43.43391" lon="2.1655">
        <ele>654</ele>
        <time>2019-12-08T11:17:35Z</time>
      </trkpt>
      <trkpt lat="43.43413" lon="2.1658">
        <ele>654</ele>
        <time>2019-12-08T11:17:42Z</time>
      </trkpt>
      <trkpt lat="43.43425" lon="2.1659">
        <ele>654</ele>
        <time>2019-12-08T11:17:45Z</time>
      </trkpt>
      <trkpt lat="43.43436" lon="2.16596">
        <ele>654</ele>
        <time>2019-12-08T11:17:48Z</time>
      </trkpt>
      <trkpt lat="43.43444" lon="2.166">
        <ele>654</ele>
        <time>2019-12-08T11:17:50Z</time>
      </trkpt>
      <trkpt lat="43.43454" lon="2.16601">
        <ele>654</ele>
        <time>2019-12-08T11:17:52Z</time>
      </trkpt>
      <trkpt lat="43.43463" lon="2.16602">
        <ele>654</ele>
        <time>2019-12-08T11:17:54Z</time>
      </trkpt>
      <trkpt lat="43.43475" lon="2.16602">
        <ele>654</ele>
        <time>2019-12-08T11:17:57Z</time>
      </trkpt>
      <trkpt lat="43.43492" lon="2.166">
        <ele>655</ele>
        <time>2019-12-08T11:18:02Z</time>
      </trkpt>
      <trkpt lat="43.43505" lon="2.166">
        <ele>654</ele>
        <time>2019-12-08T11:18:06Z</time>
      </trkpt>
      <trkpt lat="43.43511" lon="2.166">
        <ele>655</ele>
        <time>2019-12-08T11:18:08Z</time>
      </trkpt>
      <trkpt lat="43.43519" lon="2.16598">
        <ele>655</ele>
        <time>2019-12-08T11:18:10Z</time>
      </trkpt>
      <trkpt lat="43.43521" lon="2.16597">
        <ele>655</ele>
        <time>2019-12-08T11:18:11Z</time>
      </trkpt>
      <trkpt lat="43.4353" lon="2.16596">
        <ele>655</ele>
        <time>2019-12-08T11:18:14Z</time>
      </trkpt>
      <trkpt lat="43.4354" lon="2.16596">
        <ele>655</ele>
        <time>2019-12-08T11:18:17Z</time>
      </trkpt>
      <trkpt lat="43.43555" lon="2.16596">
        <ele>655</ele>
        <time>2019-12-08T11:18:22Z</time>
      </trkpt>
      <trkpt lat="43.43566" lon="2.16595">
        <ele>655</ele>
        <time>2019-12-08T11:18:26Z</time>
      </trkpt>
      <trkpt lat="43.4358" lon="2.16591">
        <ele>655</ele>
        <time>2019-12-08T11:19:24Z</time>
      </trkpt>
      <trkpt lat="43.43581" lon="2.1659">
        <ele>655</ele>
        <time>2019-12-08T11:19:25Z</time>
      </trkpt>
      <trkpt lat="43.43591" lon="2.16585">
        <ele>655</ele>
        <time>2019-12-08T11:19:32Z</time>
      </trkpt>
      <trkpt lat="43.436" lon="2.16582">
        <ele>655</ele>
        <time>2019-12-08T11:19:36Z</time>
      </trkpt>
      <trkpt lat="43.43602" lon="2.16581">
        <ele>655</ele>
        <time>2019-12-08T11:19:37Z</time>
      </trkpt>
      <trkpt lat="43.43605" lon="2.1658">
        <ele>656</ele>
        <time>2019-12-08T11:19:38Z</time>
      </trkpt>
      <trkpt lat="43.4361" lon="2.16579">
        <ele>656</ele>
        <time>2019-12-08T11:19:40Z</time>
      </trkpt>
      <trkpt lat="43.43617" lon="2.16575">
        <ele>656</ele>
        <time>2019-12-08T11:19:43Z</time>
      </trkpt>
      <trkpt lat="43.43627" lon="2.16568">
        <ele>656</ele>
        <time>2019-12-08T11:19:48Z</time>
      </trkpt>
      <trkpt lat="43.43634" lon="2.16564">
        <ele>656</ele>
        <time>2019-12-08T11:19:51Z</time>
      </trkpt>
      <trkpt lat="43.43637" lon="2.16563">
        <ele>657</ele>
        <time>2019-12-08T11:19:52Z</time>
      </trkpt>
      <trkpt lat="43.43649" lon="2.16558">
        <ele>657</ele>
        <time>2019-12-08T11:19:56Z</time>
      </trkpt>
      <trkpt lat="43.43652" lon="2.16556">
        <ele>657</ele>
        <time>2019-12-08T11:19:57Z</time>
      </trkpt>
      <trkpt lat="43.43663" lon="2.16551">
        <ele>657</ele>
        <time>2019-12-08T11:20:01Z</time>
      </trkpt>
      <trkpt lat="43.43669" lon="2.1655">
        <ele>658</ele>
        <time>2019-12-08T11:20:03Z</time>
      </trkpt>
      <trkpt lat="43.43672" lon="2.1655">
        <ele>658</ele>
        <time>2019-12-08T11:20:04Z</time>
      </trkpt>
      <trkpt lat="43.43678" lon="2.16551">
        <ele>658</ele>
        <time>2019-12-08T11:20:06Z</time>
      </trkpt>
      <trkpt lat="43.43692" lon="2.16546">
        <ele>658</ele>
        <time>2019-12-08T11:20:10Z</time>
      </trkpt>
      <trkpt lat="43.43694" lon="2.16545">
        <ele>658</ele>
        <time>2019-12-08T11:20:11Z</time>
      </trkpt>
      <trkpt lat="43.43698" lon="2.16544">
        <ele>658</ele>
        <time>2019-12-08T11:20:14Z</time>
      </trkpt>
      <trkpt lat="43.437" lon="2.16544">
        <ele>658</ele>
        <time>2019-12-08T11:20:15Z</time>
      </trkpt>
      <trkpt lat="43.43715" lon="2.16533">
        <ele>658</ele>
        <time>2019-12-08T11:20:21Z</time>
      </trkpt>
      <trkpt lat="43.43718" lon="2.16531">
        <ele>659</ele>
        <time>2019-12-08T11:20:22Z</time>
      </trkpt>
      <trkpt lat="43.43733" lon="2.16524">
        <ele>659</ele>
        <time>2019-12-08T11:20:26Z</time>
      </trkpt>
      <trkpt lat="43.43741" lon="2.16517">
        <ele>659</ele>
        <time>2019-12-08T11:20:29Z</time>
      </trkpt>
      <trkpt lat="43.43743" lon="2.16515">
        <ele>659</ele>
        <time>2019-12-08T11:20:30Z</time>
      </trkpt>
      <trkpt lat="43.43745" lon="2.16514">
        <ele>660</ele>
        <time>2019-12-08T11:20:31Z</time>
      </trkpt>
      <trkpt lat="43.43753" lon="2.16508">
        <ele>660</ele>
        <time>2019-12-08T11:20:34Z</time>
      </trkpt>
      <trkpt lat="43.43758" lon="2.16504">
        <ele>661</ele>
        <time>2019-12-08T11:20:36Z</time>
      </trkpt>
      <trkpt lat="43.43762" lon="2.16504">
        <ele>661</ele>
        <time>2019-12-08T11:20:37Z</time>
      </trkpt>
      <trkpt lat="43.43765" lon="2.16502">
        <ele>661</ele>
        <time>2019-12-08T11:20:38Z</time>
      </trkpt>
      <trkpt lat="43.43773" lon="2.16499">
        <ele>662</ele>
        <time>2019-12-08T11:20:41Z</time>
      </trkpt>
      <trkpt lat="43.43778" lon="2.16498">
        <ele>663</ele>
        <time>2019-12-08T11:20:43Z</time>
      </trkpt>
      <trkpt lat="43.43782" lon="2.16496">
        <ele>663</ele>
        <time>2019-12-08T11:20:45Z</time>
      </trkpt>
      <trkpt lat="43.43787" lon="2.16494">
        <ele>664</ele>
        <time>2019-12-08T11:20:47Z</time>
      </trkpt>
      <trkpt lat="43.43789" lon="2.16493">
        <ele>665</ele>
        <time>2019-12-08T11:20:48Z</time>
      </trkpt>
      <trkpt lat="43.43797" lon="2.16489">
        <ele>666</ele>
        <time>2019-12-08T11:20:52Z</time>
      </trkpt>
      <trkpt lat="43.43801" lon="2.16487">
        <ele>666</ele>
        <time>2019-12-08T11:20:54Z</time>
      </trkpt>
      <trkpt lat="43.43807" lon="2.16486">
        <ele>667</ele>
        <time>2019-12-08T11:20:57Z</time>
      </trkpt>
      <trkpt lat="43.43808" lon="2.16485">
        <ele>667</ele>
        <time>2019-12-08T11:20:58Z</time>
      </trkpt>
      <trkpt lat="43.43811" lon="2.16484">
        <ele>667</ele>
        <time>2019-12-08T11:20:59Z</time>
      </trkpt>
      <trkpt lat="43.43817" lon="2.1648">
        <ele>668</ele>
        <time>2019-12-08T11:21:02Z</time>
      </trkpt>
      <trkpt lat="43.43823" lon="2.16478">
        <ele>669</ele>
        <time>2019-12-08T11:21:05Z</time>
      </trkpt>
      <trkpt lat="43.43831" lon="2.16479">
        <ele>670</ele>
        <time>2019-12-08T11:21:10Z</time>
      </trkpt>
      <trkpt lat="43.43833" lon="2.16479">
        <ele>670</ele>
        <time>2019-12-08T11:21:11Z</time>
      </trkpt>
      <trkpt lat="43.43842" lon="2.16479">
        <ele>671</ele>
        <time>2019-12-08T11:21:15Z</time>
      </trkpt>
      <trkpt lat="43.43848" lon="2.16479">
        <ele>671</ele>
        <time>2019-12-08T11:21:18Z</time>
      </trkpt>
      <trkpt lat="43.43852" lon="2.16479">
        <ele>671</ele>
        <time>2019-12-08T11:21:20Z</time>
      </trkpt>
      <trkpt lat="43.43854" lon="2.16479">
        <ele>671</ele>
        <time>2019-12-08T11:21:21Z</time>
      </trkpt>
      <trkpt lat="43.43859" lon="2.16479">
        <ele>672</ele>
        <time>2019-12-08T11:21:23Z</time>
      </trkpt>
      <trkpt lat="43.43868" lon="2.16477">
        <ele>672</ele>
        <time>2019-12-08T11:21:26Z</time>
      </trkpt>
      <trkpt lat="43.43878" lon="2.16472">
        <ele>672</ele>
        <time>2019-12-08T11:21:30Z</time>
      </trkpt>
      <trkpt lat="43.43887" lon="2.16472">
        <ele>672</ele>
        <time>2019-12-08T11:21:33Z</time>
      </trkpt>
      <trkpt lat="43.43893" lon="2.16471">
        <ele>672</ele>
        <time>2019-12-08T11:21:35Z</time>
      </trkpt>
      <trkpt lat="43.4391" lon="2.16464">
        <ele>672</ele>
        <time>2019-12-08T11:21:40Z</time>
      </trkpt>
      <trkpt lat="43.43917" lon="2.1646">
        <ele>672</ele>
        <time>2019-12-08T11:21:42Z</time>
      </trkpt>
      <trkpt lat="43.43927" lon="2.16454">
        <ele>673</ele>
        <time>2019-12-08T11:21:44Z</time>
      </trkpt>
      <trkpt lat="43.43943" lon="2.1645">
        <ele>673</ele>
        <time>2019-12-08T11:21:49Z</time>
      </trkpt>
      <trkpt lat="43.43957" lon="2.16447">
        <ele>673</ele>
        <time>2019-12-08T11:21:53Z</time>
      </trkpt>
      <trkpt lat="43.43969" lon="2.1645">
        <ele>674</ele>
        <time>2019-12-08T11:21:56Z</time>
      </trkpt>
      <trkpt lat="43.43975" lon="2.16453">
        <ele>674</ele>
        <time>2019-12-08T11:21:58Z</time>
      </trkpt>
      <trkpt lat="43.43984" lon="2.16457">
        <ele>675</ele>
        <time>2019-12-08T11:22:01Z</time>
      </trkpt>
      <trkpt lat="43.43989" lon="2.1646">
        <ele>675</ele>
        <time>2019-12-08T11:22:03Z</time>
      </trkpt>
      <trkpt lat="43.44005" lon="2.16472">
        <ele>676</ele>
        <time>2019-12-08T11:22:09Z</time>
      </trkpt>
      <trkpt lat="43.44008" lon="2.16473">
        <ele>676</ele>
        <time>2019-12-08T11:22:10Z</time>
      </trkpt>
      <trkpt lat="43.44019" lon="2.16481">
        <ele>677</ele>
        <time>2019-12-08T11:22:15Z</time>
      </trkpt>
      <trkpt lat="43.44021" lon="2.16482">
        <ele>677</ele>
        <time>2019-12-08T11:22:16Z</time>
      </trkpt>
      <trkpt lat="43.44034" lon="2.16488">
        <ele>678</ele>
        <time>2019-12-08T11:22:22Z</time>
      </trkpt>
      <trkpt lat="43.44041" lon="2.16494">
        <ele>679</ele>
        <time>2019-12-08T11:22:26Z</time>
      </trkpt>
      <trkpt lat="43.44047" lon="2.16505">
        <ele>680</ele>
        <time>2019-12-08T11:22:30Z</time>
      </trkpt>
      <trkpt lat="43.44055" lon="2.16511">
        <ele>681</ele>
        <time>2019-12-08T11:22:34Z</time>
      </trkpt>
      <trkpt lat="43.44057" lon="2.16513">
        <ele>681</ele>
        <time>2019-12-08T11:22:35Z</time>
      </trkpt>
      <trkpt lat="43.44059" lon="2.16515">
        <ele>682</ele>
        <time>2019-12-08T11:22:36Z</time>
      </trkpt>
      <trkpt lat="43.44064" lon="2.16522">
        <ele>683</ele>
        <time>2019-12-08T11:22:39Z</time>
      </trkpt>
      <trkpt lat="43.44065" lon="2.16524">
        <ele>684</ele>
        <time>2019-12-08T11:22:40Z</time>
      </trkpt>
      <trkpt lat="43.44066" lon="2.16527">
        <ele>684</ele>
        <time>2019-12-08T11:22:41Z</time>
      </trkpt>
      <trkpt lat="43.44067" lon="2.16531">
        <ele>684</ele>
        <time>2019-12-08T11:22:43Z</time>
      </trkpt>
      <trkpt lat="43.44073" lon="2.16536">
        <ele>685</ele>
        <time>2019-12-08T11:22:47Z</time>
      </trkpt>
      <trkpt lat="43.44074" lon="2.16537">
        <ele>685</ele>
        <time>2019-12-08T11:22:48Z</time>
      </trkpt>
      <trkpt lat="43.44076" lon="2.16538">
        <ele>686</ele>
        <time>2019-12-08T11:22:49Z</time>
      </trkpt>
      <trkpt lat="43.44079" lon="2.16542">
        <ele>687</ele>
        <time>2019-12-08T11:22:52Z</time>
      </trkpt>
      <trkpt lat="43.44084" lon="2.16545">
        <ele>688</ele>
        <time>2019-12-08T11:22:55Z</time>
      </trkpt>
      <trkpt lat="43.4409" lon="2.16549">
        <ele>689</ele>
        <time>2019-12-08T11:22:59Z</time>
      </trkpt>
      <trkpt lat="43.44092" lon="2.1655">
        <ele>689</ele>
        <time>2019-12-08T11:23:00Z</time>
      </trkpt>
      <trkpt lat="43.441" lon="2.16552">
        <ele>690</ele>
        <time>2019-12-08T11:23:05Z</time>
      </trkpt>
      <trkpt lat="43.44101" lon="2.16553">
        <ele>690</ele>
        <time>2019-12-08T11:23:06Z</time>
      </trkpt>
      <trkpt lat="43.44103" lon="2.16554">
        <ele>690</ele>
        <time>2019-12-08T11:23:07Z</time>
      </trkpt>
      <trkpt lat="43.44109" lon="2.16555">
        <ele>691</ele>
        <time>2019-12-08T11:23:11Z</time>
      </trkpt>
      <trkpt lat="43.44112" lon="2.16554">
        <ele>692</ele>
        <time>2019-12-08T11:23:13Z</time>
      </trkpt>
      <trkpt lat="43.44115" lon="2.16553">
        <ele>692</ele>
        <time>2019-12-08T11:23:15Z</time>
      </trkpt>
      <trkpt lat="43.44118" lon="2.16553">
        <ele>693</ele>
        <time>2019-12-08T11:23:17Z</time>
      </trkpt>
      <trkpt lat="43.4412" lon="2.16553">
        <ele>693</ele>
        <time>2019-12-08T11:23:19Z</time>
      </trkpt>
      <trkpt lat="43.44122" lon="2.16553">
        <ele>694</ele>
        <time>2019-12-08T11:23:20Z</time>
      </trkpt>
      <trkpt lat="43.44128" lon="2.16552">
        <ele>695</ele>
        <time>2019-12-08T11:23:24Z</time>
      </trkpt>
      <trkpt lat="43.44129" lon="2.16551">
        <ele>695</ele>
        <time>2019-12-08T11:23:25Z</time>
      </trkpt>
      <trkpt lat="43.44135" lon="2.16553">
        <ele>695</ele>
        <time>2019-12-08T11:23:28Z</time>
      </trkpt>
      <trkpt lat="43.44139" lon="2.16555">
        <ele>696</ele>
        <time>2019-12-08T11:23:30Z</time>
      </trkpt>
      <trkpt lat="43.4414" lon="2.16556">
        <ele>696</ele>
        <time>2019-12-08T11:23:31Z</time>
      </trkpt>
      <trkpt lat="43.44143" lon="2.16557">
        <ele>696</ele>
        <time>2019-12-08T11:23:33Z</time>
      </trkpt>
      <trkpt lat="43.44158" lon="2.16566">
        <ele>697</ele>
        <time>2019-12-08T11:23:40Z</time>
      </trkpt>
      <trkpt lat="43.4416" lon="2.16567">
        <ele>697</ele>
        <time>2019-12-08T11:23:41Z</time>
      </trkpt>
      <trkpt lat="43.44168" lon="2.16568">
        <ele>698</ele>
        <time>2019-12-08T11:23:46Z</time>
      </trkpt>
      <trkpt lat="43.44169" lon="2.16569">
        <ele>698</ele>
        <time>2019-12-08T11:23:47Z</time>
      </trkpt>
      <trkpt lat="43.44177" lon="2.1657">
        <ele>699</ele>
        <time>2019-12-08T11:23:52Z</time>
      </trkpt>
      <trkpt lat="43.44189" lon="2.16567">
        <ele>700</ele>
        <time>2019-12-08T11:23:58Z</time>
      </trkpt>
      <trkpt lat="43.44192" lon="2.16566">
        <ele>701</ele>
        <time>2019-12-08T11:23:59Z</time>
      </trkpt>
      <trkpt lat="43.44197" lon="2.16565">
        <ele>701</ele>
        <time>2019-12-08T11:24:02Z</time>
      </trkpt>
      <trkpt lat="43.44199" lon="2.16565">
        <ele>701</ele>
        <time>2019-12-08T11:24:03Z</time>
      </trkpt>
      <trkpt lat="43.44208" lon="2.16566">
        <ele>702</ele>
        <time>2019-12-08T11:24:07Z</time>
      </trkpt>
      <trkpt lat="43.44214" lon="2.16567">
        <ele>703</ele>
        <time>2019-12-08T11:24:09Z</time>
      </trkpt>
      <trkpt lat="43.4422" lon="2.16566">
        <ele>703</ele>
        <time>2019-12-08T11:24:13Z</time>
      </trkpt>
      <trkpt lat="43.44228" lon="2.16565">
        <ele>704</ele>
        <time>2019-12-08T11:24:17Z</time>
      </trkpt>
      <trkpt lat="43.44232" lon="2.16565">
        <ele>704</ele>
        <time>2019-12-08T11:24:19Z</time>
      </trkpt>
      <trkpt lat="43.44248" lon="2.16559">
        <ele>705</ele>
        <time>2019-12-08T11:24:24Z</time>
      </trkpt>
      <trkpt lat="43.44253" lon="2.16557">
        <ele>705</ele>
        <time>2019-12-08T11:24:26Z</time>
      </trkpt>
      <trkpt lat="43.44262" lon="2.16553">
        <ele>705</ele>
        <time>2019-12-08T11:24:29Z</time>
      </trkpt>
      <trkpt lat="43.44271" lon="2.16551">
        <ele>705</ele>
        <time>2019-12-08T11:24:32Z</time>
      </trkpt>
      <trkpt lat="43.44275" lon="2.1655">
        <ele>705</ele>
        <time>2019-12-08T11:24:34Z</time>
      </trkpt>
      <trkpt lat="43.44287" lon="2.16546">
        <ele>706</ele>
        <time>2019-12-08T11:24:38Z</time>
      </trkpt>
      <trkpt lat="43.44291" lon="2.16545">
        <ele>706</ele>
        <time>2019-12-08T11:24:39Z</time>
      </trkpt>
      <trkpt lat="43.44298" lon="2.16543">
        <ele>706</ele>
        <time>2019-12-08T11:24:41Z</time>
      </trkpt>
      <trkpt lat="43.44301" lon="2.16541">
        <ele>706</ele>
        <time>2019-12-08T11:24:42Z</time>
      </trkpt>
      <trkpt lat="43.44306" lon="2.16537">
        <ele>706</ele>
        <time>2019-12-08T11:24:44Z</time>
      </trkpt>
      <trkpt lat="43.4432" lon="2.16524">
        <ele>707</ele>
        <time>2019-12-08T11:24:49Z</time>
      </trkpt>
      <trkpt lat="43.44322" lon="2.16523">
        <ele>707</ele>
        <time>2019-12-08T11:24:50Z</time>
      </trkpt>
      <trkpt lat="43.44331" lon="2.16521">
        <ele>707</ele>
        <time>2019-12-08T11:24:54Z</time>
      </trkpt>
      <trkpt lat="43.44335" lon="2.16519">
        <ele>708</ele>
        <time>2019-12-08T11:24:56Z</time>
      </trkpt>
      <trkpt lat="43.44339" lon="2.16518">
        <ele>708</ele>
        <time>2019-12-08T11:24:58Z</time>
      </trkpt>
      <trkpt lat="43.44341" lon="2.16518">
        <ele>708</ele>
        <time>2019-12-08T11:24:59Z</time>
      </trkpt>
      <trkpt lat="43.44343" lon="2.16518">
        <ele>709</ele>
        <time>2019-12-08T11:25:00Z</time>
      </trkpt>
      <trkpt lat="43.44345" lon="2.16517">
        <ele>709</ele>
        <time>2019-12-08T11:25:01Z</time>
      </trkpt>
      <trkpt lat="43.44347" lon="2.16518">
        <ele>710</ele>
        <time>2019-12-08T11:25:02Z</time>
      </trkpt>
      <trkpt lat="43.44348" lon="2.16519">
        <ele>710</ele>
        <time>2019-12-08T11:25:03Z</time>
      </trkpt>
      <trkpt lat="43.4435" lon="2.16519">
        <ele>710</ele>
        <time>2019-12-08T11:25:04Z</time>
      </trkpt>
      <trkpt lat="43.44358" lon="2.16519">
        <ele>711</ele>
        <time>2019-12-08T11:25:08Z</time>
      </trkpt>
      <trkpt lat="43.44369" lon="2.16524">
        <ele>713</ele>
        <time>2019-12-08T11:25:13Z</time>
      </trkpt>
      <trkpt lat="43.44371" lon="2.16524">
        <ele>713</ele>
        <time>2019-12-08T11:25:14Z</time>
      </trkpt>
      <trkpt lat="43.44377" lon="2.16526">
        <ele>714</ele>
        <time>2019-12-08T11:25:17Z</time>
      </trkpt>
      <trkpt lat="43.4438" lon="2.16528">
        <ele>714</ele>
        <time>2019-12-08T11:25:18Z</time>
      </trkpt>
      <trkpt lat="43.44382" lon="2.16529">
        <ele>714</ele>
        <time>2019-12-08T11:25:19Z</time>
      </trkpt>
      <trkpt lat="43.44392" lon="2.16534">
        <ele>714</ele>
        <time>2019-12-08T11:25:23Z</time>
      </trkpt>
      <trkpt lat="43.44399" lon="2.16536">
        <ele>715</ele>
        <time>2019-12-08T11:25:26Z</time>
      </trkpt>
      <trkpt lat="43.44401" lon="2.16537">
        <ele>715</ele>
        <time>2019-12-08T11:25:27Z</time>
      </trkpt>
      <trkpt lat="43.44408" lon="2.16539">
        <ele>716</ele>
        <time>2019-12-08T11:25:30Z</time>
      </trkpt>
      <trkpt lat="43.44413" lon="2.1654">
        <ele>716</ele>
        <time>2019-12-08T11:25:32Z</time>
      </trkpt>
      <trkpt lat="43.44418" lon="2.16541">
        <ele>717</ele>
        <time>2019-12-08T11:25:35Z</time>
      </trkpt>
      <trkpt lat="43.44421" lon="2.16541">
        <ele>717</ele>
        <time>2019-12-08T11:25:36Z</time>
      </trkpt>
      <trkpt lat="43.44431" lon="2.1654">
        <ele>718</ele>
        <time>2019-12-08T11:25:41Z</time>
      </trkpt>
      <trkpt lat="43.4444" lon="2.16543">
        <ele>718</ele>
        <time>2019-12-08T11:25:46Z</time>
      </trkpt>
      <trkpt lat="43.44442" lon="2.16544">
        <ele>718</ele>
        <time>2019-12-08T11:25:47Z</time>
      </trkpt>
      <trkpt lat="43.44451" lon="2.16547">
        <ele>719</ele>
        <time>2019-12-08T11:25:51Z</time>
      </trkpt>
      <trkpt lat="43.44459" lon="2.16549">
        <ele>719</ele>
        <time>2019-12-08T11:25:55Z</time>
      </trkpt>
      <trkpt lat="43.44469" lon="2.16545">
        <ele>719</ele>
        <time>2019-12-08T11:25:59Z</time>
      </trkpt>
      <trkpt lat="43.44472" lon="2.16544">
        <ele>719</ele>
        <time>2019-12-08T11:26:00Z</time>
      </trkpt>
      <trkpt lat="43.44492" lon="2.16535">
        <ele>720</ele>
        <time>2019-12-08T11:26:06Z</time>
      </trkpt>
      <trkpt lat="43.44504" lon="2.16526">
        <ele>720</ele>
        <time>2019-12-08T11:26:11Z</time>
      </trkpt>
      <trkpt lat="43.44516" lon="2.16515">
        <ele>721</ele>
        <time>2019-12-08T11:26:16Z</time>
      </trkpt>
      <trkpt lat="43.44522" lon="2.16511">
        <ele>722</ele>
        <time>2019-12-08T11:26:18Z</time>
      </trkpt>
      <trkpt lat="43.4453" lon="2.16504">
        <ele>722</ele>
        <time>2019-12-08T11:26:21Z</time>
      </trkpt>
      <trkpt lat="43.44533" lon="2.16502">
        <ele>723</ele>
        <time>2019-12-08T11:26:23Z</time>
      </trkpt>
      <trkpt lat="43.44536" lon="2.16502">
        <ele>723</ele>
        <time>2019-12-08T11:26:25Z</time>
      </trkpt>
      <trkpt lat="43.4454" lon="2.16503">
        <ele>724</ele>
        <time>2019-12-08T11:26:27Z</time>
      </trkpt>
      <trkpt lat="43.44541" lon="2.16504">
        <ele>724</ele>
        <time>2019-12-08T11:26:28Z</time>
      </trkpt>
      <trkpt lat="43.44544" lon="2.16505">
        <ele>724</ele>
        <time>2019-12-08T11:26:30Z</time>
      </trkpt>
      <trkpt lat="43.44547" lon="2.16505">
        <ele>725</ele>
        <time>2019-12-08T11:26:32Z</time>
      </trkpt>
      <trkpt lat="43.44552" lon="2.16504">
        <ele>726</ele>
        <time>2019-12-08T11:26:35Z</time>
      </trkpt>
      <trkpt lat="43.44557" lon="2.16502">
        <ele>727</ele>
        <time>2019-12-08T11:26:38Z</time>
      </trkpt>
      <trkpt lat="43.44558" lon="2.16501">
        <ele>727</ele>
        <time>2019-12-08T11:26:39Z</time>
      </trkpt>
      <trkpt lat="43.44561" lon="2.165">
        <ele>728</ele>
        <time>2019-12-08T11:26:40Z</time>
      </trkpt>
      <trkpt lat="43.44568" lon="2.16497">
        <ele>729</ele>
        <time>2019-12-08T11:26:44Z</time>
      </trkpt>
      <trkpt lat="43.4457" lon="2.16496">
        <ele>729</ele>
        <time>2019-12-08T11:26:45Z</time>
      </trkpt>
      <trkpt lat="43.44575" lon="2.16495">
        <ele>730</ele>
        <time>2019-12-08T11:26:49Z</time>
      </trkpt>
      <trkpt lat="43.44577" lon="2.16495">
        <ele>730</ele>
        <time>2019-12-08T11:26:50Z</time>
      </trkpt>
      <trkpt lat="43.44581" lon="2.16496">
        <ele>731</ele>
        <time>2019-12-08T11:26:53Z</time>
      </trkpt>
      <trkpt lat="43.44582" lon="2.16496">
        <ele>731</ele>
        <time>2019-12-08T11:26:54Z</time>
      </trkpt>
      <trkpt lat="43.44584" lon="2.16497">
        <ele>731</ele>
        <time>2019-12-08T11:26:55Z</time>
      </trkpt>
      <trkpt lat="43.44586" lon="2.16497">
        <ele>732</ele>
        <time>2019-12-08T11:26:56Z</time>
      </trkpt>
      <trkpt lat="43.44587" lon="2.16498">
        <ele>732</ele>
        <time>2019-12-08T11:26:57Z</time>
      </trkpt>
      <trkpt lat="43.44595" lon="2.16505">
        <ele>733</ele>
        <time>2019-12-08T11:27:01Z</time>
      </trkpt>
      <trkpt lat="43.44598" lon="2.16508">
        <ele>733</ele>
        <time>2019-12-08T11:27:03Z</time>
      </trkpt>
      <trkpt lat="43.44606" lon="2.16511">
        <ele>735</ele>
        <time>2019-12-08T11:27:07Z</time>
      </trkpt>
      <trkpt lat="43.44617" lon="2.16512">
        <ele>735</ele>
        <time>2019-12-08T11:27:13Z</time>
      </trkpt>
      <trkpt lat="43.44619" lon="2.16513">
        <ele>736</ele>
        <time>2019-12-08T11:27:14Z</time>
      </trkpt>
      <trkpt lat="43.44621" lon="2.16514">
        <ele>736</ele>
        <time>2019-12-08T11:27:15Z</time>
      </trkpt>
      <trkpt lat="43.44628" lon="2.16516">
        <ele>736</ele>
        <time>2019-12-08T11:27:18Z</time>
      </trkpt>
      <trkpt lat="43.44642" lon="2.16519">
        <ele>737</ele>
        <time>2019-12-08T11:27:24Z</time>
      </trkpt>
      <trkpt lat="43.44647" lon="2.1652">
        <ele>737</ele>
        <time>2019-12-08T11:27:26Z</time>
      </trkpt>
      <trkpt lat="43.44654" lon="2.16521">
        <ele>737</ele>
        <time>2019-12-08T11:27:29Z</time>
      </trkpt>
      <trkpt lat="43.44672" lon="2.16522">
        <ele>737</ele>
        <time>2019-12-08T11:27:36Z</time>
      </trkpt>
      <trkpt lat="43.44681" lon="2.16523">
        <ele>738</ele>
        <time>2019-12-08T11:27:40Z</time>
      </trkpt>
      <trkpt lat="43.44683" lon="2.16523">
        <ele>738</ele>
        <time>2019-12-08T11:27:41Z</time>
      </trkpt>
      <trkpt lat="43.44687" lon="2.16524">
        <ele>739</ele>
        <time>2019-12-08T11:27:43Z</time>
      </trkpt>
      <trkpt lat="43.44691" lon="2.16525">
        <ele>739</ele>
        <time>2019-12-08T11:27:45Z</time>
      </trkpt>
      <trkpt lat="43.44696" lon="2.16525">
        <ele>740</ele>
        <time>2019-12-08T11:27:48Z</time>
      </trkpt>
      <trkpt lat="43.447" lon="2.16524">
        <ele>741</ele>
        <time>2019-12-08T11:27:50Z</time>
      </trkpt>
      <trkpt lat="43.44713" lon="2.16521">
        <ele>742</ele>
        <time>2019-12-08T11:27:55Z</time>
      </trkpt>
      <trkpt lat="43.44715" lon="2.16522">
        <ele>742</ele>
        <time>2019-12-08T11:27:56Z</time>
      </trkpt>
      <trkpt lat="43.44729" lon="2.16529">
        <ele>743</ele>
        <time>2019-12-08T11:28:01Z</time>
      </trkpt>
      <trkpt lat="43.44737" lon="2.16535">
        <ele>743</ele>
        <time>2019-12-08T11:28:05Z</time>
      </trkpt>
      <trkpt lat="43.4474" lon="2.16538">
        <ele>743</ele>
        <time>2019-12-08T11:28:06Z</time>
      </trkpt>
      <trkpt lat="43.44755" lon="2.16547">
        <ele>744</ele>
        <time>2019-12-08T11:28:11Z</time>
      </trkpt>
      <trkpt lat="43.44758" lon="2.16549">
        <ele>744</ele>
        <time>2019-12-08T11:28:12Z</time>
      </trkpt>
      <trkpt lat="43.44769" lon="2.16555">
        <ele>744</ele>
        <time>2019-12-08T11:28:16Z</time>
      </trkpt>
      <trkpt lat="43.44782" lon="2.16561">
        <ele>744</ele>
        <time>2019-12-08T11:28:20Z</time>
      </trkpt>
      <trkpt lat="43.44789" lon="2.16563">
        <ele>744</ele>
        <time>2019-12-08T11:28:22Z</time>
      </trkpt>
      <trkpt lat="43.44794" lon="2.16565">
        <ele>743</ele>
        <time>2019-12-08T11:28:24Z</time>
      </trkpt>
      <trkpt lat="43.44802" lon="2.16566">
        <ele>743</ele>
        <time>2019-12-08T11:28:26Z</time>
      </trkpt>
      <trkpt lat="43.44812" lon="2.16567">
        <ele>743</ele>
        <time>2019-12-08T11:28:28Z</time>
      </trkpt>
      <trkpt lat="43.44819" lon="2.16567">
        <ele>742</ele>
        <time>2019-12-08T11:28:30Z</time>
      </trkpt>
      <trkpt lat="43.44823" lon="2.16567">
        <ele>742</ele>
        <time>2019-12-08T11:28:31Z</time>
      </trkpt>
      <trkpt lat="43.44827" lon="2.16568">
        <ele>742</ele>
        <time>2019-12-08T11:28:34Z</time>
      </trkpt>
      <trkpt lat="43.44831" lon="2.1657">
        <ele>742</ele>
        <time>2019-12-08T11:28:39Z</time>
      </trkpt>
      <trkpt lat="43.44836" lon="2.16573">
        <ele>742</ele>
        <time>2019-12-08T11:28:41Z</time>
      </trkpt>
      <trkpt lat="43.4484" lon="2.16574">
        <ele>742</ele>
        <time>2019-12-08T11:28:42Z</time>
      </trkpt>
      <trkpt lat="43.44851" lon="2.1658">
        <ele>741</ele>
        <time>2019-12-08T11:28:45Z</time>
      </trkpt>
      <trkpt lat="43.44855" lon="2.16582">
        <ele>741</ele>
        <time>2019-12-08T11:28:46Z</time>
      </trkpt>
      <trkpt lat="43.44859" lon="2.16583">
        <ele>741</ele>
        <time>2019-12-08T11:28:47Z</time>
      </trkpt>
      <trkpt lat="43.44867" lon="2.16585">
        <ele>740</ele>
        <time>2019-12-08T11:28:49Z</time>
      </trkpt>
      <trkpt lat="43.44871" lon="2.16588">
        <ele>739</ele>
        <time>2019-12-08T11:28:50Z</time>
      </trkpt>
      <trkpt lat="43.44885" lon="2.16595">
        <ele>738</ele>
        <time>2019-12-08T11:28:53Z</time>
      </trkpt>
      <trkpt lat="43.44888" lon="2.16598">
        <ele>738</ele>
        <time>2019-12-08T11:28:54Z</time>
      </trkpt>
      <trkpt lat="43.44907" lon="2.16605">
        <ele>738</ele>
        <time>2019-12-08T11:28:58Z</time>
      </trkpt>
      <trkpt lat="43.44911" lon="2.16607">
        <ele>738</ele>
        <time>2019-12-08T11:28:59Z</time>
      </trkpt>
      <trkpt lat="43.4493" lon="2.16619">
        <ele>736</ele>
        <time>2019-12-08T11:29:02Z</time>
      </trkpt>
      <trkpt lat="43.44937" lon="2.16623">
        <ele>736</ele>
        <time>2019-12-08T11:29:03Z</time>
      </trkpt>
      <trkpt lat="43.44944" lon="2.16626">
        <ele>735</ele>
        <time>2019-12-08T11:29:04Z</time>
      </trkpt>
      <trkpt lat="43.44956" lon="2.16626">
        <ele>734</ele>
        <time>2019-12-08T11:29:06Z</time>
      </trkpt>
      <trkpt lat="43.44962" lon="2.16626">
        <ele>733</ele>
        <time>2019-12-08T11:29:07Z</time>
      </trkpt>
      <trkpt lat="43.44967" lon="2.16626">
        <ele>733</ele>
        <time>2019-12-08T11:29:08Z</time>
      </trkpt>
      <trkpt lat="43.44981" lon="2.16627">
        <ele>732</ele>
        <time>2019-12-08T11:29:10Z</time>
      </trkpt>
      <trkpt lat="43.44991" lon="2.16629">
        <ele>732</ele>
        <time>2019-12-08T11:29:12Z</time>
      </trkpt>
      <trkpt lat="43.44995" lon="2.16631">
        <ele>732</ele>
        <time>2019-12-08T11:29:13Z</time>
      </trkpt>
      <trkpt lat="43.45007" lon="2.1664">
        <ele>732</ele>
        <time>2019-12-08T11:29:16Z</time>
      </trkpt>
      <trkpt lat="43.45012" lon="2.16648">
        <ele>731</ele>
        <time>2019-12-08T11:29:18Z</time>
      </trkpt>
      <trkpt lat="43.45018" lon="2.16667">
        <ele>731</ele>
        <time>2019-12-08T11:29:22Z</time>
      </trkpt>
      <trkpt lat="43.45014" lon="2.16694">
        <ele>730</ele>
        <time>2019-12-08T11:29:26Z</time>
      </trkpt>
      <trkpt lat="43.45012" lon="2.16708">
        <ele>729</ele>
        <time>2019-12-08T11:29:28Z</time>
      </trkpt>
      <trkpt lat="43.45011" lon="2.16714">
        <ele>729</ele>
        <time>2019-12-08T11:29:29Z</time>
      </trkpt>
      <trkpt lat="43.45007" lon="2.16733">
        <ele>728</ele>
        <time>2019-12-08T11:29:33Z</time>
      </trkpt>
      <trkpt lat="43.45005" lon="2.16751">
        <ele>729</ele>
        <time>2019-12-08T11:29:36Z</time>
      </trkpt>
      <trkpt lat="43.45006" lon="2.16758">
        <ele>729</ele>
        <time>2019-12-08T11:29:37Z</time>
      </trkpt>
      <trkpt lat="43.4501" lon="2.16775">
        <ele>730</ele>
        <time>2019-12-08T11:29:40Z</time>
      </trkpt>
      <trkpt lat="43.4501" lon="2.1678">
        <ele>730</ele>
        <time>2019-12-08T11:29:41Z</time>
      </trkpt>
      <trkpt lat="43.45011" lon="2.16785">
        <ele>730</ele>
        <time>2019-12-08T11:29:42Z</time>
      </trkpt>
      <trkpt lat="43.45014" lon="2.16799">
        <ele>732</ele>
        <time>2019-12-08T11:29:45Z</time>
      </trkpt>
      <trkpt lat="43.45015" lon="2.16804">
        <ele>733</ele>
        <time>2019-12-08T11:29:46Z</time>
      </trkpt>
      <trkpt lat="43.45016" lon="2.16808">
        <ele>733</ele>
        <time>2019-12-08T11:29:47Z</time>
      </trkpt>
      <trkpt lat="43.4502" lon="2.1682">
        <ele>734</ele>
        <time>2019-12-08T11:29:50Z</time>
      </trkpt>
      <trkpt lat="43.45022" lon="2.16827">
        <ele>735</ele>
        <time>2019-12-08T11:29:52Z</time>
      </trkpt>
      <trkpt lat="43.45026" lon="2.16833">
        <ele>736</ele>
        <time>2019-12-08T11:29:54Z</time>
      </trkpt>
      <trkpt lat="43.45031" lon="2.16836">
        <ele>736</ele>
        <time>2019-12-08T11:29:56Z</time>
      </trkpt>
      <trkpt lat="43.45035" lon="2.16835">
        <ele>737</ele>
        <time>2019-12-08T11:29:58Z</time>
      </trkpt>
      <trkpt lat="43.45039" lon="2.16836">
        <ele>738</ele>
        <time>2019-12-08T11:30:00Z</time>
      </trkpt>
      <trkpt lat="43.45043" lon="2.16838">
        <ele>738</ele>
        <time>2019-12-08T11:30:02Z</time>
      </trkpt>
      <trkpt lat="43.45049" lon="2.16844">
        <ele>740</ele>
        <time>2019-12-08T11:30:05Z</time>
      </trkpt>
      <trkpt lat="43.45059" lon="2.16852">
        <ele>741</ele>
        <time>2019-12-08T11:30:10Z</time>
      </trkpt>
      <trkpt lat="43.45061" lon="2.16852">
        <ele>741</ele>
        <time>2019-12-08T11:30:11Z</time>
      </trkpt>
      <trkpt lat="43.4507" lon="2.16853">
        <ele>742</ele>
        <time>2019-12-08T11:30:15Z</time>
      </trkpt>
      <trkpt lat="43.45075" lon="2.16855">
        <ele>742</ele>
        <time>2019-12-08T11:30:17Z</time>
      </trkpt>
      <trkpt lat="43.45087" lon="2.1686">
        <ele>743</ele>
        <time>2019-12-08T11:30:21Z</time>
      </trkpt>
      <trkpt lat="43.45103" lon="2.16869">
        <ele>742</ele>
        <time>2019-12-08T11:30:26Z</time>
      </trkpt>
      <trkpt lat="43.45111" lon="2.16872">
        <ele>742</ele>
        <time>2019-12-08T11:30:28Z</time>
      </trkpt>
      <trkpt lat="43.45122" lon="2.16874">
        <ele>741</ele>
        <time>2019-12-08T11:30:31Z</time>
      </trkpt>
      <trkpt lat="43.45134" lon="2.16878">
        <ele>741</ele>
        <time>2019-12-08T11:30:34Z</time>
      </trkpt>
      <trkpt lat="43.45147" lon="2.16881">
        <ele>740</ele>
        <time>2019-12-08T11:30:37Z</time>
      </trkpt>
      <trkpt lat="43.45152" lon="2.16881">
        <ele>739</ele>
        <time>2019-12-08T11:30:38Z</time>
      </trkpt>
      <trkpt lat="43.45158" lon="2.16883">
        <ele>739</ele>
        <time>2019-12-08T11:30:40Z</time>
      </trkpt>
      <trkpt lat="43.45161" lon="2.16882">
        <ele>739</ele>
        <time>2019-12-08T11:30:41Z</time>
      </trkpt>
      <trkpt lat="43.45164" lon="2.16881">
        <ele>738</ele>
        <time>2019-12-08T11:30:42Z</time>
      </trkpt>
      <trkpt lat="43.45176" lon="2.16882">
        <ele>737</ele>
        <time>2019-12-08T11:30:45Z</time>
      </trkpt>
      <trkpt lat="43.45187" lon="2.16873">
        <ele>737</ele>
        <time>2019-12-08T11:30:48Z</time>
      </trkpt>
      <trkpt lat="43.45197" lon="2.1686">
        <ele>736</ele>
        <time>2019-12-08T11:30:52Z</time>
      </trkpt>
      <trkpt lat="43.45202" lon="2.16854">
        <ele>737</ele>
        <time>2019-12-08T11:30:54Z</time>
      </trkpt>
      <trkpt lat="43.45215" lon="2.16839">
        <ele>738</ele>
        <time>2019-12-08T11:30:59Z</time>
      </trkpt>
      <trkpt lat="43.45227" lon="2.1683">
        <ele>738</ele>
        <time>2019-12-08T11:31:03Z</time>
      </trkpt>
      <trkpt lat="43.45233" lon="2.16825">
        <ele>739</ele>
        <time>2019-12-08T11:31:05Z</time>
      </trkpt>
      <trkpt lat="43.45244" lon="2.1682">
        <ele>739</ele>
        <time>2019-12-08T11:31:08Z</time>
      </trkpt>
      <trkpt lat="43.45256" lon="2.16818">
        <ele>739</ele>
        <time>2019-12-08T11:31:12Z</time>
      </trkpt>
      <trkpt lat="43.45262" lon="2.16818">
        <ele>740</ele>
        <time>2019-12-08T11:31:14Z</time>
      </trkpt>
      <trkpt lat="43.45267" lon="2.1682">
        <ele>740</ele>
        <time>2019-12-08T11:31:16Z</time>
      </trkpt>
      <trkpt lat="43.45281" lon="2.16823">
        <ele>741</ele>
        <time>2019-12-08T11:31:20Z</time>
      </trkpt>
      <trkpt lat="43.45292" lon="2.16825">
        <ele>742</ele>
        <time>2019-12-08T11:31:24Z</time>
      </trkpt>
      <trkpt lat="43.45297" lon="2.16823">
        <ele>742</ele>
        <time>2019-12-08T11:31:26Z</time>
      </trkpt>
      <trkpt lat="43.45306" lon="2.16823">
        <ele>743</ele>
        <time>2019-12-08T11:31:29Z</time>
      </trkpt>
      <trkpt lat="43.45318" lon="2.16822">
        <ele>743</ele>
        <time>2019-12-08T11:31:33Z</time>
      </trkpt>
      <trkpt lat="43.45344" lon="2.16823">
        <ele>744</ele>
        <time>2019-12-08T11:31:40Z</time>
      </trkpt>
      <trkpt lat="43.45352" lon="2.16824">
        <ele>744</ele>
        <time>2019-12-08T11:31:43Z</time>
      </trkpt>
      <trkpt lat="43.45354" lon="2.16824">
        <ele>745</ele>
        <time>2019-12-08T11:31:44Z</time>
      </trkpt>
      <trkpt lat="43.45368" lon="2.16828">
        <ele>745</ele>
        <time>2019-12-08T11:31:48Z</time>
      </trkpt>
      <trkpt lat="43.45378" lon="2.16831">
        <ele>745</ele>
        <time>2019-12-08T11:31:51Z</time>
      </trkpt>
      <trkpt lat="43.45387" lon="2.16831">
        <ele>746</ele>
        <time>2019-12-08T11:31:54Z</time>
      </trkpt>
      <trkpt lat="43.45404" lon="2.16831">
        <ele>746</ele>
        <time>2019-12-08T11:31:58Z</time>
      </trkpt>
      <trkpt lat="43.45408" lon="2.16829">
        <ele>747</ele>
        <time>2019-12-08T11:31:59Z</time>
      </trkpt>
      <trkpt lat="43.45429" lon="2.16817">
        <ele>747</ele>
        <time>2019-12-08T11:32:05Z</time>
      </trkpt>
      <trkpt lat="43.45433" lon="2.16815">
        <ele>748</ele>
        <time>2019-12-08T11:32:06Z</time>
      </trkpt>
      <trkpt lat="43.45447" lon="2.16809">
        <ele>748</ele>
        <time>2019-12-08T11:32:10Z</time>
      </trkpt>
      <trkpt lat="43.45454" lon="2.16805">
        <ele>749</ele>
        <time>2019-12-08T11:32:12Z</time>
      </trkpt>
      <trkpt lat="43.45469" lon="2.16796">
        <ele>749</ele>
        <time>2019-12-08T11:32:16Z</time>
      </trkpt>
      <trkpt lat="43.45475" lon="2.16792">
        <ele>750</ele>
        <time>2019-12-08T11:32:18Z</time>
      </trkpt>
      <trkpt lat="43.45488" lon="2.16783">
        <ele>751</ele>
        <time>2019-12-08T11:32:22Z</time>
      </trkpt>
      <trkpt lat="43.45491" lon="2.1678">
        <ele>751</ele>
        <time>2019-12-08T11:32:23Z</time>
      </trkpt>
      <trkpt lat="43.45515" lon="2.16764">
        <ele>752</ele>
        <time>2019-12-08T11:32:30Z</time>
      </trkpt>
      <trkpt lat="43.45521" lon="2.1676">
        <ele>752</ele>
        <time>2019-12-08T11:32:32Z</time>
      </trkpt>
      <trkpt lat="43.45531" lon="2.16756">
        <ele>753</ele>
        <time>2019-12-08T11:32:35Z</time>
      </trkpt>
      <trkpt lat="43.45544" lon="2.16746">
        <ele>753</ele>
        <time>2019-12-08T11:32:39Z</time>
      </trkpt>
      <trkpt lat="43.45547" lon="2.16744">
        <ele>753</ele>
        <time>2019-12-08T11:32:40Z</time>
      </trkpt>
      <trkpt lat="43.45561" lon="2.16729">
        <ele>754</ele>
        <time>2019-12-08T11:32:45Z</time>
      </trkpt>
      <trkpt lat="43.45572" lon="2.16713">
        <ele>755</ele>
        <time>2019-12-08T11:32:50Z</time>
      </trkpt>
      <trkpt lat="43.45581" lon="2.167">
        <ele>756</ele>
        <time>2019-12-08T11:32:54Z</time>
      </trkpt>
      <trkpt lat="43.45585" lon="2.16694">
        <ele>756</ele>
        <time>2019-12-08T11:32:56Z</time>
      </trkpt>
      <trkpt lat="43.45598" lon="2.16675">
        <ele>757</ele>
        <time>2019-12-08T11:33:02Z</time>
      </trkpt>
      <trkpt lat="43.4561" lon="2.16655">
        <ele>756</ele>
        <time>2019-12-08T11:33:08Z</time>
      </trkpt>
      <trkpt lat="43.45624" lon="2.16634">
        <ele>756</ele>
        <time>2019-12-08T11:33:13Z</time>
      </trkpt>
      <trkpt lat="43.45631" lon="2.16621">
        <ele>755</ele>
        <time>2019-12-08T11:33:16Z</time>
      </trkpt>
      <trkpt lat="43.45634" lon="2.16616">
        <ele>755</ele>
        <time>2019-12-08T11:33:17Z</time>
      </trkpt>
      <trkpt lat="43.45639" lon="2.16606">
        <ele>754</ele>
        <time>2019-12-08T11:33:19Z</time>
      </trkpt>
      <trkpt lat="43.45643" lon="2.166">
        <ele>754</ele>
        <time>2019-12-08T11:33:21Z</time>
      </trkpt>
      <trkpt lat="43.45648" lon="2.16599">
        <ele>753</ele>
        <time>2019-12-08T11:33:23Z</time>
      </trkpt>
      <trkpt lat="43.45654" lon="2.16601">
        <ele>753</ele>
        <time>2019-12-08T11:33:25Z</time>
      </trkpt>
      <trkpt lat="43.45659" lon="2.16605">
        <ele>753</ele>
        <time>2019-12-08T11:33:27Z</time>
      </trkpt>
      <trkpt lat="43.45661" lon="2.16608">
        <ele>753</ele>
        <time>2019-12-08T11:33:28Z</time>
      </trkpt>
      <trkpt lat="43.45672" lon="2.16618">
        <ele>752</ele>
        <time>2019-12-08T11:33:31Z</time>
      </trkpt>
      <trkpt lat="43.45683" lon="2.16628">
        <ele>752</ele>
        <time>2019-12-08T11:33:34Z</time>
      </trkpt>
      <trkpt lat="43.45698" lon="2.16644">
        <ele>751</ele>
        <time>2019-12-08T11:33:38Z</time>
      </trkpt>
      <trkpt lat="43.45712" lon="2.16651">
        <ele>751</ele>
        <time>2019-12-08T11:33:41Z</time>
      </trkpt>
      <trkpt lat="43.45716" lon="2.16654">
        <ele>751</ele>
        <time>2019-12-08T11:33:42Z</time>
      </trkpt>
      <trkpt lat="43.45721" lon="2.16657">
        <ele>751</ele>
        <time>2019-12-08T11:33:43Z</time>
      </trkpt>
      <trkpt lat="43.45733" lon="2.16665">
        <ele>750</ele>
        <time>2019-12-08T11:33:46Z</time>
      </trkpt>
      <trkpt lat="43.45738" lon="2.16666">
        <ele>750</ele>
        <time>2019-12-08T11:33:47Z</time>
      </trkpt>
      <trkpt lat="43.45747" lon="2.16667">
        <ele>750</ele>
        <time>2019-12-08T11:33:49Z</time>
      </trkpt>
      <trkpt lat="43.45752" lon="2.16668">
        <ele>750</ele>
        <time>2019-12-08T11:33:50Z</time>
      </trkpt>
      <trkpt lat="43.45757" lon="2.16669">
        <ele>749</ele>
        <time>2019-12-08T11:33:51Z</time>
      </trkpt>
      <trkpt lat="43.45772" lon="2.16676">
        <ele>749</ele>
        <time>2019-12-08T11:33:54Z</time>
      </trkpt>
      <trkpt lat="43.45777" lon="2.16678">
        <ele>749</ele>
        <time>2019-12-08T11:33:55Z</time>
      </trkpt>
      <trkpt lat="43.45783" lon="2.16681">
        <ele>748</ele>
        <time>2019-12-08T11:33:56Z</time>
      </trkpt>
      <trkpt lat="43.45789" lon="2.16684">
        <ele>748</ele>
        <time>2019-12-08T11:33:57Z</time>
      </trkpt>
      <trkpt lat="43.4581" lon="2.16689">
        <ele>748</ele>
        <time>2019-12-08T11:34:01Z</time>
      </trkpt>
      <trkpt lat="43.45816" lon="2.1669">
        <ele>747</ele>
        <time>2019-12-08T11:34:02Z</time>
      </trkpt>
      <trkpt lat="43.45822" lon="2.16688">
        <ele>746</ele>
        <time>2019-12-08T11:34:03Z</time>
      </trkpt>
      <trkpt lat="43.4583" lon="2.16684">
        <ele>745</ele>
        <time>2019-12-08T11:34:04Z</time>
      </trkpt>
      <trkpt lat="43.45845" lon="2.16678">
        <ele>744</ele>
        <time>2019-12-08T11:34:06Z</time>
      </trkpt>
      <trkpt lat="43.45859" lon="2.16675">
        <ele>742</ele>
        <time>2019-12-08T11:34:08Z</time>
      </trkpt>
      <trkpt lat="43.45882" lon="2.16683">
        <ele>740</ele>
        <time>2019-12-08T11:34:11Z</time>
      </trkpt>
      <trkpt lat="43.459" lon="2.16694">
        <ele>739</ele>
        <time>2019-12-08T11:34:14Z</time>
      </trkpt>
      <trkpt lat="43.45906" lon="2.16697">
        <ele>739</ele>
        <time>2019-12-08T11:34:15Z</time>
      </trkpt>
      <trkpt lat="43.4591" lon="2.16698">
        <ele>739</ele>
        <time>2019-12-08T11:34:16Z</time>
      </trkpt>
      <trkpt lat="43.45913" lon="2.16696">
        <ele>738</ele>
        <time>2019-12-08T11:34:17Z</time>
      </trkpt>
      <trkpt lat="43.45919" lon="2.16685">
        <ele>738</ele>
        <time>2019-12-08T11:34:19Z</time>
      </trkpt>
      <trkpt lat="43.45931" lon="2.16672">
        <ele>737</ele>
        <time>2019-12-08T11:34:22Z</time>
      </trkpt>
      <trkpt lat="43.45936" lon="2.16666">
        <ele>736</ele>
        <time>2019-12-08T11:34:23Z</time>
      </trkpt>
      <trkpt lat="43.45941" lon="2.1666">
        <ele>736</ele>
        <time>2019-12-08T11:34:24Z</time>
      </trkpt>
      <trkpt lat="43.45946" lon="2.16655">
        <ele>735</ele>
        <time>2019-12-08T11:34:25Z</time>
      </trkpt>
      <trkpt lat="43.45951" lon="2.16649">
        <ele>735</ele>
        <time>2019-12-08T11:34:26Z</time>
      </trkpt>
      <trkpt lat="43.45961" lon="2.16638">
        <ele>733</ele>
        <time>2019-12-08T11:34:28Z</time>
      </trkpt>
      <trkpt lat="43.45967" lon="2.16634">
        <ele>732</ele>
        <time>2019-12-08T11:34:29Z</time>
      </trkpt>
      <trkpt lat="43.45972" lon="2.1663">
        <ele>731</ele>
        <time>2019-12-08T11:34:30Z</time>
      </trkpt>
      <trkpt lat="43.45976" lon="2.16627">
        <ele>730</ele>
        <time>2019-12-08T11:34:31Z</time>
      </trkpt>
      <trkpt lat="43.45984" lon="2.16623">
        <ele>729</ele>
        <time>2019-12-08T11:34:33Z</time>
      </trkpt>
      <trkpt lat="43.45988" lon="2.16621">
        <ele>729</ele>
        <time>2019-12-08T11:34:34Z</time>
      </trkpt>
      <trkpt lat="43.45992" lon="2.1662">
        <ele>728</ele>
        <time>2019-12-08T11:34:35Z</time>
      </trkpt>
      <trkpt lat="43.46" lon="2.16611">
        <ele>728</ele>
        <time>2019-12-08T11:34:37Z</time>
      </trkpt>
      <trkpt lat="43.46004" lon="2.16607">
        <ele>728</ele>
        <time>2019-12-08T11:34:38Z</time>
      </trkpt>
      <trkpt lat="43.46007" lon="2.16601">
        <ele>727</ele>
        <time>2019-12-08T11:34:39Z</time>
      </trkpt>
      <trkpt lat="43.4601" lon="2.16594">
        <ele>727</ele>
        <time>2019-12-08T11:34:40Z</time>
      </trkpt>
      <trkpt lat="43.46013" lon="2.16588">
        <ele>726</ele>
        <time>2019-12-08T11:34:41Z</time>
      </trkpt>
      <trkpt lat="43.46017" lon="2.16583">
        <ele>725</ele>
        <time>2019-12-08T11:34:42Z</time>
      </trkpt>
      <trkpt lat="43.46026" lon="2.16574">
        <ele>723</ele>
        <time>2019-12-08T11:34:44Z</time>
      </trkpt>
      <trkpt lat="43.4603" lon="2.16571">
        <ele>722</ele>
        <time>2019-12-08T11:34:45Z</time>
      </trkpt>
      <trkpt lat="43.46033" lon="2.16569">
        <ele>722</ele>
        <time>2019-12-08T11:34:46Z</time>
      </trkpt>
      <trkpt lat="43.46041" lon="2.16568">
        <ele>720</ele>
        <time>2019-12-08T11:34:48Z</time>
      </trkpt>
      <trkpt lat="43.46045" lon="2.16567">
        <ele>719</ele>
        <time>2019-12-08T11:34:49Z</time>
      </trkpt>
      <trkpt lat="43.46049" lon="2.16565">
        <ele>718</ele>
        <time>2019-12-08T11:34:50Z</time>
      </trkpt>
      <trkpt lat="43.4605" lon="2.16561">
        <ele>717</ele>
        <time>2019-12-08T11:34:51Z</time>
      </trkpt>
      <trkpt lat="43.46053" lon="2.16557">
        <ele>717</ele>
        <time>2019-12-08T11:34:52Z</time>
      </trkpt>
      <trkpt lat="43.46059" lon="2.1655">
        <ele>716</ele>
        <time>2019-12-08T11:34:54Z</time>
      </trkpt>
      <trkpt lat="43.46067" lon="2.16542">
        <ele>715</ele>
        <time>2019-12-08T11:34:56Z</time>
      </trkpt>
      <trkpt lat="43.46071" lon="2.16537">
        <ele>714</ele>
        <time>2019-12-08T11:34:57Z</time>
      </trkpt>
      <trkpt lat="43.46078" lon="2.16528">
        <ele>712</ele>
        <time>2019-12-08T11:34:59Z</time>
      </trkpt>
      <trkpt lat="43.46082" lon="2.16518">
        <ele>710</ele>
        <time>2019-12-08T11:35:01Z</time>
      </trkpt>
      <trkpt lat="43.46081" lon="2.16509">
        <ele>708</ele>
        <time>2019-12-08T11:35:03Z</time>
      </trkpt>
      <trkpt lat="43.46082" lon="2.16504">
        <ele>708</ele>
        <time>2019-12-08T11:35:04Z</time>
      </trkpt>
      <trkpt lat="43.46082" lon="2.16498">
        <ele>708</ele>
        <time>2019-12-08T11:35:05Z</time>
      </trkpt>
      <trkpt lat="43.46083" lon="2.16493">
        <ele>707</ele>
        <time>2019-12-08T11:35:06Z</time>
      </trkpt>
      <trkpt lat="43.46086" lon="2.16483">
        <ele>705</ele>
        <time>2019-12-08T11:35:08Z</time>
      </trkpt>
      <trkpt lat="43.46089" lon="2.16476">
        <ele>704</ele>
        <time>2019-12-08T11:35:09Z</time>
      </trkpt>
      <trkpt lat="43.46092" lon="2.16469">
        <ele>704</ele>
        <time>2019-12-08T11:35:10Z</time>
      </trkpt>
      <trkpt lat="43.461" lon="2.16454">
        <ele>702</ele>
        <time>2019-12-08T11:35:12Z</time>
      </trkpt>
      <trkpt lat="43.46104" lon="2.16448">
        <ele>701</ele>
        <time>2019-12-08T11:35:13Z</time>
      </trkpt>
      <trkpt lat="43.46108" lon="2.16441">
        <ele>700</ele>
        <time>2019-12-08T11:35:14Z</time>
      </trkpt>
      <trkpt lat="43.46112" lon="2.16435">
        <ele>699</ele>
        <time>2019-12-08T11:35:15Z</time>
      </trkpt>
      <trkpt lat="43.46115" lon="2.1643">
        <ele>698</ele>
        <time>2019-12-08T11:35:16Z</time>
      </trkpt>
      <trkpt lat="43.46119" lon="2.16426">
        <ele>697</ele>
        <time>2019-12-08T11:35:17Z</time>
      </trkpt>
      <trkpt lat="43.46122" lon="2.16423">
        <ele>696</ele>
        <time>2019-12-08T11:35:18Z</time>
      </trkpt>
      <trkpt lat="43.46124" lon="2.16424">
        <ele>696</ele>
        <time>2019-12-08T11:35:19Z</time>
      </trkpt>
      <trkpt lat="43.46127" lon="2.16427">
        <ele>695</ele>
        <time>2019-12-08T11:35:20Z</time>
      </trkpt>
      <trkpt lat="43.46133" lon="2.16431">
        <ele>695</ele>
        <time>2019-12-08T11:35:22Z</time>
      </trkpt>
      <trkpt lat="43.46136" lon="2.16435">
        <ele>694</ele>
        <time>2019-12-08T11:35:23Z</time>
      </trkpt>
      <trkpt lat="43.46148" lon="2.16446">
        <ele>693</ele>
        <time>2019-12-08T11:35:26Z</time>
      </trkpt>
      <trkpt lat="43.46152" lon="2.16449">
        <ele>693</ele>
        <time>2019-12-08T11:35:27Z</time>
      </trkpt>
      <trkpt lat="43.46161" lon="2.16456">
        <ele>692</ele>
        <time>2019-12-08T11:35:29Z</time>
      </trkpt>
      <trkpt lat="43.46166" lon="2.16461">
        <ele>691</ele>
        <time>2019-12-08T11:35:30Z</time>
      </trkpt>
      <trkpt lat="43.46171" lon="2.16466">
        <ele>691</ele>
        <time>2019-12-08T11:35:31Z</time>
      </trkpt>
      <trkpt lat="43.46175" lon="2.1647">
        <ele>691</ele>
        <time>2019-12-08T11:35:32Z</time>
      </trkpt>
      <trkpt lat="43.46184" lon="2.1648">
        <ele>690</ele>
        <time>2019-12-08T11:35:34Z</time>
      </trkpt>
      <trkpt lat="43.46189" lon="2.16483">
        <ele>689</ele>
        <time>2019-12-08T11:35:35Z</time>
      </trkpt>
      <trkpt lat="43.46197" lon="2.16481">
        <ele>688</ele>
        <time>2019-12-08T11:35:37Z</time>
      </trkpt>
      <trkpt lat="43.46199" lon="2.16481">
        <ele>688</ele>
        <time>2019-12-08T11:35:38Z</time>
      </trkpt>
      <trkpt lat="43.46207" lon="2.16486">
        <ele>687</ele>
        <time>2019-12-08T11:35:40Z</time>
      </trkpt>
      <trkpt lat="43.46216" lon="2.16492">
        <ele>686</ele>
        <time>2019-12-08T11:35:42Z</time>
      </trkpt>
      <trkpt lat="43.46222" lon="2.16493">
        <ele>685</ele>
        <time>2019-12-08T11:35:43Z</time>
      </trkpt>
      <trkpt lat="43.46233" lon="2.1649">
        <ele>684</ele>
        <time>2019-12-08T11:35:45Z</time>
      </trkpt>
      <trkpt lat="43.46238" lon="2.16488">
        <ele>684</ele>
        <time>2019-12-08T11:35:46Z</time>
      </trkpt>
      <trkpt lat="43.46244" lon="2.16487">
        <ele>684</ele>
        <time>2019-12-08T11:35:47Z</time>
      </trkpt>
      <trkpt lat="43.46248" lon="2.1649">
        <ele>683</ele>
        <time>2019-12-08T11:35:48Z</time>
      </trkpt>
      <trkpt lat="43.46253" lon="2.16492">
        <ele>683</ele>
        <time>2019-12-08T11:35:49Z</time>
      </trkpt>
      <trkpt lat="43.46257" lon="2.16494">
        <ele>681</ele>
        <time>2019-12-08T11:35:50Z</time>
      </trkpt>
      <trkpt lat="43.46261" lon="2.16495">
        <ele>680</ele>
        <time>2019-12-08T11:35:51Z</time>
      </trkpt>
      <trkpt lat="43.46264" lon="2.16498">
        <ele>680</ele>
        <time>2019-12-08T11:35:52Z</time>
      </trkpt>
      <trkpt lat="43.46266" lon="2.16502">
        <ele>679</ele>
        <time>2019-12-08T11:35:53Z</time>
      </trkpt>
      <trkpt lat="43.46273" lon="2.16506">
        <ele>678</ele>
        <time>2019-12-08T11:35:55Z</time>
      </trkpt>
      <trkpt lat="43.46285" lon="2.16507">
        <ele>677</ele>
        <time>2019-12-08T11:35:58Z</time>
      </trkpt>
      <trkpt lat="43.46288" lon="2.16511">
        <ele>677</ele>
        <time>2019-12-08T11:35:59Z</time>
      </trkpt>
      <trkpt lat="43.46292" lon="2.16515">
        <ele>676</ele>
        <time>2019-12-08T11:36:00Z</time>
      </trkpt>
      <trkpt lat="43.46294" lon="2.1652">
        <ele>675</ele>
        <time>2019-12-08T11:36:01Z</time>
      </trkpt>
      <trkpt lat="43.46296" lon="2.16525">
        <ele>674</ele>
        <time>2019-12-08T11:36:02Z</time>
      </trkpt>
      <trkpt lat="43.46297" lon="2.16532">
        <ele>674</ele>
        <time>2019-12-08T11:36:03Z</time>
      </trkpt>
      <trkpt lat="43.46297" lon="2.16537">
        <ele>673</ele>
        <time>2019-12-08T11:36:04Z</time>
      </trkpt>
      <trkpt lat="43.46291" lon="2.16548">
        <ele>672</ele>
        <time>2019-12-08T11:36:06Z</time>
      </trkpt>
      <trkpt lat="43.4628" lon="2.1656">
        <ele>670</ele>
        <time>2019-12-08T11:36:09Z</time>
      </trkpt>
      <trkpt lat="43.46279" lon="2.16563">
        <ele>669</ele>
        <time>2019-12-08T11:36:10Z</time>
      </trkpt>
      <trkpt lat="43.46279" lon="2.16567">
        <ele>669</ele>
        <time>2019-12-08T11:36:11Z</time>
      </trkpt>
      <trkpt lat="43.46281" lon="2.16577">
        <ele>667</ele>
        <time>2019-12-08T11:36:13Z</time>
      </trkpt>
      <trkpt lat="43.46282" lon="2.16582">
        <ele>667</ele>
        <time>2019-12-08T11:36:14Z</time>
      </trkpt>
      <trkpt lat="43.46283" lon="2.16587">
        <ele>666</ele>
        <time>2019-12-08T11:36:15Z</time>
      </trkpt>
      <trkpt lat="43.46285" lon="2.16591">
        <ele>666</ele>
        <time>2019-12-08T11:36:16Z</time>
      </trkpt>
      <trkpt lat="43.46288" lon="2.16593">
        <ele>664</ele>
        <time>2019-12-08T11:36:17Z</time>
      </trkpt>
      <trkpt lat="43.46292" lon="2.16594">
        <ele>663</ele>
        <time>2019-12-08T11:36:18Z</time>
      </trkpt>
      <trkpt lat="43.46304" lon="2.16592">
        <ele>662</ele>
        <time>2019-12-08T11:36:20Z</time>
      </trkpt>
      <trkpt lat="43.46309" lon="2.16589">
        <ele>661</ele>
        <time>2019-12-08T11:36:21Z</time>
      </trkpt>
      <trkpt lat="43.46314" lon="2.16584">
        <ele>661</ele>
        <time>2019-12-08T11:36:22Z</time>
      </trkpt>
      <trkpt lat="43.46324" lon="2.16576">
        <ele>659</ele>
        <time>2019-12-08T11:36:24Z</time>
      </trkpt>
      <trkpt lat="43.4634" lon="2.1656">
        <ele>658</ele>
        <time>2019-12-08T11:36:28Z</time>
      </trkpt>
      <trkpt lat="43.46344" lon="2.16555">
        <ele>657</ele>
        <time>2019-12-08T11:36:29Z</time>
      </trkpt>
      <trkpt lat="43.46348" lon="2.16552">
        <ele>656</ele>
        <time>2019-12-08T11:36:30Z</time>
      </trkpt>
      <trkpt lat="43.46353" lon="2.16548">
        <ele>656</ele>
        <time>2019-12-08T11:36:31Z</time>
      </trkpt>
      <trkpt lat="43.46356" lon="2.16543">
        <ele>655</ele>
        <time>2019-12-08T11:36:32Z</time>
      </trkpt>
      <trkpt lat="43.46359" lon="2.16538">
        <ele>654</ele>
        <time>2019-12-08T11:36:33Z</time>
      </trkpt>
      <trkpt lat="43.46363" lon="2.16528">
        <ele>653</ele>
        <time>2019-12-08T11:36:35Z</time>
      </trkpt>
      <trkpt lat="43.46365" lon="2.16524">
        <ele>653</ele>
        <time>2019-12-08T11:36:36Z</time>
      </trkpt>
      <trkpt lat="43.46371" lon="2.16508">
        <ele>652</ele>
        <time>2019-12-08T11:36:39Z</time>
      </trkpt>
      <trkpt lat="43.46373" lon="2.16503">
        <ele>651</ele>
        <time>2019-12-08T11:36:40Z</time>
      </trkpt>
      <trkpt lat="43.46375" lon="2.16498">
        <ele>651</ele>
        <time>2019-12-08T11:36:41Z</time>
      </trkpt>
      <trkpt lat="43.46381" lon="2.16488">
        <ele>650</ele>
        <time>2019-12-08T11:36:43Z</time>
      </trkpt>
      <trkpt lat="43.46385" lon="2.16481">
        <ele>648</ele>
        <time>2019-12-08T11:36:45Z</time>
      </trkpt>
      <trkpt lat="43.46388" lon="2.16479">
        <ele>647</ele>
        <time>2019-12-08T11:36:46Z</time>
      </trkpt>
      <trkpt lat="43.4639" lon="2.16475">
        <ele>647</ele>
        <time>2019-12-08T11:36:47Z</time>
      </trkpt>
      <trkpt lat="43.46393" lon="2.16472">
        <ele>647</ele>
        <time>2019-12-08T11:36:48Z</time>
      </trkpt>
      <trkpt lat="43.46399" lon="2.1646">
        <ele>645</ele>
        <time>2019-12-08T11:36:50Z</time>
      </trkpt>
      <trkpt lat="43.46401" lon="2.16454">
        <ele>645</ele>
        <time>2019-12-08T11:36:51Z</time>
      </trkpt>
      <trkpt lat="43.46402" lon="2.16448">
        <ele>644</ele>
        <time>2019-12-08T11:36:52Z</time>
      </trkpt>
      <trkpt lat="43.46402" lon="2.16442">
        <ele>643</ele>
        <time>2019-12-08T11:36:53Z</time>
      </trkpt>
      <trkpt lat="43.46402" lon="2.16435">
        <ele>643</ele>
        <time>2019-12-08T11:36:54Z</time>
      </trkpt>
      <trkpt lat="43.46402" lon="2.16423">
        <ele>642</ele>
        <time>2019-12-08T11:36:56Z</time>
      </trkpt>
      <trkpt lat="43.46404" lon="2.16413">
        <ele>641</ele>
        <time>2019-12-08T11:36:58Z</time>
      </trkpt>
      <trkpt lat="43.46406" lon="2.16409">
        <ele>640</ele>
        <time>2019-12-08T11:36:59Z</time>
      </trkpt>
      <trkpt lat="43.46409" lon="2.16405">
        <ele>640</ele>
        <time>2019-12-08T11:37:00Z</time>
      </trkpt>
      <trkpt lat="43.46412" lon="2.16401">
        <ele>639</ele>
        <time>2019-12-08T11:37:01Z</time>
      </trkpt>
      <trkpt lat="43.46414" lon="2.16396">
        <ele>638</ele>
        <time>2019-12-08T11:37:02Z</time>
      </trkpt>
      <trkpt lat="43.46417" lon="2.16392">
        <ele>636</ele>
        <time>2019-12-08T11:37:03Z</time>
      </trkpt>
      <trkpt lat="43.46419" lon="2.16387">
        <ele>635</ele>
        <time>2019-12-08T11:37:04Z</time>
      </trkpt>
      <trkpt lat="43.46421" lon="2.16383">
        <ele>634</ele>
        <time>2019-12-08T11:37:05Z</time>
      </trkpt>
      <trkpt lat="43.46422" lon="2.1638">
        <ele>633</ele>
        <time>2019-12-08T11:37:06Z</time>
      </trkpt>
      <trkpt lat="43.46424" lon="2.16379">
        <ele>632</ele>
        <time>2019-12-08T11:37:07Z</time>
      </trkpt>
      <trkpt lat="43.46428" lon="2.16378">
        <ele>631</ele>
        <time>2019-12-08T11:37:09Z</time>
      </trkpt>
      <trkpt lat="43.4643" lon="2.16377">
        <ele>630</ele>
        <time>2019-12-08T11:37:10Z</time>
      </trkpt>
      <trkpt lat="43.46432" lon="2.16376">
        <ele>628</ele>
        <time>2019-12-08T11:37:11Z</time>
      </trkpt>
      <trkpt lat="43.46434" lon="2.16372">
        <ele>627</ele>
        <time>2019-12-08T11:37:13Z</time>
      </trkpt>
      <trkpt lat="43.46435" lon="2.16368">
        <ele>626</ele>
        <time>2019-12-08T11:37:14Z</time>
      </trkpt>
      <trkpt lat="43.46437" lon="2.16365">
        <ele>626</ele>
        <time>2019-12-08T11:37:15Z</time>
      </trkpt>
      <trkpt lat="43.46438" lon="2.16363">
        <ele>625</ele>
        <time>2019-12-08T11:37:16Z</time>
      </trkpt>
      <trkpt lat="43.46443" lon="2.16358">
        <ele>623</ele>
        <time>2019-12-08T11:37:21Z</time>
      </trkpt>
      <trkpt lat="43.46443" lon="2.16356">
        <ele>622</ele>
        <time>2019-12-08T11:37:22Z</time>
      </trkpt>
      <trkpt lat="43.46443" lon="2.16355">
        <ele>622</ele>
        <time>2019-12-08T11:37:24Z</time>
      </trkpt>
      <trkpt lat="43.46443" lon="2.16351">
        <ele>621</ele>
        <time>2019-12-08T11:37:28Z</time>
      </trkpt>
      <trkpt lat="43.46442" lon="2.1635">
        <ele>621</ele>
        <time>2019-12-08T11:37:29Z</time>
      </trkpt>
      <trkpt lat="43.46442" lon="2.16348">
        <ele>621</ele>
        <time>2019-12-08T11:37:31Z</time>
      </trkpt>
      <trkpt lat="43.46442" lon="2.16346">
        <ele>621</ele>
        <time>2019-12-08T11:37:33Z</time>
      </trkpt>
      <trkpt lat="43.46441" lon="2.16346">
        <ele>620</ele>
        <time>2019-12-08T11:37:34Z</time>
      </trkpt>
      <trkpt lat="43.4644" lon="2.16342">
        <ele>620</ele>
        <time>2019-12-08T11:37:40Z</time>
      </trkpt>
      <trkpt lat="43.4644" lon="2.16341">
        <ele>619</ele>
        <time>2019-12-08T11:37:42Z</time>
      </trkpt>
      <trkpt lat="43.4644" lon="2.1634">
        <ele>618</ele>
        <time>2019-12-08T11:37:43Z</time>
      </trkpt>
      <trkpt lat="43.46439" lon="2.16337">
        <ele>618</ele>
        <time>2019-12-08T11:37:46Z</time>
      </trkpt>
      <trkpt lat="43.4644" lon="2.16334">
        <ele>617</ele>
        <time>2019-12-08T11:37:49Z</time>
      </trkpt>
      <trkpt lat="43.46439" lon="2.1633">
        <ele>616</ele>
        <time>2019-12-08T11:37:53Z</time>
      </trkpt>
      <trkpt lat="43.46432" lon="2.16318">
        <ele>615</ele>
        <time>2019-12-08T11:37:58Z</time>
      </trkpt>
      <trkpt lat="43.4643" lon="2.16314">
        <ele>614</ele>
        <time>2019-12-08T11:37:59Z</time>
      </trkpt>
      <trkpt lat="43.46426" lon="2.16304">
        <ele>613</ele>
        <time>2019-12-08T11:38:01Z</time>
      </trkpt>
      <trkpt lat="43.46423" lon="2.163">
        <ele>612</ele>
        <time>2019-12-08T11:38:02Z</time>
      </trkpt>
      <trkpt lat="43.46421" lon="2.16296">
        <ele>611</ele>
        <time>2019-12-08T11:38:03Z</time>
      </trkpt>
      <trkpt lat="43.46418" lon="2.16292">
        <ele>610</ele>
        <time>2019-12-08T11:38:04Z</time>
      </trkpt>
      <trkpt lat="43.46413" lon="2.16285">
        <ele>608</ele>
        <time>2019-12-08T11:38:06Z</time>
      </trkpt>
      <trkpt lat="43.46411" lon="2.1628">
        <ele>606</ele>
        <time>2019-12-08T11:38:08Z</time>
      </trkpt>
      <trkpt lat="43.46412" lon="2.16278">
        <ele>606</ele>
        <time>2019-12-08T11:38:09Z</time>
      </trkpt>
      <trkpt lat="43.46413" lon="2.16278">
        <ele>605</ele>
        <time>2019-12-08T11:38:10Z</time>
      </trkpt>
      <trkpt lat="43.46415" lon="2.16279">
        <ele>604</ele>
        <time>2019-12-08T11:38:11Z</time>
      </trkpt>
      <trkpt lat="43.46418" lon="2.1628">
        <ele>604</ele>
        <time>2019-12-08T11:38:12Z</time>
      </trkpt>
      <trkpt lat="43.46422" lon="2.16282">
        <ele>603</ele>
        <time>2019-12-08T11:38:14Z</time>
      </trkpt>
      <trkpt lat="43.46424" lon="2.16283">
        <ele>602</ele>
        <time>2019-12-08T11:38:15Z</time>
      </trkpt>
      <trkpt lat="43.4643" lon="2.16286">
        <ele>601</ele>
        <time>2019-12-08T11:38:17Z</time>
      </trkpt>
      <trkpt lat="43.46432" lon="2.16287">
        <ele>600</ele>
        <time>2019-12-08T11:38:18Z</time>
      </trkpt>
      <trkpt lat="43.46434" lon="2.16288">
        <ele>599</ele>
        <time>2019-12-08T11:38:19Z</time>
      </trkpt>
      <trkpt lat="43.46438" lon="2.16287">
        <ele>598</ele>
        <time>2019-12-08T11:38:20Z</time>
      </trkpt>
      <trkpt lat="43.46441" lon="2.16287">
        <ele>597</ele>
        <time>2019-12-08T11:38:21Z</time>
      </trkpt>
      <trkpt lat="43.46444" lon="2.16288">
        <ele>596</ele>
        <time>2019-12-08T11:38:22Z</time>
      </trkpt>
      <trkpt lat="43.46448" lon="2.16289">
        <ele>596</ele>
        <time>2019-12-08T11:38:23Z</time>
      </trkpt>
      <trkpt lat="43.46454" lon="2.16293">
        <ele>594</ele>
        <time>2019-12-08T11:38:25Z</time>
      </trkpt>
      <trkpt lat="43.46456" lon="2.16295">
        <ele>593</ele>
        <time>2019-12-08T11:38:26Z</time>
      </trkpt>
      <trkpt lat="43.46458" lon="2.16296">
        <ele>593</ele>
        <time>2019-12-08T11:38:27Z</time>
      </trkpt>
      <trkpt lat="43.46464" lon="2.16294">
        <ele>591</ele>
        <time>2019-12-08T11:38:30Z</time>
      </trkpt>
      <trkpt lat="43.46465" lon="2.16292">
        <ele>590</ele>
        <time>2019-12-08T11:38:31Z</time>
      </trkpt>
      <trkpt lat="43.46465" lon="2.16288">
        <ele>589</ele>
        <time>2019-12-08T11:38:32Z</time>
      </trkpt>
      <trkpt lat="43.46463" lon="2.16284">
        <ele>588</ele>
        <time>2019-12-08T11:38:33Z</time>
      </trkpt>
      <trkpt lat="43.46461" lon="2.16278">
        <ele>586</ele>
        <time>2019-12-08T11:38:35Z</time>
      </trkpt>
      <trkpt lat="43.4646" lon="2.16276">
        <ele>586</ele>
        <time>2019-12-08T11:38:36Z</time>
      </trkpt>
      <trkpt lat="43.4646" lon="2.16274">
        <ele>585</ele>
        <time>2019-12-08T11:38:37Z</time>
      </trkpt>
      <trkpt lat="43.46459" lon="2.16268">
        <ele>585</ele>
        <time>2019-12-08T11:38:39Z</time>
      </trkpt>
      <trkpt lat="43.46456" lon="2.16262">
        <ele>585</ele>
        <time>2019-12-08T11:38:40Z</time>
      </trkpt>
      <trkpt lat="43.46451" lon="2.16252">
        <ele>584</ele>
        <time>2019-12-08T11:38:42Z</time>
      </trkpt>
      <trkpt lat="43.46449" lon="2.16246">
        <ele>583</ele>
        <time>2019-12-08T11:38:43Z</time>
      </trkpt>
      <trkpt lat="43.46444" lon="2.16236">
        <ele>582</ele>
        <time>2019-12-08T11:38:45Z</time>
      </trkpt>
      <trkpt lat="43.4644" lon="2.16231">
        <ele>581</ele>
        <time>2019-12-08T11:38:46Z</time>
      </trkpt>
      <trkpt lat="43.46437" lon="2.16226">
        <ele>580</ele>
        <time>2019-12-08T11:38:47Z</time>
      </trkpt>
      <trkpt lat="43.46431" lon="2.16212">
        <ele>579</ele>
        <time>2019-12-08T11:38:49Z</time>
      </trkpt>
      <trkpt lat="43.46428" lon="2.16204">
        <ele>579</ele>
        <time>2019-12-08T11:38:50Z</time>
      </trkpt>
      <trkpt lat="43.46418" lon="2.16184">
        <ele>578</ele>
        <time>2019-12-08T11:38:53Z</time>
      </trkpt>
      <trkpt lat="43.46413" lon="2.16177">
        <ele>578</ele>
        <time>2019-12-08T11:38:54Z</time>
      </trkpt>
      <trkpt lat="43.46409" lon="2.16171">
        <ele>577</ele>
        <time>2019-12-08T11:38:55Z</time>
      </trkpt>
      <trkpt lat="43.46402" lon="2.16156">
        <ele>576</ele>
        <time>2019-12-08T11:38:57Z</time>
      </trkpt>
      <trkpt lat="43.46398" lon="2.16149">
        <ele>575</ele>
        <time>2019-12-08T11:38:58Z</time>
      </trkpt>
      <trkpt lat="43.46395" lon="2.16142">
        <ele>575</ele>
        <time>2019-12-08T11:38:59Z</time>
      </trkpt>
      <trkpt lat="43.4639" lon="2.1613">
        <ele>574</ele>
        <time>2019-12-08T11:39:01Z</time>
      </trkpt>
      <trkpt lat="43.46389" lon="2.1612">
        <ele>572</ele>
        <time>2019-12-08T11:39:03Z</time>
      </trkpt>
      <trkpt lat="43.46388" lon="2.1611">
        <ele>570</ele>
        <time>2019-12-08T11:39:05Z</time>
      </trkpt>
      <trkpt lat="43.46387" lon="2.16102">
        <ele>569</ele>
        <time>2019-12-08T11:39:07Z</time>
      </trkpt>
      <trkpt lat="43.46385" lon="2.16094">
        <ele>568</ele>
        <time>2019-12-08T11:39:09Z</time>
      </trkpt>
      <trkpt lat="43.4638" lon="2.16083">
        <ele>567</ele>
        <time>2019-12-08T11:39:11Z</time>
      </trkpt>
      <trkpt lat="43.46377" lon="2.16077">
        <ele>565</ele>
        <time>2019-12-08T11:39:12Z</time>
      </trkpt>
      <trkpt lat="43.46374" lon="2.16071">
        <ele>565</ele>
        <time>2019-12-08T11:39:13Z</time>
      </trkpt>
      <trkpt lat="43.46372" lon="2.16066">
        <ele>564</ele>
        <time>2019-12-08T11:39:14Z</time>
      </trkpt>
      <trkpt lat="43.46367" lon="2.16056">
        <ele>563</ele>
        <time>2019-12-08T11:39:16Z</time>
      </trkpt>
      <trkpt lat="43.46364" lon="2.16051">
        <ele>562</ele>
        <time>2019-12-08T11:39:17Z</time>
      </trkpt>
      <trkpt lat="43.46359" lon="2.16039">
        <ele>561</ele>
        <time>2019-12-08T11:39:19Z</time>
      </trkpt>
      <trkpt lat="43.46358" lon="2.16033">
        <ele>561</ele>
        <time>2019-12-08T11:39:20Z</time>
      </trkpt>
      <trkpt lat="43.46357" lon="2.16028">
        <ele>561</ele>
        <time>2019-12-08T11:39:21Z</time>
      </trkpt>
      <trkpt lat="43.46355" lon="2.16022">
        <ele>560</ele>
        <time>2019-12-08T11:39:22Z</time>
      </trkpt>
      <trkpt lat="43.46353" lon="2.16018">
        <ele>559</ele>
        <time>2019-12-08T11:39:23Z</time>
      </trkpt>
      <trkpt lat="43.4635" lon="2.16016">
        <ele>559</ele>
        <time>2019-12-08T11:39:24Z</time>
      </trkpt>
      <trkpt lat="43.46345" lon="2.16006">
        <ele>558</ele>
        <time>2019-12-08T11:39:27Z</time>
      </trkpt>
      <trkpt lat="43.46342" lon="2.15996">
        <ele>558</ele>
        <time>2019-12-08T11:39:29Z</time>
      </trkpt>
      <trkpt lat="43.46341" lon="2.1599">
        <ele>558</ele>
        <time>2019-12-08T11:39:30Z</time>
      </trkpt>
      <trkpt lat="43.46341" lon="2.15986">
        <ele>557</ele>
        <time>2019-12-08T11:39:31Z</time>
      </trkpt>
      <trkpt lat="43.4634" lon="2.15982">
        <ele>557</ele>
        <time>2019-12-08T11:39:32Z</time>
      </trkpt>
      <trkpt lat="43.46339" lon="2.15974">
        <ele>555</ele>
        <time>2019-12-08T11:39:34Z</time>
      </trkpt>
      <trkpt lat="43.46339" lon="2.15969">
        <ele>555</ele>
        <time>2019-12-08T11:39:35Z</time>
      </trkpt>
      <trkpt lat="43.46339" lon="2.15964">
        <ele>554</ele>
        <time>2019-12-08T11:39:36Z</time>
      </trkpt>
      <trkpt lat="43.46339" lon="2.15958">
        <ele>552</ele>
        <time>2019-12-08T11:39:37Z</time>
      </trkpt>
      <trkpt lat="43.46339" lon="2.15953">
        <ele>551</ele>
        <time>2019-12-08T11:39:38Z</time>
      </trkpt>
      <trkpt lat="43.4634" lon="2.15948">
        <ele>550</ele>
        <time>2019-12-08T11:39:39Z</time>
      </trkpt>
      <trkpt lat="43.4634" lon="2.15944">
        <ele>549</ele>
        <time>2019-12-08T11:39:40Z</time>
      </trkpt>
      <trkpt lat="43.46341" lon="2.1594">
        <ele>548</ele>
        <time>2019-12-08T11:39:41Z</time>
      </trkpt>
      <trkpt lat="43.46343" lon="2.15934">
        <ele>546</ele>
        <time>2019-12-08T11:39:43Z</time>
      </trkpt>
      <trkpt lat="43.46343" lon="2.15931">
        <ele>545</ele>
        <time>2019-12-08T11:39:44Z</time>
      </trkpt>
      <trkpt lat="43.46341" lon="2.15927">
        <ele>544</ele>
        <time>2019-12-08T11:39:45Z</time>
      </trkpt>
      <trkpt lat="43.4634" lon="2.15924">
        <ele>543</ele>
        <time>2019-12-08T11:39:46Z</time>
      </trkpt>
      <trkpt lat="43.46338" lon="2.1592">
        <ele>543</ele>
        <time>2019-12-08T11:39:47Z</time>
      </trkpt>
      <trkpt lat="43.46335" lon="2.15913">
        <ele>541</ele>
        <time>2019-12-08T11:39:49Z</time>
      </trkpt>
      <trkpt lat="43.46332" lon="2.15907">
        <ele>540</ele>
        <time>2019-12-08T11:39:51Z</time>
      </trkpt>
      <trkpt lat="43.4633" lon="2.15904">
        <ele>539</ele>
        <time>2019-12-08T11:39:52Z</time>
      </trkpt>
      <trkpt lat="43.46327" lon="2.15899">
        <ele>537</ele>
        <time>2019-12-08T11:39:54Z</time>
      </trkpt>
      <trkpt lat="43.46325" lon="2.15892">
        <ele>536</ele>
        <time>2019-12-08T11:39:57Z</time>
      </trkpt>
      <trkpt lat="43.46325" lon="2.15891">
        <ele>536</ele>
        <time>2019-12-08T11:39:58Z</time>
      </trkpt>
      <trkpt lat="43.46325" lon="2.1589">
        <ele>536</ele>
        <time>2019-12-08T11:39:59Z</time>
      </trkpt>
      <trkpt lat="43.46331" lon="2.15887">
        <ele>536</ele>
        <time>2019-12-08T11:40:11Z</time>
      </trkpt>
      <trkpt lat="43.46331" lon="2.15886">
        <ele>535</ele>
        <time>2019-12-08T11:40:12Z</time>
      </trkpt>
      <trkpt lat="43.46329" lon="2.1589">
        <ele>535</ele>
        <time>2019-12-08T11:42:09Z</time>
      </trkpt>
      <trkpt lat="43.46331" lon="2.1589">
        <ele>535</ele>
        <time>2019-12-08T11:42:10Z</time>
      </trkpt>
      <trkpt lat="43.46332" lon="2.1589">
        <ele>535</ele>
        <time>2019-12-08T11:42:11Z</time>
      </trkpt>
      <trkpt lat="43.46339" lon="2.15889">
        <ele>535</ele>
        <time>2019-12-08T11:42:14Z</time>
      </trkpt>
      <trkpt lat="43.46347" lon="2.15893">
        <ele>535</ele>
        <time>2019-12-08T11:42:18Z</time>
      </trkpt>
      <trkpt lat="43.4635" lon="2.15896">
        <ele>535</ele>
        <time>2019-12-08T11:42:19Z</time>
      </trkpt>
      <trkpt lat="43.46358" lon="2.15907">
        <ele>535</ele>
        <time>2019-12-08T11:42:23Z</time>
      </trkpt>
      <trkpt lat="43.4636" lon="2.15908">
        <ele>534</ele>
        <time>2019-12-08T11:42:24Z</time>
      </trkpt>
      <trkpt lat="43.46363" lon="2.15908">
        <ele>534</ele>
        <time>2019-12-08T11:42:25Z</time>
      </trkpt>
      <trkpt lat="43.46367" lon="2.15908">
        <ele>534</ele>
        <time>2019-12-08T11:42:27Z</time>
      </trkpt>
      <trkpt lat="43.4637" lon="2.1591">
        <ele>534</ele>
        <time>2019-12-08T11:42:28Z</time>
      </trkpt>
      <trkpt lat="43.46376" lon="2.15913">
        <ele>534</ele>
        <time>2019-12-08T11:42:30Z</time>
      </trkpt>
      <trkpt lat="43.46387" lon="2.1592">
        <ele>535</ele>
        <time>2019-12-08T11:42:35Z</time>
      </trkpt>
      <trkpt lat="43.46392" lon="2.15922">
        <ele>536</ele>
        <time>2019-12-08T11:42:37Z</time>
      </trkpt>
      <trkpt lat="43.46393" lon="2.15923">
        <ele>536</ele>
        <time>2019-12-08T11:42:38Z</time>
      </trkpt>
      <trkpt lat="43.46394" lon="2.15924">
        <ele>536</ele>
        <time>2019-12-08T11:42:39Z</time>
      </trkpt>
      <trkpt lat="43.46399" lon="2.15927">
        <ele>537</ele>
        <time>2019-12-08T11:42:41Z</time>
      </trkpt>
      <trkpt lat="43.46404" lon="2.15929">
        <ele>538</ele>
        <time>2019-12-08T11:42:43Z</time>
      </trkpt>
      <trkpt lat="43.46407" lon="2.1593">
        <ele>538</ele>
        <time>2019-12-08T11:42:44Z</time>
      </trkpt>
      <trkpt lat="43.46409" lon="2.15931">
        <ele>538</ele>
        <time>2019-12-08T11:42:45Z</time>
      </trkpt>
      <trkpt lat="43.46417" lon="2.15933">
        <ele>539</ele>
        <time>2019-12-08T11:42:48Z</time>
      </trkpt>
      <trkpt lat="43.4642" lon="2.15933">
        <ele>539</ele>
        <time>2019-12-08T11:42:49Z</time>
      </trkpt>
      <trkpt lat="43.46427" lon="2.15936">
        <ele>539</ele>
        <time>2019-12-08T11:42:52Z</time>
      </trkpt>
      <trkpt lat="43.46433" lon="2.15938">
        <ele>540</ele>
        <time>2019-12-08T11:42:55Z</time>
      </trkpt>
      <trkpt lat="43.46444" lon="2.15943">
        <ele>541</ele>
        <time>2019-12-08T11:43:00Z</time>
      </trkpt>
      <trkpt lat="43.46447" lon="2.15944">
        <ele>542</ele>
        <time>2019-12-08T11:43:01Z</time>
      </trkpt>
      <trkpt lat="43.46452" lon="2.15944">
        <ele>543</ele>
        <time>2019-12-08T11:43:03Z</time>
      </trkpt>
      <trkpt lat="43.46461" lon="2.15947">
        <ele>543</ele>
        <time>2019-12-08T11:43:07Z</time>
      </trkpt>
      <trkpt lat="43.46468" lon="2.15951">
        <ele>544</ele>
        <time>2019-12-08T11:43:10Z</time>
      </trkpt>
      <trkpt lat="43.46474" lon="2.15953">
        <ele>544</ele>
        <time>2019-12-08T11:43:12Z</time>
      </trkpt>
      <trkpt lat="43.46488" lon="2.15961">
        <ele>545</ele>
        <time>2019-12-08T11:43:18Z</time>
      </trkpt>
      <trkpt lat="43.46498" lon="2.15963">
        <ele>546</ele>
        <time>2019-12-08T11:43:22Z</time>
      </trkpt>
      <trkpt lat="43.46501" lon="2.15964">
        <ele>546</ele>
        <time>2019-12-08T11:43:23Z</time>
      </trkpt>
      <trkpt lat="43.46512" lon="2.15969">
        <ele>547</ele>
        <time>2019-12-08T11:43:27Z</time>
      </trkpt>
      <trkpt lat="43.46522" lon="2.15973">
        <ele>547</ele>
        <time>2019-12-08T11:43:31Z</time>
      </trkpt>
      <trkpt lat="43.46524" lon="2.15974">
        <ele>547</ele>
        <time>2019-12-08T11:43:32Z</time>
      </trkpt>
      <trkpt lat="43.46536" lon="2.15974">
        <ele>548</ele>
        <time>2019-12-08T11:43:36Z</time>
      </trkpt>
      <trkpt lat="43.46551" lon="2.15979">
        <ele>547</ele>
        <time>2019-12-08T11:43:40Z</time>
      </trkpt>
      <trkpt lat="43.46565" lon="2.15985">
        <ele>547</ele>
        <time>2019-12-08T11:43:43Z</time>
      </trkpt>
      <trkpt lat="43.4657" lon="2.15987">
        <ele>547</ele>
        <time>2019-12-08T11:43:44Z</time>
      </trkpt>
      <trkpt lat="43.4658" lon="2.1599">
        <ele>547</ele>
        <time>2019-12-08T11:43:46Z</time>
      </trkpt>
      <trkpt lat="43.46589" lon="2.15994">
        <ele>546</ele>
        <time>2019-12-08T11:43:48Z</time>
      </trkpt>
      <trkpt lat="43.46593" lon="2.15996">
        <ele>546</ele>
        <time>2019-12-08T11:43:49Z</time>
      </trkpt>
      <trkpt lat="43.46598" lon="2.15999">
        <ele>546</ele>
        <time>2019-12-08T11:43:50Z</time>
      </trkpt>
      <trkpt lat="43.46602" lon="2.16002">
        <ele>546</ele>
        <time>2019-12-08T11:43:51Z</time>
      </trkpt>
      <trkpt lat="43.46616" lon="2.1601">
        <ele>546</ele>
        <time>2019-12-08T11:43:54Z</time>
      </trkpt>
      <trkpt lat="43.46622" lon="2.16012">
        <ele>546</ele>
        <time>2019-12-08T11:43:55Z</time>
      </trkpt>
      <trkpt lat="43.46627" lon="2.16016">
        <ele>545</ele>
        <time>2019-12-08T11:43:56Z</time>
      </trkpt>
      <trkpt lat="43.46635" lon="2.1602">
        <ele>545</ele>
        <time>2019-12-08T11:43:58Z</time>
      </trkpt>
      <trkpt lat="43.46643" lon="2.16023">
        <ele>545</ele>
        <time>2019-12-08T11:44:00Z</time>
      </trkpt>
      <trkpt lat="43.46647" lon="2.16025">
        <ele>545</ele>
        <time>2019-12-08T11:44:01Z</time>
      </trkpt>
      <trkpt lat="43.46651" lon="2.16026">
        <ele>545</ele>
        <time>2019-12-08T11:44:02Z</time>
      </trkpt>
      <trkpt lat="43.46662" lon="2.16029">
        <ele>545</ele>
        <time>2019-12-08T11:44:05Z</time>
      </trkpt>
      <trkpt lat="43.46681" lon="2.16029">
        <ele>546</ele>
        <time>2019-12-08T11:44:09Z</time>
      </trkpt>
      <trkpt lat="43.46695" lon="2.16034">
        <ele>547</ele>
        <time>2019-12-08T11:44:13Z</time>
      </trkpt>
      <trkpt lat="43.46703" lon="2.16036">
        <ele>547</ele>
        <time>2019-12-08T11:44:15Z</time>
      </trkpt>
      <trkpt lat="43.46715" lon="2.16037">
        <ele>547</ele>
        <time>2019-12-08T11:44:18Z</time>
      </trkpt>
      <trkpt lat="43.46726" lon="2.16039">
        <ele>548</ele>
        <time>2019-12-08T11:44:21Z</time>
      </trkpt>
      <trkpt lat="43.4673" lon="2.1604">
        <ele>548</ele>
        <time>2019-12-08T11:44:22Z</time>
      </trkpt>
      <trkpt lat="43.46744" lon="2.16045">
        <ele>549</ele>
        <time>2019-12-08T11:44:26Z</time>
      </trkpt>
      <trkpt lat="43.46747" lon="2.16046">
        <ele>549</ele>
        <time>2019-12-08T11:44:27Z</time>
      </trkpt>
      <trkpt lat="43.46762" lon="2.16052">
        <ele>550</ele>
        <time>2019-12-08T11:44:31Z</time>
      </trkpt>
      <trkpt lat="43.46769" lon="2.16058">
        <ele>550</ele>
        <time>2019-12-08T11:44:33Z</time>
      </trkpt>
      <trkpt lat="43.46776" lon="2.16061">
        <ele>551</ele>
        <time>2019-12-08T11:44:35Z</time>
      </trkpt>
      <trkpt lat="43.46782" lon="2.16063">
        <ele>551</ele>
        <time>2019-12-08T11:44:37Z</time>
      </trkpt>
      <trkpt lat="43.46792" lon="2.16065">
        <ele>552</ele>
        <time>2019-12-08T11:44:40Z</time>
      </trkpt>
      <trkpt lat="43.46802" lon="2.1607">
        <ele>552</ele>
        <time>2019-12-08T11:44:43Z</time>
      </trkpt>
      <trkpt lat="43.46807" lon="2.16071">
        <ele>552</ele>
        <time>2019-12-08T11:44:44Z</time>
      </trkpt>
      <trkpt lat="43.46824" lon="2.16073">
        <ele>553</ele>
        <time>2019-12-08T11:44:48Z</time>
      </trkpt>
      <trkpt lat="43.46827" lon="2.16075">
        <ele>553</ele>
        <time>2019-12-08T11:44:49Z</time>
      </trkpt>
      <trkpt lat="43.46836" lon="2.1608">
        <ele>554</ele>
        <time>2019-12-08T11:44:52Z</time>
      </trkpt>
      <trkpt lat="43.4684" lon="2.16081">
        <ele>554</ele>
        <time>2019-12-08T11:44:53Z</time>
      </trkpt>
      <trkpt lat="43.46844" lon="2.16082">
        <ele>554</ele>
        <time>2019-12-08T11:44:54Z</time>
      </trkpt>
      <trkpt lat="43.46851" lon="2.16086">
        <ele>555</ele>
        <time>2019-12-08T11:44:56Z</time>
      </trkpt>
      <trkpt lat="43.46853" lon="2.16088">
        <ele>555</ele>
        <time>2019-12-08T11:44:57Z</time>
      </trkpt>
      <trkpt lat="43.46863" lon="2.16093">
        <ele>556</ele>
        <time>2019-12-08T11:45:01Z</time>
      </trkpt>
      <trkpt lat="43.4687" lon="2.16095">
        <ele>558</ele>
        <time>2019-12-08T11:45:04Z</time>
      </trkpt>
      <trkpt lat="43.46873" lon="2.16095">
        <ele>558</ele>
        <time>2019-12-08T11:45:05Z</time>
      </trkpt>
      <trkpt lat="43.46879" lon="2.16096">
        <ele>559</ele>
        <time>2019-12-08T11:45:07Z</time>
      </trkpt>
      <trkpt lat="43.46888" lon="2.16101">
        <ele>560</ele>
        <time>2019-12-08T11:45:10Z</time>
      </trkpt>
      <trkpt lat="43.46896" lon="2.16105">
        <ele>561</ele>
        <time>2019-12-08T11:45:13Z</time>
      </trkpt>
      <trkpt lat="43.469" lon="2.16108">
        <ele>561</ele>
        <time>2019-12-08T11:45:15Z</time>
      </trkpt>
      <trkpt lat="43.46902" lon="2.16109">
        <ele>562</ele>
        <time>2019-12-08T11:45:16Z</time>
      </trkpt>
      <trkpt lat="43.46909" lon="2.16116">
        <ele>563</ele>
        <time>2019-12-08T11:45:19Z</time>
      </trkpt>
      <trkpt lat="43.46912" lon="2.16117">
        <ele>563</ele>
        <time>2019-12-08T11:45:20Z</time>
      </trkpt>
      <trkpt lat="43.46925" lon="2.16126">
        <ele>564</ele>
        <time>2019-12-08T11:45:25Z</time>
      </trkpt>
      <trkpt lat="43.4694" lon="2.16135">
        <ele>565</ele>
        <time>2019-12-08T11:45:30Z</time>
      </trkpt>
      <trkpt lat="43.46949" lon="2.16143">
        <ele>566</ele>
        <time>2019-12-08T11:45:34Z</time>
      </trkpt>
      <trkpt lat="43.46959" lon="2.16147">
        <ele>567</ele>
        <time>2019-12-08T11:45:38Z</time>
      </trkpt>
      <trkpt lat="43.46961" lon="2.16149">
        <ele>567</ele>
        <time>2019-12-08T11:45:39Z</time>
      </trkpt>
      <trkpt lat="43.4697" lon="2.16152">
        <ele>568</ele>
        <time>2019-12-08T11:45:43Z</time>
      </trkpt>
      <trkpt lat="43.46972" lon="2.16154">
        <ele>569</ele>
        <time>2019-12-08T11:45:44Z</time>
      </trkpt>
      <trkpt lat="43.4698" lon="2.16157">
        <ele>570</ele>
        <time>2019-12-08T11:45:47Z</time>
      </trkpt>
      <trkpt lat="43.46982" lon="2.16158">
        <ele>570</ele>
        <time>2019-12-08T11:45:48Z</time>
      </trkpt>
      <trkpt lat="43.4699" lon="2.16167">
        <ele>571</ele>
        <time>2019-12-08T11:45:52Z</time>
      </trkpt>
      <trkpt lat="43.46994" lon="2.16168">
        <ele>571</ele>
        <time>2019-12-08T11:45:54Z</time>
      </trkpt>
      <trkpt lat="43.46996" lon="2.16168">
        <ele>571</ele>
        <time>2019-12-08T11:45:55Z</time>
      </trkpt>
      <trkpt lat="43.47001" lon="2.16169">
        <ele>572</ele>
        <time>2019-12-08T11:45:57Z</time>
      </trkpt>
      <trkpt lat="43.47012" lon="2.16171">
        <ele>573</ele>
        <time>2019-12-08T11:46:02Z</time>
      </trkpt>
      <trkpt lat="43.47015" lon="2.16171">
        <ele>573</ele>
        <time>2019-12-08T11:46:03Z</time>
      </trkpt>
      <trkpt lat="43.47025" lon="2.16175">
        <ele>574</ele>
        <time>2019-12-08T11:46:07Z</time>
      </trkpt>
      <trkpt lat="43.47033" lon="2.16179">
        <ele>575</ele>
        <time>2019-12-08T11:46:10Z</time>
      </trkpt>
      <trkpt lat="43.47036" lon="2.16182">
        <ele>575</ele>
        <time>2019-12-08T11:46:11Z</time>
      </trkpt>
      <trkpt lat="43.47046" lon="2.16188">
        <ele>575</ele>
        <time>2019-12-08T11:46:14Z</time>
      </trkpt>
      <trkpt lat="43.4705" lon="2.16191">
        <ele>575</ele>
        <time>2019-12-08T11:46:15Z</time>
      </trkpt>
      <trkpt lat="43.47057" lon="2.16193">
        <ele>576</ele>
        <time>2019-12-08T11:46:17Z</time>
      </trkpt>
      <trkpt lat="43.47067" lon="2.16195">
        <ele>577</ele>
        <time>2019-12-08T11:46:20Z</time>
      </trkpt>
      <trkpt lat="43.4707" lon="2.16196">
        <ele>577</ele>
        <time>2019-12-08T11:46:21Z</time>
      </trkpt>
      <trkpt lat="43.47073" lon="2.16196">
        <ele>577</ele>
        <time>2019-12-08T11:46:22Z</time>
      </trkpt>
      <trkpt lat="43.47081" lon="2.16195">
        <ele>577</ele>
        <time>2019-12-08T11:46:25Z</time>
      </trkpt>
      <trkpt lat="43.47084" lon="2.16193">
        <ele>578</ele>
        <time>2019-12-08T11:46:26Z</time>
      </trkpt>
      <trkpt lat="43.47098" lon="2.16188">
        <ele>579</ele>
        <time>2019-12-08T11:46:30Z</time>
      </trkpt>
      <trkpt lat="43.47114" lon="2.1618">
        <ele>580</ele>
        <time>2019-12-08T11:46:35Z</time>
      </trkpt>
      <trkpt lat="43.47124" lon="2.16173">
        <ele>580</ele>
        <time>2019-12-08T11:46:38Z</time>
      </trkpt>
      <trkpt lat="43.47131" lon="2.16168">
        <ele>580</ele>
        <time>2019-12-08T11:46:40Z</time>
      </trkpt>
      <trkpt lat="43.47144" lon="2.16151">
        <ele>581</ele>
        <time>2019-12-08T11:46:45Z</time>
      </trkpt>
      <trkpt lat="43.47146" lon="2.16148">
        <ele>581</ele>
        <time>2019-12-08T11:46:46Z</time>
      </trkpt>
      <trkpt lat="43.47156" lon="2.16135">
        <ele>581</ele>
        <time>2019-12-08T11:46:50Z</time>
      </trkpt>
      <trkpt lat="43.47169" lon="2.16124">
        <ele>582</ele>
        <time>2019-12-08T11:46:55Z</time>
      </trkpt>
      <trkpt lat="43.47178" lon="2.16123">
        <ele>582</ele>
        <time>2019-12-08T11:46:58Z</time>
      </trkpt>
      <trkpt lat="43.47184" lon="2.16124">
        <ele>582</ele>
        <time>2019-12-08T11:47:00Z</time>
      </trkpt>
      <trkpt lat="43.47197" lon="2.16123">
        <ele>583</ele>
        <time>2019-12-08T11:47:04Z</time>
      </trkpt>
      <trkpt lat="43.47207" lon="2.16119">
        <ele>583</ele>
        <time>2019-12-08T11:47:07Z</time>
      </trkpt>
      <trkpt lat="43.4721" lon="2.16117">
        <ele>583</ele>
        <time>2019-12-08T11:47:08Z</time>
      </trkpt>
      <trkpt lat="43.47224" lon="2.16109">
        <ele>584</ele>
        <time>2019-12-08T11:47:12Z</time>
      </trkpt>
      <trkpt lat="43.4723" lon="2.16106">
        <ele>584</ele>
        <time>2019-12-08T11:47:14Z</time>
      </trkpt>
      <trkpt lat="43.47237" lon="2.16104">
        <ele>585</ele>
        <time>2019-12-08T11:47:16Z</time>
      </trkpt>
      <trkpt lat="43.47251" lon="2.16101">
        <ele>585</ele>
        <time>2019-12-08T11:47:21Z</time>
      </trkpt>
      <trkpt lat="43.47254" lon="2.16099">
        <ele>586</ele>
        <time>2019-12-08T11:47:22Z</time>
      </trkpt>
      <trkpt lat="43.47266" lon="2.1609">
        <ele>586</ele>
        <time>2019-12-08T11:47:26Z</time>
      </trkpt>
      <trkpt lat="43.4728" lon="2.1607">
        <ele>586</ele>
        <time>2019-12-08T11:47:31Z</time>
      </trkpt>
      <trkpt lat="43.47282" lon="2.16066">
        <ele>586</ele>
        <time>2019-12-08T11:47:32Z</time>
      </trkpt>
      <trkpt lat="43.47288" lon="2.16054">
        <ele>587</ele>
        <time>2019-12-08T11:47:36Z</time>
      </trkpt>
      <trkpt lat="43.47292" lon="2.1604">
        <ele>587</ele>
        <time>2019-12-08T11:47:42Z</time>
      </trkpt>
      <trkpt lat="43.47297" lon="2.16035">
        <ele>587</ele>
        <time>2019-12-08T11:47:48Z</time>
      </trkpt>
      <trkpt lat="43.47298" lon="2.16034">
        <ele>587</ele>
        <time>2019-12-08T11:47:49Z</time>
      </trkpt>
      <trkpt lat="43.47302" lon="2.16037">
        <ele>588</ele>
        <time>2019-12-08T11:48:31Z</time>
      </trkpt>
      <trkpt lat="43.47306" lon="2.16037">
        <ele>588</ele>
        <time>2019-12-08T11:48:33Z</time>
      </trkpt>
      <trkpt lat="43.47317" lon="2.16039">
        <ele>587</ele>
        <time>2019-12-08T11:48:37Z</time>
      </trkpt>
      <trkpt lat="43.47333" lon="2.16046">
        <ele>587</ele>
        <time>2019-12-08T11:48:42Z</time>
      </trkpt>
      <trkpt lat="43.47344" lon="2.16052">
        <ele>587</ele>
        <time>2019-12-08T11:48:45Z</time>
      </trkpt>
      <trkpt lat="43.47352" lon="2.16057">
        <ele>587</ele>
        <time>2019-12-08T11:48:47Z</time>
      </trkpt>
      <trkpt lat="43.47368" lon="2.16067">
        <ele>586</ele>
        <time>2019-12-08T11:48:51Z</time>
      </trkpt>
      <trkpt lat="43.47375" lon="2.16073">
        <ele>586</ele>
        <time>2019-12-08T11:48:53Z</time>
      </trkpt>
      <trkpt lat="43.47391" lon="2.16084">
        <ele>586</ele>
        <time>2019-12-08T11:48:57Z</time>
      </trkpt>
      <trkpt lat="43.47398" lon="2.1609">
        <ele>586</ele>
        <time>2019-12-08T11:48:59Z</time>
      </trkpt>
      <trkpt lat="43.47406" lon="2.16102">
        <ele>586</ele>
        <time>2019-12-08T11:49:01Z</time>
      </trkpt>
      <trkpt lat="43.47409" lon="2.16109">
        <ele>586</ele>
        <time>2019-12-08T11:49:02Z</time>
      </trkpt>
      <trkpt lat="43.47417" lon="2.16123">
        <ele>585</ele>
        <time>2019-12-08T11:49:04Z</time>
      </trkpt>
      <trkpt lat="43.4742" lon="2.1613">
        <ele>585</ele>
        <time>2019-12-08T11:49:05Z</time>
      </trkpt>
      <trkpt lat="43.4743" lon="2.16154">
        <ele>584</ele>
        <time>2019-12-08T11:49:08Z</time>
      </trkpt>
      <trkpt lat="43.47435" lon="2.16162">
        <ele>584</ele>
        <time>2019-12-08T11:49:09Z</time>
      </trkpt>
      <trkpt lat="43.47445" lon="2.16179">
        <ele>583</ele>
        <time>2019-12-08T11:49:11Z</time>
      </trkpt>
      <trkpt lat="43.47457" lon="2.16196">
        <ele>582</ele>
        <time>2019-12-08T11:49:13Z</time>
      </trkpt>
      <trkpt lat="43.47463" lon="2.16204">
        <ele>580</ele>
        <time>2019-12-08T11:49:14Z</time>
      </trkpt>
      <trkpt lat="43.47477" lon="2.16221">
        <ele>579</ele>
        <time>2019-12-08T11:49:16Z</time>
      </trkpt>
      <trkpt lat="43.47484" lon="2.1623">
        <ele>579</ele>
        <time>2019-12-08T11:49:17Z</time>
      </trkpt>
      <trkpt lat="43.475" lon="2.16245">
        <ele>578</ele>
        <time>2019-12-08T11:49:19Z</time>
      </trkpt>
      <trkpt lat="43.47516" lon="2.16258">
        <ele>576</ele>
        <time>2019-12-08T11:49:21Z</time>
      </trkpt>
      <trkpt lat="43.47534" lon="2.16267">
        <ele>575</ele>
        <time>2019-12-08T11:49:23Z</time>
      </trkpt>
      <trkpt lat="43.47543" lon="2.1627">
        <ele>575</ele>
        <time>2019-12-08T11:49:24Z</time>
      </trkpt>
      <trkpt lat="43.47561" lon="2.16272">
        <ele>574</ele>
        <time>2019-12-08T11:49:26Z</time>
      </trkpt>
      <trkpt lat="43.47579" lon="2.16273">
        <ele>573</ele>
        <time>2019-12-08T11:49:28Z</time>
      </trkpt>
      <trkpt lat="43.47587" lon="2.16277">
        <ele>572</ele>
        <time>2019-12-08T11:49:29Z</time>
      </trkpt>
      <trkpt lat="43.47595" lon="2.16282">
        <ele>571</ele>
        <time>2019-12-08T11:49:30Z</time>
      </trkpt>
      <trkpt lat="43.47611" lon="2.16291">
        <ele>569</ele>
        <time>2019-12-08T11:49:32Z</time>
      </trkpt>
      <trkpt lat="43.4762" lon="2.16294">
        <ele>568</ele>
        <time>2019-12-08T11:49:33Z</time>
      </trkpt>
      <trkpt lat="43.47638" lon="2.16298">
        <ele>566</ele>
        <time>2019-12-08T11:49:35Z</time>
      </trkpt>
      <trkpt lat="43.47657" lon="2.16303">
        <ele>565</ele>
        <time>2019-12-08T11:49:37Z</time>
      </trkpt>
      <trkpt lat="43.47665" lon="2.16307">
        <ele>564</ele>
        <time>2019-12-08T11:49:38Z</time>
      </trkpt>
      <trkpt lat="43.47681" lon="2.16318">
        <ele>563</ele>
        <time>2019-12-08T11:49:40Z</time>
      </trkpt>
      <trkpt lat="43.47692" lon="2.16334">
        <ele>562</ele>
        <time>2019-12-08T11:49:42Z</time>
      </trkpt>
      <trkpt lat="43.47698" lon="2.16341">
        <ele>562</ele>
        <time>2019-12-08T11:49:43Z</time>
      </trkpt>
      <trkpt lat="43.47703" lon="2.16347">
        <ele>562</ele>
        <time>2019-12-08T11:49:44Z</time>
      </trkpt>
      <trkpt lat="43.47714" lon="2.1636">
        <ele>561</ele>
        <time>2019-12-08T11:49:46Z</time>
      </trkpt>
      <trkpt lat="43.47728" lon="2.1638">
        <ele>561</ele>
        <time>2019-12-08T11:49:49Z</time>
      </trkpt>
      <trkpt lat="43.47738" lon="2.16397">
        <ele>562</ele>
        <time>2019-12-08T11:49:52Z</time>
      </trkpt>
      <trkpt lat="43.47744" lon="2.16408">
        <ele>562</ele>
        <time>2019-12-08T11:49:54Z</time>
      </trkpt>
      <trkpt lat="43.47748" lon="2.16413">
        <ele>563</ele>
        <time>2019-12-08T11:49:55Z</time>
      </trkpt>
      <trkpt lat="43.47752" lon="2.16417">
        <ele>563</ele>
        <time>2019-12-08T11:49:56Z</time>
      </trkpt>
      <trkpt lat="43.47763" lon="2.16429">
        <ele>564</ele>
        <time>2019-12-08T11:49:59Z</time>
      </trkpt>
      <trkpt lat="43.47767" lon="2.16433">
        <ele>564</ele>
        <time>2019-12-08T11:50:00Z</time>
      </trkpt>
      <trkpt lat="43.47783" lon="2.16447">
        <ele>565</ele>
        <time>2019-12-08T11:50:04Z</time>
      </trkpt>
      <trkpt lat="43.47791" lon="2.16456">
        <ele>565</ele>
        <time>2019-12-08T11:50:06Z</time>
      </trkpt>
      <trkpt lat="43.47805" lon="2.16473">
        <ele>565</ele>
        <time>2019-12-08T11:50:10Z</time>
      </trkpt>
      <trkpt lat="43.47808" lon="2.16476">
        <ele>565</ele>
        <time>2019-12-08T11:50:11Z</time>
      </trkpt>
      <trkpt lat="43.47815" lon="2.16481">
        <ele>565</ele>
        <time>2019-12-08T11:50:13Z</time>
      </trkpt>
      <trkpt lat="43.47818" lon="2.16483">
        <ele>566</ele>
        <time>2019-12-08T11:50:14Z</time>
      </trkpt>
      <trkpt lat="43.47829" lon="2.1649">
        <ele>566</ele>
        <time>2019-12-08T11:50:17Z</time>
      </trkpt>
      <trkpt lat="43.47832" lon="2.16493">
        <ele>567</ele>
        <time>2019-12-08T11:50:18Z</time>
      </trkpt>
      <trkpt lat="43.47852" lon="2.16505">
        <ele>567</ele>
        <time>2019-12-08T11:50:24Z</time>
      </trkpt>
      <trkpt lat="43.47872" lon="2.16514">
        <ele>567</ele>
        <time>2019-12-08T11:50:30Z</time>
      </trkpt>
      <trkpt lat="43.47888" lon="2.16509">
        <ele>567</ele>
        <time>2019-12-08T11:50:35Z</time>
      </trkpt>
      <trkpt lat="43.479" lon="2.16489">
        <ele>567</ele>
        <time>2019-12-08T11:50:41Z</time>
      </trkpt>
      <trkpt lat="43.47912" lon="2.16461">
        <ele>567</ele>
        <time>2019-12-08T11:50:49Z</time>
      </trkpt>
      <trkpt lat="43.47923" lon="2.16431">
        <ele>566</ele>
        <time>2019-12-08T11:50:56Z</time>
      </trkpt>
      <trkpt lat="43.47925" lon="2.16426">
        <ele>566</ele>
        <time>2019-12-08T11:50:57Z</time>
      </trkpt>
      <trkpt lat="43.47932" lon="2.16404">
        <ele>565</ele>
        <time>2019-12-08T11:51:01Z</time>
      </trkpt>
      <trkpt lat="43.47934" lon="2.16397">
        <ele>565</ele>
        <time>2019-12-08T11:51:02Z</time>
      </trkpt>
      <trkpt lat="43.47938" lon="2.16383">
        <ele>564</ele>
        <time>2019-12-08T11:51:04Z</time>
      </trkpt>
      <trkpt lat="43.47939" lon="2.16368">
        <ele>563</ele>
        <time>2019-12-08T11:51:06Z</time>
      </trkpt>
      <trkpt lat="43.47938" lon="2.1636">
        <ele>563</ele>
        <time>2019-12-08T11:51:07Z</time>
      </trkpt>
      <trkpt lat="43.47938" lon="2.16346">
        <ele>562</ele>
        <time>2019-12-08T11:51:09Z</time>
      </trkpt>
      <trkpt lat="43.47939" lon="2.16329">
        <ele>562</ele>
        <time>2019-12-08T11:51:11Z</time>
      </trkpt>
      <trkpt lat="43.4794" lon="2.16311">
        <ele>561</ele>
        <time>2019-12-08T11:51:13Z</time>
      </trkpt>
      <trkpt lat="43.47941" lon="2.16303">
        <ele>559</ele>
        <time>2019-12-08T11:51:14Z</time>
      </trkpt>
      <trkpt lat="43.47946" lon="2.16287">
        <ele>558</ele>
        <time>2019-12-08T11:51:16Z</time>
      </trkpt>
      <trkpt lat="43.47953" lon="2.16274">
        <ele>556</ele>
        <time>2019-12-08T11:51:18Z</time>
      </trkpt>
      <trkpt lat="43.47957" lon="2.16268">
        <ele>555</ele>
        <time>2019-12-08T11:51:19Z</time>
      </trkpt>
      <trkpt lat="43.4796" lon="2.16263">
        <ele>554</ele>
        <time>2019-12-08T11:51:20Z</time>
      </trkpt>
      <trkpt lat="43.47963" lon="2.16258">
        <ele>553</ele>
        <time>2019-12-08T11:51:21Z</time>
      </trkpt>
      <trkpt lat="43.47965" lon="2.16252">
        <ele>553</ele>
        <time>2019-12-08T11:51:22Z</time>
      </trkpt>
      <trkpt lat="43.47967" lon="2.16244">
        <ele>552</ele>
        <time>2019-12-08T11:51:23Z</time>
      </trkpt>
      <trkpt lat="43.4797" lon="2.16236">
        <ele>551</ele>
        <time>2019-12-08T11:51:24Z</time>
      </trkpt>
      <trkpt lat="43.47971" lon="2.16228">
        <ele>550</ele>
        <time>2019-12-08T11:51:25Z</time>
      </trkpt>
      <trkpt lat="43.47972" lon="2.1622">
        <ele>549</ele>
        <time>2019-12-08T11:51:26Z</time>
      </trkpt>
      <trkpt lat="43.47972" lon="2.16211">
        <ele>548</ele>
        <time>2019-12-08T11:51:27Z</time>
      </trkpt>
      <trkpt lat="43.47971" lon="2.16202">
        <ele>548</ele>
        <time>2019-12-08T11:51:28Z</time>
      </trkpt>
      <trkpt lat="43.47965" lon="2.16186">
        <ele>547</ele>
        <time>2019-12-08T11:51:30Z</time>
      </trkpt>
      <trkpt lat="43.47961" lon="2.16177">
        <ele>546</ele>
        <time>2019-12-08T11:51:31Z</time>
      </trkpt>
      <trkpt lat="43.47956" lon="2.16168">
        <ele>545</ele>
        <time>2019-12-08T11:51:32Z</time>
      </trkpt>
      <trkpt lat="43.47945" lon="2.1615">
        <ele>544</ele>
        <time>2019-12-08T11:51:34Z</time>
      </trkpt>
      <trkpt lat="43.4794" lon="2.16143">
        <ele>543</ele>
        <time>2019-12-08T11:51:35Z</time>
      </trkpt>
      <trkpt lat="43.47932" lon="2.16126">
        <ele>542</ele>
        <time>2019-12-08T11:51:37Z</time>
      </trkpt>
      <trkpt lat="43.47929" lon="2.16118">
        <ele>541</ele>
        <time>2019-12-08T11:51:38Z</time>
      </trkpt>
      <trkpt lat="43.47923" lon="2.16101">
        <ele>541</ele>
        <time>2019-12-08T11:51:40Z</time>
      </trkpt>
      <trkpt lat="43.47917" lon="2.16082">
        <ele>540</ele>
        <time>2019-12-08T11:51:42Z</time>
      </trkpt>
      <trkpt lat="43.47912" lon="2.16072">
        <ele>539</ele>
        <time>2019-12-08T11:51:43Z</time>
      </trkpt>
      <trkpt lat="43.47907" lon="2.16061">
        <ele>538</ele>
        <time>2019-12-08T11:51:44Z</time>
      </trkpt>
      <trkpt lat="43.47902" lon="2.1605">
        <ele>537</ele>
        <time>2019-12-08T11:51:45Z</time>
      </trkpt>
      <trkpt lat="43.47898" lon="2.16039">
        <ele>535</ele>
        <time>2019-12-08T11:51:46Z</time>
      </trkpt>
      <trkpt lat="43.47895" lon="2.16028">
        <ele>533</ele>
        <time>2019-12-08T11:51:47Z</time>
      </trkpt>
      <trkpt lat="43.47894" lon="2.16015">
        <ele>531</ele>
        <time>2019-12-08T11:51:48Z</time>
      </trkpt>
      <trkpt lat="43.47893" lon="2.16001">
        <ele>530</ele>
        <time>2019-12-08T11:51:49Z</time>
      </trkpt>
      <trkpt lat="43.47892" lon="2.15988">
        <ele>529</ele>
        <time>2019-12-08T11:51:50Z</time>
      </trkpt>
      <trkpt lat="43.47892" lon="2.15976">
        <ele>529</ele>
        <time>2019-12-08T11:51:51Z</time>
      </trkpt>
      <trkpt lat="43.47888" lon="2.15957">
        <ele>528</ele>
        <time>2019-12-08T11:51:53Z</time>
      </trkpt>
      <trkpt lat="43.47887" lon="2.15949">
        <ele>528</ele>
        <time>2019-12-08T11:51:54Z</time>
      </trkpt>
      <trkpt lat="43.47885" lon="2.1593">
        <ele>528</ele>
        <time>2019-12-08T11:51:57Z</time>
      </trkpt>
      <trkpt lat="43.47884" lon="2.15924">
        <ele>528</ele>
        <time>2019-12-08T11:51:58Z</time>
      </trkpt>
      <trkpt lat="43.4788" lon="2.15911">
        <ele>528</ele>
        <time>2019-12-08T11:52:01Z</time>
      </trkpt>
      <trkpt lat="43.47867" lon="2.15885">
        <ele>529</ele>
        <time>2019-12-08T11:52:08Z</time>
      </trkpt>
      <trkpt lat="43.47858" lon="2.15873">
        <ele>530</ele>
        <time>2019-12-08T11:52:14Z</time>
      </trkpt>
      <trkpt lat="43.47859" lon="2.15873">
        <ele>529</ele>
        <time>2019-12-08T11:53:49Z</time>
      </trkpt>
      <trkpt lat="43.47859" lon="2.15866">
        <ele>529</ele>
        <time>2019-12-08T11:53:53Z</time>
      </trkpt>
      <trkpt lat="43.4786" lon="2.15863">
        <ele>529</ele>
        <time>2019-12-08T11:53:55Z</time>
      </trkpt>
      <trkpt lat="43.4786" lon="2.15863">
        <ele>528</ele>
        <time>2019-12-08T11:53:57Z</time>
      </trkpt>
      <trkpt lat="43.4786" lon="2.15859">
        <ele>528</ele>
        <time>2019-12-08T11:53:59Z</time>
      </trkpt>
      <trkpt lat="43.47863" lon="2.15846">
        <ele>527</ele>
        <time>2019-12-08T11:54:03Z</time>
      </trkpt>
      <trkpt lat="43.47864" lon="2.15842">
        <ele>526</ele>
        <time>2019-12-08T11:54:04Z</time>
      </trkpt>
      <trkpt lat="43.47865" lon="2.15838">
        <ele>526</ele>
        <time>2019-12-08T11:54:05Z</time>
      </trkpt>
      <trkpt lat="43.47868" lon="2.15823">
        <ele>525</ele>
        <time>2019-12-08T11:54:09Z</time>
      </trkpt>
      <trkpt lat="43.47869" lon="2.15819">
        <ele>524</ele>
        <time>2019-12-08T11:54:10Z</time>
      </trkpt>
      <trkpt lat="43.47871" lon="2.15817">
        <ele>523</ele>
        <time>2019-12-08T11:54:11Z</time>
      </trkpt>
      <trkpt lat="43.47874" lon="2.15814">
        <ele>522</ele>
        <time>2019-12-08T11:54:13Z</time>
      </trkpt>
      <trkpt lat="43.47876" lon="2.15812">
        <ele>521</ele>
        <time>2019-12-08T11:54:14Z</time>
      </trkpt>
      <trkpt lat="43.47877" lon="2.15811">
        <ele>521</ele>
        <time>2019-12-08T11:54:15Z</time>
      </trkpt>
      <trkpt lat="43.4788" lon="2.15812">
        <ele>519</ele>
        <time>2019-12-08T11:54:17Z</time>
      </trkpt>
      <trkpt lat="43.47883" lon="2.15814">
        <ele>519</ele>
        <time>2019-12-08T11:54:18Z</time>
      </trkpt>
      <trkpt lat="43.47886" lon="2.15815">
        <ele>518</ele>
        <time>2019-12-08T11:54:19Z</time>
      </trkpt>
      <trkpt lat="43.47891" lon="2.15819">
        <ele>516</ele>
        <time>2019-12-08T11:54:21Z</time>
      </trkpt>
      <trkpt lat="43.47894" lon="2.15821">
        <ele>515</ele>
        <time>2019-12-08T11:54:22Z</time>
      </trkpt>
      <trkpt lat="43.47899" lon="2.15827">
        <ele>514</ele>
        <time>2019-12-08T11:54:24Z</time>
      </trkpt>
      <trkpt lat="43.4791" lon="2.15837">
        <ele>512</ele>
        <time>2019-12-08T11:54:28Z</time>
      </trkpt>
      <trkpt lat="43.47921" lon="2.15845">
        <ele>511</ele>
        <time>2019-12-08T11:54:31Z</time>
      </trkpt>
      <trkpt lat="43.47929" lon="2.15851">
        <ele>509</ele>
        <time>2019-12-08T11:54:34Z</time>
      </trkpt>
      <trkpt lat="43.47931" lon="2.15855">
        <ele>508</ele>
        <time>2019-12-08T11:54:36Z</time>
      </trkpt>
      <trkpt lat="43.47932" lon="2.15857">
        <ele>507</ele>
        <time>2019-12-08T11:54:38Z</time>
      </trkpt>
      <trkpt lat="43.47933" lon="2.15859">
        <ele>507</ele>
        <time>2019-12-08T11:54:39Z</time>
      </trkpt>
      <trkpt lat="43.47937" lon="2.15863">
        <ele>507</ele>
        <time>2019-12-08T11:54:41Z</time>
      </trkpt>
      <trkpt lat="43.4794" lon="2.15872">
        <ele>507</ele>
        <time>2019-12-08T11:54:43Z</time>
      </trkpt>
      <trkpt lat="43.47944" lon="2.15885">
        <ele>506</ele>
        <time>2019-12-08T11:54:45Z</time>
      </trkpt>
      <trkpt lat="43.47951" lon="2.15897">
        <ele>505</ele>
        <time>2019-12-08T11:54:47Z</time>
      </trkpt>
      <trkpt lat="43.47955" lon="2.15905">
        <ele>504</ele>
        <time>2019-12-08T11:54:48Z</time>
      </trkpt>
      <trkpt lat="43.4796" lon="2.15913">
        <ele>503</ele>
        <time>2019-12-08T11:54:49Z</time>
      </trkpt>
      <trkpt lat="43.47966" lon="2.15921">
        <ele>501</ele>
        <time>2019-12-08T11:54:50Z</time>
      </trkpt>
      <trkpt lat="43.47972" lon="2.15928">
        <ele>500</ele>
        <time>2019-12-08T11:54:51Z</time>
      </trkpt>
      <trkpt lat="43.47977" lon="2.15934">
        <ele>499</ele>
        <time>2019-12-08T11:54:52Z</time>
      </trkpt>
      <trkpt lat="43.47982" lon="2.15939">
        <ele>498</ele>
        <time>2019-12-08T11:54:53Z</time>
      </trkpt>
      <trkpt lat="43.47993" lon="2.15949">
        <ele>496</ele>
        <time>2019-12-08T11:54:55Z</time>
      </trkpt>
      <trkpt lat="43.48" lon="2.15951">
        <ele>495</ele>
        <time>2019-12-08T11:54:56Z</time>
      </trkpt>
      <trkpt lat="43.48006" lon="2.15952">
        <ele>494</ele>
        <time>2019-12-08T11:54:57Z</time>
      </trkpt>
      <trkpt lat="43.48011" lon="2.15954">
        <ele>493</ele>
        <time>2019-12-08T11:54:58Z</time>
      </trkpt>
      <trkpt lat="43.48015" lon="2.15956">
        <ele>493</ele>
        <time>2019-12-08T11:54:59Z</time>
      </trkpt>
      <trkpt lat="43.48045" lon="2.15966">
        <ele>492</ele>
        <time>2019-12-08T11:55:06Z</time>
      </trkpt>
      <trkpt lat="43.48054" lon="2.15969">
        <ele>492</ele>
        <time>2019-12-08T11:55:08Z</time>
      </trkpt>
      <trkpt lat="43.48067" lon="2.15972">
        <ele>492</ele>
        <time>2019-12-08T11:55:11Z</time>
      </trkpt>
      <trkpt lat="43.48076" lon="2.15974">
        <ele>492</ele>
        <time>2019-12-08T11:55:13Z</time>
      </trkpt>
      <trkpt lat="43.48082" lon="2.15973">
        <ele>491</ele>
        <time>2019-12-08T11:55:14Z</time>
      </trkpt>
      <trkpt lat="43.48088" lon="2.15971">
        <ele>491</ele>
        <time>2019-12-08T11:55:15Z</time>
      </trkpt>
      <trkpt lat="43.48094" lon="2.15969">
        <ele>490</ele>
        <time>2019-12-08T11:55:16Z</time>
      </trkpt>
      <trkpt lat="43.481" lon="2.15967">
        <ele>489</ele>
        <time>2019-12-08T11:55:17Z</time>
      </trkpt>
      <trkpt lat="43.48113" lon="2.1596">
        <ele>487</ele>
        <time>2019-12-08T11:55:19Z</time>
      </trkpt>
      <trkpt lat="43.48121" lon="2.15956">
        <ele>486</ele>
        <time>2019-12-08T11:55:20Z</time>
      </trkpt>
      <trkpt lat="43.48128" lon="2.15951">
        <ele>484</ele>
        <time>2019-12-08T11:55:21Z</time>
      </trkpt>
      <trkpt lat="43.48136" lon="2.15944">
        <ele>483</ele>
        <time>2019-12-08T11:55:22Z</time>
      </trkpt>
      <trkpt lat="43.48144" lon="2.15937">
        <ele>482</ele>
        <time>2019-12-08T11:55:23Z</time>
      </trkpt>
      <trkpt lat="43.48152" lon="2.15932">
        <ele>480</ele>
        <time>2019-12-08T11:55:24Z</time>
      </trkpt>
      <trkpt lat="43.48159" lon="2.15929">
        <ele>478</ele>
        <time>2019-12-08T11:55:25Z</time>
      </trkpt>
      <trkpt lat="43.48166" lon="2.1593">
        <ele>476</ele>
        <time>2019-12-08T11:55:26Z</time>
      </trkpt>
      <trkpt lat="43.48171" lon="2.15933">
        <ele>474</ele>
        <time>2019-12-08T11:55:27Z</time>
      </trkpt>
      <trkpt lat="43.48175" lon="2.15939">
        <ele>474</ele>
        <time>2019-12-08T11:55:28Z</time>
      </trkpt>
      <trkpt lat="43.48177" lon="2.15947">
        <ele>473</ele>
        <time>2019-12-08T11:55:29Z</time>
      </trkpt>
      <trkpt lat="43.4818" lon="2.15969">
        <ele>471</ele>
        <time>2019-12-08T11:55:31Z</time>
      </trkpt>
      <trkpt lat="43.4818" lon="2.15982">
        <ele>470</ele>
        <time>2019-12-08T11:55:32Z</time>
      </trkpt>
      <trkpt lat="43.48181" lon="2.15996">
        <ele>469</ele>
        <time>2019-12-08T11:55:33Z</time>
      </trkpt>
      <trkpt lat="43.48182" lon="2.16018">
        <ele>465</ele>
        <time>2019-12-08T11:55:35Z</time>
      </trkpt>
      <trkpt lat="43.48182" lon="2.16027">
        <ele>463</ele>
        <time>2019-12-08T11:55:36Z</time>
      </trkpt>
      <trkpt lat="43.48183" lon="2.16037">
        <ele>461</ele>
        <time>2019-12-08T11:55:37Z</time>
      </trkpt>
      <trkpt lat="43.48185" lon="2.16045">
        <ele>459</ele>
        <time>2019-12-08T11:55:38Z</time>
      </trkpt>
      <trkpt lat="43.48189" lon="2.16061">
        <ele>457</ele>
        <time>2019-12-08T11:55:40Z</time>
      </trkpt>
      <trkpt lat="43.48192" lon="2.1607">
        <ele>456</ele>
        <time>2019-12-08T11:55:41Z</time>
      </trkpt>
      <trkpt lat="43.48196" lon="2.16078">
        <ele>455</ele>
        <time>2019-12-08T11:55:42Z</time>
      </trkpt>
      <trkpt lat="43.48201" lon="2.16086">
        <ele>454</ele>
        <time>2019-12-08T11:55:43Z</time>
      </trkpt>
      <trkpt lat="43.48207" lon="2.16092">
        <ele>453</ele>
        <time>2019-12-08T11:55:44Z</time>
      </trkpt>
      <trkpt lat="43.48213" lon="2.16095">
        <ele>452</ele>
        <time>2019-12-08T11:55:45Z</time>
      </trkpt>
      <trkpt lat="43.48221" lon="2.16094">
        <ele>452</ele>
        <time>2019-12-08T11:55:46Z</time>
      </trkpt>
      <trkpt lat="43.48228" lon="2.1609">
        <ele>450</ele>
        <time>2019-12-08T11:55:47Z</time>
      </trkpt>
      <trkpt lat="43.48233" lon="2.16084">
        <ele>449</ele>
        <time>2019-12-08T11:55:48Z</time>
      </trkpt>
      <trkpt lat="43.48238" lon="2.16077">
        <ele>448</ele>
        <time>2019-12-08T11:55:49Z</time>
      </trkpt>
      <trkpt lat="43.48241" lon="2.16069">
        <ele>447</ele>
        <time>2019-12-08T11:55:50Z</time>
      </trkpt>
      <trkpt lat="43.48244" lon="2.16062">
        <ele>446</ele>
        <time>2019-12-08T11:55:51Z</time>
      </trkpt>
      <trkpt lat="43.48248" lon="2.16056">
        <ele>445</ele>
        <time>2019-12-08T11:55:52Z</time>
      </trkpt>
      <trkpt lat="43.48254" lon="2.16051">
        <ele>444</ele>
        <time>2019-12-08T11:55:53Z</time>
      </trkpt>
      <trkpt lat="43.4826" lon="2.16047">
        <ele>443</ele>
        <time>2019-12-08T11:55:54Z</time>
      </trkpt>
      <trkpt lat="43.48268" lon="2.16045">
        <ele>441</ele>
        <time>2019-12-08T11:55:55Z</time>
      </trkpt>
      <trkpt lat="43.48277" lon="2.16044">
        <ele>440</ele>
        <time>2019-12-08T11:55:56Z</time>
      </trkpt>
      <trkpt lat="43.48287" lon="2.16043">
        <ele>438</ele>
        <time>2019-12-08T11:55:57Z</time>
      </trkpt>
      <trkpt lat="43.48296" lon="2.16041">
        <ele>438</ele>
        <time>2019-12-08T11:55:58Z</time>
      </trkpt>
      <trkpt lat="43.48306" lon="2.16038">
        <ele>436</ele>
        <time>2019-12-08T11:55:59Z</time>
      </trkpt>
      <trkpt lat="43.48316" lon="2.16033">
        <ele>434</ele>
        <time>2019-12-08T11:56:00Z</time>
      </trkpt>
      <trkpt lat="43.48325" lon="2.16029">
        <ele>433</ele>
        <time>2019-12-08T11:56:01Z</time>
      </trkpt>
      <trkpt lat="43.48334" lon="2.16024">
        <ele>432</ele>
        <time>2019-12-08T11:56:02Z</time>
      </trkpt>
      <trkpt lat="43.48343" lon="2.16019">
        <ele>430</ele>
        <time>2019-12-08T11:56:03Z</time>
      </trkpt>
      <trkpt lat="43.48362" lon="2.1601">
        <ele>428</ele>
        <time>2019-12-08T11:56:05Z</time>
      </trkpt>
      <trkpt lat="43.4837" lon="2.16008">
        <ele>426</ele>
        <time>2019-12-08T11:56:06Z</time>
      </trkpt>
      <trkpt lat="43.4838" lon="2.16006">
        <ele>424</ele>
        <time>2019-12-08T11:56:07Z</time>
      </trkpt>
      <trkpt lat="43.48388" lon="2.16004">
        <ele>423</ele>
        <time>2019-12-08T11:56:08Z</time>
      </trkpt>
      <trkpt lat="43.48397" lon="2.16001">
        <ele>421</ele>
        <time>2019-12-08T11:56:09Z</time>
      </trkpt>
      <trkpt lat="43.48405" lon="2.15998">
        <ele>420</ele>
        <time>2019-12-08T11:56:10Z</time>
      </trkpt>
      <trkpt lat="43.48414" lon="2.15995">
        <ele>418</ele>
        <time>2019-12-08T11:56:11Z</time>
      </trkpt>
      <trkpt lat="43.48423" lon="2.15992">
        <ele>417</ele>
        <time>2019-12-08T11:56:12Z</time>
      </trkpt>
      <trkpt lat="43.48432" lon="2.15991">
        <ele>416</ele>
        <time>2019-12-08T11:56:13Z</time>
      </trkpt>
      <trkpt lat="43.48441" lon="2.1599">
        <ele>414</ele>
        <time>2019-12-08T11:56:14Z</time>
      </trkpt>
      <trkpt lat="43.4845" lon="2.1599">
        <ele>412</ele>
        <time>2019-12-08T11:56:15Z</time>
      </trkpt>
      <trkpt lat="43.48459" lon="2.15989">
        <ele>411</ele>
        <time>2019-12-08T11:56:16Z</time>
      </trkpt>
      <trkpt lat="43.48477" lon="2.15985">
        <ele>409</ele>
        <time>2019-12-08T11:56:18Z</time>
      </trkpt>
      <trkpt lat="43.48486" lon="2.15983">
        <ele>408</ele>
        <time>2019-12-08T11:56:19Z</time>
      </trkpt>
      <trkpt lat="43.48493" lon="2.15981">
        <ele>407</ele>
        <time>2019-12-08T11:56:20Z</time>
      </trkpt>
      <trkpt lat="43.48499" lon="2.1598">
        <ele>405</ele>
        <time>2019-12-08T11:56:21Z</time>
      </trkpt>
      <trkpt lat="43.48503" lon="2.1598">
        <ele>404</ele>
        <time>2019-12-08T11:56:22Z</time>
      </trkpt>
      <trkpt lat="43.48507" lon="2.1598">
        <ele>403</ele>
        <time>2019-12-08T11:56:23Z</time>
      </trkpt>
      <trkpt lat="43.48509" lon="2.1598">
        <ele>403</ele>
        <time>2019-12-08T11:56:24Z</time>
      </trkpt>
      <trkpt lat="43.48511" lon="2.1598">
        <ele>401</ele>
        <time>2019-12-08T11:56:26Z</time>
      </trkpt>
      <trkpt lat="43.48512" lon="2.15981">
        <ele>400</ele>
        <time>2019-12-08T11:56:32Z</time>
      </trkpt>
      <trkpt lat="43.48521" lon="2.15983">
        <ele>400</ele>
        <time>2019-12-08T11:56:35Z</time>
      </trkpt>
      <trkpt lat="43.48532" lon="2.15987">
        <ele>399</ele>
        <time>2019-12-08T11:56:37Z</time>
      </trkpt>
      <trkpt lat="43.48545" lon="2.15992">
        <ele>398</ele>
        <time>2019-12-08T11:56:39Z</time>
      </trkpt>
      <trkpt lat="43.48552" lon="2.15996">
        <ele>398</ele>
        <time>2019-12-08T11:56:40Z</time>
      </trkpt>
      <trkpt lat="43.48565" lon="2.16006">
        <ele>396</ele>
        <time>2019-12-08T11:56:42Z</time>
      </trkpt>
      <trkpt lat="43.48572" lon="2.16011">
        <ele>395</ele>
        <time>2019-12-08T11:56:43Z</time>
      </trkpt>
      <trkpt lat="43.48578" lon="2.16016">
        <ele>394</ele>
        <time>2019-12-08T11:56:44Z</time>
      </trkpt>
      <trkpt lat="43.48584" lon="2.1602">
        <ele>393</ele>
        <time>2019-12-08T11:56:45Z</time>
      </trkpt>
      <trkpt lat="43.4859" lon="2.16024">
        <ele>393</ele>
        <time>2019-12-08T11:56:46Z</time>
      </trkpt>
      <trkpt lat="43.48595" lon="2.16029">
        <ele>392</ele>
        <time>2019-12-08T11:56:47Z</time>
      </trkpt>
      <trkpt lat="43.48599" lon="2.16035">
        <ele>391</ele>
        <time>2019-12-08T11:56:48Z</time>
      </trkpt>
      <trkpt lat="43.48604" lon="2.16039">
        <ele>391</ele>
        <time>2019-12-08T11:56:49Z</time>
      </trkpt>
      <trkpt lat="43.48614" lon="2.16049">
        <ele>388</ele>
        <time>2019-12-08T11:56:51Z</time>
      </trkpt>
      <trkpt lat="43.48618" lon="2.16054">
        <ele>387</ele>
        <time>2019-12-08T11:56:52Z</time>
      </trkpt>
      <trkpt lat="43.48623" lon="2.16059">
        <ele>386</ele>
        <time>2019-12-08T11:56:53Z</time>
      </trkpt>
      <trkpt lat="43.48629" lon="2.16064">
        <ele>385</ele>
        <time>2019-12-08T11:56:54Z</time>
      </trkpt>
      <trkpt lat="43.48641" lon="2.1607">
        <ele>384</ele>
        <time>2019-12-08T11:56:56Z</time>
      </trkpt>
      <trkpt lat="43.48648" lon="2.16073">
        <ele>383</ele>
        <time>2019-12-08T11:56:57Z</time>
      </trkpt>
      <trkpt lat="43.48653" lon="2.16077">
        <ele>381</ele>
        <time>2019-12-08T11:56:58Z</time>
      </trkpt>
      <trkpt lat="43.48659" lon="2.16081">
        <ele>380</ele>
        <time>2019-12-08T11:56:59Z</time>
      </trkpt>
      <trkpt lat="43.48665" lon="2.16084">
        <ele>380</ele>
        <time>2019-12-08T11:57:00Z</time>
      </trkpt>
      <trkpt lat="43.48672" lon="2.16085">
        <ele>379</ele>
        <time>2019-12-08T11:57:01Z</time>
      </trkpt>
      <trkpt lat="43.48678" lon="2.16087">
        <ele>378</ele>
        <time>2019-12-08T11:57:02Z</time>
      </trkpt>
      <trkpt lat="43.48688" lon="2.16089">
        <ele>376</ele>
        <time>2019-12-08T11:57:04Z</time>
      </trkpt>
      <trkpt lat="43.48693" lon="2.16089">
        <ele>375</ele>
        <time>2019-12-08T11:57:05Z</time>
      </trkpt>
      <trkpt lat="43.48698" lon="2.1609">
        <ele>375</ele>
        <time>2019-12-08T11:57:06Z</time>
      </trkpt>
      <trkpt lat="43.48708" lon="2.16092">
        <ele>373</ele>
        <time>2019-12-08T11:57:08Z</time>
      </trkpt>
      <trkpt lat="43.48713" lon="2.16094">
        <ele>372</ele>
        <time>2019-12-08T11:57:09Z</time>
      </trkpt>
      <trkpt lat="43.48718" lon="2.16096">
        <ele>372</ele>
        <time>2019-12-08T11:57:10Z</time>
      </trkpt>
      <trkpt lat="43.48732" lon="2.16101">
        <ele>370</ele>
        <time>2019-12-08T11:57:12Z</time>
      </trkpt>
      <trkpt lat="43.48739" lon="2.16105">
        <ele>369</ele>
        <time>2019-12-08T11:57:13Z</time>
      </trkpt>
      <trkpt lat="43.48746" lon="2.16107">
        <ele>368</ele>
        <time>2019-12-08T11:57:14Z</time>
      </trkpt>
      <trkpt lat="43.48754" lon="2.16107">
        <ele>367</ele>
        <time>2019-12-08T11:57:15Z</time>
      </trkpt>
      <trkpt lat="43.48762" lon="2.16107">
        <ele>366</ele>
        <time>2019-12-08T11:57:16Z</time>
      </trkpt>
      <trkpt lat="43.4877" lon="2.16107">
        <ele>365</ele>
        <time>2019-12-08T11:57:17Z</time>
      </trkpt>
      <trkpt lat="43.48778" lon="2.16106">
        <ele>364</ele>
        <time>2019-12-08T11:57:18Z</time>
      </trkpt>
      <trkpt lat="43.48784" lon="2.16106">
        <ele>363</ele>
        <time>2019-12-08T11:57:19Z</time>
      </trkpt>
      <trkpt lat="43.48789" lon="2.16105">
        <ele>362</ele>
        <time>2019-12-08T11:57:20Z</time>
      </trkpt>
      <trkpt lat="43.48798" lon="2.16104">
        <ele>360</ele>
        <time>2019-12-08T11:57:22Z</time>
      </trkpt>
      <trkpt lat="43.48802" lon="2.16102">
        <ele>360</ele>
        <time>2019-12-08T11:57:23Z</time>
      </trkpt>
      <trkpt lat="43.48805" lon="2.161">
        <ele>359</ele>
        <time>2019-12-08T11:57:24Z</time>
      </trkpt>
      <trkpt lat="43.4881" lon="2.16091">
        <ele>357</ele>
        <time>2019-12-08T11:57:26Z</time>
      </trkpt>
      <trkpt lat="43.48813" lon="2.16087">
        <ele>357</ele>
        <time>2019-12-08T11:57:27Z</time>
      </trkpt>
      <trkpt lat="43.48816" lon="2.16083">
        <ele>356</ele>
        <time>2019-12-08T11:57:28Z</time>
      </trkpt>
      <trkpt lat="43.48819" lon="2.16077">
        <ele>355</ele>
        <time>2019-12-08T11:57:29Z</time>
      </trkpt>
      <trkpt lat="43.48822" lon="2.16069">
        <ele>354</ele>
        <time>2019-12-08T11:57:30Z</time>
      </trkpt>
      <trkpt lat="43.48823" lon="2.16062">
        <ele>353</ele>
        <time>2019-12-08T11:57:31Z</time>
      </trkpt>
      <trkpt lat="43.48824" lon="2.16055">
        <ele>352</ele>
        <time>2019-12-08T11:57:32Z</time>
      </trkpt>
      <trkpt lat="43.48827" lon="2.16042">
        <ele>350</ele>
        <time>2019-12-08T11:57:34Z</time>
      </trkpt>
      <trkpt lat="43.48833" lon="2.16029">
        <ele>348</ele>
        <time>2019-12-08T11:57:36Z</time>
      </trkpt>
      <trkpt lat="43.48836" lon="2.16022">
        <ele>347</ele>
        <time>2019-12-08T11:57:37Z</time>
      </trkpt>
      <trkpt lat="43.48839" lon="2.16014">
        <ele>345</ele>
        <time>2019-12-08T11:57:38Z</time>
      </trkpt>
      <trkpt lat="43.48842" lon="2.16007">
        <ele>343</ele>
        <time>2019-12-08T11:57:39Z</time>
      </trkpt>
      <trkpt lat="43.48844" lon="2.15999">
        <ele>342</ele>
        <time>2019-12-08T11:57:40Z</time>
      </trkpt>
      <trkpt lat="43.48848" lon="2.15993">
        <ele>340</ele>
        <time>2019-12-08T11:57:41Z</time>
      </trkpt>
      <trkpt lat="43.48851" lon="2.15986">
        <ele>339</ele>
        <time>2019-12-08T11:57:42Z</time>
      </trkpt>
      <trkpt lat="43.48855" lon="2.1598">
        <ele>337</ele>
        <time>2019-12-08T11:57:43Z</time>
      </trkpt>
      <trkpt lat="43.48858" lon="2.15974">
        <ele>336</ele>
        <time>2019-12-08T11:57:44Z</time>
      </trkpt>
      <trkpt lat="43.48865" lon="2.15964">
        <ele>334</ele>
        <time>2019-12-08T11:57:46Z</time>
      </trkpt>
      <trkpt lat="43.48868" lon="2.15959">
        <ele>331</ele>
        <time>2019-12-08T11:57:47Z</time>
      </trkpt>
      <trkpt lat="43.48871" lon="2.15954">
        <ele>329</ele>
        <time>2019-12-08T11:57:48Z</time>
      </trkpt>
      <trkpt lat="43.48874" lon="2.15949">
        <ele>328</ele>
        <time>2019-12-08T11:57:49Z</time>
      </trkpt>
      <trkpt lat="43.48878" lon="2.15945">
        <ele>327</ele>
        <time>2019-12-08T11:57:50Z</time>
      </trkpt>
      <trkpt lat="43.48881" lon="2.1594">
        <ele>326</ele>
        <time>2019-12-08T11:57:51Z</time>
      </trkpt>
      <trkpt lat="43.4889" lon="2.15932">
        <ele>325</ele>
        <time>2019-12-08T11:57:53Z</time>
      </trkpt>
      <trkpt lat="43.48899" lon="2.15924">
        <ele>322</ele>
        <time>2019-12-08T11:57:55Z</time>
      </trkpt>
      <trkpt lat="43.48903" lon="2.1592">
        <ele>321</ele>
        <time>2019-12-08T11:57:56Z</time>
      </trkpt>
      <trkpt lat="43.48906" lon="2.15916">
        <ele>320</ele>
        <time>2019-12-08T11:57:57Z</time>
      </trkpt>
      <trkpt lat="43.48909" lon="2.15913">
        <ele>320</ele>
        <time>2019-12-08T11:57:58Z</time>
      </trkpt>
      <trkpt lat="43.48914" lon="2.15908">
        <ele>318</ele>
        <time>2019-12-08T11:58:00Z</time>
      </trkpt>
      <trkpt lat="43.48917" lon="2.15907">
        <ele>318</ele>
        <time>2019-12-08T11:58:01Z</time>
      </trkpt>
      <trkpt lat="43.4892" lon="2.15904">
        <ele>317</ele>
        <time>2019-12-08T11:58:03Z</time>
      </trkpt>
      <trkpt lat="43.48919" lon="2.15901">
        <ele>317</ele>
        <time>2019-12-08T11:58:04Z</time>
      </trkpt>
      <trkpt lat="43.48917" lon="2.15892">
        <ele>316</ele>
        <time>2019-12-08T11:58:07Z</time>
      </trkpt>
      <trkpt lat="43.48915" lon="2.15891">
        <ele>316</ele>
        <time>2019-12-08T11:58:08Z</time>
      </trkpt>
      <trkpt lat="43.48914" lon="2.1589">
        <ele>315</ele>
        <time>2019-12-08T11:58:35Z</time>
      </trkpt>
      <trkpt lat="43.48908" lon="2.15885">
        <ele>316</ele>
        <time>2019-12-08T11:58:39Z</time>
      </trkpt>
      <trkpt lat="43.48896" lon="2.15876">
        <ele>317</ele>
        <time>2019-12-08T11:58:45Z</time>
      </trkpt>
      <trkpt lat="43.48885" lon="2.15871">
        <ele>317</ele>
        <time>2019-12-08T11:58:48Z</time>
      </trkpt>
      <trkpt lat="43.48877" lon="2.15865">
        <ele>317</ele>
        <time>2019-12-08T11:58:50Z</time>
      </trkpt>
      <trkpt lat="43.48872" lon="2.15861">
        <ele>317</ele>
        <time>2019-12-08T11:58:51Z</time>
      </trkpt>
      <trkpt lat="43.48854" lon="2.15846">
        <ele>316</ele>
        <time>2019-12-08T11:58:55Z</time>
      </trkpt>
      <trkpt lat="43.4885" lon="2.15841">
        <ele>316</ele>
        <time>2019-12-08T11:58:56Z</time>
      </trkpt>
      <trkpt lat="43.48845" lon="2.15837">
        <ele>316</ele>
        <time>2019-12-08T11:58:57Z</time>
      </trkpt>
      <trkpt lat="43.48829" lon="2.15823">
        <ele>315</ele>
        <time>2019-12-08T11:59:00Z</time>
      </trkpt>
      <trkpt lat="43.48823" lon="2.15818">
        <ele>315</ele>
        <time>2019-12-08T11:59:01Z</time>
      </trkpt>
      <trkpt lat="43.48817" lon="2.15814">
        <ele>315</ele>
        <time>2019-12-08T11:59:02Z</time>
      </trkpt>
      <trkpt lat="43.48811" lon="2.1581">
        <ele>315</ele>
        <time>2019-12-08T11:59:03Z</time>
      </trkpt>
      <trkpt lat="43.48797" lon="2.15804">
        <ele>314</ele>
        <time>2019-12-08T11:59:05Z</time>
      </trkpt>
      <trkpt lat="43.48783" lon="2.15799">
        <ele>314</ele>
        <time>2019-12-08T11:59:07Z</time>
      </trkpt>
      <trkpt lat="43.48748" lon="2.15787">
        <ele>313</ele>
        <time>2019-12-08T11:59:12Z</time>
      </trkpt>
      <trkpt lat="43.48734" lon="2.15781">
        <ele>312</ele>
        <time>2019-12-08T11:59:14Z</time>
      </trkpt>
      <trkpt lat="43.48727" lon="2.15775">
        <ele>312</ele>
        <time>2019-12-08T11:59:15Z</time>
      </trkpt>
      <trkpt lat="43.48721" lon="2.15768">
        <ele>311</ele>
        <time>2019-12-08T11:59:16Z</time>
      </trkpt>
      <trkpt lat="43.48716" lon="2.15749">
        <ele>311</ele>
        <time>2019-12-08T11:59:18Z</time>
      </trkpt>
      <trkpt lat="43.48716" lon="2.15722">
        <ele>311</ele>
        <time>2019-12-08T11:59:21Z</time>
      </trkpt>
      <trkpt lat="43.48716" lon="2.15713">
        <ele>311</ele>
        <time>2019-12-08T11:59:22Z</time>
      </trkpt>
      <trkpt lat="43.48717" lon="2.15696">
        <ele>311</ele>
        <time>2019-12-08T11:59:24Z</time>
      </trkpt>
      <trkpt lat="43.48716" lon="2.1568">
        <ele>311</ele>
        <time>2019-12-08T11:59:26Z</time>
      </trkpt>
      <trkpt lat="43.48711" lon="2.15642">
        <ele>312</ele>
        <time>2019-12-08T11:59:31Z</time>
      </trkpt>
      <trkpt lat="43.48709" lon="2.15636">
        <ele>312</ele>
        <time>2019-12-08T11:59:32Z</time>
      </trkpt>
      <trkpt lat="43.48705" lon="2.1561">
        <ele>312</ele>
        <time>2019-12-08T11:59:36Z</time>
      </trkpt>
      <trkpt lat="43.48706" lon="2.15601">
        <ele>312</ele>
        <time>2019-12-08T11:59:38Z</time>
      </trkpt>
      <trkpt lat="43.48708" lon="2.156">
        <ele>311</ele>
        <time>2019-12-08T11:59:39Z</time>
      </trkpt>
      <trkpt lat="43.48716" lon="2.15607">
        <ele>311</ele>
        <time>2019-12-08T11:59:42Z</time>
      </trkpt>
      <trkpt lat="43.48722" lon="2.15608">
        <ele>310</ele>
        <time>2019-12-08T11:59:43Z</time>
      </trkpt>
      <trkpt lat="43.48729" lon="2.15607">
        <ele>310</ele>
        <time>2019-12-08T11:59:44Z</time>
      </trkpt>
      <trkpt lat="43.48737" lon="2.15604">
        <ele>308</ele>
        <time>2019-12-08T11:59:45Z</time>
      </trkpt>
      <trkpt lat="43.48744" lon="2.15598">
        <ele>306</ele>
        <time>2019-12-08T11:59:46Z</time>
      </trkpt>
      <trkpt lat="43.48753" lon="2.15593">
        <ele>304</ele>
        <time>2019-12-08T11:59:47Z</time>
      </trkpt>
      <trkpt lat="43.48771" lon="2.15585">
        <ele>303</ele>
        <time>2019-12-08T11:59:49Z</time>
      </trkpt>
      <trkpt lat="43.4878" lon="2.15584">
        <ele>302</ele>
        <time>2019-12-08T11:59:50Z</time>
      </trkpt>
      <trkpt lat="43.4879" lon="2.15582">
        <ele>302</ele>
        <time>2019-12-08T11:59:51Z</time>
      </trkpt>
      <trkpt lat="43.48798" lon="2.15579">
        <ele>301</ele>
        <time>2019-12-08T11:59:52Z</time>
      </trkpt>
      <trkpt lat="43.48806" lon="2.15577">
        <ele>301</ele>
        <time>2019-12-08T11:59:53Z</time>
      </trkpt>
      <trkpt lat="43.48813" lon="2.15575">
        <ele>301</ele>
        <time>2019-12-08T11:59:54Z</time>
      </trkpt>
      <trkpt lat="43.48828" lon="2.15574">
        <ele>302</ele>
        <time>2019-12-08T11:59:57Z</time>
      </trkpt>
      <trkpt lat="43.48848" lon="2.15562">
        <ele>301</ele>
        <time>2019-12-08T12:00:00Z</time>
      </trkpt>
      <trkpt lat="43.48863" lon="2.15551">
        <ele>300</ele>
        <time>2019-12-08T12:00:02Z</time>
      </trkpt>
      <trkpt lat="43.4887" lon="2.15545">
        <ele>299</ele>
        <time>2019-12-08T12:00:03Z</time>
      </trkpt>
      <trkpt lat="43.48878" lon="2.15539">
        <ele>298</ele>
        <time>2019-12-08T12:00:04Z</time>
      </trkpt>
      <trkpt lat="43.48885" lon="2.15533">
        <ele>297</ele>
        <time>2019-12-08T12:00:05Z</time>
      </trkpt>
      <trkpt lat="43.489" lon="2.15521">
        <ele>296</ele>
        <time>2019-12-08T12:00:07Z</time>
      </trkpt>
      <trkpt lat="43.48916" lon="2.15509">
        <ele>295</ele>
        <time>2019-12-08T12:00:09Z</time>
      </trkpt>
      <trkpt lat="43.48924" lon="2.15503">
        <ele>294</ele>
        <time>2019-12-08T12:00:10Z</time>
      </trkpt>
      <trkpt lat="43.48941" lon="2.15491">
        <ele>293</ele>
        <time>2019-12-08T12:00:12Z</time>
      </trkpt>
      <trkpt lat="43.48958" lon="2.15478">
        <ele>291</ele>
        <time>2019-12-08T12:00:14Z</time>
      </trkpt>
      <trkpt lat="43.48966" lon="2.15472">
        <ele>291</ele>
        <time>2019-12-08T12:00:15Z</time>
      </trkpt>
      <trkpt lat="43.48983" lon="2.15461">
        <ele>289</ele>
        <time>2019-12-08T12:00:17Z</time>
      </trkpt>
      <trkpt lat="43.48999" lon="2.15451">
        <ele>287</ele>
        <time>2019-12-08T12:00:19Z</time>
      </trkpt>
      <trkpt lat="43.49007" lon="2.15445">
        <ele>287</ele>
        <time>2019-12-08T12:00:20Z</time>
      </trkpt>
      <trkpt lat="43.49015" lon="2.15439">
        <ele>286</ele>
        <time>2019-12-08T12:00:21Z</time>
      </trkpt>
      <trkpt lat="43.49029" lon="2.15428">
        <ele>285</ele>
        <time>2019-12-08T12:00:23Z</time>
      </trkpt>
      <trkpt lat="43.49035" lon="2.15423">
        <ele>284</ele>
        <time>2019-12-08T12:00:24Z</time>
      </trkpt>
      <trkpt lat="43.49039" lon="2.15421">
        <ele>283</ele>
        <time>2019-12-08T12:00:25Z</time>
      </trkpt>
      <trkpt lat="43.49041" lon="2.15418">
        <ele>283</ele>
        <time>2019-12-08T12:00:26Z</time>
      </trkpt>
      <trkpt lat="43.49039" lon="2.15398">
        <ele>282</ele>
        <time>2019-12-08T12:00:30Z</time>
      </trkpt>
      <trkpt lat="43.49038" lon="2.15391">
        <ele>282</ele>
        <time>2019-12-08T12:00:31Z</time>
      </trkpt>
      <trkpt lat="43.49035" lon="2.15376">
        <ele>281</ele>
        <time>2019-12-08T12:00:33Z</time>
      </trkpt>
      <trkpt lat="43.49032" lon="2.1536">
        <ele>281</ele>
        <time>2019-12-08T12:00:35Z</time>
      </trkpt>
      <trkpt lat="43.49031" lon="2.15352">
        <ele>280</ele>
        <time>2019-12-08T12:00:36Z</time>
      </trkpt>
      <trkpt lat="43.49032" lon="2.15334">
        <ele>278</ele>
        <time>2019-12-08T12:00:38Z</time>
      </trkpt>
      <trkpt lat="43.49033" lon="2.15325">
        <ele>276</ele>
        <time>2019-12-08T12:00:39Z</time>
      </trkpt>
      <trkpt lat="43.49035" lon="2.15318">
        <ele>275</ele>
        <time>2019-12-08T12:00:40Z</time>
      </trkpt>
      <trkpt lat="43.49037" lon="2.15311">
        <ele>274</ele>
        <time>2019-12-08T12:00:41Z</time>
      </trkpt>
      <trkpt lat="43.49039" lon="2.15304">
        <ele>272</ele>
        <time>2019-12-08T12:00:42Z</time>
      </trkpt>
      <trkpt lat="43.49041" lon="2.15295">
        <ele>271</ele>
        <time>2019-12-08T12:00:43Z</time>
      </trkpt>
      <trkpt lat="43.49043" lon="2.15286">
        <ele>270</ele>
        <time>2019-12-08T12:00:44Z</time>
      </trkpt>
      <trkpt lat="43.49045" lon="2.15275">
        <ele>269</ele>
        <time>2019-12-08T12:00:45Z</time>
      </trkpt>
      <trkpt lat="43.49047" lon="2.15265">
        <ele>268</ele>
        <time>2019-12-08T12:00:46Z</time>
      </trkpt>
      <trkpt lat="43.49049" lon="2.15255">
        <ele>267</ele>
        <time>2019-12-08T12:00:47Z</time>
      </trkpt>
      <trkpt lat="43.49051" lon="2.15245">
        <ele>265</ele>
        <time>2019-12-08T12:00:48Z</time>
      </trkpt>
      <trkpt lat="43.49053" lon="2.15235">
        <ele>264</ele>
        <time>2019-12-08T12:00:49Z</time>
      </trkpt>
      <trkpt lat="43.49054" lon="2.15225">
        <ele>263</ele>
        <time>2019-12-08T12:00:50Z</time>
      </trkpt>
      <trkpt lat="43.49054" lon="2.15215">
        <ele>262</ele>
        <time>2019-12-08T12:00:51Z</time>
      </trkpt>
      <trkpt lat="43.49054" lon="2.15205">
        <ele>259</ele>
        <time>2019-12-08T12:00:52Z</time>
      </trkpt>
      <trkpt lat="43.49053" lon="2.15194">
        <ele>257</ele>
        <time>2019-12-08T12:00:53Z</time>
      </trkpt>
      <trkpt lat="43.49051" lon="2.15181">
        <ele>256</ele>
        <time>2019-12-08T12:00:54Z</time>
      </trkpt>
      <trkpt lat="43.49051" lon="2.15171">
        <ele>255</ele>
        <time>2019-12-08T12:00:55Z</time>
      </trkpt>
      <trkpt lat="43.4905" lon="2.15159">
        <ele>253</ele>
        <time>2019-12-08T12:00:57Z</time>
      </trkpt>
      <trkpt lat="43.49049" lon="2.15155">
        <ele>253</ele>
        <time>2019-12-08T12:00:58Z</time>
      </trkpt>
      <trkpt lat="43.49049" lon="2.15152">
        <ele>252</ele>
        <time>2019-12-08T12:00:59Z</time>
      </trkpt>
      <trkpt lat="43.49049" lon="2.15149">
        <ele>252</ele>
        <time>2019-12-08T12:01:00Z</time>
      </trkpt>
      <trkpt lat="43.4905" lon="2.15144">
        <ele>252</ele>
        <time>2019-12-08T12:01:02Z</time>
      </trkpt>
      <trkpt lat="43.49051" lon="2.15143">
        <ele>252</ele>
        <time>2019-12-08T12:01:03Z</time>
      </trkpt>
      <trkpt lat="43.49049" lon="2.15143">
        <ele>252</ele>
        <time>2019-12-08T12:01:24Z</time>
      </trkpt>
      <trkpt lat="43.49049" lon="2.15144">
        <ele>252</ele>
        <time>2019-12-08T12:01:25Z</time>
      </trkpt>
      <trkpt lat="43.49049" lon="2.15147">
        <ele>252</ele>
        <time>2019-12-08T12:01:30Z</time>
      </trkpt>
      <trkpt lat="43.49049" lon="2.15148">
        <ele>252</ele>
        <time>2019-12-08T12:01:31Z</time>
      </trkpt>
      <trkpt lat="43.49126" lon="2.1511">
        <ele>251</ele>
        <time>2019-12-08T12:06:21Z</time>
      </trkpt>
      <trkpt lat="43.49154" lon="2.15102">
        <ele>252</ele>
        <time>2019-12-08T12:06:26Z</time>
      </trkpt>
      <trkpt lat="43.49187" lon="2.15096">
        <ele>251</ele>
        <time>2019-12-08T12:06:33Z</time>
      </trkpt>
      <trkpt lat="43.492" lon="2.15094">
        <ele>251</ele>
        <time>2019-12-08T12:06:34Z</time>
      </trkpt>
      <trkpt lat="43.49213" lon="2.15094">
        <ele>251</ele>
        <time>2019-12-08T12:06:37Z</time>
      </trkpt>
      <trkpt lat="43.49226" lon="2.15093">
        <ele>251</ele>
        <time>2019-12-08T12:06:38Z</time>
      </trkpt>
      <trkpt lat="43.4924" lon="2.15092">
        <ele>251</ele>
        <time>2019-12-08T12:06:40Z</time>
      </trkpt>
      <trkpt lat="43.49247" lon="2.15091">
        <ele>251</ele>
        <time>2019-12-08T12:06:41Z</time>
      </trkpt>
      <trkpt lat="43.49267" lon="2.1509">
        <ele>251</ele>
        <time>2019-12-08T12:06:45Z</time>
      </trkpt>
      <trkpt lat="43.49297" lon="2.15091">
        <ele>251</ele>
        <time>2019-12-08T12:06:48Z</time>
      </trkpt>
      <trkpt lat="43.49312" lon="2.1509">
        <ele>251</ele>
        <time>2019-12-08T12:06:50Z</time>
      </trkpt>
      <trkpt lat="43.49328" lon="2.15091">
        <ele>250</ele>
        <time>2019-12-08T12:06:53Z</time>
      </trkpt>
      <trkpt lat="43.49363" lon="2.15095">
        <ele>249</ele>
        <time>2019-12-08T12:06:56Z</time>
      </trkpt>
      <trkpt lat="43.4938" lon="2.15103">
        <ele>248</ele>
        <time>2019-12-08T12:06:58Z</time>
      </trkpt>
      <trkpt lat="43.49397" lon="2.15118">
        <ele>246</ele>
        <time>2019-12-08T12:07:00Z</time>
      </trkpt>
      <trkpt lat="43.49409" lon="2.15138">
        <ele>245</ele>
        <time>2019-12-08T12:07:02Z</time>
      </trkpt>
      <trkpt lat="43.49413" lon="2.1515">
        <ele>244</ele>
        <time>2019-12-08T12:07:04Z</time>
      </trkpt>
      <trkpt lat="43.49415" lon="2.15174">
        <ele>243</ele>
        <time>2019-12-08T12:07:05Z</time>
      </trkpt>
      <trkpt lat="43.49415" lon="2.15185">
        <ele>243</ele>
        <time>2019-12-08T12:07:06Z</time>
      </trkpt>
      <trkpt lat="43.49416" lon="2.15205">
        <ele>242</ele>
        <time>2019-12-08T12:07:08Z</time>
      </trkpt>
      <trkpt lat="43.49423" lon="2.15217">
        <ele>243</ele>
        <time>2019-12-08T12:07:10Z</time>
      </trkpt>
      <trkpt lat="43.49427" lon="2.15218">
        <ele>243</ele>
        <time>2019-12-08T12:07:11Z</time>
      </trkpt>
      <trkpt lat="43.49445" lon="2.15217">
        <ele>244</ele>
        <time>2019-12-08T12:07:14Z</time>
      </trkpt>
      <trkpt lat="43.49464" lon="2.15214">
        <ele>244</ele>
        <time>2019-12-08T12:07:17Z</time>
      </trkpt>
      <trkpt lat="43.49481" lon="2.15215">
        <ele>244</ele>
        <time>2019-12-08T12:07:20Z</time>
      </trkpt>
      <trkpt lat="43.49491" lon="2.15218">
        <ele>244</ele>
        <time>2019-12-08T12:07:22Z</time>
      </trkpt>
      <trkpt lat="43.495" lon="2.15225">
        <ele>244</ele>
        <time>2019-12-08T12:07:24Z</time>
      </trkpt>
      <trkpt lat="43.49509" lon="2.15234">
        <ele>244</ele>
        <time>2019-12-08T12:07:27Z</time>
      </trkpt>
      <trkpt lat="43.49519" lon="2.15232">
        <ele>244</ele>
        <time>2019-12-08T12:07:28Z</time>
      </trkpt>
      <trkpt lat="43.49535" lon="2.15223">
        <ele>245</ele>
        <time>2019-12-08T12:07:33Z</time>
      </trkpt>
      <trkpt lat="43.49546" lon="2.15221">
        <ele>245</ele>
        <time>2019-12-08T12:07:36Z</time>
      </trkpt>
      <trkpt lat="43.49554" lon="2.15218">
        <ele>245</ele>
        <time>2019-12-08T12:07:38Z</time>
      </trkpt>
      <trkpt lat="43.49577" lon="2.15193">
        <ele>245</ele>
        <time>2019-12-08T12:07:43Z</time>
      </trkpt>
      <trkpt lat="43.49582" lon="2.15186">
        <ele>244</ele>
        <time>2019-12-08T12:07:45Z</time>
      </trkpt>
      <trkpt lat="43.49582" lon="2.15183">
        <ele>243</ele>
        <time>2019-12-08T12:07:46Z</time>
      </trkpt>
      <trkpt lat="43.4958" lon="2.15174">
        <ele>243</ele>
        <time>2019-12-08T12:07:48Z</time>
      </trkpt>
      <trkpt lat="43.49577" lon="2.15162">
        <ele>242</ele>
        <time>2019-12-08T12:07:50Z</time>
      </trkpt>
      <trkpt lat="43.49564" lon="2.15143">
        <ele>242</ele>
        <time>2019-12-08T12:07:53Z</time>
      </trkpt>
      <trkpt lat="43.49559" lon="2.15136">
        <ele>241</ele>
        <time>2019-12-08T12:07:54Z</time>
      </trkpt>
      <trkpt lat="43.49541" lon="2.15106">
        <ele>241</ele>
        <time>2019-12-08T12:07:58Z</time>
      </trkpt>
      <trkpt lat="43.49541" lon="2.15097">
        <ele>241</ele>
        <time>2019-12-08T12:07:59Z</time>
      </trkpt>
      <trkpt lat="43.49543" lon="2.15089">
        <ele>240</ele>
        <time>2019-12-08T12:08:00Z</time>
      </trkpt>
      <trkpt lat="43.49547" lon="2.15076">
        <ele>239</ele>
        <time>2019-12-08T12:08:02Z</time>
      </trkpt>
      <trkpt lat="43.49549" lon="2.15073">
        <ele>239</ele>
        <time>2019-12-08T12:08:03Z</time>
      </trkpt>
      <trkpt lat="43.4955" lon="2.15071">
        <ele>238</ele>
        <time>2019-12-08T12:08:05Z</time>
      </trkpt>
    </trkseg>
  </trk>
</gpx>